<?xml version="1.0" encoding="UTF-8" standalone="no" ?>
<gpx xmlns="http://www.topografix.com/GPX/1/1" xmlns:xsi="http://www.w3.org/2001/XMLSchema-instance" xsi:schemaLocation="http://www.topografix.com/GPX/1/1 http://www.topografix.com/GPX/1/1/gpx.xsd" version="1.1" creator="VisuGPX - https://www.visugpx.com">
  <metadata>
    <name>sortie CE caagis 20.09.2014</name>
    <desc><![CDATA[depart du mont serein, bascule versant sud via légère ascension, puis que de la descente]]></desc>
  </metadata>
  <trk>
    <name><![CDATA[Untitled]]></name>
    <trkseg>
      <trkpt lat="44.18462" lon="5.26291">
        <ele>1375</ele>
        <time>2014-09-20T07:31:26.000Z</time>
      </trkpt>
      <trkpt lat="44.18462" lon="5.26292">
        <ele>1374.8000488281</ele>
        <time>2014-09-20T07:31:32.000Z</time>
      </trkpt>
      <trkpt lat="44.18462" lon="5.26293">
        <ele>1374.8000488281</ele>
        <time>2014-09-20T07:33:55.000Z</time>
      </trkpt>
      <trkpt lat="44.18463" lon="5.26292">
        <ele>1374.8000488281</ele>
        <time>2014-09-20T07:34:10.000Z</time>
      </trkpt>
      <trkpt lat="44.18464" lon="5.26293">
        <ele>1374.5999755859</ele>
        <time>2014-09-20T07:34:32.000Z</time>
      </trkpt>
      <trkpt lat="44.18462" lon="5.26295">
        <ele>1374.8000488281</ele>
        <time>2014-09-20T07:34:59.000Z</time>
      </trkpt>
      <trkpt lat="44.18464" lon="5.26296">
        <ele>1374.4000244141</ele>
        <time>2014-09-20T07:35:05.000Z</time>
      </trkpt>
      <trkpt lat="44.18463" lon="5.26301">
        <ele>1374.5999755859</ele>
        <time>2014-09-20T07:35:15.000Z</time>
      </trkpt>
      <trkpt lat="44.18462" lon="5.26302">
        <ele>1374.8000488281</ele>
        <time>2014-09-20T07:35:33.000Z</time>
      </trkpt>
      <trkpt lat="44.18446" lon="5.26296">
        <ele>1376.8000488281</ele>
        <time>2014-09-20T07:35:47.000Z</time>
      </trkpt>
      <trkpt lat="44.18446" lon="5.26294">
        <ele>1377</ele>
        <time>2014-09-20T07:35:59.000Z</time>
      </trkpt>
      <trkpt lat="44.18442" lon="5.26285">
        <ele>1377.8000488281</ele>
        <time>2014-09-20T07:36:03.000Z</time>
      </trkpt>
      <trkpt lat="44.1844" lon="5.26281">
        <ele>1378.1999511719</ele>
        <time>2014-09-20T07:36:04.000Z</time>
      </trkpt>
      <trkpt lat="44.18439" lon="5.26277">
        <ele>1378.4000244141</ele>
        <time>2014-09-20T07:36:05.000Z</time>
      </trkpt>
      <trkpt lat="44.18438" lon="5.26273">
        <ele>1378.8000488281</ele>
        <time>2014-09-20T07:36:06.000Z</time>
      </trkpt>
      <trkpt lat="44.18422" lon="5.26236">
        <ele>1381.8000488281</ele>
        <time>2014-09-20T07:36:17.000Z</time>
      </trkpt>
      <trkpt lat="44.18399" lon="5.26222">
        <ele>1384.4000244141</ele>
        <time>2014-09-20T07:36:30.000Z</time>
      </trkpt>
      <trkpt lat="44.18373" lon="5.26228">
        <ele>1386.5999755859</ele>
        <time>2014-09-20T07:36:45.000Z</time>
      </trkpt>
      <trkpt lat="44.1835" lon="5.26236">
        <ele>1389.8000488281</ele>
        <time>2014-09-20T07:36:58.000Z</time>
      </trkpt>
      <trkpt lat="44.1833" lon="5.26213">
        <ele>1392.5999755859</ele>
        <time>2014-09-20T07:37:14.000Z</time>
      </trkpt>
      <trkpt lat="44.18323" lon="5.2616">
        <ele>1394</ele>
        <time>2014-09-20T07:37:34.000Z</time>
      </trkpt>
      <trkpt lat="44.18321" lon="5.26124">
        <ele>1395.5999755859</ele>
        <time>2014-09-20T07:37:49.000Z</time>
      </trkpt>
      <trkpt lat="44.18317" lon="5.26093">
        <ele>1397.1999511719</ele>
        <time>2014-09-20T07:38:02.000Z</time>
      </trkpt>
      <trkpt lat="44.1831" lon="5.26053">
        <ele>1400.8000488281</ele>
        <time>2014-09-20T07:38:19.000Z</time>
      </trkpt>
      <trkpt lat="44.18307" lon="5.26015">
        <ele>1403.4000244141</ele>
        <time>2014-09-20T07:38:34.000Z</time>
      </trkpt>
      <trkpt lat="44.18299" lon="5.25967">
        <ele>1407.8000488281</ele>
        <time>2014-09-20T07:38:53.000Z</time>
      </trkpt>
      <trkpt lat="44.18286" lon="5.25918">
        <ele>1408.5999755859</ele>
        <time>2014-09-20T07:39:12.000Z</time>
      </trkpt>
      <trkpt lat="44.18269" lon="5.25877">
        <ele>1410.4000244141</ele>
        <time>2014-09-20T07:39:29.000Z</time>
      </trkpt>
      <trkpt lat="44.18253" lon="5.25848">
        <ele>1413.5999755859</ele>
        <time>2014-09-20T07:39:43.000Z</time>
      </trkpt>
      <trkpt lat="44.18232" lon="5.25811">
        <ele>1418.4000244141</ele>
        <time>2014-09-20T07:40:02.000Z</time>
      </trkpt>
      <trkpt lat="44.18211" lon="5.25775">
        <ele>1421</ele>
        <time>2014-09-20T07:40:20.000Z</time>
      </trkpt>
      <trkpt lat="44.1819" lon="5.25737">
        <ele>1422.8000488281</ele>
        <time>2014-09-20T07:40:36.000Z</time>
      </trkpt>
      <trkpt lat="44.18164" lon="5.25683">
        <ele>1427.1999511719</ele>
        <time>2014-09-20T07:40:54.000Z</time>
      </trkpt>
      <trkpt lat="44.18147" lon="5.25618">
        <ele>1427.8000488281</ele>
        <time>2014-09-20T07:41:10.000Z</time>
      </trkpt>
      <trkpt lat="44.18123" lon="5.25532">
        <ele>1428.5999755859</ele>
        <time>2014-09-20T07:41:31.000Z</time>
      </trkpt>
      <trkpt lat="44.18114" lon="5.25516">
        <ele>1429</ele>
        <time>2014-09-20T07:41:36.000Z</time>
      </trkpt>
      <trkpt lat="44.18111" lon="5.25516">
        <ele>1429.8000488281</ele>
        <time>2014-09-20T07:41:37.000Z</time>
      </trkpt>
      <trkpt lat="44.18109" lon="5.25517">
        <ele>1430.8000488281</ele>
        <time>2014-09-20T07:41:38.000Z</time>
      </trkpt>
      <trkpt lat="44.18107" lon="5.2552">
        <ele>1431.5999755859</ele>
        <time>2014-09-20T07:41:39.000Z</time>
      </trkpt>
      <trkpt lat="44.18105" lon="5.25528">
        <ele>1432.8000488281</ele>
        <time>2014-09-20T07:41:41.000Z</time>
      </trkpt>
      <trkpt lat="44.18106" lon="5.25532">
        <ele>1433.1999511719</ele>
        <time>2014-09-20T07:41:42.000Z</time>
      </trkpt>
      <trkpt lat="44.18106" lon="5.25537">
        <ele>1433.5999755859</ele>
        <time>2014-09-20T07:41:43.000Z</time>
      </trkpt>
      <trkpt lat="44.18111" lon="5.25586">
        <ele>1435.4000244141</ele>
        <time>2014-09-20T07:41:55.000Z</time>
      </trkpt>
      <trkpt lat="44.18112" lon="5.25647">
        <ele>1439</ele>
        <time>2014-09-20T07:42:09.000Z</time>
      </trkpt>
      <trkpt lat="44.18113" lon="5.25706">
        <ele>1442.1999511719</ele>
        <time>2014-09-20T07:42:24.000Z</time>
      </trkpt>
      <trkpt lat="44.18112" lon="5.25773">
        <ele>1443.4000244141</ele>
        <time>2014-09-20T07:42:40.000Z</time>
      </trkpt>
      <trkpt lat="44.18105" lon="5.25826">
        <ele>1446.5999755859</ele>
        <time>2014-09-20T07:42:54.000Z</time>
      </trkpt>
      <trkpt lat="44.18098" lon="5.25831">
        <ele>1449.8000488281</ele>
        <time>2014-09-20T07:42:57.000Z</time>
      </trkpt>
      <trkpt lat="44.18097" lon="5.2583">
        <ele>1450.5999755859</ele>
        <time>2014-09-20T07:42:58.000Z</time>
      </trkpt>
      <trkpt lat="44.18095" lon="5.25827">
        <ele>1451.1999511719</ele>
        <time>2014-09-20T07:42:59.000Z</time>
      </trkpt>
      <trkpt lat="44.18095" lon="5.25823">
        <ele>1451.4000244141</ele>
        <time>2014-09-20T07:43:00.000Z</time>
      </trkpt>
      <trkpt lat="44.18094" lon="5.25818">
        <ele>1451.5999755859</ele>
        <time>2014-09-20T07:43:01.000Z</time>
      </trkpt>
      <trkpt lat="44.18094" lon="5.25813">
        <ele>1451.5999755859</ele>
        <time>2014-09-20T07:43:02.000Z</time>
      </trkpt>
      <trkpt lat="44.18094" lon="5.25808">
        <ele>1451.8000488281</ele>
        <time>2014-09-20T07:43:03.000Z</time>
      </trkpt>
      <trkpt lat="44.18094" lon="5.25803">
        <ele>1451.8000488281</ele>
        <time>2014-09-20T07:43:04.000Z</time>
      </trkpt>
      <trkpt lat="44.18093" lon="5.25799">
        <ele>1452</ele>
        <time>2014-09-20T07:43:05.000Z</time>
      </trkpt>
      <trkpt lat="44.18092" lon="5.25753">
        <ele>1452</ele>
        <time>2014-09-20T07:43:15.000Z</time>
      </trkpt>
      <trkpt lat="44.18094" lon="5.25692">
        <ele>1449</ele>
        <time>2014-09-20T07:43:28.000Z</time>
      </trkpt>
      <trkpt lat="44.18097" lon="5.25657">
        <ele>1445.8000488281</ele>
        <time>2014-09-20T07:43:33.000Z</time>
      </trkpt>
      <trkpt lat="44.18097" lon="5.25648">
        <ele>1445.1999511719</ele>
        <time>2014-09-20T07:43:34.000Z</time>
      </trkpt>
      <trkpt lat="44.1809" lon="5.25599">
        <ele>1444</ele>
        <time>2014-09-20T07:43:40.000Z</time>
      </trkpt>
      <trkpt lat="44.18088" lon="5.25593">
        <ele>1444.4000244141</ele>
        <time>2014-09-20T07:43:41.000Z</time>
      </trkpt>
      <trkpt lat="44.18086" lon="5.25587">
        <ele>1445</ele>
        <time>2014-09-20T07:43:42.000Z</time>
      </trkpt>
      <trkpt lat="44.18083" lon="5.25582">
        <ele>1445.8000488281</ele>
        <time>2014-09-20T07:43:43.000Z</time>
      </trkpt>
      <trkpt lat="44.1808" lon="5.25578">
        <ele>1446.4000244141</ele>
        <time>2014-09-20T07:43:44.000Z</time>
      </trkpt>
      <trkpt lat="44.18053" lon="5.25548">
        <ele>1455</ele>
        <time>2014-09-20T07:43:55.000Z</time>
      </trkpt>
      <trkpt lat="44.18027" lon="5.25528">
        <ele>1461.4000244141</ele>
        <time>2014-09-20T07:44:07.000Z</time>
      </trkpt>
      <trkpt lat="44.18014" lon="5.25521">
        <ele>1466.4000244141</ele>
        <time>2014-09-20T07:44:14.000Z</time>
      </trkpt>
      <trkpt lat="44.18012" lon="5.2552">
        <ele>1467.4000244141</ele>
        <time>2014-09-20T07:44:15.000Z</time>
      </trkpt>
      <trkpt lat="44.1801" lon="5.25519">
        <ele>1468</ele>
        <time>2014-09-20T07:44:16.000Z</time>
      </trkpt>
      <trkpt lat="44.18008" lon="5.25517">
        <ele>1468.8000488281</ele>
        <time>2014-09-20T07:44:17.000Z</time>
      </trkpt>
      <trkpt lat="44.18005" lon="5.25516">
        <ele>1470</ele>
        <time>2014-09-20T07:44:18.000Z</time>
      </trkpt>
      <trkpt lat="44.18003" lon="5.25515">
        <ele>1470.8000488281</ele>
        <time>2014-09-20T07:44:19.000Z</time>
      </trkpt>
      <trkpt lat="44.18001" lon="5.25513">
        <ele>1471.5999755859</ele>
        <time>2014-09-20T07:44:20.000Z</time>
      </trkpt>
      <trkpt lat="44.17998" lon="5.25512">
        <ele>1472.5999755859</ele>
        <time>2014-09-20T07:44:21.000Z</time>
      </trkpt>
      <trkpt lat="44.17991" lon="5.25506">
        <ele>1475</ele>
        <time>2014-09-20T07:44:25.000Z</time>
      </trkpt>
      <trkpt lat="44.17989" lon="5.25504">
        <ele>1475.8000488281</ele>
        <time>2014-09-20T07:44:26.000Z</time>
      </trkpt>
      <trkpt lat="44.17988" lon="5.25503">
        <ele>1476.1999511719</ele>
        <time>2014-09-20T07:44:27.000Z</time>
      </trkpt>
      <trkpt lat="44.17986" lon="5.25502">
        <ele>1476.4000244141</ele>
        <time>2014-09-20T07:44:28.000Z</time>
      </trkpt>
      <trkpt lat="44.17985" lon="5.255">
        <ele>1476.8000488281</ele>
        <time>2014-09-20T07:44:29.000Z</time>
      </trkpt>
      <trkpt lat="44.17984" lon="5.25498">
        <ele>1476.8000488281</ele>
        <time>2014-09-20T07:44:30.000Z</time>
      </trkpt>
      <trkpt lat="44.17983" lon="5.25496">
        <ele>1477.1999511719</ele>
        <time>2014-09-20T07:44:31.000Z</time>
      </trkpt>
      <trkpt lat="44.17981" lon="5.25495">
        <ele>1477.5999755859</ele>
        <time>2014-09-20T07:44:32.000Z</time>
      </trkpt>
      <trkpt lat="44.17975" lon="5.25482">
        <ele>1478.8000488281</ele>
        <time>2014-09-20T07:44:38.000Z</time>
      </trkpt>
      <trkpt lat="44.17974" lon="5.2548">
        <ele>1478.8000488281</ele>
        <time>2014-09-20T07:44:39.000Z</time>
      </trkpt>
      <trkpt lat="44.17966" lon="5.25446">
        <ele>1477.4000244141</ele>
        <time>2014-09-20T07:44:53.000Z</time>
      </trkpt>
      <trkpt lat="44.17963" lon="5.25438">
        <ele>1477.8000488281</ele>
        <time>2014-09-20T07:44:56.000Z</time>
      </trkpt>
      <trkpt lat="44.17962" lon="5.25437">
        <ele>1478.1999511719</ele>
        <time>2014-09-20T07:44:57.000Z</time>
      </trkpt>
      <trkpt lat="44.17962" lon="5.25434">
        <ele>1478.1999511719</ele>
        <time>2014-09-20T07:44:58.000Z</time>
      </trkpt>
      <trkpt lat="44.17961" lon="5.25432">
        <ele>1478.4000244141</ele>
        <time>2014-09-20T07:44:59.000Z</time>
      </trkpt>
      <trkpt lat="44.17959" lon="5.2543">
        <ele>1478.8000488281</ele>
        <time>2014-09-20T07:45:00.000Z</time>
      </trkpt>
      <trkpt lat="44.17958" lon="5.25428">
        <ele>1479.1999511719</ele>
        <time>2014-09-20T07:45:01.000Z</time>
      </trkpt>
      <trkpt lat="44.1795" lon="5.25394">
        <ele>1479.1999511719</ele>
        <time>2014-09-20T07:45:14.000Z</time>
      </trkpt>
      <trkpt lat="44.17943" lon="5.25378">
        <ele>1481.1999511719</ele>
        <time>2014-09-20T07:45:21.000Z</time>
      </trkpt>
      <trkpt lat="44.17942" lon="5.25376">
        <ele>1481.5999755859</ele>
        <time>2014-09-20T07:45:22.000Z</time>
      </trkpt>
      <trkpt lat="44.17941" lon="5.25374">
        <ele>1482.1999511719</ele>
        <time>2014-09-20T07:45:23.000Z</time>
      </trkpt>
      <trkpt lat="44.1794" lon="5.25372">
        <ele>1482.8000488281</ele>
        <time>2014-09-20T07:45:24.000Z</time>
      </trkpt>
      <trkpt lat="44.17939" lon="5.25369">
        <ele>1483.4000244141</ele>
        <time>2014-09-20T07:45:25.000Z</time>
      </trkpt>
      <trkpt lat="44.17937" lon="5.25368">
        <ele>1484.1999511719</ele>
        <time>2014-09-20T07:45:26.000Z</time>
      </trkpt>
      <trkpt lat="44.17929" lon="5.25337">
        <ele>1487.8000488281</ele>
        <time>2014-09-20T07:45:38.000Z</time>
      </trkpt>
      <trkpt lat="44.17923" lon="5.25299">
        <ele>1489.4000244141</ele>
        <time>2014-09-20T07:45:53.000Z</time>
      </trkpt>
      <trkpt lat="44.17918" lon="5.2527">
        <ele>1490</ele>
        <time>2014-09-20T07:46:06.000Z</time>
      </trkpt>
      <trkpt lat="44.17912" lon="5.25238">
        <ele>1491.4000244141</ele>
        <time>2014-09-20T07:46:20.000Z</time>
      </trkpt>
      <trkpt lat="44.1791" lon="5.25234">
        <ele>1492.5999755859</ele>
        <time>2014-09-20T07:46:22.000Z</time>
      </trkpt>
      <trkpt lat="44.17909" lon="5.25232">
        <ele>1493</ele>
        <time>2014-09-20T07:46:23.000Z</time>
      </trkpt>
      <trkpt lat="44.17908" lon="5.25231">
        <ele>1493.5999755859</ele>
        <time>2014-09-20T07:46:24.000Z</time>
      </trkpt>
      <trkpt lat="44.17907" lon="5.25229">
        <ele>1494.1999511719</ele>
        <time>2014-09-20T07:46:25.000Z</time>
      </trkpt>
      <trkpt lat="44.17906" lon="5.25227">
        <ele>1494.8000488281</ele>
        <time>2014-09-20T07:46:26.000Z</time>
      </trkpt>
      <trkpt lat="44.17905" lon="5.25225">
        <ele>1495.1999511719</ele>
        <time>2014-09-20T07:46:27.000Z</time>
      </trkpt>
      <trkpt lat="44.17904" lon="5.25223">
        <ele>1495.8000488281</ele>
        <time>2014-09-20T07:46:28.000Z</time>
      </trkpt>
      <trkpt lat="44.17903" lon="5.2522">
        <ele>1496</ele>
        <time>2014-09-20T07:46:29.000Z</time>
      </trkpt>
      <trkpt lat="44.17902" lon="5.25218">
        <ele>1496.1999511719</ele>
        <time>2014-09-20T07:46:30.000Z</time>
      </trkpt>
      <trkpt lat="44.17901" lon="5.25215">
        <ele>1496.5999755859</ele>
        <time>2014-09-20T07:46:31.000Z</time>
      </trkpt>
      <trkpt lat="44.17894" lon="5.25179">
        <ele>1499.8000488281</ele>
        <time>2014-09-20T07:46:46.000Z</time>
      </trkpt>
      <trkpt lat="44.17896" lon="5.25159">
        <ele>1497.8000488281</ele>
        <time>2014-09-20T07:46:55.000Z</time>
      </trkpt>
      <trkpt lat="44.17896" lon="5.25157">
        <ele>1497.8000488281</ele>
        <time>2014-09-20T07:46:56.000Z</time>
      </trkpt>
      <trkpt lat="44.17895" lon="5.25152">
        <ele>1498</ele>
        <time>2014-09-20T07:46:59.000Z</time>
      </trkpt>
      <trkpt lat="44.17895" lon="5.25151">
        <ele>1498.5999755859</ele>
        <time>2014-09-20T07:47:00.000Z</time>
      </trkpt>
      <trkpt lat="44.17894" lon="5.2515">
        <ele>1498.8000488281</ele>
        <time>2014-09-20T07:47:01.000Z</time>
      </trkpt>
      <trkpt lat="44.17894" lon="5.25149">
        <ele>1499.1999511719</ele>
        <time>2014-09-20T07:47:02.000Z</time>
      </trkpt>
      <trkpt lat="44.17893" lon="5.25146">
        <ele>1499.1999511719</ele>
        <time>2014-09-20T07:47:03.000Z</time>
      </trkpt>
      <trkpt lat="44.17893" lon="5.25144">
        <ele>1499.4000244141</ele>
        <time>2014-09-20T07:47:04.000Z</time>
      </trkpt>
      <trkpt lat="44.17893" lon="5.25142">
        <ele>1499.5999755859</ele>
        <time>2014-09-20T07:47:05.000Z</time>
      </trkpt>
      <trkpt lat="44.17893" lon="5.2514">
        <ele>1499.8000488281</ele>
        <time>2014-09-20T07:47:06.000Z</time>
      </trkpt>
      <trkpt lat="44.17892" lon="5.25138">
        <ele>1500</ele>
        <time>2014-09-20T07:47:07.000Z</time>
      </trkpt>
      <trkpt lat="44.17893" lon="5.25135">
        <ele>1500</ele>
        <time>2014-09-20T07:47:08.000Z</time>
      </trkpt>
      <trkpt lat="44.17893" lon="5.25133">
        <ele>1499.5999755859</ele>
        <time>2014-09-20T07:47:09.000Z</time>
      </trkpt>
      <trkpt lat="44.17894" lon="5.2513">
        <ele>1499.4000244141</ele>
        <time>2014-09-20T07:47:10.000Z</time>
      </trkpt>
      <trkpt lat="44.17894" lon="5.25127">
        <ele>1499.1999511719</ele>
        <time>2014-09-20T07:47:11.000Z</time>
      </trkpt>
      <trkpt lat="44.17894" lon="5.25124">
        <ele>1499</ele>
        <time>2014-09-20T07:47:12.000Z</time>
      </trkpt>
      <trkpt lat="44.17895" lon="5.2511">
        <ele>1498.4000244141</ele>
        <time>2014-09-20T07:47:17.000Z</time>
      </trkpt>
      <trkpt lat="44.17895" lon="5.25107">
        <ele>1498.1999511719</ele>
        <time>2014-09-20T07:47:18.000Z</time>
      </trkpt>
      <trkpt lat="44.17895" lon="5.25105">
        <ele>1498.1999511719</ele>
        <time>2014-09-20T07:47:19.000Z</time>
      </trkpt>
      <trkpt lat="44.17896" lon="5.25102">
        <ele>1498</ele>
        <time>2014-09-20T07:47:20.000Z</time>
      </trkpt>
      <trkpt lat="44.17896" lon="5.25099">
        <ele>1497.8000488281</ele>
        <time>2014-09-20T07:47:21.000Z</time>
      </trkpt>
      <trkpt lat="44.17895" lon="5.25097">
        <ele>1498</ele>
        <time>2014-09-20T07:47:22.000Z</time>
      </trkpt>
      <trkpt lat="44.17896" lon="5.25094">
        <ele>1497.8000488281</ele>
        <time>2014-09-20T07:47:23.000Z</time>
      </trkpt>
      <trkpt lat="44.17896" lon="5.25091">
        <ele>1497.8000488281</ele>
        <time>2014-09-20T07:47:24.000Z</time>
      </trkpt>
      <trkpt lat="44.17892" lon="5.2507">
        <ele>1500.4000244141</ele>
        <time>2014-09-20T07:47:34.000Z</time>
      </trkpt>
      <trkpt lat="44.17891" lon="5.25068">
        <ele>1501</ele>
        <time>2014-09-20T07:47:35.000Z</time>
      </trkpt>
      <trkpt lat="44.17884" lon="5.25047">
        <ele>1506.1999511719</ele>
        <time>2014-09-20T07:47:44.000Z</time>
      </trkpt>
      <trkpt lat="44.17883" lon="5.25044">
        <ele>1506.8000488281</ele>
        <time>2014-09-20T07:47:45.000Z</time>
      </trkpt>
      <trkpt lat="44.17882" lon="5.25042">
        <ele>1507</ele>
        <time>2014-09-20T07:47:46.000Z</time>
      </trkpt>
      <trkpt lat="44.17881" lon="5.25039">
        <ele>1507.4000244141</ele>
        <time>2014-09-20T07:47:47.000Z</time>
      </trkpt>
      <trkpt lat="44.17881" lon="5.25037">
        <ele>1507.5999755859</ele>
        <time>2014-09-20T07:47:48.000Z</time>
      </trkpt>
      <trkpt lat="44.1788" lon="5.25034">
        <ele>1507.5999755859</ele>
        <time>2014-09-20T07:47:49.000Z</time>
      </trkpt>
      <trkpt lat="44.1788" lon="5.25031">
        <ele>1507.5999755859</ele>
        <time>2014-09-20T07:47:50.000Z</time>
      </trkpt>
      <trkpt lat="44.17879" lon="5.25029">
        <ele>1507.8000488281</ele>
        <time>2014-09-20T07:47:51.000Z</time>
      </trkpt>
      <trkpt lat="44.17879" lon="5.25026">
        <ele>1508</ele>
        <time>2014-09-20T07:47:52.000Z</time>
      </trkpt>
      <trkpt lat="44.17878" lon="5.25024">
        <ele>1508.1999511719</ele>
        <time>2014-09-20T07:47:53.000Z</time>
      </trkpt>
      <trkpt lat="44.17867" lon="5.24998">
        <ele>1512.1999511719</ele>
        <time>2014-09-20T07:48:05.000Z</time>
      </trkpt>
      <trkpt lat="44.17851" lon="5.24966">
        <ele>1517.8000488281</ele>
        <time>2014-09-20T07:48:20.000Z</time>
      </trkpt>
      <trkpt lat="44.17838" lon="5.24929">
        <ele>1519.4000244141</ele>
        <time>2014-09-20T07:48:35.000Z</time>
      </trkpt>
      <trkpt lat="44.17821" lon="5.24902">
        <ele>1524</ele>
        <time>2014-09-20T07:48:49.000Z</time>
      </trkpt>
      <trkpt lat="44.17804" lon="5.24878">
        <ele>1528.4000244141</ele>
        <time>2014-09-20T07:49:03.000Z</time>
      </trkpt>
      <trkpt lat="44.17792" lon="5.24854">
        <ele>1529</ele>
        <time>2014-09-20T07:49:16.000Z</time>
      </trkpt>
      <trkpt lat="44.17788" lon="5.24848">
        <ele>1529.5999755859</ele>
        <time>2014-09-20T07:49:20.000Z</time>
      </trkpt>
      <trkpt lat="44.17787" lon="5.24847">
        <ele>1529.8000488281</ele>
        <time>2014-09-20T07:49:21.000Z</time>
      </trkpt>
      <trkpt lat="44.17778" lon="5.24837">
        <ele>1531.1999511719</ele>
        <time>2014-09-20T07:49:28.000Z</time>
      </trkpt>
      <trkpt lat="44.17777" lon="5.24836">
        <ele>1531.4000244141</ele>
        <time>2014-09-20T07:49:29.000Z</time>
      </trkpt>
      <trkpt lat="44.17776" lon="5.24834">
        <ele>1531.5999755859</ele>
        <time>2014-09-20T07:49:30.000Z</time>
      </trkpt>
      <trkpt lat="44.17773" lon="5.24829">
        <ele>1532.1999511719</ele>
        <time>2014-09-20T07:49:33.000Z</time>
      </trkpt>
      <trkpt lat="44.17772" lon="5.24827">
        <ele>1532.4000244141</ele>
        <time>2014-09-20T07:49:34.000Z</time>
      </trkpt>
      <trkpt lat="44.17755" lon="5.248">
        <ele>1534.8000488281</ele>
        <time>2014-09-20T07:49:49.000Z</time>
      </trkpt>
      <trkpt lat="44.17739" lon="5.24777">
        <ele>1538.5999755859</ele>
        <time>2014-09-20T07:50:02.000Z</time>
      </trkpt>
      <trkpt lat="44.17729" lon="5.24763">
        <ele>1541.1999511719</ele>
        <time>2014-09-20T07:50:10.000Z</time>
      </trkpt>
      <trkpt lat="44.17728" lon="5.24762">
        <ele>1541.5999755859</ele>
        <time>2014-09-20T07:50:11.000Z</time>
      </trkpt>
      <trkpt lat="44.17727" lon="5.2476">
        <ele>1542</ele>
        <time>2014-09-20T07:50:12.000Z</time>
      </trkpt>
      <trkpt lat="44.17726" lon="5.24758">
        <ele>1542.1999511719</ele>
        <time>2014-09-20T07:50:13.000Z</time>
      </trkpt>
      <trkpt lat="44.17725" lon="5.24757">
        <ele>1542.5999755859</ele>
        <time>2014-09-20T07:50:14.000Z</time>
      </trkpt>
      <trkpt lat="44.17723" lon="5.24755">
        <ele>1542.8000488281</ele>
        <time>2014-09-20T07:50:15.000Z</time>
      </trkpt>
      <trkpt lat="44.17711" lon="5.24731">
        <ele>1545</ele>
        <time>2014-09-20T07:50:28.000Z</time>
      </trkpt>
      <trkpt lat="44.1771" lon="5.24729">
        <ele>1545</ele>
        <time>2014-09-20T07:50:29.000Z</time>
      </trkpt>
      <trkpt lat="44.17709" lon="5.24727">
        <ele>1545.5999755859</ele>
        <time>2014-09-20T07:50:30.000Z</time>
      </trkpt>
      <trkpt lat="44.17708" lon="5.24726">
        <ele>1545.8000488281</ele>
        <time>2014-09-20T07:50:31.000Z</time>
      </trkpt>
      <trkpt lat="44.17706" lon="5.24724">
        <ele>1546</ele>
        <time>2014-09-20T07:50:32.000Z</time>
      </trkpt>
      <trkpt lat="44.17705" lon="5.24722">
        <ele>1546.4000244141</ele>
        <time>2014-09-20T07:50:33.000Z</time>
      </trkpt>
      <trkpt lat="44.17704" lon="5.2472">
        <ele>1546.5999755859</ele>
        <time>2014-09-20T07:50:34.000Z</time>
      </trkpt>
      <trkpt lat="44.17702" lon="5.24716">
        <ele>1547</ele>
        <time>2014-09-20T07:50:36.000Z</time>
      </trkpt>
      <trkpt lat="44.17701" lon="5.24714">
        <ele>1547</ele>
        <time>2014-09-20T07:50:37.000Z</time>
      </trkpt>
      <trkpt lat="44.177" lon="5.24713">
        <ele>1547.4000244141</ele>
        <time>2014-09-20T07:50:38.000Z</time>
      </trkpt>
      <trkpt lat="44.17699" lon="5.24711">
        <ele>1547.4000244141</ele>
        <time>2014-09-20T07:50:39.000Z</time>
      </trkpt>
      <trkpt lat="44.17698" lon="5.24709">
        <ele>1547.5999755859</ele>
        <time>2014-09-20T07:50:40.000Z</time>
      </trkpt>
      <trkpt lat="44.17686" lon="5.2468">
        <ele>1547.4000244141</ele>
        <time>2014-09-20T07:50:53.000Z</time>
      </trkpt>
      <trkpt lat="44.17684" lon="5.24671">
        <ele>1546.1999511719</ele>
        <time>2014-09-20T07:50:57.000Z</time>
      </trkpt>
      <trkpt lat="44.17683" lon="5.24669">
        <ele>1546.1999511719</ele>
        <time>2014-09-20T07:50:58.000Z</time>
      </trkpt>
      <trkpt lat="44.17682" lon="5.24667">
        <ele>1546.4000244141</ele>
        <time>2014-09-20T07:50:59.000Z</time>
      </trkpt>
      <trkpt lat="44.17681" lon="5.24665">
        <ele>1546.5999755859</ele>
        <time>2014-09-20T07:51:00.000Z</time>
      </trkpt>
      <trkpt lat="44.17679" lon="5.24663">
        <ele>1546.8000488281</ele>
        <time>2014-09-20T07:51:01.000Z</time>
      </trkpt>
      <trkpt lat="44.17678" lon="5.24661">
        <ele>1547</ele>
        <time>2014-09-20T07:51:02.000Z</time>
      </trkpt>
      <trkpt lat="44.17677" lon="5.2466">
        <ele>1547</ele>
        <time>2014-09-20T07:51:03.000Z</time>
      </trkpt>
      <trkpt lat="44.17676" lon="5.24659">
        <ele>1547.1999511719</ele>
        <time>2014-09-20T07:51:04.000Z</time>
      </trkpt>
      <trkpt lat="44.17675" lon="5.24657">
        <ele>1547.5999755859</ele>
        <time>2014-09-20T07:51:05.000Z</time>
      </trkpt>
      <trkpt lat="44.17674" lon="5.24656">
        <ele>1548.1999511719</ele>
        <time>2014-09-20T07:51:06.000Z</time>
      </trkpt>
      <trkpt lat="44.17673" lon="5.24655">
        <ele>1548.5999755859</ele>
        <time>2014-09-20T07:51:07.000Z</time>
      </trkpt>
      <trkpt lat="44.17672" lon="5.24654">
        <ele>1548.8000488281</ele>
        <time>2014-09-20T07:51:08.000Z</time>
      </trkpt>
      <trkpt lat="44.1767" lon="5.24653">
        <ele>1549.1999511719</ele>
        <time>2014-09-20T07:51:09.000Z</time>
      </trkpt>
      <trkpt lat="44.17668" lon="5.24651">
        <ele>1550.1999511719</ele>
        <time>2014-09-20T07:51:24.000Z</time>
      </trkpt>
      <trkpt lat="44.17666" lon="5.2465">
        <ele>1550.5999755859</ele>
        <time>2014-09-20T07:51:44.000Z</time>
      </trkpt>
      <trkpt lat="44.17667" lon="5.24648">
        <ele>1550</ele>
        <time>2014-09-20T07:52:01.000Z</time>
      </trkpt>
      <trkpt lat="44.17668" lon="5.24645">
        <ele>1548.8000488281</ele>
        <time>2014-09-20T07:52:23.000Z</time>
      </trkpt>
      <trkpt lat="44.17668" lon="5.24647">
        <ele>1549</ele>
        <time>2014-09-20T07:52:49.000Z</time>
      </trkpt>
      <trkpt lat="44.17667" lon="5.2465">
        <ele>1550.5999755859</ele>
        <time>2014-09-20T07:53:09.000Z</time>
      </trkpt>
      <trkpt lat="44.17666" lon="5.24652">
        <ele>1551.1999511719</ele>
        <time>2014-09-20T07:53:34.000Z</time>
      </trkpt>
      <trkpt lat="44.17667" lon="5.24648">
        <ele>1549.8000488281</ele>
        <time>2014-09-20T07:53:58.000Z</time>
      </trkpt>
      <trkpt lat="44.17665" lon="5.24648">
        <ele>1550.8000488281</ele>
        <time>2014-09-20T07:54:19.000Z</time>
      </trkpt>
      <trkpt lat="44.17664" lon="5.2465">
        <ele>1551.5999755859</ele>
        <time>2014-09-20T07:54:44.000Z</time>
      </trkpt>
      <trkpt lat="44.17665" lon="5.24649">
        <ele>1551.1999511719</ele>
        <time>2014-09-20T07:55:13.000Z</time>
      </trkpt>
      <trkpt lat="44.17663" lon="5.24648">
        <ele>1552</ele>
        <time>2014-09-20T07:55:31.000Z</time>
      </trkpt>
      <trkpt lat="44.17662" lon="5.24647">
        <ele>1552.4000244141</ele>
        <time>2014-09-20T07:55:32.000Z</time>
      </trkpt>
      <trkpt lat="44.17661" lon="5.24646">
        <ele>1552.5999755859</ele>
        <time>2014-09-20T07:55:33.000Z</time>
      </trkpt>
      <trkpt lat="44.17643" lon="5.24595">
        <ele>1551</ele>
        <time>2014-09-20T07:55:46.000Z</time>
      </trkpt>
      <trkpt lat="44.17637" lon="5.24575">
        <ele>1550.4000244141</ele>
        <time>2014-09-20T07:55:50.000Z</time>
      </trkpt>
      <trkpt lat="44.17633" lon="5.24564">
        <ele>1550.1999511719</ele>
        <time>2014-09-20T07:55:52.000Z</time>
      </trkpt>
      <trkpt lat="44.17625" lon="5.24546">
        <ele>1550.4000244141</ele>
        <time>2014-09-20T07:55:55.000Z</time>
      </trkpt>
      <trkpt lat="44.17623" lon="5.2454">
        <ele>1550.4000244141</ele>
        <time>2014-09-20T07:55:56.000Z</time>
      </trkpt>
      <trkpt lat="44.1762" lon="5.24529">
        <ele>1549.5999755859</ele>
        <time>2014-09-20T07:55:58.000Z</time>
      </trkpt>
      <trkpt lat="44.17618" lon="5.24524">
        <ele>1549.4000244141</ele>
        <time>2014-09-20T07:55:59.000Z</time>
      </trkpt>
      <trkpt lat="44.17616" lon="5.24517">
        <ele>1548.8000488281</ele>
        <time>2014-09-20T07:56:00.000Z</time>
      </trkpt>
      <trkpt lat="44.17609" lon="5.24495">
        <ele>1547.4000244141</ele>
        <time>2014-09-20T07:56:03.000Z</time>
      </trkpt>
      <trkpt lat="44.17607" lon="5.24488">
        <ele>1547</ele>
        <time>2014-09-20T07:56:04.000Z</time>
      </trkpt>
      <trkpt lat="44.17591" lon="5.24447">
        <ele>1543.8000488281</ele>
        <time>2014-09-20T07:56:10.000Z</time>
      </trkpt>
      <trkpt lat="44.17588" lon="5.24441">
        <ele>1543.5999755859</ele>
        <time>2014-09-20T07:56:11.000Z</time>
      </trkpt>
      <trkpt lat="44.17584" lon="5.24434">
        <ele>1543</ele>
        <time>2014-09-20T07:56:12.000Z</time>
      </trkpt>
      <trkpt lat="44.1756" lon="5.24383">
        <ele>1539.5999755859</ele>
        <time>2014-09-20T07:56:19.000Z</time>
      </trkpt>
      <trkpt lat="44.17556" lon="5.24377">
        <ele>1539.5999755859</ele>
        <time>2014-09-20T07:56:20.000Z</time>
      </trkpt>
      <trkpt lat="44.1755" lon="5.2437">
        <ele>1539.8000488281</ele>
        <time>2014-09-20T07:56:21.000Z</time>
      </trkpt>
      <trkpt lat="44.17545" lon="5.24364">
        <ele>1539.8000488281</ele>
        <time>2014-09-20T07:56:22.000Z</time>
      </trkpt>
      <trkpt lat="44.17541" lon="5.24358">
        <ele>1539.5999755859</ele>
        <time>2014-09-20T07:56:23.000Z</time>
      </trkpt>
      <trkpt lat="44.17536" lon="5.24351">
        <ele>1539.8000488281</ele>
        <time>2014-09-20T07:56:24.000Z</time>
      </trkpt>
      <trkpt lat="44.17527" lon="5.24339">
        <ele>1539.4000244141</ele>
        <time>2014-09-20T07:56:26.000Z</time>
      </trkpt>
      <trkpt lat="44.17519" lon="5.24328">
        <ele>1538.1999511719</ele>
        <time>2014-09-20T07:56:28.000Z</time>
      </trkpt>
      <trkpt lat="44.17514" lon="5.24322">
        <ele>1538.1999511719</ele>
        <time>2014-09-20T07:56:29.000Z</time>
      </trkpt>
      <trkpt lat="44.17462" lon="5.24276">
        <ele>1539.5999755859</ele>
        <time>2014-09-20T07:56:38.000Z</time>
      </trkpt>
      <trkpt lat="44.17423" lon="5.24224">
        <ele>1540</ele>
        <time>2014-09-20T07:56:47.000Z</time>
      </trkpt>
      <trkpt lat="44.17422" lon="5.24216">
        <ele>1537.8000488281</ele>
        <time>2014-09-20T07:56:48.000Z</time>
      </trkpt>
      <trkpt lat="44.17422" lon="5.24208">
        <ele>1536</ele>
        <time>2014-09-20T07:56:49.000Z</time>
      </trkpt>
      <trkpt lat="44.17422" lon="5.24199">
        <ele>1534.4000244141</ele>
        <time>2014-09-20T07:56:50.000Z</time>
      </trkpt>
      <trkpt lat="44.17423" lon="5.2419">
        <ele>1533.1999511719</ele>
        <time>2014-09-20T07:56:51.000Z</time>
      </trkpt>
      <trkpt lat="44.17423" lon="5.24181">
        <ele>1531.8000488281</ele>
        <time>2014-09-20T07:56:52.000Z</time>
      </trkpt>
      <trkpt lat="44.17423" lon="5.24172">
        <ele>1530.4000244141</ele>
        <time>2014-09-20T07:56:53.000Z</time>
      </trkpt>
      <trkpt lat="44.17424" lon="5.24154">
        <ele>1527.4000244141</ele>
        <time>2014-09-20T07:56:55.000Z</time>
      </trkpt>
      <trkpt lat="44.17425" lon="5.24145">
        <ele>1525.8000488281</ele>
        <time>2014-09-20T07:56:56.000Z</time>
      </trkpt>
      <trkpt lat="44.17426" lon="5.24115">
        <ele>1521</ele>
        <time>2014-09-20T07:56:59.000Z</time>
      </trkpt>
      <trkpt lat="44.17424" lon="5.24105">
        <ele>1520.4000244141</ele>
        <time>2014-09-20T07:57:00.000Z</time>
      </trkpt>
      <trkpt lat="44.17424" lon="5.24095">
        <ele>1520</ele>
        <time>2014-09-20T07:57:01.000Z</time>
      </trkpt>
      <trkpt lat="44.17423" lon="5.24085">
        <ele>1519.1999511719</ele>
        <time>2014-09-20T07:57:02.000Z</time>
      </trkpt>
      <trkpt lat="44.17422" lon="5.24074">
        <ele>1518.8000488281</ele>
        <time>2014-09-20T07:57:03.000Z</time>
      </trkpt>
      <trkpt lat="44.17418" lon="5.24042">
        <ele>1518.1999511719</ele>
        <time>2014-09-20T07:57:06.000Z</time>
      </trkpt>
      <trkpt lat="44.17406" lon="5.24004">
        <ele>1516.5999755859</ele>
        <time>2014-09-20T07:57:10.000Z</time>
      </trkpt>
      <trkpt lat="44.17392" lon="5.23973">
        <ele>1519.1999511719</ele>
        <time>2014-09-20T07:57:14.000Z</time>
      </trkpt>
      <trkpt lat="44.17384" lon="5.23957">
        <ele>1519.8000488281</ele>
        <time>2014-09-20T07:57:16.000Z</time>
      </trkpt>
      <trkpt lat="44.17353" lon="5.23899">
        <ele>1518.1999511719</ele>
        <time>2014-09-20T07:57:24.000Z</time>
      </trkpt>
      <trkpt lat="44.17349" lon="5.23892">
        <ele>1517.5999755859</ele>
        <time>2014-09-20T07:57:25.000Z</time>
      </trkpt>
      <trkpt lat="44.17325" lon="5.23849">
        <ele>1514.5999755859</ele>
        <time>2014-09-20T07:57:31.000Z</time>
      </trkpt>
      <trkpt lat="44.17303" lon="5.23817">
        <ele>1513.4000244141</ele>
        <time>2014-09-20T07:57:36.000Z</time>
      </trkpt>
      <trkpt lat="44.17289" lon="5.23801">
        <ele>1514</ele>
        <time>2014-09-20T07:57:39.000Z</time>
      </trkpt>
      <trkpt lat="44.17236" lon="5.23739">
        <ele>1506.4000244141</ele>
        <time>2014-09-20T07:57:50.000Z</time>
      </trkpt>
      <trkpt lat="44.17232" lon="5.23735">
        <ele>1505.5999755859</ele>
        <time>2014-09-20T07:57:51.000Z</time>
      </trkpt>
      <trkpt lat="44.17221" lon="5.23724">
        <ele>1504</ele>
        <time>2014-09-20T07:57:54.000Z</time>
      </trkpt>
      <trkpt lat="44.17218" lon="5.23722">
        <ele>1503.5999755859</ele>
        <time>2014-09-20T07:57:55.000Z</time>
      </trkpt>
      <trkpt lat="44.17215" lon="5.23719">
        <ele>1503.1999511719</ele>
        <time>2014-09-20T07:57:56.000Z</time>
      </trkpt>
      <trkpt lat="44.17212" lon="5.23718">
        <ele>1503.1999511719</ele>
        <time>2014-09-20T07:57:57.000Z</time>
      </trkpt>
      <trkpt lat="44.17208" lon="5.23716">
        <ele>1503</ele>
        <time>2014-09-20T07:57:58.000Z</time>
      </trkpt>
      <trkpt lat="44.17204" lon="5.23715">
        <ele>1503</ele>
        <time>2014-09-20T07:57:59.000Z</time>
      </trkpt>
      <trkpt lat="44.17164" lon="5.23704">
        <ele>1502.1999511719</ele>
        <time>2014-09-20T07:58:09.000Z</time>
      </trkpt>
      <trkpt lat="44.17137" lon="5.23701">
        <ele>1502.8000488281</ele>
        <time>2014-09-20T07:58:20.000Z</time>
      </trkpt>
      <trkpt lat="44.17117" lon="5.23699">
        <ele>1503.1999511719</ele>
        <time>2014-09-20T07:58:31.000Z</time>
      </trkpt>
      <trkpt lat="44.17116" lon="5.23696">
        <ele>1502.4000244141</ele>
        <time>2014-09-20T07:58:42.000Z</time>
      </trkpt>
      <trkpt lat="44.17115" lon="5.23692">
        <ele>1500.8000488281</ele>
        <time>2014-09-20T07:59:02.000Z</time>
      </trkpt>
      <trkpt lat="44.17111" lon="5.2369">
        <ele>1500.5999755859</ele>
        <time>2014-09-20T07:59:04.000Z</time>
      </trkpt>
      <trkpt lat="44.17107" lon="5.2369">
        <ele>1501</ele>
        <time>2014-09-20T07:59:05.000Z</time>
      </trkpt>
      <trkpt lat="44.17104" lon="5.2369">
        <ele>1501.1999511719</ele>
        <time>2014-09-20T07:59:06.000Z</time>
      </trkpt>
      <trkpt lat="44.17099" lon="5.23689">
        <ele>1501.1999511719</ele>
        <time>2014-09-20T07:59:07.000Z</time>
      </trkpt>
      <trkpt lat="44.17094" lon="5.23688">
        <ele>1501.4000244141</ele>
        <time>2014-09-20T07:59:08.000Z</time>
      </trkpt>
      <trkpt lat="44.17089" lon="5.23687">
        <ele>1501.5999755859</ele>
        <time>2014-09-20T07:59:09.000Z</time>
      </trkpt>
      <trkpt lat="44.17085" lon="5.23686">
        <ele>1501.8000488281</ele>
        <time>2014-09-20T07:59:10.000Z</time>
      </trkpt>
      <trkpt lat="44.1706" lon="5.23678">
        <ele>1500.8000488281</ele>
        <time>2014-09-20T07:59:15.000Z</time>
      </trkpt>
      <trkpt lat="44.17034" lon="5.23662">
        <ele>1497.4000244141</ele>
        <time>2014-09-20T07:59:21.000Z</time>
      </trkpt>
      <trkpt lat="44.17005" lon="5.23637">
        <ele>1490</ele>
        <time>2014-09-20T07:59:28.000Z</time>
      </trkpt>
      <trkpt lat="44.17001" lon="5.23635">
        <ele>1489</ele>
        <time>2014-09-20T07:59:29.000Z</time>
      </trkpt>
      <trkpt lat="44.16996" lon="5.23633">
        <ele>1488.4000244141</ele>
        <time>2014-09-20T07:59:30.000Z</time>
      </trkpt>
      <trkpt lat="44.16992" lon="5.23631">
        <ele>1487.8000488281</ele>
        <time>2014-09-20T07:59:31.000Z</time>
      </trkpt>
      <trkpt lat="44.16988" lon="5.23631">
        <ele>1487.5999755859</ele>
        <time>2014-09-20T07:59:32.000Z</time>
      </trkpt>
      <trkpt lat="44.16983" lon="5.23631">
        <ele>1487.4000244141</ele>
        <time>2014-09-20T07:59:33.000Z</time>
      </trkpt>
      <trkpt lat="44.16979" lon="5.23631">
        <ele>1487.5999755859</ele>
        <time>2014-09-20T07:59:34.000Z</time>
      </trkpt>
      <trkpt lat="44.16974" lon="5.23632">
        <ele>1487.5999755859</ele>
        <time>2014-09-20T07:59:35.000Z</time>
      </trkpt>
      <trkpt lat="44.1697" lon="5.23632">
        <ele>1487.5999755859</ele>
        <time>2014-09-20T07:59:36.000Z</time>
      </trkpt>
      <trkpt lat="44.16956" lon="5.23635">
        <ele>1488</ele>
        <time>2014-09-20T07:59:39.000Z</time>
      </trkpt>
      <trkpt lat="44.16947" lon="5.23636">
        <ele>1487.5999755859</ele>
        <time>2014-09-20T07:59:41.000Z</time>
      </trkpt>
      <trkpt lat="44.16943" lon="5.23637">
        <ele>1487</ele>
        <time>2014-09-20T07:59:42.000Z</time>
      </trkpt>
      <trkpt lat="44.16938" lon="5.23638">
        <ele>1486.4000244141</ele>
        <time>2014-09-20T07:59:43.000Z</time>
      </trkpt>
      <trkpt lat="44.16934" lon="5.2364">
        <ele>1485.8000488281</ele>
        <time>2014-09-20T07:59:44.000Z</time>
      </trkpt>
      <trkpt lat="44.1693" lon="5.23643">
        <ele>1485.1999511719</ele>
        <time>2014-09-20T07:59:45.000Z</time>
      </trkpt>
      <trkpt lat="44.16925" lon="5.23645">
        <ele>1484.8000488281</ele>
        <time>2014-09-20T07:59:46.000Z</time>
      </trkpt>
      <trkpt lat="44.16887" lon="5.23683">
        <ele>1481.8000488281</ele>
        <time>2014-09-20T07:59:58.000Z</time>
      </trkpt>
      <trkpt lat="44.16878" lon="5.23697">
        <ele>1480.8000488281</ele>
        <time>2014-09-20T08:00:01.000Z</time>
      </trkpt>
      <trkpt lat="44.16852" lon="5.23764">
        <ele>1479</ele>
        <time>2014-09-20T08:00:14.000Z</time>
      </trkpt>
      <trkpt lat="44.16848" lon="5.23775">
        <ele>1478.8000488281</ele>
        <time>2014-09-20T08:00:16.000Z</time>
      </trkpt>
      <trkpt lat="44.16847" lon="5.23781">
        <ele>1478.8000488281</ele>
        <time>2014-09-20T08:00:17.000Z</time>
      </trkpt>
      <trkpt lat="44.16845" lon="5.23787">
        <ele>1478.5999755859</ele>
        <time>2014-09-20T08:00:18.000Z</time>
      </trkpt>
      <trkpt lat="44.1684" lon="5.23809">
        <ele>1477.8000488281</ele>
        <time>2014-09-20T08:00:22.000Z</time>
      </trkpt>
      <trkpt lat="44.16825" lon="5.2386">
        <ele>1476.5999755859</ele>
        <time>2014-09-20T08:00:32.000Z</time>
      </trkpt>
      <trkpt lat="44.16806" lon="5.23926">
        <ele>1476.5999755859</ele>
        <time>2014-09-20T08:00:45.000Z</time>
      </trkpt>
      <trkpt lat="44.16793" lon="5.23968">
        <ele>1476.8000488281</ele>
        <time>2014-09-20T08:00:53.000Z</time>
      </trkpt>
      <trkpt lat="44.16788" lon="5.23985">
        <ele>1476.4000244141</ele>
        <time>2014-09-20T08:00:56.000Z</time>
      </trkpt>
      <trkpt lat="44.16787" lon="5.23991">
        <ele>1476.1999511719</ele>
        <time>2014-09-20T08:00:57.000Z</time>
      </trkpt>
      <trkpt lat="44.16783" lon="5.24015">
        <ele>1476</ele>
        <time>2014-09-20T08:01:01.000Z</time>
      </trkpt>
      <trkpt lat="44.16773" lon="5.24068">
        <ele>1475.5999755859</ele>
        <time>2014-09-20T08:01:10.000Z</time>
      </trkpt>
      <trkpt lat="44.16772" lon="5.24074">
        <ele>1475.5999755859</ele>
        <time>2014-09-20T08:01:11.000Z</time>
      </trkpt>
      <trkpt lat="44.16771" lon="5.24086">
        <ele>1475.5999755859</ele>
        <time>2014-09-20T08:01:13.000Z</time>
      </trkpt>
      <trkpt lat="44.1677" lon="5.24092">
        <ele>1475.8000488281</ele>
        <time>2014-09-20T08:01:14.000Z</time>
      </trkpt>
      <trkpt lat="44.16769" lon="5.24098">
        <ele>1475.8000488281</ele>
        <time>2014-09-20T08:01:15.000Z</time>
      </trkpt>
      <trkpt lat="44.16768" lon="5.24105">
        <ele>1475.8000488281</ele>
        <time>2014-09-20T08:01:16.000Z</time>
      </trkpt>
      <trkpt lat="44.16768" lon="5.24111">
        <ele>1476</ele>
        <time>2014-09-20T08:01:17.000Z</time>
      </trkpt>
      <trkpt lat="44.16767" lon="5.24117">
        <ele>1476</ele>
        <time>2014-09-20T08:01:18.000Z</time>
      </trkpt>
      <trkpt lat="44.16767" lon="5.2413">
        <ele>1476.5999755859</ele>
        <time>2014-09-20T08:01:20.000Z</time>
      </trkpt>
      <trkpt lat="44.16767" lon="5.24136">
        <ele>1476.8000488281</ele>
        <time>2014-09-20T08:01:21.000Z</time>
      </trkpt>
      <trkpt lat="44.16766" lon="5.24142">
        <ele>1477.1999511719</ele>
        <time>2014-09-20T08:01:22.000Z</time>
      </trkpt>
      <trkpt lat="44.16766" lon="5.24148">
        <ele>1477.4000244141</ele>
        <time>2014-09-20T08:01:23.000Z</time>
      </trkpt>
      <trkpt lat="44.16765" lon="5.24153">
        <ele>1477.4000244141</ele>
        <time>2014-09-20T08:01:24.000Z</time>
      </trkpt>
      <trkpt lat="44.16758" lon="5.24196">
        <ele>1477.8000488281</ele>
        <time>2014-09-20T08:01:31.000Z</time>
      </trkpt>
      <trkpt lat="44.16757" lon="5.24203">
        <ele>1477.4000244141</ele>
        <time>2014-09-20T08:01:32.000Z</time>
      </trkpt>
      <trkpt lat="44.16756" lon="5.24209">
        <ele>1477.4000244141</ele>
        <time>2014-09-20T08:01:33.000Z</time>
      </trkpt>
      <trkpt lat="44.16756" lon="5.24214">
        <ele>1477.4000244141</ele>
        <time>2014-09-20T08:01:34.000Z</time>
      </trkpt>
      <trkpt lat="44.16754" lon="5.24221">
        <ele>1477.4000244141</ele>
        <time>2014-09-20T08:01:35.000Z</time>
      </trkpt>
      <trkpt lat="44.16754" lon="5.24226">
        <ele>1477.8000488281</ele>
        <time>2014-09-20T08:01:36.000Z</time>
      </trkpt>
      <trkpt lat="44.16753" lon="5.24232">
        <ele>1478</ele>
        <time>2014-09-20T08:01:37.000Z</time>
      </trkpt>
      <trkpt lat="44.16753" lon="5.24237">
        <ele>1478.4000244141</ele>
        <time>2014-09-20T08:01:38.000Z</time>
      </trkpt>
      <trkpt lat="44.16752" lon="5.24243">
        <ele>1478.4000244141</ele>
        <time>2014-09-20T08:01:39.000Z</time>
      </trkpt>
      <trkpt lat="44.16749" lon="5.24267">
        <ele>1479.4000244141</ele>
        <time>2014-09-20T08:01:43.000Z</time>
      </trkpt>
      <trkpt lat="44.16745" lon="5.24284">
        <ele>1479.5999755859</ele>
        <time>2014-09-20T08:01:46.000Z</time>
      </trkpt>
      <trkpt lat="44.16744" lon="5.2429">
        <ele>1479.5999755859</ele>
        <time>2014-09-20T08:01:47.000Z</time>
      </trkpt>
      <trkpt lat="44.1673" lon="5.24361">
        <ele>1481</ele>
        <time>2014-09-20T08:02:00.000Z</time>
      </trkpt>
      <trkpt lat="44.16729" lon="5.24367">
        <ele>1481</ele>
        <time>2014-09-20T08:02:01.000Z</time>
      </trkpt>
      <trkpt lat="44.16718" lon="5.24416">
        <ele>1482.1999511719</ele>
        <time>2014-09-20T08:02:11.000Z</time>
      </trkpt>
      <trkpt lat="44.16715" lon="5.24422">
        <ele>1482.4000244141</ele>
        <time>2014-09-20T08:02:12.000Z</time>
      </trkpt>
      <trkpt lat="44.16702" lon="5.24473">
        <ele>1484.5999755859</ele>
        <time>2014-09-20T08:02:22.000Z</time>
      </trkpt>
      <trkpt lat="44.16696" lon="5.24492">
        <ele>1484</ele>
        <time>2014-09-20T08:02:26.000Z</time>
      </trkpt>
      <trkpt lat="44.16687" lon="5.24519">
        <ele>1483.4000244141</ele>
        <time>2014-09-20T08:02:31.000Z</time>
      </trkpt>
      <trkpt lat="44.16679" lon="5.24597">
        <ele>1479.8000488281</ele>
        <time>2014-09-20T08:02:43.000Z</time>
      </trkpt>
      <trkpt lat="44.16681" lon="5.24603">
        <ele>1479.8000488281</ele>
        <time>2014-09-20T08:02:44.000Z</time>
      </trkpt>
      <trkpt lat="44.16687" lon="5.24621">
        <ele>1480.4000244141</ele>
        <time>2014-09-20T08:02:47.000Z</time>
      </trkpt>
      <trkpt lat="44.16689" lon="5.24626">
        <ele>1480.4000244141</ele>
        <time>2014-09-20T08:02:48.000Z</time>
      </trkpt>
      <trkpt lat="44.1669" lon="5.24633">
        <ele>1480</ele>
        <time>2014-09-20T08:02:49.000Z</time>
      </trkpt>
      <trkpt lat="44.16694" lon="5.24651">
        <ele>1479.5999755859</ele>
        <time>2014-09-20T08:02:52.000Z</time>
      </trkpt>
      <trkpt lat="44.16695" lon="5.24657">
        <ele>1479.4000244141</ele>
        <time>2014-09-20T08:02:53.000Z</time>
      </trkpt>
      <trkpt lat="44.16695" lon="5.24664">
        <ele>1478.8000488281</ele>
        <time>2014-09-20T08:02:54.000Z</time>
      </trkpt>
      <trkpt lat="44.16696" lon="5.2467">
        <ele>1478.5999755859</ele>
        <time>2014-09-20T08:02:55.000Z</time>
      </trkpt>
      <trkpt lat="44.16697" lon="5.24675">
        <ele>1478.5999755859</ele>
        <time>2014-09-20T08:02:56.000Z</time>
      </trkpt>
      <trkpt lat="44.16698" lon="5.24681">
        <ele>1478.4000244141</ele>
        <time>2014-09-20T08:02:57.000Z</time>
      </trkpt>
      <trkpt lat="44.16701" lon="5.24686">
        <ele>1478.8000488281</ele>
        <time>2014-09-20T08:02:58.000Z</time>
      </trkpt>
      <trkpt lat="44.16702" lon="5.24693">
        <ele>1478.5999755859</ele>
        <time>2014-09-20T08:02:59.000Z</time>
      </trkpt>
      <trkpt lat="44.16702" lon="5.24699">
        <ele>1478</ele>
        <time>2014-09-20T08:03:00.000Z</time>
      </trkpt>
      <trkpt lat="44.16703" lon="5.24706">
        <ele>1477.8000488281</ele>
        <time>2014-09-20T08:03:01.000Z</time>
      </trkpt>
      <trkpt lat="44.16705" lon="5.24713">
        <ele>1478</ele>
        <time>2014-09-20T08:03:02.000Z</time>
      </trkpt>
      <trkpt lat="44.16706" lon="5.2472">
        <ele>1478.4000244141</ele>
        <time>2014-09-20T08:03:03.000Z</time>
      </trkpt>
      <trkpt lat="44.16708" lon="5.24727">
        <ele>1479.1999511719</ele>
        <time>2014-09-20T08:03:04.000Z</time>
      </trkpt>
      <trkpt lat="44.16708" lon="5.24734">
        <ele>1479.8000488281</ele>
        <time>2014-09-20T08:03:05.000Z</time>
      </trkpt>
      <trkpt lat="44.16709" lon="5.24741">
        <ele>1480.1999511719</ele>
        <time>2014-09-20T08:03:06.000Z</time>
      </trkpt>
      <trkpt lat="44.16711" lon="5.24748">
        <ele>1481</ele>
        <time>2014-09-20T08:03:07.000Z</time>
      </trkpt>
      <trkpt lat="44.16711" lon="5.24755">
        <ele>1481.4000244141</ele>
        <time>2014-09-20T08:03:08.000Z</time>
      </trkpt>
      <trkpt lat="44.1671" lon="5.24762">
        <ele>1481.5999755859</ele>
        <time>2014-09-20T08:03:09.000Z</time>
      </trkpt>
      <trkpt lat="44.1671" lon="5.24769">
        <ele>1481.5999755859</ele>
        <time>2014-09-20T08:03:10.000Z</time>
      </trkpt>
      <trkpt lat="44.16709" lon="5.24777">
        <ele>1481.5999755859</ele>
        <time>2014-09-20T08:03:11.000Z</time>
      </trkpt>
      <trkpt lat="44.16708" lon="5.24784">
        <ele>1481.4000244141</ele>
        <time>2014-09-20T08:03:12.000Z</time>
      </trkpt>
      <trkpt lat="44.16706" lon="5.24791">
        <ele>1480.8000488281</ele>
        <time>2014-09-20T08:03:13.000Z</time>
      </trkpt>
      <trkpt lat="44.16702" lon="5.248">
        <ele>1480</ele>
        <time>2014-09-20T08:03:14.000Z</time>
      </trkpt>
      <trkpt lat="44.16698" lon="5.24808">
        <ele>1480</ele>
        <time>2014-09-20T08:03:15.000Z</time>
      </trkpt>
      <trkpt lat="44.16694" lon="5.24815">
        <ele>1480</ele>
        <time>2014-09-20T08:03:16.000Z</time>
      </trkpt>
      <trkpt lat="44.1669" lon="5.24822">
        <ele>1479.5999755859</ele>
        <time>2014-09-20T08:03:17.000Z</time>
      </trkpt>
      <trkpt lat="44.16686" lon="5.24829">
        <ele>1479.1999511719</ele>
        <time>2014-09-20T08:03:18.000Z</time>
      </trkpt>
      <trkpt lat="44.16668" lon="5.24848">
        <ele>1475.8000488281</ele>
        <time>2014-09-20T08:03:22.000Z</time>
      </trkpt>
      <trkpt lat="44.16661" lon="5.24849">
        <ele>1473.4000244141</ele>
        <time>2014-09-20T08:03:23.000Z</time>
      </trkpt>
      <trkpt lat="44.16655" lon="5.24849">
        <ele>1471.5999755859</ele>
        <time>2014-09-20T08:03:24.000Z</time>
      </trkpt>
      <trkpt lat="44.16648" lon="5.2485">
        <ele>1469.5999755859</ele>
        <time>2014-09-20T08:03:25.000Z</time>
      </trkpt>
      <trkpt lat="44.16641" lon="5.24851">
        <ele>1468</ele>
        <time>2014-09-20T08:03:26.000Z</time>
      </trkpt>
      <trkpt lat="44.16636" lon="5.24854">
        <ele>1467</ele>
        <time>2014-09-20T08:03:27.000Z</time>
      </trkpt>
      <trkpt lat="44.1663" lon="5.24859">
        <ele>1466.1999511719</ele>
        <time>2014-09-20T08:03:28.000Z</time>
      </trkpt>
      <trkpt lat="44.16625" lon="5.24864">
        <ele>1465.8000488281</ele>
        <time>2014-09-20T08:03:29.000Z</time>
      </trkpt>
      <trkpt lat="44.1662" lon="5.2487">
        <ele>1465.5999755859</ele>
        <time>2014-09-20T08:03:30.000Z</time>
      </trkpt>
      <trkpt lat="44.16589" lon="5.24913">
        <ele>1461.1999511719</ele>
        <time>2014-09-20T08:03:36.000Z</time>
      </trkpt>
      <trkpt lat="44.16577" lon="5.24927">
        <ele>1458.4000244141</ele>
        <time>2014-09-20T08:03:38.000Z</time>
      </trkpt>
      <trkpt lat="44.1657" lon="5.24935">
        <ele>1457.8000488281</ele>
        <time>2014-09-20T08:03:39.000Z</time>
      </trkpt>
      <trkpt lat="44.16564" lon="5.24942">
        <ele>1457.1999511719</ele>
        <time>2014-09-20T08:03:40.000Z</time>
      </trkpt>
      <trkpt lat="44.16557" lon="5.2495">
        <ele>1456.8000488281</ele>
        <time>2014-09-20T08:03:41.000Z</time>
      </trkpt>
      <trkpt lat="44.16551" lon="5.24958">
        <ele>1456.1999511719</ele>
        <time>2014-09-20T08:03:42.000Z</time>
      </trkpt>
      <trkpt lat="44.16545" lon="5.24966">
        <ele>1455.5999755859</ele>
        <time>2014-09-20T08:03:43.000Z</time>
      </trkpt>
      <trkpt lat="44.16528" lon="5.24987">
        <ele>1453.5999755859</ele>
        <time>2014-09-20T08:03:46.000Z</time>
      </trkpt>
      <trkpt lat="44.16517" lon="5.24999">
        <ele>1452.1999511719</ele>
        <time>2014-09-20T08:03:48.000Z</time>
      </trkpt>
      <trkpt lat="44.16491" lon="5.25025">
        <ele>1448.4000244141</ele>
        <time>2014-09-20T08:03:52.000Z</time>
      </trkpt>
      <trkpt lat="44.16458" lon="5.25063">
        <ele>1443.8000488281</ele>
        <time>2014-09-20T08:03:57.000Z</time>
      </trkpt>
      <trkpt lat="44.16432" lon="5.25096">
        <ele>1439</ele>
        <time>2014-09-20T08:04:01.000Z</time>
      </trkpt>
      <trkpt lat="44.16411" lon="5.25126">
        <ele>1435.4000244141</ele>
        <time>2014-09-20T08:04:05.000Z</time>
      </trkpt>
      <trkpt lat="44.1639" lon="5.2516">
        <ele>1430.1999511719</ele>
        <time>2014-09-20T08:04:09.000Z</time>
      </trkpt>
      <trkpt lat="44.16369" lon="5.25193">
        <ele>1424</ele>
        <time>2014-09-20T08:04:13.000Z</time>
      </trkpt>
      <trkpt lat="44.16354" lon="5.25219">
        <ele>1419.8000488281</ele>
        <time>2014-09-20T08:04:16.000Z</time>
      </trkpt>
      <trkpt lat="44.1635" lon="5.25229">
        <ele>1418.4000244141</ele>
        <time>2014-09-20T08:04:17.000Z</time>
      </trkpt>
      <trkpt lat="44.16346" lon="5.2524">
        <ele>1417</ele>
        <time>2014-09-20T08:04:18.000Z</time>
      </trkpt>
      <trkpt lat="44.16343" lon="5.25252">
        <ele>1415.8000488281</ele>
        <time>2014-09-20T08:04:19.000Z</time>
      </trkpt>
      <trkpt lat="44.1634" lon="5.25264">
        <ele>1414.5999755859</ele>
        <time>2014-09-20T08:04:20.000Z</time>
      </trkpt>
      <trkpt lat="44.16339" lon="5.25275">
        <ele>1414</ele>
        <time>2014-09-20T08:04:21.000Z</time>
      </trkpt>
      <trkpt lat="44.16338" lon="5.25284">
        <ele>1413.4000244141</ele>
        <time>2014-09-20T08:04:22.000Z</time>
      </trkpt>
      <trkpt lat="44.16336" lon="5.25292">
        <ele>1412.8000488281</ele>
        <time>2014-09-20T08:04:23.000Z</time>
      </trkpt>
      <trkpt lat="44.16337" lon="5.25299">
        <ele>1412.8000488281</ele>
        <time>2014-09-20T08:04:24.000Z</time>
      </trkpt>
      <trkpt lat="44.16337" lon="5.25307">
        <ele>1413</ele>
        <time>2014-09-20T08:04:25.000Z</time>
      </trkpt>
      <trkpt lat="44.16337" lon="5.25315">
        <ele>1413.1999511719</ele>
        <time>2014-09-20T08:04:26.000Z</time>
      </trkpt>
      <trkpt lat="44.16338" lon="5.25322">
        <ele>1413.5999755859</ele>
        <time>2014-09-20T08:04:27.000Z</time>
      </trkpt>
      <trkpt lat="44.16346" lon="5.25345">
        <ele>1416.5999755859</ele>
        <time>2014-09-20T08:04:31.000Z</time>
      </trkpt>
      <trkpt lat="44.16352" lon="5.2536">
        <ele>1418.5999755859</ele>
        <time>2014-09-20T08:04:33.000Z</time>
      </trkpt>
      <trkpt lat="44.16353" lon="5.25369">
        <ele>1419.1999511719</ele>
        <time>2014-09-20T08:04:34.000Z</time>
      </trkpt>
      <trkpt lat="44.16354" lon="5.25378">
        <ele>1419.5999755859</ele>
        <time>2014-09-20T08:04:35.000Z</time>
      </trkpt>
      <trkpt lat="44.16355" lon="5.25385">
        <ele>1420.5999755859</ele>
        <time>2014-09-20T08:04:36.000Z</time>
      </trkpt>
      <trkpt lat="44.16354" lon="5.25392">
        <ele>1421</ele>
        <time>2014-09-20T08:04:37.000Z</time>
      </trkpt>
      <trkpt lat="44.16352" lon="5.25398">
        <ele>1421</ele>
        <time>2014-09-20T08:04:38.000Z</time>
      </trkpt>
      <trkpt lat="44.1635" lon="5.25404">
        <ele>1421</ele>
        <time>2014-09-20T08:04:39.000Z</time>
      </trkpt>
      <trkpt lat="44.16326" lon="5.25455">
        <ele>1419</ele>
        <time>2014-09-20T08:04:51.000Z</time>
      </trkpt>
      <trkpt lat="44.1631" lon="5.25495">
        <ele>1418.8000488281</ele>
        <time>2014-09-20T08:05:02.000Z</time>
      </trkpt>
      <trkpt lat="44.16298" lon="5.25539">
        <ele>1419.5999755859</ele>
        <time>2014-09-20T08:05:14.000Z</time>
      </trkpt>
      <trkpt lat="44.16286" lon="5.25596">
        <ele>1420.1999511719</ele>
        <time>2014-09-20T08:05:27.000Z</time>
      </trkpt>
      <trkpt lat="44.16281" lon="5.25652">
        <ele>1422.1999511719</ele>
        <time>2014-09-20T08:05:41.000Z</time>
      </trkpt>
      <trkpt lat="44.1628" lon="5.25712">
        <ele>1424.5999755859</ele>
        <time>2014-09-20T08:05:57.000Z</time>
      </trkpt>
      <trkpt lat="44.16282" lon="5.25736">
        <ele>1426.5999755859</ele>
        <time>2014-09-20T08:06:05.000Z</time>
      </trkpt>
      <trkpt lat="44.16282" lon="5.2574">
        <ele>1427</ele>
        <time>2014-09-20T08:06:06.000Z</time>
      </trkpt>
      <trkpt lat="44.16283" lon="5.25743">
        <ele>1427.4000244141</ele>
        <time>2014-09-20T08:06:07.000Z</time>
      </trkpt>
      <trkpt lat="44.16283" lon="5.25747">
        <ele>1427.5999755859</ele>
        <time>2014-09-20T08:06:08.000Z</time>
      </trkpt>
      <trkpt lat="44.16283" lon="5.2575">
        <ele>1428</ele>
        <time>2014-09-20T08:06:09.000Z</time>
      </trkpt>
      <trkpt lat="44.16283" lon="5.25754">
        <ele>1428.1999511719</ele>
        <time>2014-09-20T08:06:10.000Z</time>
      </trkpt>
      <trkpt lat="44.16283" lon="5.25796">
        <ele>1430.5999755859</ele>
        <time>2014-09-20T08:06:22.000Z</time>
      </trkpt>
      <trkpt lat="44.1628" lon="5.25841">
        <ele>1430.4000244141</ele>
        <time>2014-09-20T08:06:35.000Z</time>
      </trkpt>
      <trkpt lat="44.16278" lon="5.25878">
        <ele>1430</ele>
        <time>2014-09-20T08:06:46.000Z</time>
      </trkpt>
      <trkpt lat="44.16274" lon="5.25939">
        <ele>1433.4000244141</ele>
        <time>2014-09-20T08:07:03.000Z</time>
      </trkpt>
      <trkpt lat="44.16274" lon="5.25987">
        <ele>1437.4000244141</ele>
        <time>2014-09-20T08:07:16.000Z</time>
      </trkpt>
      <trkpt lat="44.16273" lon="5.26024">
        <ele>1440.8000488281</ele>
        <time>2014-09-20T08:07:27.000Z</time>
      </trkpt>
      <trkpt lat="44.16269" lon="5.26071">
        <ele>1445.4000244141</ele>
        <time>2014-09-20T08:07:41.000Z</time>
      </trkpt>
      <trkpt lat="44.16265" lon="5.26099">
        <ele>1447.8000488281</ele>
        <time>2014-09-20T08:07:52.000Z</time>
      </trkpt>
      <trkpt lat="44.16255" lon="5.26147">
        <ele>1451</ele>
        <time>2014-09-20T08:08:06.000Z</time>
      </trkpt>
      <trkpt lat="44.16249" lon="5.26181">
        <ele>1452.4000244141</ele>
        <time>2014-09-20T08:08:16.000Z</time>
      </trkpt>
      <trkpt lat="44.16238" lon="5.26235">
        <ele>1450.4000244141</ele>
        <time>2014-09-20T08:08:31.000Z</time>
      </trkpt>
      <trkpt lat="44.16228" lon="5.26288">
        <ele>1445.1999511719</ele>
        <time>2014-09-20T08:08:46.000Z</time>
      </trkpt>
      <trkpt lat="44.16234" lon="5.26345">
        <ele>1440.4000244141</ele>
        <time>2014-09-20T08:08:59.000Z</time>
      </trkpt>
      <trkpt lat="44.16274" lon="5.26383">
        <ele>1448.5999755859</ele>
        <time>2014-09-20T08:09:12.000Z</time>
      </trkpt>
      <trkpt lat="44.16306" lon="5.26411">
        <ele>1460.4000244141</ele>
        <time>2014-09-20T08:09:24.000Z</time>
      </trkpt>
      <trkpt lat="44.16305" lon="5.26415">
        <ele>1459.8000488281</ele>
        <time>2014-09-20T08:09:25.000Z</time>
      </trkpt>
      <trkpt lat="44.16288" lon="5.26446">
        <ele>1452</ele>
        <time>2014-09-20T08:09:33.000Z</time>
      </trkpt>
      <trkpt lat="44.16286" lon="5.26498">
        <ele>1450.5999755859</ele>
        <time>2014-09-20T08:09:44.000Z</time>
      </trkpt>
      <trkpt lat="44.16294" lon="5.2656">
        <ele>1454</ele>
        <time>2014-09-20T08:09:56.000Z</time>
      </trkpt>
      <trkpt lat="44.16303" lon="5.26607">
        <ele>1461</ele>
        <time>2014-09-20T08:10:06.000Z</time>
      </trkpt>
      <trkpt lat="44.16308" lon="5.26663">
        <ele>1467.8000488281</ele>
        <time>2014-09-20T08:10:19.000Z</time>
      </trkpt>
      <trkpt lat="44.16303" lon="5.2671">
        <ele>1474.5999755859</ele>
        <time>2014-09-20T08:10:30.000Z</time>
      </trkpt>
      <trkpt lat="44.16279" lon="5.26742">
        <ele>1476</ele>
        <time>2014-09-20T08:10:41.000Z</time>
      </trkpt>
      <trkpt lat="44.16262" lon="5.2679">
        <ele>1482.1999511719</ele>
        <time>2014-09-20T08:10:54.000Z</time>
      </trkpt>
      <trkpt lat="44.16253" lon="5.26791">
        <ele>1481</ele>
        <time>2014-09-20T08:11:01.000Z</time>
      </trkpt>
      <trkpt lat="44.16252" lon="5.2679">
        <ele>1480.8000488281</ele>
        <time>2014-09-20T08:11:02.000Z</time>
      </trkpt>
      <trkpt lat="44.1625" lon="5.26789">
        <ele>1480.4000244141</ele>
        <time>2014-09-20T08:11:03.000Z</time>
      </trkpt>
      <trkpt lat="44.16249" lon="5.26787">
        <ele>1480</ele>
        <time>2014-09-20T08:11:04.000Z</time>
      </trkpt>
      <trkpt lat="44.16247" lon="5.26785">
        <ele>1479.5999755859</ele>
        <time>2014-09-20T08:11:05.000Z</time>
      </trkpt>
      <trkpt lat="44.16245" lon="5.26783">
        <ele>1479.1999511719</ele>
        <time>2014-09-20T08:11:06.000Z</time>
      </trkpt>
      <trkpt lat="44.16242" lon="5.2678">
        <ele>1478.5999755859</ele>
        <time>2014-09-20T08:11:07.000Z</time>
      </trkpt>
      <trkpt lat="44.16216" lon="5.26788">
        <ele>1475.4000244141</ele>
        <time>2014-09-20T08:11:17.000Z</time>
      </trkpt>
      <trkpt lat="44.16198" lon="5.26799">
        <ele>1473.8000488281</ele>
        <time>2014-09-20T08:11:27.000Z</time>
      </trkpt>
      <trkpt lat="44.16196" lon="5.26798">
        <ele>1473.4000244141</ele>
        <time>2014-09-20T08:11:48.000Z</time>
      </trkpt>
      <trkpt lat="44.16198" lon="5.26803">
        <ele>1474</ele>
        <time>2014-09-20T08:12:08.000Z</time>
      </trkpt>
      <trkpt lat="44.16195" lon="5.26798">
        <ele>1473.1999511719</ele>
        <time>2014-09-20T08:12:28.000Z</time>
      </trkpt>
      <trkpt lat="44.16198" lon="5.26797">
        <ele>1473.5999755859</ele>
        <time>2014-09-20T08:12:55.000Z</time>
      </trkpt>
      <trkpt lat="44.16199" lon="5.26796">
        <ele>1473.5999755859</ele>
        <time>2014-09-20T08:13:35.000Z</time>
      </trkpt>
      <trkpt lat="44.16196" lon="5.26798">
        <ele>1473.4000244141</ele>
        <time>2014-09-20T08:14:08.000Z</time>
      </trkpt>
      <trkpt lat="44.16197" lon="5.26797">
        <ele>1473.4000244141</ele>
        <time>2014-09-20T08:14:41.000Z</time>
      </trkpt>
      <trkpt lat="44.16198" lon="5.26797">
        <ele>1473.5999755859</ele>
        <time>2014-09-20T08:15:15.000Z</time>
      </trkpt>
      <trkpt lat="44.16199" lon="5.26796">
        <ele>1473.8000488281</ele>
        <time>2014-09-20T08:15:44.000Z</time>
      </trkpt>
      <trkpt lat="44.16202" lon="5.26795">
        <ele>1474</ele>
        <time>2014-09-20T08:16:14.000Z</time>
      </trkpt>
      <trkpt lat="44.16201" lon="5.26797">
        <ele>1474</ele>
        <time>2014-09-20T08:16:48.000Z</time>
      </trkpt>
      <trkpt lat="44.16199" lon="5.26799">
        <ele>1474</ele>
        <time>2014-09-20T08:17:23.000Z</time>
      </trkpt>
      <trkpt lat="44.16201" lon="5.26798">
        <ele>1474.1999511719</ele>
        <time>2014-09-20T08:17:57.000Z</time>
      </trkpt>
      <trkpt lat="44.162" lon="5.26797">
        <ele>1473.8000488281</ele>
        <time>2014-09-20T08:18:28.000Z</time>
      </trkpt>
      <trkpt lat="44.16201" lon="5.26798">
        <ele>1474.1999511719</ele>
        <time>2014-09-20T08:19:00.000Z</time>
      </trkpt>
      <trkpt lat="44.162" lon="5.268">
        <ele>1474.1999511719</ele>
        <time>2014-09-20T08:19:29.000Z</time>
      </trkpt>
      <trkpt lat="44.16198" lon="5.26799">
        <ele>1473.8000488281</ele>
        <time>2014-09-20T08:19:59.000Z</time>
      </trkpt>
      <trkpt lat="44.16198" lon="5.26798">
        <ele>1473.5999755859</ele>
        <time>2014-09-20T08:20:29.000Z</time>
      </trkpt>
      <trkpt lat="44.162" lon="5.26797">
        <ele>1474</ele>
        <time>2014-09-20T08:20:51.000Z</time>
      </trkpt>
      <trkpt lat="44.16198" lon="5.26796">
        <ele>1473.4000244141</ele>
        <time>2014-09-20T08:21:19.000Z</time>
      </trkpt>
      <trkpt lat="44.16199" lon="5.26801">
        <ele>1474.1999511719</ele>
        <time>2014-09-20T08:21:34.000Z</time>
      </trkpt>
      <trkpt lat="44.16196" lon="5.26812">
        <ele>1474.4000244141</ele>
        <time>2014-09-20T08:21:38.000Z</time>
      </trkpt>
      <trkpt lat="44.16195" lon="5.26815">
        <ele>1474.4000244141</ele>
        <time>2014-09-20T08:21:39.000Z</time>
      </trkpt>
      <trkpt lat="44.16171" lon="5.26866">
        <ele>1474</ele>
        <time>2014-09-20T08:21:52.000Z</time>
      </trkpt>
      <trkpt lat="44.16154" lon="5.26923">
        <ele>1471.1999511719</ele>
        <time>2014-09-20T08:22:04.000Z</time>
      </trkpt>
      <trkpt lat="44.16159" lon="5.26977">
        <ele>1468.4000244141</ele>
        <time>2014-09-20T08:22:17.000Z</time>
      </trkpt>
      <trkpt lat="44.1618" lon="5.27032">
        <ele>1468.8000488281</ele>
        <time>2014-09-20T08:22:31.000Z</time>
      </trkpt>
      <trkpt lat="44.16214" lon="5.27088">
        <ele>1478.5999755859</ele>
        <time>2014-09-20T08:22:47.000Z</time>
      </trkpt>
      <trkpt lat="44.1624" lon="5.27149">
        <ele>1489.1999511719</ele>
        <time>2014-09-20T08:23:03.000Z</time>
      </trkpt>
      <trkpt lat="44.16244" lon="5.27206">
        <ele>1496.5999755859</ele>
        <time>2014-09-20T08:23:17.000Z</time>
      </trkpt>
      <trkpt lat="44.16227" lon="5.27223">
        <ele>1495</ele>
        <time>2014-09-20T08:23:25.000Z</time>
      </trkpt>
      <trkpt lat="44.162" lon="5.27209">
        <ele>1488.5999755859</ele>
        <time>2014-09-20T08:23:35.000Z</time>
      </trkpt>
      <trkpt lat="44.16177" lon="5.27243">
        <ele>1486.8000488281</ele>
        <time>2014-09-20T08:23:45.000Z</time>
      </trkpt>
      <trkpt lat="44.16169" lon="5.27312">
        <ele>1489.4000244141</ele>
        <time>2014-09-20T08:24:01.000Z</time>
      </trkpt>
      <trkpt lat="44.16165" lon="5.27381">
        <ele>1490.1999511719</ele>
        <time>2014-09-20T08:24:17.000Z</time>
      </trkpt>
      <trkpt lat="44.16171" lon="5.27436">
        <ele>1491.1999511719</ele>
        <time>2014-09-20T08:24:30.000Z</time>
      </trkpt>
      <trkpt lat="44.16181" lon="5.27494">
        <ele>1490.1999511719</ele>
        <time>2014-09-20T08:24:44.000Z</time>
      </trkpt>
      <trkpt lat="44.16198" lon="5.27551">
        <ele>1491</ele>
        <time>2014-09-20T08:24:58.000Z</time>
      </trkpt>
      <trkpt lat="44.16203" lon="5.27566">
        <ele>1491.8000488281</ele>
        <time>2014-09-20T08:25:02.000Z</time>
      </trkpt>
      <trkpt lat="44.16206" lon="5.27569">
        <ele>1492.4000244141</ele>
        <time>2014-09-20T08:25:03.000Z</time>
      </trkpt>
      <trkpt lat="44.16207" lon="5.27573">
        <ele>1492.8000488281</ele>
        <time>2014-09-20T08:25:04.000Z</time>
      </trkpt>
      <trkpt lat="44.16219" lon="5.27618">
        <ele>1493.8000488281</ele>
        <time>2014-09-20T08:25:16.000Z</time>
      </trkpt>
      <trkpt lat="44.16238" lon="5.27676">
        <ele>1498.8000488281</ele>
        <time>2014-09-20T08:25:30.000Z</time>
      </trkpt>
      <trkpt lat="44.16245" lon="5.27701">
        <ele>1503.8000488281</ele>
        <time>2014-09-20T08:25:37.000Z</time>
      </trkpt>
      <trkpt lat="44.16246" lon="5.27705">
        <ele>1504.4000244141</ele>
        <time>2014-09-20T08:25:38.000Z</time>
      </trkpt>
      <trkpt lat="44.16261" lon="5.2775">
        <ele>1508</ele>
        <time>2014-09-20T08:25:51.000Z</time>
      </trkpt>
      <trkpt lat="44.16276" lon="5.27804">
        <ele>1509</ele>
        <time>2014-09-20T08:26:05.000Z</time>
      </trkpt>
      <trkpt lat="44.16287" lon="5.27858">
        <ele>1501.1999511719</ele>
        <time>2014-09-20T08:26:19.000Z</time>
      </trkpt>
      <trkpt lat="44.16291" lon="5.27882">
        <ele>1497.1999511719</ele>
        <time>2014-09-20T08:26:28.000Z</time>
      </trkpt>
      <trkpt lat="44.16293" lon="5.27881">
        <ele>1498</ele>
        <time>2014-09-20T08:26:43.000Z</time>
      </trkpt>
      <trkpt lat="44.16295" lon="5.27878">
        <ele>1499.5999755859</ele>
        <time>2014-09-20T08:27:08.000Z</time>
      </trkpt>
      <trkpt lat="44.16295" lon="5.27878">
        <ele>1499.4000244141</ele>
        <time>2014-09-20T08:27:41.000Z</time>
      </trkpt>
      <trkpt lat="44.16293" lon="5.27878">
        <ele>1499</ele>
        <time>2014-09-20T08:28:11.000Z</time>
      </trkpt>
      <trkpt lat="44.16292" lon="5.27878">
        <ele>1498.5999755859</ele>
        <time>2014-09-20T08:28:41.000Z</time>
      </trkpt>
      <trkpt lat="44.16292" lon="5.27877">
        <ele>1498.5999755859</ele>
        <time>2014-09-20T08:29:09.000Z</time>
      </trkpt>
      <trkpt lat="44.16292" lon="5.27875">
        <ele>1499.4000244141</ele>
        <time>2014-09-20T08:29:46.000Z</time>
      </trkpt>
      <trkpt lat="44.16292" lon="5.27875">
        <ele>1499</ele>
        <time>2014-09-20T08:30:25.000Z</time>
      </trkpt>
      <trkpt lat="44.16292" lon="5.27879">
        <ele>1498.1999511719</ele>
        <time>2014-09-20T08:30:47.000Z</time>
      </trkpt>
      <trkpt lat="44.16293" lon="5.27881">
        <ele>1498.1999511719</ele>
        <time>2014-09-20T08:31:16.000Z</time>
      </trkpt>
      <trkpt lat="44.16292" lon="5.2788">
        <ele>1498</ele>
        <time>2014-09-20T08:31:48.000Z</time>
      </trkpt>
      <trkpt lat="44.16293" lon="5.27885">
        <ele>1497</ele>
        <time>2014-09-20T08:32:03.000Z</time>
      </trkpt>
      <trkpt lat="44.16295" lon="5.27889">
        <ele>1496.4000244141</ele>
        <time>2014-09-20T08:32:05.000Z</time>
      </trkpt>
      <trkpt lat="44.16297" lon="5.27892">
        <ele>1496.4000244141</ele>
        <time>2014-09-20T08:32:06.000Z</time>
      </trkpt>
      <trkpt lat="44.16315" lon="5.27916">
        <ele>1495.8000488281</ele>
        <time>2014-09-20T08:32:13.000Z</time>
      </trkpt>
      <trkpt lat="44.16325" lon="5.2793">
        <ele>1494.5999755859</ele>
        <time>2014-09-20T08:32:16.000Z</time>
      </trkpt>
      <trkpt lat="44.16329" lon="5.27935">
        <ele>1494.5999755859</ele>
        <time>2014-09-20T08:32:17.000Z</time>
      </trkpt>
      <trkpt lat="44.16402" lon="5.27999">
        <ele>1503.8000488281</ele>
        <time>2014-09-20T08:32:31.000Z</time>
      </trkpt>
      <trkpt lat="44.16434" lon="5.28031">
        <ele>1507.8000488281</ele>
        <time>2014-09-20T08:32:37.000Z</time>
      </trkpt>
      <trkpt lat="44.16476" lon="5.28081">
        <ele>1523.1999511719</ele>
        <time>2014-09-20T08:32:46.000Z</time>
      </trkpt>
      <trkpt lat="44.16478" lon="5.28088">
        <ele>1525.1999511719</ele>
        <time>2014-09-20T08:32:47.000Z</time>
      </trkpt>
      <trkpt lat="44.16479" lon="5.28096">
        <ele>1527</ele>
        <time>2014-09-20T08:32:48.000Z</time>
      </trkpt>
      <trkpt lat="44.16479" lon="5.28103">
        <ele>1528.4000244141</ele>
        <time>2014-09-20T08:32:49.000Z</time>
      </trkpt>
      <trkpt lat="44.16477" lon="5.2811">
        <ele>1529.1999511719</ele>
        <time>2014-09-20T08:32:50.000Z</time>
      </trkpt>
      <trkpt lat="44.16468" lon="5.28114">
        <ele>1527.5999755859</ele>
        <time>2014-09-20T08:32:51.000Z</time>
      </trkpt>
      <trkpt lat="44.16462" lon="5.28118">
        <ele>1526.4000244141</ele>
        <time>2014-09-20T08:32:52.000Z</time>
      </trkpt>
      <trkpt lat="44.16455" lon="5.2812">
        <ele>1525</ele>
        <time>2014-09-20T08:32:53.000Z</time>
      </trkpt>
      <trkpt lat="44.16448" lon="5.28122">
        <ele>1523.5999755859</ele>
        <time>2014-09-20T08:32:54.000Z</time>
      </trkpt>
      <trkpt lat="44.16427" lon="5.28128">
        <ele>1520.1999511719</ele>
        <time>2014-09-20T08:32:57.000Z</time>
      </trkpt>
      <trkpt lat="44.16421" lon="5.28131">
        <ele>1519.8000488281</ele>
        <time>2014-09-20T08:32:58.000Z</time>
      </trkpt>
      <trkpt lat="44.16415" lon="5.28135">
        <ele>1519.4000244141</ele>
        <time>2014-09-20T08:32:59.000Z</time>
      </trkpt>
      <trkpt lat="44.1641" lon="5.2814">
        <ele>1519.4000244141</ele>
        <time>2014-09-20T08:33:00.000Z</time>
      </trkpt>
      <trkpt lat="44.16406" lon="5.28146">
        <ele>1520</ele>
        <time>2014-09-20T08:33:01.000Z</time>
      </trkpt>
      <trkpt lat="44.16403" lon="5.28152">
        <ele>1521</ele>
        <time>2014-09-20T08:33:02.000Z</time>
      </trkpt>
      <trkpt lat="44.164" lon="5.2816">
        <ele>1522</ele>
        <time>2014-09-20T08:33:03.000Z</time>
      </trkpt>
      <trkpt lat="44.16397" lon="5.28167">
        <ele>1523</ele>
        <time>2014-09-20T08:33:04.000Z</time>
      </trkpt>
      <trkpt lat="44.16393" lon="5.2818">
        <ele>1528.1999511719</ele>
        <time>2014-09-20T08:33:06.000Z</time>
      </trkpt>
      <trkpt lat="44.16389" lon="5.28185">
        <ele>1530.1999511719</ele>
        <time>2014-09-20T08:33:07.000Z</time>
      </trkpt>
      <trkpt lat="44.16386" lon="5.28189">
        <ele>1531.8000488281</ele>
        <time>2014-09-20T08:33:08.000Z</time>
      </trkpt>
      <trkpt lat="44.16381" lon="5.28192">
        <ele>1533</ele>
        <time>2014-09-20T08:33:09.000Z</time>
      </trkpt>
      <trkpt lat="44.16377" lon="5.28194">
        <ele>1533.8000488281</ele>
        <time>2014-09-20T08:33:10.000Z</time>
      </trkpt>
      <trkpt lat="44.16372" lon="5.28195">
        <ele>1534</ele>
        <time>2014-09-20T08:33:11.000Z</time>
      </trkpt>
      <trkpt lat="44.16367" lon="5.28193">
        <ele>1533.4000244141</ele>
        <time>2014-09-20T08:33:12.000Z</time>
      </trkpt>
      <trkpt lat="44.16363" lon="5.28191">
        <ele>1532.4000244141</ele>
        <time>2014-09-20T08:33:13.000Z</time>
      </trkpt>
      <trkpt lat="44.16358" lon="5.28189">
        <ele>1531</ele>
        <time>2014-09-20T08:33:14.000Z</time>
      </trkpt>
      <trkpt lat="44.16354" lon="5.28186">
        <ele>1529.4000244141</ele>
        <time>2014-09-20T08:33:15.000Z</time>
      </trkpt>
      <trkpt lat="44.16345" lon="5.28179">
        <ele>1526.4000244141</ele>
        <time>2014-09-20T08:33:17.000Z</time>
      </trkpt>
      <trkpt lat="44.16341" lon="5.28177">
        <ele>1525</ele>
        <time>2014-09-20T08:33:18.000Z</time>
      </trkpt>
      <trkpt lat="44.16336" lon="5.28175">
        <ele>1524</ele>
        <time>2014-09-20T08:33:19.000Z</time>
      </trkpt>
      <trkpt lat="44.16327" lon="5.28173">
        <ele>1522.4000244141</ele>
        <time>2014-09-20T08:33:21.000Z</time>
      </trkpt>
      <trkpt lat="44.16322" lon="5.28173">
        <ele>1521.8000488281</ele>
        <time>2014-09-20T08:33:22.000Z</time>
      </trkpt>
      <trkpt lat="44.16317" lon="5.28172">
        <ele>1521.1999511719</ele>
        <time>2014-09-20T08:33:23.000Z</time>
      </trkpt>
      <trkpt lat="44.16249" lon="5.28189">
        <ele>1520.8000488281</ele>
        <time>2014-09-20T08:33:35.000Z</time>
      </trkpt>
      <trkpt lat="44.16197" lon="5.28205">
        <ele>1516.4000244141</ele>
        <time>2014-09-20T08:33:45.000Z</time>
      </trkpt>
      <trkpt lat="44.1616" lon="5.28215">
        <ele>1510</ele>
        <time>2014-09-20T08:33:54.000Z</time>
      </trkpt>
      <trkpt lat="44.16156" lon="5.28217">
        <ele>1509.1999511719</ele>
        <time>2014-09-20T08:33:55.000Z</time>
      </trkpt>
      <trkpt lat="44.16153" lon="5.2822">
        <ele>1508.5999755859</ele>
        <time>2014-09-20T08:33:56.000Z</time>
      </trkpt>
      <trkpt lat="44.16149" lon="5.28223">
        <ele>1508.1999511719</ele>
        <time>2014-09-20T08:33:57.000Z</time>
      </trkpt>
      <trkpt lat="44.16145" lon="5.28227">
        <ele>1507.8000488281</ele>
        <time>2014-09-20T08:33:58.000Z</time>
      </trkpt>
      <trkpt lat="44.16142" lon="5.28231">
        <ele>1507.5999755859</ele>
        <time>2014-09-20T08:33:59.000Z</time>
      </trkpt>
      <trkpt lat="44.1614" lon="5.28236">
        <ele>1507.8000488281</ele>
        <time>2014-09-20T08:34:00.000Z</time>
      </trkpt>
      <trkpt lat="44.16138" lon="5.28242">
        <ele>1508.1999511719</ele>
        <time>2014-09-20T08:34:01.000Z</time>
      </trkpt>
      <trkpt lat="44.16136" lon="5.28247">
        <ele>1508.5999755859</ele>
        <time>2014-09-20T08:34:02.000Z</time>
      </trkpt>
      <trkpt lat="44.16135" lon="5.28253">
        <ele>1509.4000244141</ele>
        <time>2014-09-20T08:34:03.000Z</time>
      </trkpt>
      <trkpt lat="44.16134" lon="5.28259">
        <ele>1510</ele>
        <time>2014-09-20T08:34:04.000Z</time>
      </trkpt>
      <trkpt lat="44.16133" lon="5.28272">
        <ele>1512</ele>
        <time>2014-09-20T08:34:06.000Z</time>
      </trkpt>
      <trkpt lat="44.16133" lon="5.28278">
        <ele>1513</ele>
        <time>2014-09-20T08:34:07.000Z</time>
      </trkpt>
      <trkpt lat="44.16133" lon="5.28284">
        <ele>1514</ele>
        <time>2014-09-20T08:34:08.000Z</time>
      </trkpt>
      <trkpt lat="44.1613" lon="5.2833">
        <ele>1519</ele>
        <time>2014-09-20T08:34:16.000Z</time>
      </trkpt>
      <trkpt lat="44.16129" lon="5.28354">
        <ele>1521.1999511719</ele>
        <time>2014-09-20T08:34:20.000Z</time>
      </trkpt>
      <trkpt lat="44.16118" lon="5.28404">
        <ele>1522.4000244141</ele>
        <time>2014-09-20T08:34:29.000Z</time>
      </trkpt>
      <trkpt lat="44.16115" lon="5.28409">
        <ele>1522.1999511719</ele>
        <time>2014-09-20T08:34:30.000Z</time>
      </trkpt>
      <trkpt lat="44.16104" lon="5.28428">
        <ele>1521.4000244141</ele>
        <time>2014-09-20T08:34:34.000Z</time>
      </trkpt>
      <trkpt lat="44.16093" lon="5.28443">
        <ele>1520</ele>
        <time>2014-09-20T08:34:37.000Z</time>
      </trkpt>
      <trkpt lat="44.1609" lon="5.28447">
        <ele>1519.4000244141</ele>
        <time>2014-09-20T08:34:38.000Z</time>
      </trkpt>
      <trkpt lat="44.16079" lon="5.28461">
        <ele>1515.5999755859</ele>
        <time>2014-09-20T08:34:41.000Z</time>
      </trkpt>
      <trkpt lat="44.16075" lon="5.28466">
        <ele>1514</ele>
        <time>2014-09-20T08:34:42.000Z</time>
      </trkpt>
      <trkpt lat="44.16072" lon="5.28472">
        <ele>1512.4000244141</ele>
        <time>2014-09-20T08:34:43.000Z</time>
      </trkpt>
      <trkpt lat="44.16069" lon="5.28478">
        <ele>1511</ele>
        <time>2014-09-20T08:34:44.000Z</time>
      </trkpt>
      <trkpt lat="44.16068" lon="5.28485">
        <ele>1509.8000488281</ele>
        <time>2014-09-20T08:34:45.000Z</time>
      </trkpt>
      <trkpt lat="44.16066" lon="5.28491">
        <ele>1508.8000488281</ele>
        <time>2014-09-20T08:34:46.000Z</time>
      </trkpt>
      <trkpt lat="44.16065" lon="5.28498">
        <ele>1507.8000488281</ele>
        <time>2014-09-20T08:34:47.000Z</time>
      </trkpt>
      <trkpt lat="44.16065" lon="5.28523">
        <ele>1503.5999755859</ele>
        <time>2014-09-20T08:34:51.000Z</time>
      </trkpt>
      <trkpt lat="44.16069" lon="5.28558">
        <ele>1499</ele>
        <time>2014-09-20T08:34:57.000Z</time>
      </trkpt>
      <trkpt lat="44.16071" lon="5.28564">
        <ele>1498.4000244141</ele>
        <time>2014-09-20T08:34:58.000Z</time>
      </trkpt>
      <trkpt lat="44.16083" lon="5.28607">
        <ele>1493.8000488281</ele>
        <time>2014-09-20T08:35:05.000Z</time>
      </trkpt>
      <trkpt lat="44.16085" lon="5.28612">
        <ele>1493.5999755859</ele>
        <time>2014-09-20T08:35:06.000Z</time>
      </trkpt>
      <trkpt lat="44.16091" lon="5.28623">
        <ele>1493.1999511719</ele>
        <time>2014-09-20T08:35:08.000Z</time>
      </trkpt>
      <trkpt lat="44.16094" lon="5.28628">
        <ele>1493.4000244141</ele>
        <time>2014-09-20T08:35:09.000Z</time>
      </trkpt>
      <trkpt lat="44.16097" lon="5.28633">
        <ele>1493.5999755859</ele>
        <time>2014-09-20T08:35:10.000Z</time>
      </trkpt>
      <trkpt lat="44.16101" lon="5.28638">
        <ele>1494</ele>
        <time>2014-09-20T08:35:11.000Z</time>
      </trkpt>
      <trkpt lat="44.16104" lon="5.28643">
        <ele>1494.4000244141</ele>
        <time>2014-09-20T08:35:12.000Z</time>
      </trkpt>
      <trkpt lat="44.16108" lon="5.28646">
        <ele>1495.1999511719</ele>
        <time>2014-09-20T08:35:13.000Z</time>
      </trkpt>
      <trkpt lat="44.16161" lon="5.28688">
        <ele>1508.4000244141</ele>
        <time>2014-09-20T08:35:26.000Z</time>
      </trkpt>
      <trkpt lat="44.16164" lon="5.28691">
        <ele>1509.1999511719</ele>
        <time>2014-09-20T08:35:27.000Z</time>
      </trkpt>
      <trkpt lat="44.16168" lon="5.28695">
        <ele>1509.8000488281</ele>
        <time>2014-09-20T08:35:28.000Z</time>
      </trkpt>
      <trkpt lat="44.1617" lon="5.287">
        <ele>1509.8000488281</ele>
        <time>2014-09-20T08:35:29.000Z</time>
      </trkpt>
      <trkpt lat="44.16172" lon="5.28706">
        <ele>1509.1999511719</ele>
        <time>2014-09-20T08:35:30.000Z</time>
      </trkpt>
      <trkpt lat="44.16173" lon="5.28712">
        <ele>1508.4000244141</ele>
        <time>2014-09-20T08:35:31.000Z</time>
      </trkpt>
      <trkpt lat="44.16173" lon="5.28718">
        <ele>1507.5999755859</ele>
        <time>2014-09-20T08:35:32.000Z</time>
      </trkpt>
      <trkpt lat="44.16172" lon="5.28724">
        <ele>1506.4000244141</ele>
        <time>2014-09-20T08:35:33.000Z</time>
      </trkpt>
      <trkpt lat="44.16171" lon="5.2873">
        <ele>1505.1999511719</ele>
        <time>2014-09-20T08:35:34.000Z</time>
      </trkpt>
      <trkpt lat="44.16168" lon="5.28736">
        <ele>1503.5999755859</ele>
        <time>2014-09-20T08:35:35.000Z</time>
      </trkpt>
      <trkpt lat="44.16164" lon="5.28762">
        <ele>1498.8000488281</ele>
        <time>2014-09-20T08:35:39.000Z</time>
      </trkpt>
      <trkpt lat="44.16163" lon="5.28768">
        <ele>1498.1999511719</ele>
        <time>2014-09-20T08:35:40.000Z</time>
      </trkpt>
      <trkpt lat="44.16163" lon="5.28774">
        <ele>1498</ele>
        <time>2014-09-20T08:35:41.000Z</time>
      </trkpt>
      <trkpt lat="44.16165" lon="5.28786">
        <ele>1498.1999511719</ele>
        <time>2014-09-20T08:35:43.000Z</time>
      </trkpt>
      <trkpt lat="44.16166" lon="5.28792">
        <ele>1498.4000244141</ele>
        <time>2014-09-20T08:35:44.000Z</time>
      </trkpt>
      <trkpt lat="44.16169" lon="5.28797">
        <ele>1499</ele>
        <time>2014-09-20T08:35:45.000Z</time>
      </trkpt>
      <trkpt lat="44.16196" lon="5.28856">
        <ele>1506</ele>
        <time>2014-09-20T08:35:57.000Z</time>
      </trkpt>
      <trkpt lat="44.16196" lon="5.28862">
        <ele>1505.4000244141</ele>
        <time>2014-09-20T08:35:58.000Z</time>
      </trkpt>
      <trkpt lat="44.16195" lon="5.28867">
        <ele>1504.8000488281</ele>
        <time>2014-09-20T08:35:59.000Z</time>
      </trkpt>
      <trkpt lat="44.16193" lon="5.28873">
        <ele>1504</ele>
        <time>2014-09-20T08:36:00.000Z</time>
      </trkpt>
      <trkpt lat="44.16193" lon="5.28879">
        <ele>1503.5999755859</ele>
        <time>2014-09-20T08:36:01.000Z</time>
      </trkpt>
      <trkpt lat="44.16192" lon="5.28885">
        <ele>1504</ele>
        <time>2014-09-20T08:36:02.000Z</time>
      </trkpt>
      <trkpt lat="44.16191" lon="5.28954">
        <ele>1508.1999511719</ele>
        <time>2014-09-20T08:36:16.000Z</time>
      </trkpt>
      <trkpt lat="44.16194" lon="5.29022">
        <ele>1516.1999511719</ele>
        <time>2014-09-20T08:36:31.000Z</time>
      </trkpt>
      <trkpt lat="44.16196" lon="5.29082">
        <ele>1524.8000488281</ele>
        <time>2014-09-20T08:36:44.000Z</time>
      </trkpt>
      <trkpt lat="44.16188" lon="5.29132">
        <ele>1532</ele>
        <time>2014-09-20T08:36:58.000Z</time>
      </trkpt>
      <trkpt lat="44.16167" lon="5.29139">
        <ele>1531.5999755859</ele>
        <time>2014-09-20T08:37:13.000Z</time>
      </trkpt>
      <trkpt lat="44.16162" lon="5.29135">
        <ele>1530.5999755859</ele>
        <time>2014-09-20T08:37:18.000Z</time>
      </trkpt>
      <trkpt lat="44.16161" lon="5.29134">
        <ele>1530.1999511719</ele>
        <time>2014-09-20T08:37:19.000Z</time>
      </trkpt>
      <trkpt lat="44.16155" lon="5.29096">
        <ele>1530.4000244141</ele>
        <time>2014-09-20T08:37:36.000Z</time>
      </trkpt>
      <trkpt lat="44.16157" lon="5.29089">
        <ele>1530</ele>
        <time>2014-09-20T08:37:38.000Z</time>
      </trkpt>
      <trkpt lat="44.16158" lon="5.29085">
        <ele>1529.4000244141</ele>
        <time>2014-09-20T08:37:39.000Z</time>
      </trkpt>
      <trkpt lat="44.16157" lon="5.29081">
        <ele>1529</ele>
        <time>2014-09-20T08:37:40.000Z</time>
      </trkpt>
      <trkpt lat="44.16157" lon="5.29077">
        <ele>1528.4000244141</ele>
        <time>2014-09-20T08:37:41.000Z</time>
      </trkpt>
      <trkpt lat="44.16157" lon="5.29073">
        <ele>1527.5999755859</ele>
        <time>2014-09-20T08:37:42.000Z</time>
      </trkpt>
      <trkpt lat="44.16159" lon="5.29062">
        <ele>1525.5999755859</ele>
        <time>2014-09-20T08:37:45.000Z</time>
      </trkpt>
      <trkpt lat="44.16159" lon="5.29059">
        <ele>1525.1999511719</ele>
        <time>2014-09-20T08:37:46.000Z</time>
      </trkpt>
      <trkpt lat="44.16157" lon="5.29055">
        <ele>1524.8000488281</ele>
        <time>2014-09-20T08:37:47.000Z</time>
      </trkpt>
      <trkpt lat="44.16145" lon="5.29023">
        <ele>1521.5999755859</ele>
        <time>2014-09-20T08:37:56.000Z</time>
      </trkpt>
      <trkpt lat="44.16115" lon="5.28977">
        <ele>1518.5999755859</ele>
        <time>2014-09-20T08:38:11.000Z</time>
      </trkpt>
      <trkpt lat="44.16072" lon="5.28952">
        <ele>1514.5999755859</ele>
        <time>2014-09-20T08:38:24.000Z</time>
      </trkpt>
      <trkpt lat="44.16015" lon="5.2896">
        <ele>1512.8000488281</ele>
        <time>2014-09-20T08:38:36.000Z</time>
      </trkpt>
      <trkpt lat="44.1601" lon="5.28964">
        <ele>1512</ele>
        <time>2014-09-20T08:38:37.000Z</time>
      </trkpt>
      <trkpt lat="44.16007" lon="5.28968">
        <ele>1511.4000244141</ele>
        <time>2014-09-20T08:38:38.000Z</time>
      </trkpt>
      <trkpt lat="44.16003" lon="5.28973">
        <ele>1510.8000488281</ele>
        <time>2014-09-20T08:38:39.000Z</time>
      </trkpt>
      <trkpt lat="44.16" lon="5.28978">
        <ele>1510.1999511719</ele>
        <time>2014-09-20T08:38:40.000Z</time>
      </trkpt>
      <trkpt lat="44.15998" lon="5.28984">
        <ele>1509.8000488281</ele>
        <time>2014-09-20T08:38:41.000Z</time>
      </trkpt>
      <trkpt lat="44.15996" lon="5.2899">
        <ele>1509.4000244141</ele>
        <time>2014-09-20T08:38:42.000Z</time>
      </trkpt>
      <trkpt lat="44.15995" lon="5.28996">
        <ele>1509</ele>
        <time>2014-09-20T08:38:43.000Z</time>
      </trkpt>
      <trkpt lat="44.15993" lon="5.29002">
        <ele>1508.8000488281</ele>
        <time>2014-09-20T08:38:44.000Z</time>
      </trkpt>
      <trkpt lat="44.15992" lon="5.29008">
        <ele>1508.5999755859</ele>
        <time>2014-09-20T08:38:45.000Z</time>
      </trkpt>
      <trkpt lat="44.15995" lon="5.29088">
        <ele>1495.4000244141</ele>
        <time>2014-09-20T08:39:00.000Z</time>
      </trkpt>
      <trkpt lat="44.16032" lon="5.29185">
        <ele>1490</ele>
        <time>2014-09-20T08:39:19.000Z</time>
      </trkpt>
      <trkpt lat="44.16036" lon="5.29196">
        <ele>1489.8000488281</ele>
        <time>2014-09-20T08:39:21.000Z</time>
      </trkpt>
      <trkpt lat="44.16042" lon="5.29218">
        <ele>1489</ele>
        <time>2014-09-20T08:39:25.000Z</time>
      </trkpt>
      <trkpt lat="44.16043" lon="5.29224">
        <ele>1488.8000488281</ele>
        <time>2014-09-20T08:39:26.000Z</time>
      </trkpt>
      <trkpt lat="44.16047" lon="5.29247">
        <ele>1488.1999511719</ele>
        <time>2014-09-20T08:39:30.000Z</time>
      </trkpt>
      <trkpt lat="44.16048" lon="5.29252">
        <ele>1488</ele>
        <time>2014-09-20T08:39:31.000Z</time>
      </trkpt>
      <trkpt lat="44.16049" lon="5.29258">
        <ele>1487.5999755859</ele>
        <time>2014-09-20T08:39:32.000Z</time>
      </trkpt>
      <trkpt lat="44.1605" lon="5.29264">
        <ele>1487.4000244141</ele>
        <time>2014-09-20T08:39:33.000Z</time>
      </trkpt>
      <trkpt lat="44.16051" lon="5.2927">
        <ele>1487.1999511719</ele>
        <time>2014-09-20T08:39:34.000Z</time>
      </trkpt>
      <trkpt lat="44.16074" lon="5.29382">
        <ele>1485</ele>
        <time>2014-09-20T08:39:53.000Z</time>
      </trkpt>
      <trkpt lat="44.16086" lon="5.29416">
        <ele>1485</ele>
        <time>2014-09-20T08:39:59.000Z</time>
      </trkpt>
      <trkpt lat="44.16127" lon="5.2951">
        <ele>1492.4000244141</ele>
        <time>2014-09-20T08:40:17.000Z</time>
      </trkpt>
      <trkpt lat="44.16175" lon="5.29575">
        <ele>1503.4000244141</ele>
        <time>2014-09-20T08:40:33.000Z</time>
      </trkpt>
      <trkpt lat="44.16192" lon="5.29593">
        <ele>1507.1999511719</ele>
        <time>2014-09-20T08:40:38.000Z</time>
      </trkpt>
      <trkpt lat="44.16197" lon="5.29602">
        <ele>1508</ele>
        <time>2014-09-20T08:40:40.000Z</time>
      </trkpt>
      <trkpt lat="44.16198" lon="5.29607">
        <ele>1508</ele>
        <time>2014-09-20T08:40:41.000Z</time>
      </trkpt>
      <trkpt lat="44.16199" lon="5.29612">
        <ele>1507.8000488281</ele>
        <time>2014-09-20T08:40:42.000Z</time>
      </trkpt>
      <trkpt lat="44.162" lon="5.29617">
        <ele>1507.4000244141</ele>
        <time>2014-09-20T08:40:43.000Z</time>
      </trkpt>
      <trkpt lat="44.162" lon="5.29622">
        <ele>1506.5999755859</ele>
        <time>2014-09-20T08:40:44.000Z</time>
      </trkpt>
      <trkpt lat="44.162" lon="5.29627">
        <ele>1506</ele>
        <time>2014-09-20T08:40:45.000Z</time>
      </trkpt>
      <trkpt lat="44.1621" lon="5.2969">
        <ele>1519</ele>
        <time>2014-09-20T08:40:58.000Z</time>
      </trkpt>
      <trkpt lat="44.16231" lon="5.29753">
        <ele>1532.1999511719</ele>
        <time>2014-09-20T08:41:13.000Z</time>
      </trkpt>
      <trkpt lat="44.16232" lon="5.2977">
        <ele>1538.4000244141</ele>
        <time>2014-09-20T08:41:17.000Z</time>
      </trkpt>
      <trkpt lat="44.16229" lon="5.29774">
        <ele>1540</ele>
        <time>2014-09-20T08:41:18.000Z</time>
      </trkpt>
      <trkpt lat="44.16226" lon="5.29776">
        <ele>1541.1999511719</ele>
        <time>2014-09-20T08:41:19.000Z</time>
      </trkpt>
      <trkpt lat="44.16223" lon="5.29778">
        <ele>1542.1999511719</ele>
        <time>2014-09-20T08:41:20.000Z</time>
      </trkpt>
      <trkpt lat="44.16219" lon="5.29778">
        <ele>1542.8000488281</ele>
        <time>2014-09-20T08:41:21.000Z</time>
      </trkpt>
      <trkpt lat="44.16216" lon="5.29777">
        <ele>1543</ele>
        <time>2014-09-20T08:41:22.000Z</time>
      </trkpt>
      <trkpt lat="44.16212" lon="5.29776">
        <ele>1543</ele>
        <time>2014-09-20T08:41:23.000Z</time>
      </trkpt>
      <trkpt lat="44.16193" lon="5.29765">
        <ele>1541.4000244141</ele>
        <time>2014-09-20T08:41:28.000Z</time>
      </trkpt>
      <trkpt lat="44.16116" lon="5.29721">
        <ele>1536.8000488281</ele>
        <time>2014-09-20T08:41:44.000Z</time>
      </trkpt>
      <trkpt lat="44.16045" lon="5.29673">
        <ele>1529.1999511719</ele>
        <time>2014-09-20T08:41:57.000Z</time>
      </trkpt>
      <trkpt lat="44.15976" lon="5.29616">
        <ele>1518.1999511719</ele>
        <time>2014-09-20T08:42:11.000Z</time>
      </trkpt>
      <trkpt lat="44.1592" lon="5.29556">
        <ele>1505.8000488281</ele>
        <time>2014-09-20T08:42:25.000Z</time>
      </trkpt>
      <trkpt lat="44.15919" lon="5.29552">
        <ele>1504.8000488281</ele>
        <time>2014-09-20T08:42:33.000Z</time>
      </trkpt>
      <trkpt lat="44.15919" lon="5.29554">
        <ele>1505.1999511719</ele>
        <time>2014-09-20T08:42:59.000Z</time>
      </trkpt>
      <trkpt lat="44.1592" lon="5.29554">
        <ele>1505.4000244141</ele>
        <time>2014-09-20T08:43:27.000Z</time>
      </trkpt>
      <trkpt lat="44.15916" lon="5.29551">
        <ele>1504.5999755859</ele>
        <time>2014-09-20T08:43:34.000Z</time>
      </trkpt>
      <trkpt lat="44.15915" lon="5.29551">
        <ele>1504.1999511719</ele>
        <time>2014-09-20T08:43:35.000Z</time>
      </trkpt>
      <trkpt lat="44.15913" lon="5.2955">
        <ele>1503.8000488281</ele>
        <time>2014-09-20T08:43:36.000Z</time>
      </trkpt>
      <trkpt lat="44.15911" lon="5.2955">
        <ele>1503.4000244141</ele>
        <time>2014-09-20T08:43:37.000Z</time>
      </trkpt>
      <trkpt lat="44.15908" lon="5.2955">
        <ele>1503.1999511719</ele>
        <time>2014-09-20T08:43:38.000Z</time>
      </trkpt>
      <trkpt lat="44.15906" lon="5.29551">
        <ele>1503.1999511719</ele>
        <time>2014-09-20T08:43:39.000Z</time>
      </trkpt>
      <trkpt lat="44.15904" lon="5.29551">
        <ele>1503</ele>
        <time>2014-09-20T08:43:40.000Z</time>
      </trkpt>
      <trkpt lat="44.15885" lon="5.29583">
        <ele>1504.8000488281</ele>
        <time>2014-09-20T08:43:50.000Z</time>
      </trkpt>
      <trkpt lat="44.15863" lon="5.29652">
        <ele>1503.8000488281</ele>
        <time>2014-09-20T08:44:04.000Z</time>
      </trkpt>
      <trkpt lat="44.15861" lon="5.29656">
        <ele>1503.8000488281</ele>
        <time>2014-09-20T08:44:05.000Z</time>
      </trkpt>
      <trkpt lat="44.15859" lon="5.29662">
        <ele>1503.8000488281</ele>
        <time>2014-09-20T08:44:06.000Z</time>
      </trkpt>
      <trkpt lat="44.15855" lon="5.29672">
        <ele>1503.8000488281</ele>
        <time>2014-09-20T08:44:08.000Z</time>
      </trkpt>
      <trkpt lat="44.15853" lon="5.29678">
        <ele>1503.8000488281</ele>
        <time>2014-09-20T08:44:09.000Z</time>
      </trkpt>
      <trkpt lat="44.15822" lon="5.29749">
        <ele>1507.5999755859</ele>
        <time>2014-09-20T08:44:23.000Z</time>
      </trkpt>
      <trkpt lat="44.15783" lon="5.29809">
        <ele>1508.1999511719</ele>
        <time>2014-09-20T08:44:37.000Z</time>
      </trkpt>
      <trkpt lat="44.15777" lon="5.29818">
        <ele>1507.5999755859</ele>
        <time>2014-09-20T08:44:39.000Z</time>
      </trkpt>
      <trkpt lat="44.15748" lon="5.29863">
        <ele>1504.1999511719</ele>
        <time>2014-09-20T08:44:48.000Z</time>
      </trkpt>
      <trkpt lat="44.15744" lon="5.29869">
        <ele>1503.8000488281</ele>
        <time>2014-09-20T08:44:49.000Z</time>
      </trkpt>
      <trkpt lat="44.15741" lon="5.29876">
        <ele>1503.8000488281</ele>
        <time>2014-09-20T08:44:50.000Z</time>
      </trkpt>
      <trkpt lat="44.15738" lon="5.29882">
        <ele>1503.5999755859</ele>
        <time>2014-09-20T08:44:51.000Z</time>
      </trkpt>
      <trkpt lat="44.15734" lon="5.29888">
        <ele>1503</ele>
        <time>2014-09-20T08:44:52.000Z</time>
      </trkpt>
      <trkpt lat="44.15717" lon="5.29923">
        <ele>1501</ele>
        <time>2014-09-20T08:44:57.000Z</time>
      </trkpt>
      <trkpt lat="44.15714" lon="5.29931">
        <ele>1500.8000488281</ele>
        <time>2014-09-20T08:44:58.000Z</time>
      </trkpt>
      <trkpt lat="44.1568" lon="5.30036">
        <ele>1495.8000488281</ele>
        <time>2014-09-20T08:45:11.000Z</time>
      </trkpt>
      <trkpt lat="44.15656" lon="5.30158">
        <ele>1490.8000488281</ele>
        <time>2014-09-20T08:45:23.000Z</time>
      </trkpt>
      <trkpt lat="44.15654" lon="5.30169">
        <ele>1490.4000244141</ele>
        <time>2014-09-20T08:45:24.000Z</time>
      </trkpt>
      <trkpt lat="44.15627" lon="5.30314">
        <ele>1485.5999755859</ele>
        <time>2014-09-20T08:45:37.000Z</time>
      </trkpt>
      <trkpt lat="44.15609" lon="5.30412">
        <ele>1480.4000244141</ele>
        <time>2014-09-20T08:45:45.000Z</time>
      </trkpt>
      <trkpt lat="44.15603" lon="5.3048">
        <ele>1474</ele>
        <time>2014-09-20T08:45:51.000Z</time>
      </trkpt>
      <trkpt lat="44.15604" lon="5.305">
        <ele>1472.5999755859</ele>
        <time>2014-09-20T08:45:53.000Z</time>
      </trkpt>
      <trkpt lat="44.15606" lon="5.30508">
        <ele>1472.4000244141</ele>
        <time>2014-09-20T08:45:54.000Z</time>
      </trkpt>
      <trkpt lat="44.15608" lon="5.30517">
        <ele>1472.5999755859</ele>
        <time>2014-09-20T08:45:55.000Z</time>
      </trkpt>
      <trkpt lat="44.15613" lon="5.30533">
        <ele>1472.5999755859</ele>
        <time>2014-09-20T08:45:57.000Z</time>
      </trkpt>
      <trkpt lat="44.15616" lon="5.30541">
        <ele>1472.8000488281</ele>
        <time>2014-09-20T08:45:58.000Z</time>
      </trkpt>
      <trkpt lat="44.15621" lon="5.30548">
        <ele>1473.4000244141</ele>
        <time>2014-09-20T08:45:59.000Z</time>
      </trkpt>
      <trkpt lat="44.15625" lon="5.30555">
        <ele>1474.8000488281</ele>
        <time>2014-09-20T08:46:00.000Z</time>
      </trkpt>
      <trkpt lat="44.1563" lon="5.30561">
        <ele>1476</ele>
        <time>2014-09-20T08:46:01.000Z</time>
      </trkpt>
      <trkpt lat="44.15634" lon="5.30568">
        <ele>1477.4000244141</ele>
        <time>2014-09-20T08:46:02.000Z</time>
      </trkpt>
      <trkpt lat="44.15639" lon="5.30574">
        <ele>1478.8000488281</ele>
        <time>2014-09-20T08:46:03.000Z</time>
      </trkpt>
      <trkpt lat="44.15645" lon="5.30579">
        <ele>1480.1999511719</ele>
        <time>2014-09-20T08:46:04.000Z</time>
      </trkpt>
      <trkpt lat="44.15655" lon="5.30589">
        <ele>1483.1999511719</ele>
        <time>2014-09-20T08:46:06.000Z</time>
      </trkpt>
      <trkpt lat="44.15665" lon="5.30598">
        <ele>1485.5999755859</ele>
        <time>2014-09-20T08:46:08.000Z</time>
      </trkpt>
      <trkpt lat="44.15685" lon="5.30618">
        <ele>1491.4000244141</ele>
        <time>2014-09-20T08:46:13.000Z</time>
      </trkpt>
      <trkpt lat="44.15687" lon="5.30624">
        <ele>1492.1999511719</ele>
        <time>2014-09-20T08:46:14.000Z</time>
      </trkpt>
      <trkpt lat="44.15688" lon="5.3063">
        <ele>1493</ele>
        <time>2014-09-20T08:46:15.000Z</time>
      </trkpt>
      <trkpt lat="44.15688" lon="5.30635">
        <ele>1493.8000488281</ele>
        <time>2014-09-20T08:46:16.000Z</time>
      </trkpt>
      <trkpt lat="44.15687" lon="5.3064">
        <ele>1494.5999755859</ele>
        <time>2014-09-20T08:46:17.000Z</time>
      </trkpt>
      <trkpt lat="44.15685" lon="5.30643">
        <ele>1494.8000488281</ele>
        <time>2014-09-20T08:46:18.000Z</time>
      </trkpt>
      <trkpt lat="44.15681" lon="5.30646">
        <ele>1494.5999755859</ele>
        <time>2014-09-20T08:46:19.000Z</time>
      </trkpt>
      <trkpt lat="44.15677" lon="5.30648">
        <ele>1494.1999511719</ele>
        <time>2014-09-20T08:46:20.000Z</time>
      </trkpt>
      <trkpt lat="44.15672" lon="5.30649">
        <ele>1493.5999755859</ele>
        <time>2014-09-20T08:46:21.000Z</time>
      </trkpt>
      <trkpt lat="44.15642" lon="5.30656">
        <ele>1490.1999511719</ele>
        <time>2014-09-20T08:46:26.000Z</time>
      </trkpt>
      <trkpt lat="44.15636" lon="5.30657">
        <ele>1489.4000244141</ele>
        <time>2014-09-20T08:46:27.000Z</time>
      </trkpt>
      <trkpt lat="44.15566" lon="5.30661">
        <ele>1480.8000488281</ele>
        <time>2014-09-20T08:46:38.000Z</time>
      </trkpt>
      <trkpt lat="44.15559" lon="5.30662">
        <ele>1480.1999511719</ele>
        <time>2014-09-20T08:46:39.000Z</time>
      </trkpt>
      <trkpt lat="44.15552" lon="5.30664">
        <ele>1479</ele>
        <time>2014-09-20T08:46:40.000Z</time>
      </trkpt>
      <trkpt lat="44.15545" lon="5.30667">
        <ele>1477.8000488281</ele>
        <time>2014-09-20T08:46:41.000Z</time>
      </trkpt>
      <trkpt lat="44.15539" lon="5.3067">
        <ele>1476.5999755859</ele>
        <time>2014-09-20T08:46:42.000Z</time>
      </trkpt>
      <trkpt lat="44.15509" lon="5.30693">
        <ele>1473.1999511719</ele>
        <time>2014-09-20T08:46:47.000Z</time>
      </trkpt>
      <trkpt lat="44.15499" lon="5.30707">
        <ele>1470.1999511719</ele>
        <time>2014-09-20T08:46:49.000Z</time>
      </trkpt>
      <trkpt lat="44.15494" lon="5.30715">
        <ele>1468.8000488281</ele>
        <time>2014-09-20T08:46:50.000Z</time>
      </trkpt>
      <trkpt lat="44.15491" lon="5.30724">
        <ele>1467.1999511719</ele>
        <time>2014-09-20T08:46:51.000Z</time>
      </trkpt>
      <trkpt lat="44.15489" lon="5.30733">
        <ele>1466</ele>
        <time>2014-09-20T08:46:52.000Z</time>
      </trkpt>
      <trkpt lat="44.15488" lon="5.30743">
        <ele>1465</ele>
        <time>2014-09-20T08:46:53.000Z</time>
      </trkpt>
      <trkpt lat="44.15487" lon="5.30753">
        <ele>1464</ele>
        <time>2014-09-20T08:46:54.000Z</time>
      </trkpt>
      <trkpt lat="44.15487" lon="5.30763">
        <ele>1462.8000488281</ele>
        <time>2014-09-20T08:46:55.000Z</time>
      </trkpt>
      <trkpt lat="44.15489" lon="5.30802">
        <ele>1458.1999511719</ele>
        <time>2014-09-20T08:46:59.000Z</time>
      </trkpt>
      <trkpt lat="44.1549" lon="5.30812">
        <ele>1457.4000244141</ele>
        <time>2014-09-20T08:47:00.000Z</time>
      </trkpt>
      <trkpt lat="44.15491" lon="5.30821">
        <ele>1456.5999755859</ele>
        <time>2014-09-20T08:47:01.000Z</time>
      </trkpt>
      <trkpt lat="44.15495" lon="5.30839">
        <ele>1455.5999755859</ele>
        <time>2014-09-20T08:47:03.000Z</time>
      </trkpt>
      <trkpt lat="44.15498" lon="5.30847">
        <ele>1455.4000244141</ele>
        <time>2014-09-20T08:47:04.000Z</time>
      </trkpt>
      <trkpt lat="44.15516" lon="5.30901">
        <ele>1456.5999755859</ele>
        <time>2014-09-20T08:47:10.000Z</time>
      </trkpt>
      <trkpt lat="44.1554" lon="5.30981">
        <ele>1460.5999755859</ele>
        <time>2014-09-20T08:47:18.000Z</time>
      </trkpt>
      <trkpt lat="44.1557" lon="5.31078">
        <ele>1475.1999511719</ele>
        <time>2014-09-20T08:47:28.000Z</time>
      </trkpt>
      <trkpt lat="44.15586" lon="5.31116">
        <ele>1480.8000488281</ele>
        <time>2014-09-20T08:47:34.000Z</time>
      </trkpt>
      <trkpt lat="44.15587" lon="5.31122">
        <ele>1482</ele>
        <time>2014-09-20T08:47:35.000Z</time>
      </trkpt>
      <trkpt lat="44.15586" lon="5.31128">
        <ele>1483.4000244141</ele>
        <time>2014-09-20T08:47:36.000Z</time>
      </trkpt>
      <trkpt lat="44.15583" lon="5.31133">
        <ele>1484.5999755859</ele>
        <time>2014-09-20T08:47:37.000Z</time>
      </trkpt>
      <trkpt lat="44.15579" lon="5.31135">
        <ele>1485.5999755859</ele>
        <time>2014-09-20T08:47:38.000Z</time>
      </trkpt>
      <trkpt lat="44.15574" lon="5.31136">
        <ele>1486</ele>
        <time>2014-09-20T08:47:39.000Z</time>
      </trkpt>
      <trkpt lat="44.15569" lon="5.31134">
        <ele>1486</ele>
        <time>2014-09-20T08:47:40.000Z</time>
      </trkpt>
      <trkpt lat="44.15564" lon="5.31132">
        <ele>1485.8000488281</ele>
        <time>2014-09-20T08:47:41.000Z</time>
      </trkpt>
      <trkpt lat="44.15558" lon="5.31128">
        <ele>1485.4000244141</ele>
        <time>2014-09-20T08:47:42.000Z</time>
      </trkpt>
      <trkpt lat="44.15554" lon="5.31124">
        <ele>1484.8000488281</ele>
        <time>2014-09-20T08:47:43.000Z</time>
      </trkpt>
      <trkpt lat="44.15549" lon="5.31119">
        <ele>1484</ele>
        <time>2014-09-20T08:47:44.000Z</time>
      </trkpt>
      <trkpt lat="44.15545" lon="5.31115">
        <ele>1483.4000244141</ele>
        <time>2014-09-20T08:47:45.000Z</time>
      </trkpt>
      <trkpt lat="44.1554" lon="5.31111">
        <ele>1482.8000488281</ele>
        <time>2014-09-20T08:47:46.000Z</time>
      </trkpt>
      <trkpt lat="44.15535" lon="5.31106">
        <ele>1482.1999511719</ele>
        <time>2014-09-20T08:47:47.000Z</time>
      </trkpt>
      <trkpt lat="44.1553" lon="5.31101">
        <ele>1481.4000244141</ele>
        <time>2014-09-20T08:47:48.000Z</time>
      </trkpt>
      <trkpt lat="44.15463" lon="5.31044">
        <ele>1471.5999755859</ele>
        <time>2014-09-20T08:48:01.000Z</time>
      </trkpt>
      <trkpt lat="44.15399" lon="5.31011">
        <ele>1462</ele>
        <time>2014-09-20T08:48:13.000Z</time>
      </trkpt>
      <trkpt lat="44.15393" lon="5.31011">
        <ele>1461</ele>
        <time>2014-09-20T08:48:14.000Z</time>
      </trkpt>
      <trkpt lat="44.15353" lon="5.31019">
        <ele>1455</ele>
        <time>2014-09-20T08:48:20.000Z</time>
      </trkpt>
      <trkpt lat="44.15346" lon="5.31022">
        <ele>1454.1999511719</ele>
        <time>2014-09-20T08:48:21.000Z</time>
      </trkpt>
      <trkpt lat="44.1534" lon="5.31027">
        <ele>1453.5999755859</ele>
        <time>2014-09-20T08:48:22.000Z</time>
      </trkpt>
      <trkpt lat="44.15334" lon="5.31032">
        <ele>1451.8000488281</ele>
        <time>2014-09-20T08:48:23.000Z</time>
      </trkpt>
      <trkpt lat="44.15329" lon="5.31039">
        <ele>1450.4000244141</ele>
        <time>2014-09-20T08:48:24.000Z</time>
      </trkpt>
      <trkpt lat="44.15325" lon="5.31046">
        <ele>1449</ele>
        <time>2014-09-20T08:48:25.000Z</time>
      </trkpt>
      <trkpt lat="44.15321" lon="5.31054">
        <ele>1448</ele>
        <time>2014-09-20T08:48:26.000Z</time>
      </trkpt>
      <trkpt lat="44.15318" lon="5.31063">
        <ele>1447.1999511719</ele>
        <time>2014-09-20T08:48:27.000Z</time>
      </trkpt>
      <trkpt lat="44.15306" lon="5.3116">
        <ele>1440.1999511719</ele>
        <time>2014-09-20T08:48:38.000Z</time>
      </trkpt>
      <trkpt lat="44.15309" lon="5.31179">
        <ele>1442.5999755859</ele>
        <time>2014-09-20T08:48:40.000Z</time>
      </trkpt>
      <trkpt lat="44.15311" lon="5.31189">
        <ele>1443.8000488281</ele>
        <time>2014-09-20T08:48:41.000Z</time>
      </trkpt>
      <trkpt lat="44.15334" lon="5.31272">
        <ele>1451.5999755859</ele>
        <time>2014-09-20T08:48:51.000Z</time>
      </trkpt>
      <trkpt lat="44.1534" lon="5.31296">
        <ele>1455.5999755859</ele>
        <time>2014-09-20T08:48:54.000Z</time>
      </trkpt>
      <trkpt lat="44.15348" lon="5.31317">
        <ele>1458.1999511719</ele>
        <time>2014-09-20T08:48:57.000Z</time>
      </trkpt>
      <trkpt lat="44.1535" lon="5.31324">
        <ele>1459.1999511719</ele>
        <time>2014-09-20T08:48:58.000Z</time>
      </trkpt>
      <trkpt lat="44.15353" lon="5.31331">
        <ele>1460</ele>
        <time>2014-09-20T08:48:59.000Z</time>
      </trkpt>
      <trkpt lat="44.15361" lon="5.31348">
        <ele>1462.1999511719</ele>
        <time>2014-09-20T08:49:02.000Z</time>
      </trkpt>
      <trkpt lat="44.15363" lon="5.31354">
        <ele>1463</ele>
        <time>2014-09-20T08:49:03.000Z</time>
      </trkpt>
      <trkpt lat="44.15364" lon="5.3136">
        <ele>1463.8000488281</ele>
        <time>2014-09-20T08:49:04.000Z</time>
      </trkpt>
      <trkpt lat="44.15364" lon="5.31365">
        <ele>1464.5999755859</ele>
        <time>2014-09-20T08:49:05.000Z</time>
      </trkpt>
      <trkpt lat="44.15363" lon="5.3137">
        <ele>1465</ele>
        <time>2014-09-20T08:49:06.000Z</time>
      </trkpt>
      <trkpt lat="44.1536" lon="5.31373">
        <ele>1465.1999511719</ele>
        <time>2014-09-20T08:49:07.000Z</time>
      </trkpt>
      <trkpt lat="44.15357" lon="5.31375">
        <ele>1465.1999511719</ele>
        <time>2014-09-20T08:49:08.000Z</time>
      </trkpt>
      <trkpt lat="44.15353" lon="5.31374">
        <ele>1465.1999511719</ele>
        <time>2014-09-20T08:49:09.000Z</time>
      </trkpt>
      <trkpt lat="44.15348" lon="5.31371">
        <ele>1464.8000488281</ele>
        <time>2014-09-20T08:49:10.000Z</time>
      </trkpt>
      <trkpt lat="44.15344" lon="5.31368">
        <ele>1464.4000244141</ele>
        <time>2014-09-20T08:49:11.000Z</time>
      </trkpt>
      <trkpt lat="44.15339" lon="5.31364">
        <ele>1463.8000488281</ele>
        <time>2014-09-20T08:49:12.000Z</time>
      </trkpt>
      <trkpt lat="44.15335" lon="5.3136">
        <ele>1463.4000244141</ele>
        <time>2014-09-20T08:49:13.000Z</time>
      </trkpt>
      <trkpt lat="44.1533" lon="5.31356">
        <ele>1462.8000488281</ele>
        <time>2014-09-20T08:49:14.000Z</time>
      </trkpt>
      <trkpt lat="44.15325" lon="5.31351">
        <ele>1462.1999511719</ele>
        <time>2014-09-20T08:49:15.000Z</time>
      </trkpt>
      <trkpt lat="44.15309" lon="5.31339">
        <ele>1460.5999755859</ele>
        <time>2014-09-20T08:49:18.000Z</time>
      </trkpt>
      <trkpt lat="44.15231" lon="5.31264">
        <ele>1452</ele>
        <time>2014-09-20T08:49:33.000Z</time>
      </trkpt>
      <trkpt lat="44.15214" lon="5.31252">
        <ele>1451</ele>
        <time>2014-09-20T08:49:36.000Z</time>
      </trkpt>
      <trkpt lat="44.15208" lon="5.31249">
        <ele>1450.5999755859</ele>
        <time>2014-09-20T08:49:37.000Z</time>
      </trkpt>
      <trkpt lat="44.15202" lon="5.31247">
        <ele>1450.5999755859</ele>
        <time>2014-09-20T08:49:38.000Z</time>
      </trkpt>
      <trkpt lat="44.15196" lon="5.31248">
        <ele>1450.5999755859</ele>
        <time>2014-09-20T08:49:39.000Z</time>
      </trkpt>
      <trkpt lat="44.1519" lon="5.31249">
        <ele>1450.8000488281</ele>
        <time>2014-09-20T08:49:40.000Z</time>
      </trkpt>
      <trkpt lat="44.15184" lon="5.31251">
        <ele>1451</ele>
        <time>2014-09-20T08:49:41.000Z</time>
      </trkpt>
      <trkpt lat="44.15178" lon="5.31253">
        <ele>1451</ele>
        <time>2014-09-20T08:49:42.000Z</time>
      </trkpt>
      <trkpt lat="44.15167" lon="5.31256">
        <ele>1451.1999511719</ele>
        <time>2014-09-20T08:49:44.000Z</time>
      </trkpt>
      <trkpt lat="44.15162" lon="5.3126">
        <ele>1451.5999755859</ele>
        <time>2014-09-20T08:49:45.000Z</time>
      </trkpt>
      <trkpt lat="44.15158" lon="5.31264">
        <ele>1451.5999755859</ele>
        <time>2014-09-20T08:49:46.000Z</time>
      </trkpt>
      <trkpt lat="44.15138" lon="5.31282">
        <ele>1450.1999511719</ele>
        <time>2014-09-20T08:49:51.000Z</time>
      </trkpt>
      <trkpt lat="44.15135" lon="5.31287">
        <ele>1450</ele>
        <time>2014-09-20T08:49:52.000Z</time>
      </trkpt>
      <trkpt lat="44.15133" lon="5.31291">
        <ele>1450</ele>
        <time>2014-09-20T08:49:53.000Z</time>
      </trkpt>
      <trkpt lat="44.15131" lon="5.31296">
        <ele>1449.8000488281</ele>
        <time>2014-09-20T08:49:54.000Z</time>
      </trkpt>
      <trkpt lat="44.15129" lon="5.313">
        <ele>1449.8000488281</ele>
        <time>2014-09-20T08:49:55.000Z</time>
      </trkpt>
      <trkpt lat="44.15127" lon="5.31305">
        <ele>1449.8000488281</ele>
        <time>2014-09-20T08:49:56.000Z</time>
      </trkpt>
      <trkpt lat="44.15125" lon="5.3131">
        <ele>1449.5999755859</ele>
        <time>2014-09-20T08:49:57.000Z</time>
      </trkpt>
      <trkpt lat="44.15123" lon="5.31314">
        <ele>1449.4000244141</ele>
        <time>2014-09-20T08:49:58.000Z</time>
      </trkpt>
      <trkpt lat="44.15121" lon="5.31318">
        <ele>1449</ele>
        <time>2014-09-20T08:49:59.000Z</time>
      </trkpt>
      <trkpt lat="44.15101" lon="5.31375">
        <ele>1444.5999755859</ele>
        <time>2014-09-20T08:50:11.000Z</time>
      </trkpt>
      <trkpt lat="44.15089" lon="5.3142">
        <ele>1435.8000488281</ele>
        <time>2014-09-20T08:50:18.000Z</time>
      </trkpt>
      <trkpt lat="44.15089" lon="5.3143">
        <ele>1434.1999511719</ele>
        <time>2014-09-20T08:50:19.000Z</time>
      </trkpt>
      <trkpt lat="44.15091" lon="5.31441">
        <ele>1433.1999511719</ele>
        <time>2014-09-20T08:50:20.000Z</time>
      </trkpt>
      <trkpt lat="44.15095" lon="5.31451">
        <ele>1432.4000244141</ele>
        <time>2014-09-20T08:50:21.000Z</time>
      </trkpt>
      <trkpt lat="44.15099" lon="5.3146">
        <ele>1431.5999755859</ele>
        <time>2014-09-20T08:50:22.000Z</time>
      </trkpt>
      <trkpt lat="44.15103" lon="5.31468">
        <ele>1431.1999511719</ele>
        <time>2014-09-20T08:50:23.000Z</time>
      </trkpt>
      <trkpt lat="44.15108" lon="5.31476">
        <ele>1431.1999511719</ele>
        <time>2014-09-20T08:50:24.000Z</time>
      </trkpt>
      <trkpt lat="44.15117" lon="5.31494">
        <ele>1430.5999755859</ele>
        <time>2014-09-20T08:50:26.000Z</time>
      </trkpt>
      <trkpt lat="44.1512" lon="5.31504">
        <ele>1429.8000488281</ele>
        <time>2014-09-20T08:50:27.000Z</time>
      </trkpt>
      <trkpt lat="44.15123" lon="5.31515">
        <ele>1428.8000488281</ele>
        <time>2014-09-20T08:50:28.000Z</time>
      </trkpt>
      <trkpt lat="44.15146" lon="5.31602">
        <ele>1421.4000244141</ele>
        <time>2014-09-20T08:50:35.000Z</time>
      </trkpt>
      <trkpt lat="44.15158" lon="5.31648">
        <ele>1417.4000244141</ele>
        <time>2014-09-20T08:50:39.000Z</time>
      </trkpt>
      <trkpt lat="44.15182" lon="5.31704">
        <ele>1416</ele>
        <time>2014-09-20T08:50:44.000Z</time>
      </trkpt>
      <trkpt lat="44.15199" lon="5.3175">
        <ele>1419.5999755859</ele>
        <time>2014-09-20T08:50:49.000Z</time>
      </trkpt>
      <trkpt lat="44.15212" lon="5.31794">
        <ele>1423.1999511719</ele>
        <time>2014-09-20T08:50:54.000Z</time>
      </trkpt>
      <trkpt lat="44.15224" lon="5.31837">
        <ele>1425.1999511719</ele>
        <time>2014-09-20T08:50:59.000Z</time>
      </trkpt>
      <trkpt lat="44.15224" lon="5.31847">
        <ele>1426.8000488281</ele>
        <time>2014-09-20T08:51:00.000Z</time>
      </trkpt>
      <trkpt lat="44.15223" lon="5.31856">
        <ele>1428.5999755859</ele>
        <time>2014-09-20T08:51:01.000Z</time>
      </trkpt>
      <trkpt lat="44.15221" lon="5.31866">
        <ele>1430.4000244141</ele>
        <time>2014-09-20T08:51:02.000Z</time>
      </trkpt>
      <trkpt lat="44.15217" lon="5.31875">
        <ele>1432</ele>
        <time>2014-09-20T08:51:03.000Z</time>
      </trkpt>
      <trkpt lat="44.15214" lon="5.31882">
        <ele>1433.1999511719</ele>
        <time>2014-09-20T08:51:04.000Z</time>
      </trkpt>
      <trkpt lat="44.15212" lon="5.31888">
        <ele>1433.8000488281</ele>
        <time>2014-09-20T08:51:05.000Z</time>
      </trkpt>
      <trkpt lat="44.15212" lon="5.31893">
        <ele>1434.1999511719</ele>
        <time>2014-09-20T08:51:06.000Z</time>
      </trkpt>
      <trkpt lat="44.15215" lon="5.31896">
        <ele>1434.4000244141</ele>
        <time>2014-09-20T08:51:07.000Z</time>
      </trkpt>
      <trkpt lat="44.15218" lon="5.31897">
        <ele>1434.4000244141</ele>
        <time>2014-09-20T08:51:08.000Z</time>
      </trkpt>
      <trkpt lat="44.15221" lon="5.31899">
        <ele>1434.1999511719</ele>
        <time>2014-09-20T08:51:09.000Z</time>
      </trkpt>
      <trkpt lat="44.15224" lon="5.31901">
        <ele>1434.1999511719</ele>
        <time>2014-09-20T08:51:10.000Z</time>
      </trkpt>
      <trkpt lat="44.15227" lon="5.31903">
        <ele>1434.1999511719</ele>
        <time>2014-09-20T08:51:11.000Z</time>
      </trkpt>
      <trkpt lat="44.15232" lon="5.31908">
        <ele>1434.5999755859</ele>
        <time>2014-09-20T08:51:13.000Z</time>
      </trkpt>
      <trkpt lat="44.15252" lon="5.31945">
        <ele>1437.4000244141</ele>
        <time>2014-09-20T08:51:27.000Z</time>
      </trkpt>
      <trkpt lat="44.1526" lon="5.31976">
        <ele>1441.8000488281</ele>
        <time>2014-09-20T08:51:40.000Z</time>
      </trkpt>
      <trkpt lat="44.15261" lon="5.31985">
        <ele>1442.8000488281</ele>
        <time>2014-09-20T08:51:44.000Z</time>
      </trkpt>
      <trkpt lat="44.15264" lon="5.31992">
        <ele>1443.4000244141</ele>
        <time>2014-09-20T08:51:47.000Z</time>
      </trkpt>
      <trkpt lat="44.15265" lon="5.31994">
        <ele>1443.5999755859</ele>
        <time>2014-09-20T08:51:48.000Z</time>
      </trkpt>
      <trkpt lat="44.15266" lon="5.31997">
        <ele>1443.8000488281</ele>
        <time>2014-09-20T08:51:49.000Z</time>
      </trkpt>
      <trkpt lat="44.15266" lon="5.31999">
        <ele>1444</ele>
        <time>2014-09-20T08:51:50.000Z</time>
      </trkpt>
      <trkpt lat="44.15267" lon="5.32001">
        <ele>1444.1999511719</ele>
        <time>2014-09-20T08:51:51.000Z</time>
      </trkpt>
      <trkpt lat="44.15268" lon="5.32008">
        <ele>1445</ele>
        <time>2014-09-20T08:51:54.000Z</time>
      </trkpt>
      <trkpt lat="44.15269" lon="5.32015">
        <ele>1445.8000488281</ele>
        <time>2014-09-20T08:51:57.000Z</time>
      </trkpt>
      <trkpt lat="44.15269" lon="5.32017">
        <ele>1446</ele>
        <time>2014-09-20T08:51:58.000Z</time>
      </trkpt>
      <trkpt lat="44.1527" lon="5.32019">
        <ele>1446.1999511719</ele>
        <time>2014-09-20T08:51:59.000Z</time>
      </trkpt>
      <trkpt lat="44.15271" lon="5.32021">
        <ele>1446.4000244141</ele>
        <time>2014-09-20T08:52:00.000Z</time>
      </trkpt>
      <trkpt lat="44.15271" lon="5.32023">
        <ele>1446.8000488281</ele>
        <time>2014-09-20T08:52:01.000Z</time>
      </trkpt>
      <trkpt lat="44.1527" lon="5.32025">
        <ele>1447.1999511719</ele>
        <time>2014-09-20T08:52:02.000Z</time>
      </trkpt>
      <trkpt lat="44.15268" lon="5.32026">
        <ele>1447.5999755859</ele>
        <time>2014-09-20T08:52:04.000Z</time>
      </trkpt>
      <trkpt lat="44.15267" lon="5.32025">
        <ele>1447.5999755859</ele>
        <time>2014-09-20T08:52:05.000Z</time>
      </trkpt>
      <trkpt lat="44.15265" lon="5.31996">
        <ele>1443.8000488281</ele>
        <time>2014-09-20T08:52:15.000Z</time>
      </trkpt>
      <trkpt lat="44.15265" lon="5.31993">
        <ele>1443.4000244141</ele>
        <time>2014-09-20T08:52:16.000Z</time>
      </trkpt>
      <trkpt lat="44.1526" lon="5.3196">
        <ele>1439.1999511719</ele>
        <time>2014-09-20T08:52:29.000Z</time>
      </trkpt>
      <trkpt lat="44.15246" lon="5.3193">
        <ele>1435.5999755859</ele>
        <time>2014-09-20T08:52:42.000Z</time>
      </trkpt>
      <trkpt lat="44.15244" lon="5.31928">
        <ele>1435.5999755859</ele>
        <time>2014-09-20T08:52:43.000Z</time>
      </trkpt>
      <trkpt lat="44.15229" lon="5.31916">
        <ele>1435.4000244141</ele>
        <time>2014-09-20T08:52:50.000Z</time>
      </trkpt>
      <trkpt lat="44.15217" lon="5.319">
        <ele>1434.5999755859</ele>
        <time>2014-09-20T08:52:58.000Z</time>
      </trkpt>
      <trkpt lat="44.15217" lon="5.31897">
        <ele>1434.4000244141</ele>
        <time>2014-09-20T08:52:59.000Z</time>
      </trkpt>
      <trkpt lat="44.15215" lon="5.31895">
        <ele>1434.1999511719</ele>
        <time>2014-09-20T08:53:00.000Z</time>
      </trkpt>
      <trkpt lat="44.15214" lon="5.31892">
        <ele>1434</ele>
        <time>2014-09-20T08:53:01.000Z</time>
      </trkpt>
      <trkpt lat="44.15211" lon="5.3189">
        <ele>1434</ele>
        <time>2014-09-20T08:53:02.000Z</time>
      </trkpt>
      <trkpt lat="44.15208" lon="5.31889">
        <ele>1434</ele>
        <time>2014-09-20T08:53:03.000Z</time>
      </trkpt>
      <trkpt lat="44.15203" lon="5.31888">
        <ele>1434.1999511719</ele>
        <time>2014-09-20T08:53:04.000Z</time>
      </trkpt>
      <trkpt lat="44.152" lon="5.31887">
        <ele>1434.4000244141</ele>
        <time>2014-09-20T08:53:05.000Z</time>
      </trkpt>
      <trkpt lat="44.15172" lon="5.3187">
        <ele>1433.5999755859</ele>
        <time>2014-09-20T08:53:15.000Z</time>
      </trkpt>
      <trkpt lat="44.15143" lon="5.31854">
        <ele>1432.5999755859</ele>
        <time>2014-09-20T08:53:25.000Z</time>
      </trkpt>
      <trkpt lat="44.15105" lon="5.31849">
        <ele>1434.1999511719</ele>
        <time>2014-09-20T08:53:36.000Z</time>
      </trkpt>
      <trkpt lat="44.15102" lon="5.3185">
        <ele>1434.5999755859</ele>
        <time>2014-09-20T08:53:37.000Z</time>
      </trkpt>
      <trkpt lat="44.15086" lon="5.31868">
        <ele>1437.4000244141</ele>
        <time>2014-09-20T08:53:43.000Z</time>
      </trkpt>
      <trkpt lat="44.15084" lon="5.31894">
        <ele>1439.8000488281</ele>
        <time>2014-09-20T08:53:53.000Z</time>
      </trkpt>
      <trkpt lat="44.15084" lon="5.31906">
        <ele>1441.1999511719</ele>
        <time>2014-09-20T08:53:58.000Z</time>
      </trkpt>
      <trkpt lat="44.15084" lon="5.31946">
        <ele>1444.5999755859</ele>
        <time>2014-09-20T08:54:13.000Z</time>
      </trkpt>
      <trkpt lat="44.15095" lon="5.31971">
        <ele>1446.8000488281</ele>
        <time>2014-09-20T08:54:25.000Z</time>
      </trkpt>
      <trkpt lat="44.15113" lon="5.3195">
        <ele>1447.5999755859</ele>
        <time>2014-09-20T08:54:37.000Z</time>
      </trkpt>
      <trkpt lat="44.15139" lon="5.31934">
        <ele>1446.5999755859</ele>
        <time>2014-09-20T08:54:51.000Z</time>
      </trkpt>
      <trkpt lat="44.15163" lon="5.31941">
        <ele>1447.8000488281</ele>
        <time>2014-09-20T08:55:05.000Z</time>
      </trkpt>
      <trkpt lat="44.15165" lon="5.31944">
        <ele>1448.1999511719</ele>
        <time>2014-09-20T08:55:07.000Z</time>
      </trkpt>
      <trkpt lat="44.15175" lon="5.31977">
        <ele>1452</ele>
        <time>2014-09-20T08:55:22.000Z</time>
      </trkpt>
      <trkpt lat="44.15175" lon="5.31979">
        <ele>1452.4000244141</ele>
        <time>2014-09-20T08:55:23.000Z</time>
      </trkpt>
      <trkpt lat="44.15176" lon="5.31993">
        <ele>1454</ele>
        <time>2014-09-20T08:55:29.000Z</time>
      </trkpt>
      <trkpt lat="44.15177" lon="5.31999">
        <ele>1454.8000488281</ele>
        <time>2014-09-20T08:55:32.000Z</time>
      </trkpt>
      <trkpt lat="44.15178" lon="5.32009">
        <ele>1456</ele>
        <time>2014-09-20T08:55:36.000Z</time>
      </trkpt>
      <trkpt lat="44.1518" lon="5.32029">
        <ele>1458.4000244141</ele>
        <time>2014-09-20T08:55:44.000Z</time>
      </trkpt>
      <trkpt lat="44.15182" lon="5.32037">
        <ele>1459.4000244141</ele>
        <time>2014-09-20T08:55:48.000Z</time>
      </trkpt>
      <trkpt lat="44.15184" lon="5.32044">
        <ele>1459.8000488281</ele>
        <time>2014-09-20T08:55:51.000Z</time>
      </trkpt>
      <trkpt lat="44.15186" lon="5.3206">
        <ele>1460.5999755859</ele>
        <time>2014-09-20T08:55:57.000Z</time>
      </trkpt>
      <trkpt lat="44.15182" lon="5.32097">
        <ele>1461.5999755859</ele>
        <time>2014-09-20T08:56:11.000Z</time>
      </trkpt>
      <trkpt lat="44.15173" lon="5.32135">
        <ele>1461.4000244141</ele>
        <time>2014-09-20T08:56:24.000Z</time>
      </trkpt>
      <trkpt lat="44.15171" lon="5.32186">
        <ele>1461.8000488281</ele>
        <time>2014-09-20T08:56:42.000Z</time>
      </trkpt>
      <trkpt lat="44.15173" lon="5.32231">
        <ele>1461.8000488281</ele>
        <time>2014-09-20T08:56:57.000Z</time>
      </trkpt>
      <trkpt lat="44.1519" lon="5.32284">
        <ele>1462.8000488281</ele>
        <time>2014-09-20T08:57:14.000Z</time>
      </trkpt>
      <trkpt lat="44.15216" lon="5.32311">
        <ele>1465.1999511719</ele>
        <time>2014-09-20T08:57:30.000Z</time>
      </trkpt>
      <trkpt lat="44.15245" lon="5.32329">
        <ele>1468</ele>
        <time>2014-09-20T08:57:39.000Z</time>
      </trkpt>
      <trkpt lat="44.15259" lon="5.32355">
        <ele>1469.4000244141</ele>
        <time>2014-09-20T08:57:49.000Z</time>
      </trkpt>
      <trkpt lat="44.15265" lon="5.32373">
        <ele>1469.1999511719</ele>
        <time>2014-09-20T08:57:56.000Z</time>
      </trkpt>
      <trkpt lat="44.15267" lon="5.32372">
        <ele>1469.8000488281</ele>
        <time>2014-09-20T08:58:12.000Z</time>
      </trkpt>
      <trkpt lat="44.15269" lon="5.3237">
        <ele>1470.1999511719</ele>
        <time>2014-09-20T08:58:42.000Z</time>
      </trkpt>
      <trkpt lat="44.15269" lon="5.32369">
        <ele>1470.1999511719</ele>
        <time>2014-09-20T08:59:07.000Z</time>
      </trkpt>
      <trkpt lat="44.15269" lon="5.32369">
        <ele>1470.1999511719</ele>
        <time>2014-09-20T08:59:40.000Z</time>
      </trkpt>
      <trkpt lat="44.15271" lon="5.32368">
        <ele>1470.4000244141</ele>
        <time>2014-09-20T09:00:14.000Z</time>
      </trkpt>
      <trkpt lat="44.1527" lon="5.32369">
        <ele>1470.1999511719</ele>
        <time>2014-09-20T09:00:42.000Z</time>
      </trkpt>
      <trkpt lat="44.15269" lon="5.3237">
        <ele>1470.1999511719</ele>
        <time>2014-09-20T09:01:09.000Z</time>
      </trkpt>
      <trkpt lat="44.15268" lon="5.3237">
        <ele>1470.1999511719</ele>
        <time>2014-09-20T09:01:45.000Z</time>
      </trkpt>
      <trkpt lat="44.15268" lon="5.32372">
        <ele>1470</ele>
        <time>2014-09-20T09:02:07.000Z</time>
      </trkpt>
      <trkpt lat="44.15268" lon="5.32372">
        <ele>1470</ele>
        <time>2014-09-20T09:02:39.000Z</time>
      </trkpt>
      <trkpt lat="44.15269" lon="5.32374">
        <ele>1470</ele>
        <time>2014-09-20T09:02:45.000Z</time>
      </trkpt>
      <trkpt lat="44.15273" lon="5.32395">
        <ele>1469</ele>
        <time>2014-09-20T09:02:55.000Z</time>
      </trkpt>
      <trkpt lat="44.15283" lon="5.32432">
        <ele>1468.5999755859</ele>
        <time>2014-09-20T09:03:12.000Z</time>
      </trkpt>
      <trkpt lat="44.15286" lon="5.32444">
        <ele>1468.5999755859</ele>
        <time>2014-09-20T09:03:18.000Z</time>
      </trkpt>
      <trkpt lat="44.15293" lon="5.32461">
        <ele>1469</ele>
        <time>2014-09-20T09:03:26.000Z</time>
      </trkpt>
      <trkpt lat="44.15301" lon="5.3247">
        <ele>1470.1999511719</ele>
        <time>2014-09-20T09:03:32.000Z</time>
      </trkpt>
      <trkpt lat="44.15308" lon="5.32481">
        <ele>1470.4000244141</ele>
        <time>2014-09-20T09:03:38.000Z</time>
      </trkpt>
      <trkpt lat="44.15315" lon="5.3249">
        <ele>1471</ele>
        <time>2014-09-20T09:03:44.000Z</time>
      </trkpt>
      <trkpt lat="44.15322" lon="5.32508">
        <ele>1470.4000244141</ele>
        <time>2014-09-20T09:03:52.000Z</time>
      </trkpt>
      <trkpt lat="44.15325" lon="5.32523">
        <ele>1469</ele>
        <time>2014-09-20T09:03:59.000Z</time>
      </trkpt>
      <trkpt lat="44.15328" lon="5.32535">
        <ele>1468.1999511719</ele>
        <time>2014-09-20T09:04:08.000Z</time>
      </trkpt>
      <trkpt lat="44.15345" lon="5.32552">
        <ele>1469.1999511719</ele>
        <time>2014-09-20T09:04:21.000Z</time>
      </trkpt>
      <trkpt lat="44.15356" lon="5.32551">
        <ele>1472.4000244141</ele>
        <time>2014-09-20T09:04:34.000Z</time>
      </trkpt>
      <trkpt lat="44.15369" lon="5.32556">
        <ele>1473.8000488281</ele>
        <time>2014-09-20T09:04:48.000Z</time>
      </trkpt>
      <trkpt lat="44.15382" lon="5.32552">
        <ele>1477.8000488281</ele>
        <time>2014-09-20T09:05:06.000Z</time>
      </trkpt>
      <trkpt lat="44.15395" lon="5.32553">
        <ele>1480.4000244141</ele>
        <time>2014-09-20T09:05:25.000Z</time>
      </trkpt>
      <trkpt lat="44.15408" lon="5.3255">
        <ele>1484.4000244141</ele>
        <time>2014-09-20T09:05:42.000Z</time>
      </trkpt>
      <trkpt lat="44.15421" lon="5.32545">
        <ele>1488.1999511719</ele>
        <time>2014-09-20T09:06:01.000Z</time>
      </trkpt>
      <trkpt lat="44.15427" lon="5.32543">
        <ele>1489.8000488281</ele>
        <time>2014-09-20T09:06:19.000Z</time>
      </trkpt>
      <trkpt lat="44.15431" lon="5.32544">
        <ele>1490.4000244141</ele>
        <time>2014-09-20T09:06:22.000Z</time>
      </trkpt>
      <trkpt lat="44.15436" lon="5.32545">
        <ele>1491.5999755859</ele>
        <time>2014-09-20T09:06:26.000Z</time>
      </trkpt>
      <trkpt lat="44.15439" lon="5.32545">
        <ele>1492.1999511719</ele>
        <time>2014-09-20T09:06:29.000Z</time>
      </trkpt>
      <trkpt lat="44.1545" lon="5.32549">
        <ele>1493.4000244141</ele>
        <time>2014-09-20T09:06:37.000Z</time>
      </trkpt>
      <trkpt lat="44.15454" lon="5.3255">
        <ele>1493.8000488281</ele>
        <time>2014-09-20T09:06:50.000Z</time>
      </trkpt>
      <trkpt lat="44.15459" lon="5.3255">
        <ele>1494.4000244141</ele>
        <time>2014-09-20T09:07:12.000Z</time>
      </trkpt>
      <trkpt lat="44.15461" lon="5.32549">
        <ele>1495</ele>
        <time>2014-09-20T09:07:42.000Z</time>
      </trkpt>
      <trkpt lat="44.15463" lon="5.32548">
        <ele>1495.5999755859</ele>
        <time>2014-09-20T09:08:11.000Z</time>
      </trkpt>
      <trkpt lat="44.15467" lon="5.32554">
        <ele>1494.4000244141</ele>
        <time>2014-09-20T09:08:33.000Z</time>
      </trkpt>
      <trkpt lat="44.15478" lon="5.32563">
        <ele>1493.5999755859</ele>
        <time>2014-09-20T09:08:42.000Z</time>
      </trkpt>
      <trkpt lat="44.15498" lon="5.32573">
        <ele>1493.5999755859</ele>
        <time>2014-09-20T09:08:56.000Z</time>
      </trkpt>
      <trkpt lat="44.15522" lon="5.32582">
        <ele>1494.4000244141</ele>
        <time>2014-09-20T09:09:11.000Z</time>
      </trkpt>
      <trkpt lat="44.15547" lon="5.32593">
        <ele>1495</ele>
        <time>2014-09-20T09:09:26.000Z</time>
      </trkpt>
      <trkpt lat="44.15558" lon="5.32595">
        <ele>1496</ele>
        <time>2014-09-20T09:09:33.000Z</time>
      </trkpt>
      <trkpt lat="44.15576" lon="5.32598">
        <ele>1497.5999755859</ele>
        <time>2014-09-20T09:09:43.000Z</time>
      </trkpt>
      <trkpt lat="44.15588" lon="5.326">
        <ele>1498.8000488281</ele>
        <time>2014-09-20T09:09:51.000Z</time>
      </trkpt>
      <trkpt lat="44.15599" lon="5.32606">
        <ele>1498.5999755859</ele>
        <time>2014-09-20T09:09:58.000Z</time>
      </trkpt>
      <trkpt lat="44.15619" lon="5.32609">
        <ele>1500.5999755859</ele>
        <time>2014-09-20T09:10:10.000Z</time>
      </trkpt>
      <trkpt lat="44.1564" lon="5.32598">
        <ele>1506.5999755859</ele>
        <time>2014-09-20T09:10:23.000Z</time>
      </trkpt>
      <trkpt lat="44.15646" lon="5.32596">
        <ele>1507.8000488281</ele>
        <time>2014-09-20T09:10:34.000Z</time>
      </trkpt>
      <trkpt lat="44.15654" lon="5.32596">
        <ele>1508.8000488281</ele>
        <time>2014-09-20T09:10:38.000Z</time>
      </trkpt>
      <trkpt lat="44.15658" lon="5.32596">
        <ele>1509.4000244141</ele>
        <time>2014-09-20T09:10:41.000Z</time>
      </trkpt>
      <trkpt lat="44.15662" lon="5.32594">
        <ele>1510.1999511719</ele>
        <time>2014-09-20T09:10:44.000Z</time>
      </trkpt>
      <trkpt lat="44.15687" lon="5.3259">
        <ele>1513.1999511719</ele>
        <time>2014-09-20T09:10:59.000Z</time>
      </trkpt>
      <trkpt lat="44.15688" lon="5.32594">
        <ele>1512.1999511719</ele>
        <time>2014-09-20T09:11:17.000Z</time>
      </trkpt>
      <trkpt lat="44.15687" lon="5.32589">
        <ele>1513.4000244141</ele>
        <time>2014-09-20T09:11:45.000Z</time>
      </trkpt>
      <trkpt lat="44.1569" lon="5.3259">
        <ele>1513.1999511719</ele>
        <time>2014-09-20T09:12:13.000Z</time>
      </trkpt>
      <trkpt lat="44.15689" lon="5.32587">
        <ele>1514</ele>
        <time>2014-09-20T09:12:43.000Z</time>
      </trkpt>
      <trkpt lat="44.15688" lon="5.32589">
        <ele>1513.5999755859</ele>
        <time>2014-09-20T09:13:06.000Z</time>
      </trkpt>
      <trkpt lat="44.15688" lon="5.32591">
        <ele>1513</ele>
        <time>2014-09-20T09:13:32.000Z</time>
      </trkpt>
      <trkpt lat="44.1569" lon="5.32591">
        <ele>1513</ele>
        <time>2014-09-20T09:13:43.000Z</time>
      </trkpt>
      <trkpt lat="44.15698" lon="5.32592">
        <ele>1514.5999755859</ele>
        <time>2014-09-20T09:13:48.000Z</time>
      </trkpt>
      <trkpt lat="44.15711" lon="5.32598">
        <ele>1517.5999755859</ele>
        <time>2014-09-20T09:14:00.000Z</time>
      </trkpt>
      <trkpt lat="44.15724" lon="5.32609">
        <ele>1519.4000244141</ele>
        <time>2014-09-20T09:14:08.000Z</time>
      </trkpt>
      <trkpt lat="44.15727" lon="5.32618">
        <ele>1518</ele>
        <time>2014-09-20T09:14:14.000Z</time>
      </trkpt>
      <trkpt lat="44.15724" lon="5.32646">
        <ele>1514.4000244141</ele>
        <time>2014-09-20T09:14:26.000Z</time>
      </trkpt>
      <trkpt lat="44.15718" lon="5.32661">
        <ele>1511.4000244141</ele>
        <time>2014-09-20T09:14:33.000Z</time>
      </trkpt>
      <trkpt lat="44.15717" lon="5.32662">
        <ele>1511</ele>
        <time>2014-09-20T09:14:34.000Z</time>
      </trkpt>
      <trkpt lat="44.15716" lon="5.32679">
        <ele>1507.8000488281</ele>
        <time>2014-09-20T09:14:42.000Z</time>
      </trkpt>
      <trkpt lat="44.15712" lon="5.32693">
        <ele>1503</ele>
        <time>2014-09-20T09:14:49.000Z</time>
      </trkpt>
      <trkpt lat="44.15706" lon="5.32714">
        <ele>1496.8000488281</ele>
        <time>2014-09-20T09:14:58.000Z</time>
      </trkpt>
      <trkpt lat="44.15706" lon="5.3273">
        <ele>1497.1999511719</ele>
        <time>2014-09-20T09:15:11.000Z</time>
      </trkpt>
      <trkpt lat="44.15704" lon="5.32736">
        <ele>1497</ele>
        <time>2014-09-20T09:15:14.000Z</time>
      </trkpt>
      <trkpt lat="44.15694" lon="5.32763">
        <ele>1494.5999755859</ele>
        <time>2014-09-20T09:15:24.000Z</time>
      </trkpt>
      <trkpt lat="44.15689" lon="5.32782">
        <ele>1495.1999511719</ele>
        <time>2014-09-20T09:15:30.000Z</time>
      </trkpt>
      <trkpt lat="44.15688" lon="5.32813">
        <ele>1500.1999511719</ele>
        <time>2014-09-20T09:15:39.000Z</time>
      </trkpt>
      <trkpt lat="44.15688" lon="5.32841">
        <ele>1507.1999511719</ele>
        <time>2014-09-20T09:15:47.000Z</time>
      </trkpt>
      <trkpt lat="44.15686" lon="5.32848">
        <ele>1508.4000244141</ele>
        <time>2014-09-20T09:15:49.000Z</time>
      </trkpt>
      <trkpt lat="44.15678" lon="5.32864">
        <ele>1510</ele>
        <time>2014-09-20T09:15:57.000Z</time>
      </trkpt>
      <trkpt lat="44.15671" lon="5.32876">
        <ele>1512.5999755859</ele>
        <time>2014-09-20T09:16:16.000Z</time>
      </trkpt>
      <trkpt lat="44.15668" lon="5.32879">
        <ele>1513</ele>
        <time>2014-09-20T09:16:33.000Z</time>
      </trkpt>
      <trkpt lat="44.15667" lon="5.32877">
        <ele>1512.4000244141</ele>
        <time>2014-09-20T09:17:05.000Z</time>
      </trkpt>
      <trkpt lat="44.15664" lon="5.32884">
        <ele>1514</ele>
        <time>2014-09-20T09:17:31.000Z</time>
      </trkpt>
      <trkpt lat="44.15664" lon="5.32886">
        <ele>1514.1999511719</ele>
        <time>2014-09-20T09:17:32.000Z</time>
      </trkpt>
      <trkpt lat="44.15658" lon="5.3289">
        <ele>1514.1999511719</ele>
        <time>2014-09-20T09:17:37.000Z</time>
      </trkpt>
      <trkpt lat="44.15655" lon="5.32894">
        <ele>1514.4000244141</ele>
        <time>2014-09-20T09:17:39.000Z</time>
      </trkpt>
      <trkpt lat="44.1565" lon="5.32897">
        <ele>1514.4000244141</ele>
        <time>2014-09-20T09:17:42.000Z</time>
      </trkpt>
      <trkpt lat="44.15634" lon="5.32908">
        <ele>1514</ele>
        <time>2014-09-20T09:17:53.000Z</time>
      </trkpt>
      <trkpt lat="44.15631" lon="5.3291">
        <ele>1514.1999511719</ele>
        <time>2014-09-20T09:17:55.000Z</time>
      </trkpt>
      <trkpt lat="44.15616" lon="5.32925">
        <ele>1516.4000244141</ele>
        <time>2014-09-20T09:18:06.000Z</time>
      </trkpt>
      <trkpt lat="44.15608" lon="5.32932">
        <ele>1517.4000244141</ele>
        <time>2014-09-20T09:18:11.000Z</time>
      </trkpt>
      <trkpt lat="44.15588" lon="5.32947">
        <ele>1519.4000244141</ele>
        <time>2014-09-20T09:18:22.000Z</time>
      </trkpt>
      <trkpt lat="44.15569" lon="5.32964">
        <ele>1521</ele>
        <time>2014-09-20T09:18:34.000Z</time>
      </trkpt>
      <trkpt lat="44.15548" lon="5.32978">
        <ele>1519.4000244141</ele>
        <time>2014-09-20T09:18:46.000Z</time>
      </trkpt>
      <trkpt lat="44.15546" lon="5.3298">
        <ele>1519.4000244141</ele>
        <time>2014-09-20T09:18:47.000Z</time>
      </trkpt>
      <trkpt lat="44.15544" lon="5.32981">
        <ele>1519.1999511719</ele>
        <time>2014-09-20T09:18:48.000Z</time>
      </trkpt>
      <trkpt lat="44.15543" lon="5.32983">
        <ele>1519.1999511719</ele>
        <time>2014-09-20T09:18:49.000Z</time>
      </trkpt>
      <trkpt lat="44.15541" lon="5.32984">
        <ele>1519</ele>
        <time>2014-09-20T09:18:50.000Z</time>
      </trkpt>
      <trkpt lat="44.1554" lon="5.32985">
        <ele>1518.8000488281</ele>
        <time>2014-09-20T09:18:51.000Z</time>
      </trkpt>
      <trkpt lat="44.15517" lon="5.33003">
        <ele>1517</ele>
        <time>2014-09-20T09:19:05.000Z</time>
      </trkpt>
      <trkpt lat="44.15508" lon="5.33015">
        <ele>1517.5999755859</ele>
        <time>2014-09-20T09:19:17.000Z</time>
      </trkpt>
      <trkpt lat="44.15509" lon="5.3302">
        <ele>1518.4000244141</ele>
        <time>2014-09-20T09:19:40.000Z</time>
      </trkpt>
      <trkpt lat="44.15509" lon="5.33022">
        <ele>1518.8000488281</ele>
        <time>2014-09-20T09:20:12.000Z</time>
      </trkpt>
      <trkpt lat="44.15504" lon="5.33027">
        <ele>1518.4000244141</ele>
        <time>2014-09-20T09:20:39.000Z</time>
      </trkpt>
      <trkpt lat="44.15504" lon="5.33025">
        <ele>1518.4000244141</ele>
        <time>2014-09-20T09:21:07.000Z</time>
      </trkpt>
      <trkpt lat="44.15505" lon="5.33022">
        <ele>1518.1999511719</ele>
        <time>2014-09-20T09:21:41.000Z</time>
      </trkpt>
      <trkpt lat="44.15501" lon="5.33022">
        <ele>1517.4000244141</ele>
        <time>2014-09-20T09:22:04.000Z</time>
      </trkpt>
      <trkpt lat="44.155" lon="5.33023">
        <ele>1517.1999511719</ele>
        <time>2014-09-20T09:22:05.000Z</time>
      </trkpt>
      <trkpt lat="44.15498" lon="5.33023">
        <ele>1516.5999755859</ele>
        <time>2014-09-20T09:22:06.000Z</time>
      </trkpt>
      <trkpt lat="44.15497" lon="5.33023">
        <ele>1516.4000244141</ele>
        <time>2014-09-20T09:22:07.000Z</time>
      </trkpt>
      <trkpt lat="44.15494" lon="5.33023">
        <ele>1515.5999755859</ele>
        <time>2014-09-20T09:22:08.000Z</time>
      </trkpt>
      <trkpt lat="44.15492" lon="5.33024">
        <ele>1515.1999511719</ele>
        <time>2014-09-20T09:22:09.000Z</time>
      </trkpt>
      <trkpt lat="44.1549" lon="5.33025">
        <ele>1514.8000488281</ele>
        <time>2014-09-20T09:22:10.000Z</time>
      </trkpt>
      <trkpt lat="44.15488" lon="5.33027">
        <ele>1514.1999511719</ele>
        <time>2014-09-20T09:22:11.000Z</time>
      </trkpt>
      <trkpt lat="44.15485" lon="5.33029">
        <ele>1513.8000488281</ele>
        <time>2014-09-20T09:22:12.000Z</time>
      </trkpt>
      <trkpt lat="44.15483" lon="5.33031">
        <ele>1513.1999511719</ele>
        <time>2014-09-20T09:22:13.000Z</time>
      </trkpt>
      <trkpt lat="44.15478" lon="5.33033">
        <ele>1512</ele>
        <time>2014-09-20T09:22:15.000Z</time>
      </trkpt>
      <trkpt lat="44.15458" lon="5.33046">
        <ele>1507.4000244141</ele>
        <time>2014-09-20T09:22:24.000Z</time>
      </trkpt>
      <trkpt lat="44.15453" lon="5.33048">
        <ele>1506.1999511719</ele>
        <time>2014-09-20T09:22:27.000Z</time>
      </trkpt>
      <trkpt lat="44.15442" lon="5.33056">
        <ele>1503.4000244141</ele>
        <time>2014-09-20T09:22:33.000Z</time>
      </trkpt>
      <trkpt lat="44.15433" lon="5.33069">
        <ele>1501.5999755859</ele>
        <time>2014-09-20T09:22:38.000Z</time>
      </trkpt>
      <trkpt lat="44.15431" lon="5.33072">
        <ele>1501</ele>
        <time>2014-09-20T09:22:40.000Z</time>
      </trkpt>
      <trkpt lat="44.15426" lon="5.33075">
        <ele>1499.8000488281</ele>
        <time>2014-09-20T09:22:43.000Z</time>
      </trkpt>
      <trkpt lat="44.15414" lon="5.33068">
        <ele>1497</ele>
        <time>2014-09-20T09:22:55.000Z</time>
      </trkpt>
      <trkpt lat="44.15397" lon="5.3307">
        <ele>1493.1999511719</ele>
        <time>2014-09-20T09:23:01.000Z</time>
      </trkpt>
      <trkpt lat="44.15391" lon="5.33082">
        <ele>1491.4000244141</ele>
        <time>2014-09-20T09:23:07.000Z</time>
      </trkpt>
      <trkpt lat="44.15391" lon="5.33083">
        <ele>1491</ele>
        <time>2014-09-20T09:23:08.000Z</time>
      </trkpt>
      <trkpt lat="44.1539" lon="5.33091">
        <ele>1490</ele>
        <time>2014-09-20T09:23:18.000Z</time>
      </trkpt>
      <trkpt lat="44.15392" lon="5.33103">
        <ele>1489</ele>
        <time>2014-09-20T09:23:37.000Z</time>
      </trkpt>
      <trkpt lat="44.15396" lon="5.33114">
        <ele>1489</ele>
        <time>2014-09-20T09:23:55.000Z</time>
      </trkpt>
      <trkpt lat="44.15397" lon="5.33116">
        <ele>1489.1999511719</ele>
        <time>2014-09-20T09:24:20.000Z</time>
      </trkpt>
      <trkpt lat="44.15397" lon="5.33123">
        <ele>1488.5999755859</ele>
        <time>2014-09-20T09:24:30.000Z</time>
      </trkpt>
      <trkpt lat="44.15397" lon="5.33134">
        <ele>1487.5999755859</ele>
        <time>2014-09-20T09:24:45.000Z</time>
      </trkpt>
      <trkpt lat="44.15388" lon="5.33138">
        <ele>1485</ele>
        <time>2014-09-20T09:25:06.000Z</time>
      </trkpt>
      <trkpt lat="44.15383" lon="5.33138">
        <ele>1483.4000244141</ele>
        <time>2014-09-20T09:25:21.000Z</time>
      </trkpt>
      <trkpt lat="44.15377" lon="5.33138">
        <ele>1481</ele>
        <time>2014-09-20T09:25:29.000Z</time>
      </trkpt>
      <trkpt lat="44.15377" lon="5.33137">
        <ele>1481</ele>
        <time>2014-09-20T09:25:32.000Z</time>
      </trkpt>
      <trkpt lat="44.15371" lon="5.33141">
        <ele>1479.4000244141</ele>
        <time>2014-09-20T09:25:56.000Z</time>
      </trkpt>
      <trkpt lat="44.15375" lon="5.33144">
        <ele>1480.8000488281</ele>
        <time>2014-09-20T09:26:25.000Z</time>
      </trkpt>
      <trkpt lat="44.15375" lon="5.33139">
        <ele>1480.5999755859</ele>
        <time>2014-09-20T09:26:35.000Z</time>
      </trkpt>
      <trkpt lat="44.15376" lon="5.33132">
        <ele>1480.4000244141</ele>
        <time>2014-09-20T09:26:49.000Z</time>
      </trkpt>
      <trkpt lat="44.15374" lon="5.33128">
        <ele>1480</ele>
        <time>2014-09-20T09:26:53.000Z</time>
      </trkpt>
      <trkpt lat="44.1537" lon="5.33119">
        <ele>1479.4000244141</ele>
        <time>2014-09-20T09:26:59.000Z</time>
      </trkpt>
      <trkpt lat="44.15354" lon="5.331">
        <ele>1478</ele>
        <time>2014-09-20T09:27:10.000Z</time>
      </trkpt>
      <trkpt lat="44.15347" lon="5.33088">
        <ele>1478.5999755859</ele>
        <time>2014-09-20T09:27:17.000Z</time>
      </trkpt>
      <trkpt lat="44.15334" lon="5.33072">
        <ele>1479.1999511719</ele>
        <time>2014-09-20T09:27:29.000Z</time>
      </trkpt>
      <trkpt lat="44.1533" lon="5.33069">
        <ele>1479.1999511719</ele>
        <time>2014-09-20T09:27:48.000Z</time>
      </trkpt>
      <trkpt lat="44.15319" lon="5.33082">
        <ele>1476.4000244141</ele>
        <time>2014-09-20T09:28:06.000Z</time>
      </trkpt>
      <trkpt lat="44.15312" lon="5.33085">
        <ele>1474.8000488281</ele>
        <time>2014-09-20T09:28:16.000Z</time>
      </trkpt>
      <trkpt lat="44.15303" lon="5.3309">
        <ele>1472</ele>
        <time>2014-09-20T09:28:34.000Z</time>
      </trkpt>
      <trkpt lat="44.15281" lon="5.33084">
        <ele>1468.8000488281</ele>
        <time>2014-09-20T09:28:43.000Z</time>
      </trkpt>
      <trkpt lat="44.15275" lon="5.33081">
        <ele>1468.1999511719</ele>
        <time>2014-09-20T09:28:53.000Z</time>
      </trkpt>
      <trkpt lat="44.15267" lon="5.33085">
        <ele>1466.4000244141</ele>
        <time>2014-09-20T09:29:04.000Z</time>
      </trkpt>
      <trkpt lat="44.15252" lon="5.33089">
        <ele>1463.5999755859</ele>
        <time>2014-09-20T09:29:18.000Z</time>
      </trkpt>
      <trkpt lat="44.15246" lon="5.331">
        <ele>1460.5999755859</ele>
        <time>2014-09-20T09:29:29.000Z</time>
      </trkpt>
      <trkpt lat="44.15242" lon="5.33112">
        <ele>1458.5999755859</ele>
        <time>2014-09-20T09:29:45.000Z</time>
      </trkpt>
      <trkpt lat="44.15241" lon="5.33115">
        <ele>1458</ele>
        <time>2014-09-20T09:30:03.000Z</time>
      </trkpt>
      <trkpt lat="44.15237" lon="5.33116">
        <ele>1457.5999755859</ele>
        <time>2014-09-20T09:30:30.000Z</time>
      </trkpt>
      <trkpt lat="44.15239" lon="5.33112">
        <ele>1458.1999511719</ele>
        <time>2014-09-20T09:30:59.000Z</time>
      </trkpt>
      <trkpt lat="44.15238" lon="5.33113">
        <ele>1458.1999511719</ele>
        <time>2014-09-20T09:31:25.000Z</time>
      </trkpt>
      <trkpt lat="44.15236" lon="5.33115">
        <ele>1457.8000488281</ele>
        <time>2014-09-20T09:31:54.000Z</time>
      </trkpt>
      <trkpt lat="44.15232" lon="5.33127">
        <ele>1455.8000488281</ele>
        <time>2014-09-20T09:32:10.000Z</time>
      </trkpt>
      <trkpt lat="44.15232" lon="5.33134">
        <ele>1455.4000244141</ele>
        <time>2014-09-20T09:32:22.000Z</time>
      </trkpt>
      <trkpt lat="44.15233" lon="5.33138">
        <ele>1455.4000244141</ele>
        <time>2014-09-20T09:32:30.000Z</time>
      </trkpt>
      <trkpt lat="44.15228" lon="5.33145">
        <ele>1455.1999511719</ele>
        <time>2014-09-20T09:32:47.000Z</time>
      </trkpt>
      <trkpt lat="44.15226" lon="5.3315">
        <ele>1455.1999511719</ele>
        <time>2014-09-20T09:33:09.000Z</time>
      </trkpt>
      <trkpt lat="44.15222" lon="5.33152">
        <ele>1455</ele>
        <time>2014-09-20T09:33:14.000Z</time>
      </trkpt>
      <trkpt lat="44.15203" lon="5.3316">
        <ele>1450.8000488281</ele>
        <time>2014-09-20T09:33:25.000Z</time>
      </trkpt>
      <trkpt lat="44.15201" lon="5.3316">
        <ele>1450.4000244141</ele>
        <time>2014-09-20T09:33:26.000Z</time>
      </trkpt>
      <trkpt lat="44.15195" lon="5.33162">
        <ele>1449</ele>
        <time>2014-09-20T09:33:31.000Z</time>
      </trkpt>
      <trkpt lat="44.15186" lon="5.3317">
        <ele>1446.5999755859</ele>
        <time>2014-09-20T09:33:42.000Z</time>
      </trkpt>
      <trkpt lat="44.15186" lon="5.33172">
        <ele>1446.4000244141</ele>
        <time>2014-09-20T09:33:43.000Z</time>
      </trkpt>
      <trkpt lat="44.15178" lon="5.33184">
        <ele>1443.5999755859</ele>
        <time>2014-09-20T09:33:54.000Z</time>
      </trkpt>
      <trkpt lat="44.15173" lon="5.33187">
        <ele>1442.4000244141</ele>
        <time>2014-09-20T09:34:00.000Z</time>
      </trkpt>
      <trkpt lat="44.15165" lon="5.33189">
        <ele>1441.1999511719</ele>
        <time>2014-09-20T09:34:14.000Z</time>
      </trkpt>
      <trkpt lat="44.1515" lon="5.33186">
        <ele>1439.1999511719</ele>
        <time>2014-09-20T09:34:34.000Z</time>
      </trkpt>
      <trkpt lat="44.15146" lon="5.33186">
        <ele>1438.8000488281</ele>
        <time>2014-09-20T09:34:36.000Z</time>
      </trkpt>
      <trkpt lat="44.15125" lon="5.33193">
        <ele>1434.8000488281</ele>
        <time>2014-09-20T09:34:49.000Z</time>
      </trkpt>
      <trkpt lat="44.15112" lon="5.33207">
        <ele>1431</ele>
        <time>2014-09-20T09:35:00.000Z</time>
      </trkpt>
      <trkpt lat="44.15102" lon="5.33211">
        <ele>1428.5999755859</ele>
        <time>2014-09-20T09:35:10.000Z</time>
      </trkpt>
      <trkpt lat="44.15095" lon="5.33215">
        <ele>1426.8000488281</ele>
        <time>2014-09-20T09:35:39.000Z</time>
      </trkpt>
      <trkpt lat="44.15094" lon="5.33219">
        <ele>1426.1999511719</ele>
        <time>2014-09-20T09:36:10.000Z</time>
      </trkpt>
      <trkpt lat="44.15096" lon="5.33217">
        <ele>1426.8000488281</ele>
        <time>2014-09-20T09:36:40.000Z</time>
      </trkpt>
      <trkpt lat="44.15092" lon="5.33221">
        <ele>1425.8000488281</ele>
        <time>2014-09-20T09:37:09.000Z</time>
      </trkpt>
      <trkpt lat="44.15085" lon="5.33217">
        <ele>1424.5999755859</ele>
        <time>2014-09-20T09:37:22.000Z</time>
      </trkpt>
      <trkpt lat="44.15078" lon="5.33215">
        <ele>1423.5999755859</ele>
        <time>2014-09-20T09:37:26.000Z</time>
      </trkpt>
      <trkpt lat="44.15074" lon="5.33225">
        <ele>1421.8000488281</ele>
        <time>2014-09-20T09:37:33.000Z</time>
      </trkpt>
      <trkpt lat="44.15073" lon="5.3323">
        <ele>1421</ele>
        <time>2014-09-20T09:37:36.000Z</time>
      </trkpt>
      <trkpt lat="44.15071" lon="5.33243">
        <ele>1419.5999755859</ele>
        <time>2014-09-20T09:37:48.000Z</time>
      </trkpt>
      <trkpt lat="44.1507" lon="5.33253">
        <ele>1418.4000244141</ele>
        <time>2014-09-20T09:37:58.000Z</time>
      </trkpt>
      <trkpt lat="44.15062" lon="5.33264">
        <ele>1416.8000488281</ele>
        <time>2014-09-20T09:38:10.000Z</time>
      </trkpt>
      <trkpt lat="44.15052" lon="5.33278">
        <ele>1415</ele>
        <time>2014-09-20T09:38:20.000Z</time>
      </trkpt>
      <trkpt lat="44.15049" lon="5.3328">
        <ele>1414.4000244141</ele>
        <time>2014-09-20T09:38:22.000Z</time>
      </trkpt>
      <trkpt lat="44.15041" lon="5.33291">
        <ele>1413</ele>
        <time>2014-09-20T09:38:28.000Z</time>
      </trkpt>
      <trkpt lat="44.15039" lon="5.33297">
        <ele>1412.4000244141</ele>
        <time>2014-09-20T09:38:31.000Z</time>
      </trkpt>
      <trkpt lat="44.15034" lon="5.33305">
        <ele>1411.8000488281</ele>
        <time>2014-09-20T09:38:34.000Z</time>
      </trkpt>
      <trkpt lat="44.15024" lon="5.33313">
        <ele>1410.4000244141</ele>
        <time>2014-09-20T09:38:37.000Z</time>
      </trkpt>
      <trkpt lat="44.15021" lon="5.33313">
        <ele>1409.8000488281</ele>
        <time>2014-09-20T09:38:38.000Z</time>
      </trkpt>
      <trkpt lat="44.15019" lon="5.33312">
        <ele>1409.5999755859</ele>
        <time>2014-09-20T09:38:39.000Z</time>
      </trkpt>
      <trkpt lat="44.15017" lon="5.33311">
        <ele>1409.1999511719</ele>
        <time>2014-09-20T09:38:40.000Z</time>
      </trkpt>
      <trkpt lat="44.15014" lon="5.33308">
        <ele>1408.8000488281</ele>
        <time>2014-09-20T09:38:42.000Z</time>
      </trkpt>
      <trkpt lat="44.15014" lon="5.33306">
        <ele>1408.8000488281</ele>
        <time>2014-09-20T09:38:43.000Z</time>
      </trkpt>
      <trkpt lat="44.15016" lon="5.33308">
        <ele>1409.1999511719</ele>
        <time>2014-09-20T09:38:51.000Z</time>
      </trkpt>
      <trkpt lat="44.15016" lon="5.33311">
        <ele>1409</ele>
        <time>2014-09-20T09:39:08.000Z</time>
      </trkpt>
      <trkpt lat="44.15012" lon="5.33309">
        <ele>1408.4000244141</ele>
        <time>2014-09-20T09:39:38.000Z</time>
      </trkpt>
      <trkpt lat="44.15007" lon="5.3331">
        <ele>1407.5999755859</ele>
        <time>2014-09-20T09:40:07.000Z</time>
      </trkpt>
      <trkpt lat="44.15008" lon="5.33308">
        <ele>1407.8000488281</ele>
        <time>2014-09-20T09:40:33.000Z</time>
      </trkpt>
      <trkpt lat="44.1501" lon="5.33316">
        <ele>1408</ele>
        <time>2014-09-20T09:40:59.000Z</time>
      </trkpt>
      <trkpt lat="44.15014" lon="5.33313">
        <ele>1408.8000488281</ele>
        <time>2014-09-20T09:41:27.000Z</time>
      </trkpt>
      <trkpt lat="44.15017" lon="5.33312">
        <ele>1409.1999511719</ele>
        <time>2014-09-20T09:41:47.000Z</time>
      </trkpt>
      <trkpt lat="44.15017" lon="5.33307">
        <ele>1409.1999511719</ele>
        <time>2014-09-20T09:41:51.000Z</time>
      </trkpt>
      <trkpt lat="44.14988" lon="5.33273">
        <ele>1404.4000244141</ele>
        <time>2014-09-20T09:42:02.000Z</time>
      </trkpt>
      <trkpt lat="44.14966" lon="5.33255">
        <ele>1400.4000244141</ele>
        <time>2014-09-20T09:42:07.000Z</time>
      </trkpt>
      <trkpt lat="44.14951" lon="5.33246">
        <ele>1397.8000488281</ele>
        <time>2014-09-20T09:42:11.000Z</time>
      </trkpt>
      <trkpt lat="44.14946" lon="5.33247">
        <ele>1397</ele>
        <time>2014-09-20T09:42:12.000Z</time>
      </trkpt>
      <trkpt lat="44.14941" lon="5.33249">
        <ele>1396.8000488281</ele>
        <time>2014-09-20T09:42:13.000Z</time>
      </trkpt>
      <trkpt lat="44.14938" lon="5.33252">
        <ele>1396.5999755859</ele>
        <time>2014-09-20T09:42:14.000Z</time>
      </trkpt>
      <trkpt lat="44.14934" lon="5.33256">
        <ele>1396.5999755859</ele>
        <time>2014-09-20T09:42:15.000Z</time>
      </trkpt>
      <trkpt lat="44.14929" lon="5.33259">
        <ele>1396.5999755859</ele>
        <time>2014-09-20T09:42:16.000Z</time>
      </trkpt>
      <trkpt lat="44.14924" lon="5.33261">
        <ele>1396.4000244141</ele>
        <time>2014-09-20T09:42:17.000Z</time>
      </trkpt>
      <trkpt lat="44.1492" lon="5.33262">
        <ele>1396.1999511719</ele>
        <time>2014-09-20T09:42:18.000Z</time>
      </trkpt>
      <trkpt lat="44.14916" lon="5.33263">
        <ele>1396.1999511719</ele>
        <time>2014-09-20T09:42:19.000Z</time>
      </trkpt>
      <trkpt lat="44.14882" lon="5.33258">
        <ele>1391</ele>
        <time>2014-09-20T09:42:31.000Z</time>
      </trkpt>
      <trkpt lat="44.14868" lon="5.33253">
        <ele>1388.8000488281</ele>
        <time>2014-09-20T09:42:39.000Z</time>
      </trkpt>
      <trkpt lat="44.14866" lon="5.33252">
        <ele>1388.5999755859</ele>
        <time>2014-09-20T09:42:40.000Z</time>
      </trkpt>
      <trkpt lat="44.14864" lon="5.33251">
        <ele>1388.4000244141</ele>
        <time>2014-09-20T09:42:41.000Z</time>
      </trkpt>
      <trkpt lat="44.14849" lon="5.33242">
        <ele>1387.8000488281</ele>
        <time>2014-09-20T09:42:47.000Z</time>
      </trkpt>
      <trkpt lat="44.14832" lon="5.33228">
        <ele>1388.1999511719</ele>
        <time>2014-09-20T09:42:54.000Z</time>
      </trkpt>
      <trkpt lat="44.148" lon="5.33207">
        <ele>1387.8000488281</ele>
        <time>2014-09-20T09:43:06.000Z</time>
      </trkpt>
      <trkpt lat="44.14792" lon="5.33188">
        <ele>1388.8000488281</ele>
        <time>2014-09-20T09:43:14.000Z</time>
      </trkpt>
      <trkpt lat="44.1479" lon="5.33182">
        <ele>1389.1999511719</ele>
        <time>2014-09-20T09:43:17.000Z</time>
      </trkpt>
      <trkpt lat="44.1477" lon="5.33174">
        <ele>1388</ele>
        <time>2014-09-20T09:43:26.000Z</time>
      </trkpt>
      <trkpt lat="44.14767" lon="5.33172">
        <ele>1387.8000488281</ele>
        <time>2014-09-20T09:43:27.000Z</time>
      </trkpt>
      <trkpt lat="44.14757" lon="5.33163">
        <ele>1387.4000244141</ele>
        <time>2014-09-20T09:43:34.000Z</time>
      </trkpt>
      <trkpt lat="44.14756" lon="5.33161">
        <ele>1387.5999755859</ele>
        <time>2014-09-20T09:43:35.000Z</time>
      </trkpt>
      <trkpt lat="44.14738" lon="5.33138">
        <ele>1387.5999755859</ele>
        <time>2014-09-20T09:43:45.000Z</time>
      </trkpt>
      <trkpt lat="44.14727" lon="5.33135">
        <ele>1386.5999755859</ele>
        <time>2014-09-20T09:43:50.000Z</time>
      </trkpt>
      <trkpt lat="44.14714" lon="5.3312">
        <ele>1385.5999755859</ele>
        <time>2014-09-20T09:43:56.000Z</time>
      </trkpt>
      <trkpt lat="44.1471" lon="5.33109">
        <ele>1385.4000244141</ele>
        <time>2014-09-20T09:44:00.000Z</time>
      </trkpt>
      <trkpt lat="44.14708" lon="5.33104">
        <ele>1385.4000244141</ele>
        <time>2014-09-20T09:44:02.000Z</time>
      </trkpt>
      <trkpt lat="44.14704" lon="5.33094">
        <ele>1385</ele>
        <time>2014-09-20T09:44:07.000Z</time>
      </trkpt>
      <trkpt lat="44.14711" lon="5.33064">
        <ele>1386.5999755859</ele>
        <time>2014-09-20T09:44:18.000Z</time>
      </trkpt>
      <trkpt lat="44.14718" lon="5.33026">
        <ele>1385.8000488281</ele>
        <time>2014-09-20T09:44:34.000Z</time>
      </trkpt>
      <trkpt lat="44.14724" lon="5.33015">
        <ele>1386</ele>
        <time>2014-09-20T09:44:40.000Z</time>
      </trkpt>
      <trkpt lat="44.14724" lon="5.33001">
        <ele>1385.8000488281</ele>
        <time>2014-09-20T09:44:54.000Z</time>
      </trkpt>
      <trkpt lat="44.14724" lon="5.32992">
        <ele>1385.5999755859</ele>
        <time>2014-09-20T09:45:10.000Z</time>
      </trkpt>
      <trkpt lat="44.14717" lon="5.3297">
        <ele>1383.8000488281</ele>
        <time>2014-09-20T09:45:22.000Z</time>
      </trkpt>
      <trkpt lat="44.14718" lon="5.3296">
        <ele>1382.8000488281</ele>
        <time>2014-09-20T09:45:26.000Z</time>
      </trkpt>
      <trkpt lat="44.14719" lon="5.3295">
        <ele>1381.4000244141</ele>
        <time>2014-09-20T09:45:30.000Z</time>
      </trkpt>
      <trkpt lat="44.14718" lon="5.32945">
        <ele>1380.8000488281</ele>
        <time>2014-09-20T09:45:32.000Z</time>
      </trkpt>
      <trkpt lat="44.14707" lon="5.32922">
        <ele>1378.5999755859</ele>
        <time>2014-09-20T09:45:43.000Z</time>
      </trkpt>
      <trkpt lat="44.14706" lon="5.3292">
        <ele>1378.4000244141</ele>
        <time>2014-09-20T09:45:46.000Z</time>
      </trkpt>
      <trkpt lat="44.14701" lon="5.32915">
        <ele>1378</ele>
        <time>2014-09-20T09:45:53.000Z</time>
      </trkpt>
      <trkpt lat="44.1468" lon="5.32905">
        <ele>1375.4000244141</ele>
        <time>2014-09-20T09:46:00.000Z</time>
      </trkpt>
      <trkpt lat="44.14663" lon="5.32895">
        <ele>1372.4000244141</ele>
        <time>2014-09-20T09:46:04.000Z</time>
      </trkpt>
      <trkpt lat="44.14653" lon="5.32891">
        <ele>1370.8000488281</ele>
        <time>2014-09-20T09:46:06.000Z</time>
      </trkpt>
      <trkpt lat="44.14635" lon="5.32887">
        <ele>1368.4000244141</ele>
        <time>2014-09-20T09:46:10.000Z</time>
      </trkpt>
      <trkpt lat="44.1463" lon="5.32891">
        <ele>1368.1999511719</ele>
        <time>2014-09-20T09:46:13.000Z</time>
      </trkpt>
      <trkpt lat="44.14621" lon="5.32895">
        <ele>1367.5999755859</ele>
        <time>2014-09-20T09:46:17.000Z</time>
      </trkpt>
      <trkpt lat="44.14613" lon="5.32903">
        <ele>1366.8000488281</ele>
        <time>2014-09-20T09:46:21.000Z</time>
      </trkpt>
      <trkpt lat="44.1461" lon="5.32906">
        <ele>1366.4000244141</ele>
        <time>2014-09-20T09:46:23.000Z</time>
      </trkpt>
      <trkpt lat="44.14568" lon="5.32924">
        <ele>1362.8000488281</ele>
        <time>2014-09-20T09:46:31.000Z</time>
      </trkpt>
      <trkpt lat="44.14541" lon="5.32937">
        <ele>1358.1999511719</ele>
        <time>2014-09-20T09:46:35.000Z</time>
      </trkpt>
      <trkpt lat="44.14506" lon="5.32956">
        <ele>1351.5999755859</ele>
        <time>2014-09-20T09:46:42.000Z</time>
      </trkpt>
      <trkpt lat="44.14502" lon="5.32958">
        <ele>1350.1999511719</ele>
        <time>2014-09-20T09:46:45.000Z</time>
      </trkpt>
      <trkpt lat="44.14495" lon="5.32966">
        <ele>1347.8000488281</ele>
        <time>2014-09-20T09:47:13.000Z</time>
      </trkpt>
      <trkpt lat="44.14492" lon="5.32965">
        <ele>1347</ele>
        <time>2014-09-20T09:47:41.000Z</time>
      </trkpt>
      <trkpt lat="44.14489" lon="5.32968">
        <ele>1346.4000244141</ele>
        <time>2014-09-20T09:47:56.000Z</time>
      </trkpt>
      <trkpt lat="44.14487" lon="5.32999">
        <ele>1344.8000488281</ele>
        <time>2014-09-20T09:48:06.000Z</time>
      </trkpt>
      <trkpt lat="44.14485" lon="5.33007">
        <ele>1344.1999511719</ele>
        <time>2014-09-20T09:48:08.000Z</time>
      </trkpt>
      <trkpt lat="44.14486" lon="5.33031">
        <ele>1340.8000488281</ele>
        <time>2014-09-20T09:48:17.000Z</time>
      </trkpt>
      <trkpt lat="44.14496" lon="5.33061">
        <ele>1340.8000488281</ele>
        <time>2014-09-20T09:48:36.000Z</time>
      </trkpt>
      <trkpt lat="44.14496" lon="5.33063">
        <ele>1340.4000244141</ele>
        <time>2014-09-20T09:48:37.000Z</time>
      </trkpt>
      <trkpt lat="44.14494" lon="5.33085">
        <ele>1337</ele>
        <time>2014-09-20T09:48:43.000Z</time>
      </trkpt>
      <trkpt lat="44.14501" lon="5.33132">
        <ele>1335.1999511719</ele>
        <time>2014-09-20T09:48:53.000Z</time>
      </trkpt>
      <trkpt lat="44.14508" lon="5.33161">
        <ele>1334.5999755859</ele>
        <time>2014-09-20T09:49:03.000Z</time>
      </trkpt>
      <trkpt lat="44.14513" lon="5.33206">
        <ele>1333</ele>
        <time>2014-09-20T09:49:17.000Z</time>
      </trkpt>
      <trkpt lat="44.14519" lon="5.3322">
        <ele>1335.1999511719</ele>
        <time>2014-09-20T09:49:23.000Z</time>
      </trkpt>
      <trkpt lat="44.14524" lon="5.33233">
        <ele>1337.8000488281</ele>
        <time>2014-09-20T09:49:28.000Z</time>
      </trkpt>
      <trkpt lat="44.14532" lon="5.3325">
        <ele>1340.4000244141</ele>
        <time>2014-09-20T09:49:34.000Z</time>
      </trkpt>
      <trkpt lat="44.14538" lon="5.3326">
        <ele>1341.8000488281</ele>
        <time>2014-09-20T09:49:38.000Z</time>
      </trkpt>
      <trkpt lat="44.14539" lon="5.33269">
        <ele>1343</ele>
        <time>2014-09-20T09:49:41.000Z</time>
      </trkpt>
      <trkpt lat="44.14531" lon="5.3328">
        <ele>1344</ele>
        <time>2014-09-20T09:49:50.000Z</time>
      </trkpt>
      <trkpt lat="44.14533" lon="5.33283">
        <ele>1344.4000244141</ele>
        <time>2014-09-20T09:50:10.000Z</time>
      </trkpt>
      <trkpt lat="44.14539" lon="5.33275">
        <ele>1343.5999755859</ele>
        <time>2014-09-20T09:50:34.000Z</time>
      </trkpt>
      <trkpt lat="44.14539" lon="5.33274">
        <ele>1343.5999755859</ele>
        <time>2014-09-20T09:50:35.000Z</time>
      </trkpt>
      <trkpt lat="44.14534" lon="5.33273">
        <ele>1343.1999511719</ele>
        <time>2014-09-20T09:50:38.000Z</time>
      </trkpt>
      <trkpt lat="44.14513" lon="5.33274">
        <ele>1340.5999755859</ele>
        <time>2014-09-20T09:50:47.000Z</time>
      </trkpt>
      <trkpt lat="44.1451" lon="5.33275">
        <ele>1340.4000244141</ele>
        <time>2014-09-20T09:50:48.000Z</time>
      </trkpt>
      <trkpt lat="44.14498" lon="5.33277">
        <ele>1339.1999511719</ele>
        <time>2014-09-20T09:50:53.000Z</time>
      </trkpt>
      <trkpt lat="44.14476" lon="5.33283">
        <ele>1337.8000488281</ele>
        <time>2014-09-20T09:51:02.000Z</time>
      </trkpt>
      <trkpt lat="44.14469" lon="5.33285">
        <ele>1337.5999755859</ele>
        <time>2014-09-20T09:51:05.000Z</time>
      </trkpt>
      <trkpt lat="44.14458" lon="5.33288">
        <ele>1336.8000488281</ele>
        <time>2014-09-20T09:51:11.000Z</time>
      </trkpt>
      <trkpt lat="44.14437" lon="5.33287">
        <ele>1335.5999755859</ele>
        <time>2014-09-20T09:51:23.000Z</time>
      </trkpt>
      <trkpt lat="44.14425" lon="5.33287">
        <ele>1334.8000488281</ele>
        <time>2014-09-20T09:51:30.000Z</time>
      </trkpt>
      <trkpt lat="44.14417" lon="5.33288">
        <ele>1334</ele>
        <time>2014-09-20T09:51:35.000Z</time>
      </trkpt>
      <trkpt lat="44.14398" lon="5.33289">
        <ele>1331.8000488281</ele>
        <time>2014-09-20T09:51:48.000Z</time>
      </trkpt>
      <trkpt lat="44.1439" lon="5.33288">
        <ele>1330.8000488281</ele>
        <time>2014-09-20T09:51:59.000Z</time>
      </trkpt>
      <trkpt lat="44.1438" lon="5.33292">
        <ele>1329.4000244141</ele>
        <time>2014-09-20T09:52:16.000Z</time>
      </trkpt>
      <trkpt lat="44.14366" lon="5.33288">
        <ele>1327.8000488281</ele>
        <time>2014-09-20T09:52:26.000Z</time>
      </trkpt>
      <trkpt lat="44.14365" lon="5.33289">
        <ele>1327.8000488281</ele>
        <time>2014-09-20T09:52:47.000Z</time>
      </trkpt>
      <trkpt lat="44.14364" lon="5.33294">
        <ele>1327.4000244141</ele>
        <time>2014-09-20T09:53:13.000Z</time>
      </trkpt>
      <trkpt lat="44.14365" lon="5.33293">
        <ele>1327.5999755859</ele>
        <time>2014-09-20T09:53:44.000Z</time>
      </trkpt>
      <trkpt lat="44.14366" lon="5.33286">
        <ele>1328</ele>
        <time>2014-09-20T09:54:11.000Z</time>
      </trkpt>
      <trkpt lat="44.14356" lon="5.33275">
        <ele>1327</ele>
        <time>2014-09-20T09:54:17.000Z</time>
      </trkpt>
      <trkpt lat="44.14333" lon="5.33245">
        <ele>1325.1999511719</ele>
        <time>2014-09-20T09:54:29.000Z</time>
      </trkpt>
      <trkpt lat="44.14329" lon="5.33241">
        <ele>1324.8000488281</ele>
        <time>2014-09-20T09:54:31.000Z</time>
      </trkpt>
      <trkpt lat="44.14295" lon="5.33206">
        <ele>1322.1999511719</ele>
        <time>2014-09-20T09:54:42.000Z</time>
      </trkpt>
      <trkpt lat="44.14279" lon="5.33185">
        <ele>1321.5999755859</ele>
        <time>2014-09-20T09:54:48.000Z</time>
      </trkpt>
      <trkpt lat="44.14269" lon="5.33174">
        <ele>1321</ele>
        <time>2014-09-20T09:54:51.000Z</time>
      </trkpt>
      <trkpt lat="44.14255" lon="5.33156">
        <ele>1320.4000244141</ele>
        <time>2014-09-20T09:54:55.000Z</time>
      </trkpt>
      <trkpt lat="44.14237" lon="5.3314">
        <ele>1319.1999511719</ele>
        <time>2014-09-20T09:54:59.000Z</time>
      </trkpt>
      <trkpt lat="44.14226" lon="5.33133">
        <ele>1318.4000244141</ele>
        <time>2014-09-20T09:55:01.000Z</time>
      </trkpt>
      <trkpt lat="44.14209" lon="5.33122">
        <ele>1317.1999511719</ele>
        <time>2014-09-20T09:55:06.000Z</time>
      </trkpt>
      <trkpt lat="44.14207" lon="5.33115">
        <ele>1317.4000244141</ele>
        <time>2014-09-20T09:55:11.000Z</time>
      </trkpt>
      <trkpt lat="44.14208" lon="5.33105">
        <ele>1318.1999511719</ele>
        <time>2014-09-20T09:55:16.000Z</time>
      </trkpt>
      <trkpt lat="44.14207" lon="5.33089">
        <ele>1319</ele>
        <time>2014-09-20T09:55:26.000Z</time>
      </trkpt>
      <trkpt lat="44.14206" lon="5.33084">
        <ele>1319</ele>
        <time>2014-09-20T09:55:27.000Z</time>
      </trkpt>
      <trkpt lat="44.142" lon="5.33068">
        <ele>1319.4000244141</ele>
        <time>2014-09-20T09:55:31.000Z</time>
      </trkpt>
      <trkpt lat="44.14192" lon="5.33046">
        <ele>1319.8000488281</ele>
        <time>2014-09-20T09:55:45.000Z</time>
      </trkpt>
      <trkpt lat="44.14189" lon="5.33032">
        <ele>1318.4000244141</ele>
        <time>2014-09-20T09:55:59.000Z</time>
      </trkpt>
      <trkpt lat="44.1418" lon="5.33017">
        <ele>1316.8000488281</ele>
        <time>2014-09-20T09:56:09.000Z</time>
      </trkpt>
      <trkpt lat="44.1417" lon="5.33001">
        <ele>1315</ele>
        <time>2014-09-20T09:56:16.000Z</time>
      </trkpt>
      <trkpt lat="44.14164" lon="5.32985">
        <ele>1313.4000244141</ele>
        <time>2014-09-20T09:56:22.000Z</time>
      </trkpt>
      <trkpt lat="44.1416" lon="5.32982">
        <ele>1313</ele>
        <time>2014-09-20T09:56:24.000Z</time>
      </trkpt>
      <trkpt lat="44.14154" lon="5.32972">
        <ele>1312</ele>
        <time>2014-09-20T09:56:27.000Z</time>
      </trkpt>
      <trkpt lat="44.14147" lon="5.32963">
        <ele>1311</ele>
        <time>2014-09-20T09:56:30.000Z</time>
      </trkpt>
      <trkpt lat="44.14136" lon="5.32946">
        <ele>1308.8000488281</ele>
        <time>2014-09-20T09:56:35.000Z</time>
      </trkpt>
      <trkpt lat="44.14129" lon="5.32935">
        <ele>1307.5999755859</ele>
        <time>2014-09-20T09:56:38.000Z</time>
      </trkpt>
      <trkpt lat="44.14125" lon="5.3293">
        <ele>1307</ele>
        <time>2014-09-20T09:56:40.000Z</time>
      </trkpt>
      <trkpt lat="44.14122" lon="5.32924">
        <ele>1306.1999511719</ele>
        <time>2014-09-20T09:56:42.000Z</time>
      </trkpt>
      <trkpt lat="44.14117" lon="5.32921">
        <ele>1305.8000488281</ele>
        <time>2014-09-20T09:56:48.000Z</time>
      </trkpt>
      <trkpt lat="44.14115" lon="5.32918">
        <ele>1305.5999755859</ele>
        <time>2014-09-20T09:56:52.000Z</time>
      </trkpt>
      <trkpt lat="44.14113" lon="5.32911">
        <ele>1304.5999755859</ele>
        <time>2014-09-20T09:56:59.000Z</time>
      </trkpt>
      <trkpt lat="44.14112" lon="5.32905">
        <ele>1304</ele>
        <time>2014-09-20T09:57:02.000Z</time>
      </trkpt>
      <trkpt lat="44.14112" lon="5.32895">
        <ele>1302.8000488281</ele>
        <time>2014-09-20T09:57:22.000Z</time>
      </trkpt>
      <trkpt lat="44.14101" lon="5.32886">
        <ele>1300.8000488281</ele>
        <time>2014-09-20T09:57:43.000Z</time>
      </trkpt>
      <trkpt lat="44.14084" lon="5.32874">
        <ele>1298</ele>
        <time>2014-09-20T09:57:59.000Z</time>
      </trkpt>
      <trkpt lat="44.14081" lon="5.32871">
        <ele>1297.4000244141</ele>
        <time>2014-09-20T09:58:09.000Z</time>
      </trkpt>
      <trkpt lat="44.14073" lon="5.32871">
        <ele>1296.8000488281</ele>
        <time>2014-09-20T09:58:21.000Z</time>
      </trkpt>
      <trkpt lat="44.14067" lon="5.32869">
        <ele>1296</ele>
        <time>2014-09-20T09:58:42.000Z</time>
      </trkpt>
      <trkpt lat="44.14062" lon="5.32862">
        <ele>1294.8000488281</ele>
        <time>2014-09-20T09:59:00.000Z</time>
      </trkpt>
      <trkpt lat="44.14052" lon="5.32858">
        <ele>1293.5999755859</ele>
        <time>2014-09-20T09:59:20.000Z</time>
      </trkpt>
      <trkpt lat="44.14044" lon="5.32855">
        <ele>1292.5999755859</ele>
        <time>2014-09-20T09:59:35.000Z</time>
      </trkpt>
      <trkpt lat="44.14038" lon="5.32852">
        <ele>1291.8000488281</ele>
        <time>2014-09-20T09:59:56.000Z</time>
      </trkpt>
      <trkpt lat="44.14033" lon="5.3285">
        <ele>1291.1999511719</ele>
        <time>2014-09-20T10:00:09.000Z</time>
      </trkpt>
      <trkpt lat="44.14033" lon="5.32851">
        <ele>1291.1999511719</ele>
        <time>2014-09-20T10:00:11.000Z</time>
      </trkpt>
      <trkpt lat="44.14024" lon="5.32844">
        <ele>1289.4000244141</ele>
        <time>2014-09-20T10:00:24.000Z</time>
      </trkpt>
      <trkpt lat="44.14024" lon="5.32843">
        <ele>1289.1999511719</ele>
        <time>2014-09-20T10:00:26.000Z</time>
      </trkpt>
      <trkpt lat="44.14007" lon="5.32842">
        <ele>1286</ele>
        <time>2014-09-20T10:00:40.000Z</time>
      </trkpt>
      <trkpt lat="44.14" lon="5.32837">
        <ele>1284.1999511719</ele>
        <time>2014-09-20T10:00:49.000Z</time>
      </trkpt>
      <trkpt lat="44.13991" lon="5.32838">
        <ele>1282.4000244141</ele>
        <time>2014-09-20T10:00:56.000Z</time>
      </trkpt>
      <trkpt lat="44.13982" lon="5.32838">
        <ele>1280.4000244141</ele>
        <time>2014-09-20T10:01:11.000Z</time>
      </trkpt>
      <trkpt lat="44.13977" lon="5.32837">
        <ele>1278.8000488281</ele>
        <time>2014-09-20T10:01:38.000Z</time>
      </trkpt>
      <trkpt lat="44.13975" lon="5.32835">
        <ele>1278</ele>
        <time>2014-09-20T10:02:06.000Z</time>
      </trkpt>
      <trkpt lat="44.13979" lon="5.32841">
        <ele>1279.1999511719</ele>
        <time>2014-09-20T10:02:34.000Z</time>
      </trkpt>
      <trkpt lat="44.13975" lon="5.3284">
        <ele>1278.1999511719</ele>
        <time>2014-09-20T10:02:46.000Z</time>
      </trkpt>
      <trkpt lat="44.1396" lon="5.32832">
        <ele>1273.5999755859</ele>
        <time>2014-09-20T10:02:53.000Z</time>
      </trkpt>
      <trkpt lat="44.13952" lon="5.32821">
        <ele>1271.4000244141</ele>
        <time>2014-09-20T10:02:57.000Z</time>
      </trkpt>
      <trkpt lat="44.1394" lon="5.32799">
        <ele>1267.1999511719</ele>
        <time>2014-09-20T10:03:04.000Z</time>
      </trkpt>
      <trkpt lat="44.13936" lon="5.32789">
        <ele>1266.1999511719</ele>
        <time>2014-09-20T10:03:08.000Z</time>
      </trkpt>
      <trkpt lat="44.13927" lon="5.32774">
        <ele>1262.5999755859</ele>
        <time>2014-09-20T10:03:13.000Z</time>
      </trkpt>
      <trkpt lat="44.13911" lon="5.32758">
        <ele>1257</ele>
        <time>2014-09-20T10:03:20.000Z</time>
      </trkpt>
      <trkpt lat="44.13898" lon="5.32742">
        <ele>1251.8000488281</ele>
        <time>2014-09-20T10:03:27.000Z</time>
      </trkpt>
      <trkpt lat="44.13896" lon="5.32739">
        <ele>1251.1999511719</ele>
        <time>2014-09-20T10:03:28.000Z</time>
      </trkpt>
      <trkpt lat="44.1389" lon="5.32722">
        <ele>1248.5999755859</ele>
        <time>2014-09-20T10:03:34.000Z</time>
      </trkpt>
      <trkpt lat="44.1389" lon="5.32712">
        <ele>1248.1999511719</ele>
        <time>2014-09-20T10:03:37.000Z</time>
      </trkpt>
      <trkpt lat="44.13871" lon="5.32684">
        <ele>1245.1999511719</ele>
        <time>2014-09-20T10:03:46.000Z</time>
      </trkpt>
      <trkpt lat="44.13856" lon="5.32661">
        <ele>1242.5999755859</ele>
        <time>2014-09-20T10:03:50.000Z</time>
      </trkpt>
      <trkpt lat="44.13849" lon="5.32648">
        <ele>1241.1999511719</ele>
        <time>2014-09-20T10:03:52.000Z</time>
      </trkpt>
      <trkpt lat="44.13843" lon="5.32639">
        <ele>1240.1999511719</ele>
        <time>2014-09-20T10:03:54.000Z</time>
      </trkpt>
      <trkpt lat="44.13841" lon="5.32634">
        <ele>1239.8000488281</ele>
        <time>2014-09-20T10:03:56.000Z</time>
      </trkpt>
      <trkpt lat="44.13828" lon="5.32617">
        <ele>1237.4000244141</ele>
        <time>2014-09-20T10:04:05.000Z</time>
      </trkpt>
      <trkpt lat="44.13805" lon="5.32585">
        <ele>1234.1999511719</ele>
        <time>2014-09-20T10:04:15.000Z</time>
      </trkpt>
      <trkpt lat="44.13793" lon="5.3257">
        <ele>1232.1999511719</ele>
        <time>2014-09-20T10:04:18.000Z</time>
      </trkpt>
      <trkpt lat="44.13778" lon="5.32538">
        <ele>1230.5999755859</ele>
        <time>2014-09-20T10:04:25.000Z</time>
      </trkpt>
      <trkpt lat="44.13771" lon="5.32523">
        <ele>1229.8000488281</ele>
        <time>2014-09-20T10:04:33.000Z</time>
      </trkpt>
      <trkpt lat="44.13765" lon="5.32517">
        <ele>1228.5999755859</ele>
        <time>2014-09-20T10:04:58.000Z</time>
      </trkpt>
      <trkpt lat="44.13755" lon="5.32514">
        <ele>1226</ele>
        <time>2014-09-20T10:05:14.000Z</time>
      </trkpt>
      <trkpt lat="44.13753" lon="5.3252">
        <ele>1225.1999511719</ele>
        <time>2014-09-20T10:05:40.000Z</time>
      </trkpt>
      <trkpt lat="44.13754" lon="5.32522">
        <ele>1225.5999755859</ele>
        <time>2014-09-20T10:06:10.000Z</time>
      </trkpt>
      <trkpt lat="44.13754" lon="5.32518">
        <ele>1225.4000244141</ele>
        <time>2014-09-20T10:06:36.000Z</time>
      </trkpt>
      <trkpt lat="44.13756" lon="5.32517">
        <ele>1226</ele>
        <time>2014-09-20T10:07:08.000Z</time>
      </trkpt>
      <trkpt lat="44.13756" lon="5.32515">
        <ele>1226.1999511719</ele>
        <time>2014-09-20T10:07:38.000Z</time>
      </trkpt>
      <trkpt lat="44.13753" lon="5.32516">
        <ele>1225.4000244141</ele>
        <time>2014-09-20T10:08:06.000Z</time>
      </trkpt>
      <trkpt lat="44.13752" lon="5.32519">
        <ele>1225</ele>
        <time>2014-09-20T10:08:28.000Z</time>
      </trkpt>
      <trkpt lat="44.13754" lon="5.32519">
        <ele>1225.5999755859</ele>
        <time>2014-09-20T10:08:48.000Z</time>
      </trkpt>
      <trkpt lat="44.13753" lon="5.3252">
        <ele>1225.1999511719</ele>
        <time>2014-09-20T10:09:12.000Z</time>
      </trkpt>
      <trkpt lat="44.13755" lon="5.32517">
        <ele>1226</ele>
        <time>2014-09-20T10:09:29.000Z</time>
      </trkpt>
      <trkpt lat="44.13755" lon="5.32516">
        <ele>1226</ele>
        <time>2014-09-20T10:09:53.000Z</time>
      </trkpt>
      <trkpt lat="44.13758" lon="5.32516">
        <ele>1226.8000488281</ele>
        <time>2014-09-20T10:10:26.000Z</time>
      </trkpt>
      <trkpt lat="44.13754" lon="5.3251">
        <ele>1226</ele>
        <time>2014-09-20T10:11:07.000Z</time>
      </trkpt>
      <trkpt lat="44.13755" lon="5.32513">
        <ele>1226.1999511719</ele>
        <time>2014-09-20T10:11:38.000Z</time>
      </trkpt>
      <trkpt lat="44.13756" lon="5.32512">
        <ele>1226.5999755859</ele>
        <time>2014-09-20T10:12:08.000Z</time>
      </trkpt>
      <trkpt lat="44.13755" lon="5.32509">
        <ele>1226.4000244141</ele>
        <time>2014-09-20T10:12:39.000Z</time>
      </trkpt>
      <trkpt lat="44.13755" lon="5.32512">
        <ele>1226.4000244141</ele>
        <time>2014-09-20T10:13:17.000Z</time>
      </trkpt>
      <trkpt lat="44.13757" lon="5.32515">
        <ele>1226.5999755859</ele>
        <time>2014-09-20T10:13:49.000Z</time>
      </trkpt>
      <trkpt lat="44.13757" lon="5.32514">
        <ele>1226.5999755859</ele>
        <time>2014-09-20T10:14:21.000Z</time>
      </trkpt>
      <trkpt lat="44.13754" lon="5.32513">
        <ele>1226</ele>
        <time>2014-09-20T10:15:07.000Z</time>
      </trkpt>
      <trkpt lat="44.13756" lon="5.32515">
        <ele>1226.4000244141</ele>
        <time>2014-09-20T10:15:40.000Z</time>
      </trkpt>
      <trkpt lat="44.13758" lon="5.32517">
        <ele>1226.8000488281</ele>
        <time>2014-09-20T10:16:16.000Z</time>
      </trkpt>
      <trkpt lat="44.13756" lon="5.32515">
        <ele>1226.4000244141</ele>
        <time>2014-09-20T10:16:51.000Z</time>
      </trkpt>
      <trkpt lat="44.13758" lon="5.32518">
        <ele>1226.5999755859</ele>
        <time>2014-09-20T10:17:23.000Z</time>
      </trkpt>
      <trkpt lat="44.13756" lon="5.32515">
        <ele>1226.1999511719</ele>
        <time>2014-09-20T10:17:54.000Z</time>
      </trkpt>
      <trkpt lat="44.13755" lon="5.32516">
        <ele>1226</ele>
        <time>2014-09-20T10:18:41.000Z</time>
      </trkpt>
      <trkpt lat="44.13756" lon="5.3252">
        <ele>1226</ele>
        <time>2014-09-20T10:19:22.000Z</time>
      </trkpt>
      <trkpt lat="44.13756" lon="5.32516">
        <ele>1226.4000244141</ele>
        <time>2014-09-20T10:19:52.000Z</time>
      </trkpt>
      <trkpt lat="44.13756" lon="5.32515">
        <ele>1226.1999511719</ele>
        <time>2014-09-20T10:20:25.000Z</time>
      </trkpt>
      <trkpt lat="44.13754" lon="5.32516">
        <ele>1225.5999755859</ele>
        <time>2014-09-20T10:20:58.000Z</time>
      </trkpt>
      <trkpt lat="44.13754" lon="5.32515">
        <ele>1225.8000488281</ele>
        <time>2014-09-20T10:21:30.000Z</time>
      </trkpt>
      <trkpt lat="44.13757" lon="5.32515">
        <ele>1226.5999755859</ele>
        <time>2014-09-20T10:22:01.000Z</time>
      </trkpt>
      <trkpt lat="44.13755" lon="5.32514">
        <ele>1226</ele>
        <time>2014-09-20T10:22:44.000Z</time>
      </trkpt>
      <trkpt lat="44.13754" lon="5.32515">
        <ele>1225.8000488281</ele>
        <time>2014-09-20T10:23:16.000Z</time>
      </trkpt>
      <trkpt lat="44.13753" lon="5.32516">
        <ele>1225.5999755859</ele>
        <time>2014-09-20T10:23:45.000Z</time>
      </trkpt>
      <trkpt lat="44.13752" lon="5.32512">
        <ele>1225.5999755859</ele>
        <time>2014-09-20T10:24:18.000Z</time>
      </trkpt>
      <trkpt lat="44.13756" lon="5.32515">
        <ele>1226.1999511719</ele>
        <time>2014-09-20T10:24:47.000Z</time>
      </trkpt>
      <trkpt lat="44.13756" lon="5.32514">
        <ele>1226.1999511719</ele>
        <time>2014-09-20T10:25:20.000Z</time>
      </trkpt>
      <trkpt lat="44.13758" lon="5.32513">
        <ele>1227</ele>
        <time>2014-09-20T10:26:01.000Z</time>
      </trkpt>
      <trkpt lat="44.13757" lon="5.32515">
        <ele>1226.5999755859</ele>
        <time>2014-09-20T10:26:42.000Z</time>
      </trkpt>
      <trkpt lat="44.13758" lon="5.32517">
        <ele>1226.5999755859</ele>
        <time>2014-09-20T10:27:48.000Z</time>
      </trkpt>
      <trkpt lat="44.13758" lon="5.32515">
        <ele>1226.8000488281</ele>
        <time>2014-09-20T10:28:49.000Z</time>
      </trkpt>
      <trkpt lat="44.13757" lon="5.32515">
        <ele>1226.5999755859</ele>
        <time>2014-09-20T10:29:31.000Z</time>
      </trkpt>
      <trkpt lat="44.13755" lon="5.32516">
        <ele>1226</ele>
        <time>2014-09-20T10:30:36.000Z</time>
      </trkpt>
      <trkpt lat="44.13756" lon="5.32512">
        <ele>1226.4000244141</ele>
        <time>2014-09-20T10:31:33.000Z</time>
      </trkpt>
      <trkpt lat="44.13759" lon="5.32515">
        <ele>1227</ele>
        <time>2014-09-20T10:32:39.000Z</time>
      </trkpt>
      <trkpt lat="44.13758" lon="5.32516">
        <ele>1226.8000488281</ele>
        <time>2014-09-20T10:33:16.000Z</time>
      </trkpt>
      <trkpt lat="44.13756" lon="5.32515">
        <ele>1226.4000244141</ele>
        <time>2014-09-20T10:33:49.000Z</time>
      </trkpt>
      <trkpt lat="44.13757" lon="5.32514">
        <ele>1226.5999755859</ele>
        <time>2014-09-20T10:34:44.000Z</time>
      </trkpt>
      <trkpt lat="44.13757" lon="5.32518">
        <ele>1226.4000244141</ele>
        <time>2014-09-20T10:35:09.000Z</time>
      </trkpt>
      <trkpt lat="44.13755" lon="5.32517">
        <ele>1225.8000488281</ele>
        <time>2014-09-20T10:35:27.000Z</time>
      </trkpt>
      <trkpt lat="44.13754" lon="5.32515">
        <ele>1225.8000488281</ele>
        <time>2014-09-20T10:35:58.000Z</time>
      </trkpt>
      <trkpt lat="44.13754" lon="5.32515">
        <ele>1225.8000488281</ele>
        <time>2014-09-20T10:36:20.000Z</time>
      </trkpt>
      <trkpt lat="44.13753" lon="5.32513">
        <ele>1225.5999755859</ele>
        <time>2014-09-20T10:36:51.000Z</time>
      </trkpt>
      <trkpt lat="44.1375" lon="5.32514">
        <ele>1224.8000488281</ele>
        <time>2014-09-20T10:37:18.000Z</time>
      </trkpt>
      <trkpt lat="44.13751" lon="5.32518">
        <ele>1224.8000488281</ele>
        <time>2014-09-20T10:37:45.000Z</time>
      </trkpt>
      <trkpt lat="44.1375" lon="5.32519">
        <ele>1224.5999755859</ele>
        <time>2014-09-20T10:38:16.000Z</time>
      </trkpt>
      <trkpt lat="44.13753" lon="5.32519">
        <ele>1225.1999511719</ele>
        <time>2014-09-20T10:38:46.000Z</time>
      </trkpt>
      <trkpt lat="44.13752" lon="5.32522">
        <ele>1224.8000488281</ele>
        <time>2014-09-20T10:39:12.000Z</time>
      </trkpt>
      <trkpt lat="44.13754" lon="5.32518">
        <ele>1225.5999755859</ele>
        <time>2014-09-20T10:39:31.000Z</time>
      </trkpt>
      <trkpt lat="44.13755" lon="5.32517">
        <ele>1226</ele>
        <time>2014-09-20T10:40:00.000Z</time>
      </trkpt>
      <trkpt lat="44.13754" lon="5.32516">
        <ele>1225.8000488281</ele>
        <time>2014-09-20T10:40:33.000Z</time>
      </trkpt>
      <trkpt lat="44.13755" lon="5.32519">
        <ele>1225.8000488281</ele>
        <time>2014-09-20T10:41:07.000Z</time>
      </trkpt>
      <trkpt lat="44.13755" lon="5.32519">
        <ele>1225.8000488281</ele>
        <time>2014-09-20T10:41:35.000Z</time>
      </trkpt>
      <trkpt lat="44.13756" lon="5.32518">
        <ele>1226.1999511719</ele>
        <time>2014-09-20T10:42:00.000Z</time>
      </trkpt>
      <trkpt lat="44.13754" lon="5.32519">
        <ele>1225.5999755859</ele>
        <time>2014-09-20T10:42:27.000Z</time>
      </trkpt>
      <trkpt lat="44.13756" lon="5.3252">
        <ele>1226</ele>
        <time>2014-09-20T10:42:49.000Z</time>
      </trkpt>
      <trkpt lat="44.13758" lon="5.32522">
        <ele>1226.5999755859</ele>
        <time>2014-09-20T10:43:10.000Z</time>
      </trkpt>
      <trkpt lat="44.13759" lon="5.32522">
        <ele>1226.5999755859</ele>
        <time>2014-09-20T10:43:37.000Z</time>
      </trkpt>
      <trkpt lat="44.13759" lon="5.32524">
        <ele>1226.4000244141</ele>
        <time>2014-09-20T10:43:57.000Z</time>
      </trkpt>
      <trkpt lat="44.1376" lon="5.32527">
        <ele>1226.5999755859</ele>
        <time>2014-09-20T10:44:02.000Z</time>
      </trkpt>
      <trkpt lat="44.1376" lon="5.3255">
        <ele>1223.1999511719</ele>
        <time>2014-09-20T10:44:15.000Z</time>
      </trkpt>
      <trkpt lat="44.13763" lon="5.32557">
        <ele>1223.5999755859</ele>
        <time>2014-09-20T10:44:20.000Z</time>
      </trkpt>
      <trkpt lat="44.13766" lon="5.32569">
        <ele>1222.8000488281</ele>
        <time>2014-09-20T10:44:25.000Z</time>
      </trkpt>
      <trkpt lat="44.13778" lon="5.32601">
        <ele>1222.4000244141</ele>
        <time>2014-09-20T10:44:36.000Z</time>
      </trkpt>
      <trkpt lat="44.13788" lon="5.32626">
        <ele>1222.4000244141</ele>
        <time>2014-09-20T10:44:47.000Z</time>
      </trkpt>
      <trkpt lat="44.13795" lon="5.32641">
        <ele>1223.1999511719</ele>
        <time>2014-09-20T10:44:53.000Z</time>
      </trkpt>
      <trkpt lat="44.13806" lon="5.32662">
        <ele>1224.5999755859</ele>
        <time>2014-09-20T10:45:03.000Z</time>
      </trkpt>
      <trkpt lat="44.13808" lon="5.32669">
        <ele>1224.5999755859</ele>
        <time>2014-09-20T10:45:05.000Z</time>
      </trkpt>
      <trkpt lat="44.13817" lon="5.327">
        <ele>1223.1999511719</ele>
        <time>2014-09-20T10:45:18.000Z</time>
      </trkpt>
      <trkpt lat="44.1382" lon="5.32705">
        <ele>1223.1999511719</ele>
        <time>2014-09-20T10:45:31.000Z</time>
      </trkpt>
      <trkpt lat="44.13826" lon="5.32734">
        <ele>1222.5999755859</ele>
        <time>2014-09-20T10:45:42.000Z</time>
      </trkpt>
      <trkpt lat="44.13834" lon="5.32779">
        <ele>1221.8000488281</ele>
        <time>2014-09-20T10:45:56.000Z</time>
      </trkpt>
      <trkpt lat="44.13836" lon="5.32784">
        <ele>1222.1999511719</ele>
        <time>2014-09-20T10:46:09.000Z</time>
      </trkpt>
      <trkpt lat="44.13836" lon="5.32786">
        <ele>1222.1999511719</ele>
        <time>2014-09-20T10:46:12.000Z</time>
      </trkpt>
      <trkpt lat="44.13842" lon="5.32821">
        <ele>1222.4000244141</ele>
        <time>2014-09-20T10:46:25.000Z</time>
      </trkpt>
      <trkpt lat="44.13845" lon="5.3284">
        <ele>1222.5999755859</ele>
        <time>2014-09-20T10:46:36.000Z</time>
      </trkpt>
      <trkpt lat="44.13848" lon="5.32854">
        <ele>1223.1999511719</ele>
        <time>2014-09-20T10:46:48.000Z</time>
      </trkpt>
      <trkpt lat="44.13849" lon="5.3286">
        <ele>1223.5999755859</ele>
        <time>2014-09-20T10:47:08.000Z</time>
      </trkpt>
      <trkpt lat="44.13852" lon="5.32867">
        <ele>1224</ele>
        <time>2014-09-20T10:47:24.000Z</time>
      </trkpt>
      <trkpt lat="44.13852" lon="5.32881">
        <ele>1224.4000244141</ele>
        <time>2014-09-20T10:47:37.000Z</time>
      </trkpt>
      <trkpt lat="44.1385" lon="5.32898">
        <ele>1224</ele>
        <time>2014-09-20T10:47:53.000Z</time>
      </trkpt>
      <trkpt lat="44.13851" lon="5.32907">
        <ele>1224.4000244141</ele>
        <time>2014-09-20T10:48:00.000Z</time>
      </trkpt>
      <trkpt lat="44.13853" lon="5.32922">
        <ele>1225.4000244141</ele>
        <time>2014-09-20T10:48:12.000Z</time>
      </trkpt>
      <trkpt lat="44.13854" lon="5.32934">
        <ele>1225.5999755859</ele>
        <time>2014-09-20T10:48:27.000Z</time>
      </trkpt>
      <trkpt lat="44.13855" lon="5.32938">
        <ele>1225.8000488281</ele>
        <time>2014-09-20T10:48:30.000Z</time>
      </trkpt>
      <trkpt lat="44.13855" lon="5.3295">
        <ele>1226</ele>
        <time>2014-09-20T10:48:36.000Z</time>
      </trkpt>
      <trkpt lat="44.13852" lon="5.32984">
        <ele>1226.8000488281</ele>
        <time>2014-09-20T10:48:50.000Z</time>
      </trkpt>
      <trkpt lat="44.13846" lon="5.3302">
        <ele>1227.1999511719</ele>
        <time>2014-09-20T10:49:00.000Z</time>
      </trkpt>
      <trkpt lat="44.13838" lon="5.33071">
        <ele>1227.8000488281</ele>
        <time>2014-09-20T10:49:11.000Z</time>
      </trkpt>
      <trkpt lat="44.13837" lon="5.33075">
        <ele>1227.8000488281</ele>
        <time>2014-09-20T10:49:12.000Z</time>
      </trkpt>
      <trkpt lat="44.13834" lon="5.33115">
        <ele>1228.8000488281</ele>
        <time>2014-09-20T10:49:22.000Z</time>
      </trkpt>
      <trkpt lat="44.13835" lon="5.3312">
        <ele>1229.4000244141</ele>
        <time>2014-09-20T10:49:23.000Z</time>
      </trkpt>
      <trkpt lat="44.1384" lon="5.33157">
        <ele>1232.5999755859</ele>
        <time>2014-09-20T10:49:32.000Z</time>
      </trkpt>
      <trkpt lat="44.13843" lon="5.33171">
        <ele>1233.5999755859</ele>
        <time>2014-09-20T10:49:35.000Z</time>
      </trkpt>
      <trkpt lat="44.13848" lon="5.3318">
        <ele>1235</ele>
        <time>2014-09-20T10:49:38.000Z</time>
      </trkpt>
      <trkpt lat="44.13858" lon="5.33196">
        <ele>1237.8000488281</ele>
        <time>2014-09-20T10:49:54.000Z</time>
      </trkpt>
      <trkpt lat="44.13857" lon="5.33203">
        <ele>1237.8000488281</ele>
        <time>2014-09-20T10:50:22.000Z</time>
      </trkpt>
      <trkpt lat="44.13862" lon="5.33203">
        <ele>1238.5999755859</ele>
        <time>2014-09-20T10:50:53.000Z</time>
      </trkpt>
      <trkpt lat="44.13864" lon="5.33203">
        <ele>1239.1999511719</ele>
        <time>2014-09-20T10:51:18.000Z</time>
      </trkpt>
      <trkpt lat="44.13867" lon="5.33221">
        <ele>1241</ele>
        <time>2014-09-20T10:51:27.000Z</time>
      </trkpt>
      <trkpt lat="44.13849" lon="5.33222">
        <ele>1238.4000244141</ele>
        <time>2014-09-20T10:51:35.000Z</time>
      </trkpt>
      <trkpt lat="44.13824" lon="5.3324">
        <ele>1237.1999511719</ele>
        <time>2014-09-20T10:51:47.000Z</time>
      </trkpt>
      <trkpt lat="44.13813" lon="5.33264">
        <ele>1238</ele>
        <time>2014-09-20T10:51:57.000Z</time>
      </trkpt>
      <trkpt lat="44.13801" lon="5.333">
        <ele>1239</ele>
        <time>2014-09-20T10:52:12.000Z</time>
      </trkpt>
      <trkpt lat="44.13787" lon="5.33347">
        <ele>1240.8000488281</ele>
        <time>2014-09-20T10:52:29.000Z</time>
      </trkpt>
      <trkpt lat="44.13779" lon="5.33384">
        <ele>1242.5999755859</ele>
        <time>2014-09-20T10:52:43.000Z</time>
      </trkpt>
      <trkpt lat="44.13773" lon="5.33432">
        <ele>1246</ele>
        <time>2014-09-20T10:53:00.000Z</time>
      </trkpt>
      <trkpt lat="44.13774" lon="5.33449">
        <ele>1247.1999511719</ele>
        <time>2014-09-20T10:53:06.000Z</time>
      </trkpt>
      <trkpt lat="44.13775" lon="5.33459">
        <ele>1247.8000488281</ele>
        <time>2014-09-20T10:53:10.000Z</time>
      </trkpt>
      <trkpt lat="44.13772" lon="5.33498">
        <ele>1249.4000244141</ele>
        <time>2014-09-20T10:53:26.000Z</time>
      </trkpt>
      <trkpt lat="44.13774" lon="5.33507">
        <ele>1249.8000488281</ele>
        <time>2014-09-20T10:53:30.000Z</time>
      </trkpt>
      <trkpt lat="44.13782" lon="5.33533">
        <ele>1251.1999511719</ele>
        <time>2014-09-20T10:53:41.000Z</time>
      </trkpt>
      <trkpt lat="44.13784" lon="5.33535">
        <ele>1251.4000244141</ele>
        <time>2014-09-20T10:53:42.000Z</time>
      </trkpt>
      <trkpt lat="44.13794" lon="5.33557">
        <ele>1253.8000488281</ele>
        <time>2014-09-20T10:53:51.000Z</time>
      </trkpt>
      <trkpt lat="44.13796" lon="5.3356">
        <ele>1254</ele>
        <time>2014-09-20T10:53:52.000Z</time>
      </trkpt>
      <trkpt lat="44.13822" lon="5.33593">
        <ele>1259.1999511719</ele>
        <time>2014-09-20T10:54:08.000Z</time>
      </trkpt>
      <trkpt lat="44.13824" lon="5.33603">
        <ele>1260</ele>
        <time>2014-09-20T10:54:12.000Z</time>
      </trkpt>
      <trkpt lat="44.13824" lon="5.33606">
        <ele>1260</ele>
        <time>2014-09-20T10:54:13.000Z</time>
      </trkpt>
      <trkpt lat="44.13823" lon="5.33608">
        <ele>1260</ele>
        <time>2014-09-20T10:54:14.000Z</time>
      </trkpt>
      <trkpt lat="44.13822" lon="5.3361">
        <ele>1260</ele>
        <time>2014-09-20T10:54:15.000Z</time>
      </trkpt>
      <trkpt lat="44.13821" lon="5.33612">
        <ele>1259.8000488281</ele>
        <time>2014-09-20T10:54:16.000Z</time>
      </trkpt>
      <trkpt lat="44.13819" lon="5.33614">
        <ele>1259.5999755859</ele>
        <time>2014-09-20T10:54:18.000Z</time>
      </trkpt>
      <trkpt lat="44.13818" lon="5.33614">
        <ele>1259.5999755859</ele>
        <time>2014-09-20T10:54:19.000Z</time>
      </trkpt>
      <trkpt lat="44.13816" lon="5.33614">
        <ele>1259.4000244141</ele>
        <time>2014-09-20T10:54:20.000Z</time>
      </trkpt>
      <trkpt lat="44.13814" lon="5.33613">
        <ele>1259</ele>
        <time>2014-09-20T10:54:21.000Z</time>
      </trkpt>
      <trkpt lat="44.13813" lon="5.33612">
        <ele>1258.8000488281</ele>
        <time>2014-09-20T10:54:22.000Z</time>
      </trkpt>
      <trkpt lat="44.13804" lon="5.33608">
        <ele>1257.5999755859</ele>
        <time>2014-09-20T10:54:27.000Z</time>
      </trkpt>
      <trkpt lat="44.13802" lon="5.33607">
        <ele>1257.1999511719</ele>
        <time>2014-09-20T10:54:28.000Z</time>
      </trkpt>
      <trkpt lat="44.138" lon="5.33607">
        <ele>1256.8000488281</ele>
        <time>2014-09-20T10:54:29.000Z</time>
      </trkpt>
      <trkpt lat="44.13799" lon="5.33607">
        <ele>1256.8000488281</ele>
        <time>2014-09-20T10:54:30.000Z</time>
      </trkpt>
      <trkpt lat="44.13798" lon="5.33607">
        <ele>1256.5999755859</ele>
        <time>2014-09-20T10:54:31.000Z</time>
      </trkpt>
      <trkpt lat="44.13795" lon="5.33608">
        <ele>1256.1999511719</ele>
        <time>2014-09-20T10:54:33.000Z</time>
      </trkpt>
      <trkpt lat="44.13772" lon="5.33637">
        <ele>1255.5999755859</ele>
        <time>2014-09-20T10:54:47.000Z</time>
      </trkpt>
      <trkpt lat="44.13766" lon="5.33683">
        <ele>1258</ele>
        <time>2014-09-20T10:55:02.000Z</time>
      </trkpt>
      <trkpt lat="44.1377" lon="5.33736">
        <ele>1261</ele>
        <time>2014-09-20T10:55:18.000Z</time>
      </trkpt>
      <trkpt lat="44.13785" lon="5.33764">
        <ele>1263.1999511719</ele>
        <time>2014-09-20T10:55:29.000Z</time>
      </trkpt>
      <trkpt lat="44.13785" lon="5.33767">
        <ele>1263.4000244141</ele>
        <time>2014-09-20T10:55:30.000Z</time>
      </trkpt>
      <trkpt lat="44.13786" lon="5.33769">
        <ele>1263.8000488281</ele>
        <time>2014-09-20T10:55:31.000Z</time>
      </trkpt>
      <trkpt lat="44.13786" lon="5.33772">
        <ele>1264</ele>
        <time>2014-09-20T10:55:32.000Z</time>
      </trkpt>
      <trkpt lat="44.13786" lon="5.33776">
        <ele>1264.1999511719</ele>
        <time>2014-09-20T10:55:33.000Z</time>
      </trkpt>
      <trkpt lat="44.13785" lon="5.33779">
        <ele>1264.1999511719</ele>
        <time>2014-09-20T10:55:34.000Z</time>
      </trkpt>
      <trkpt lat="44.13784" lon="5.33782">
        <ele>1264.4000244141</ele>
        <time>2014-09-20T10:55:35.000Z</time>
      </trkpt>
      <trkpt lat="44.13782" lon="5.33784">
        <ele>1264.5999755859</ele>
        <time>2014-09-20T10:55:36.000Z</time>
      </trkpt>
      <trkpt lat="44.13782" lon="5.33788">
        <ele>1264.5999755859</ele>
        <time>2014-09-20T10:55:37.000Z</time>
      </trkpt>
      <trkpt lat="44.13781" lon="5.33792">
        <ele>1265</ele>
        <time>2014-09-20T10:55:38.000Z</time>
      </trkpt>
      <trkpt lat="44.13769" lon="5.33836">
        <ele>1268.1999511719</ele>
        <time>2014-09-20T10:55:53.000Z</time>
      </trkpt>
      <trkpt lat="44.13767" lon="5.33844">
        <ele>1268.8000488281</ele>
        <time>2014-09-20T10:55:56.000Z</time>
      </trkpt>
      <trkpt lat="44.13757" lon="5.33877">
        <ele>1271</ele>
        <time>2014-09-20T10:56:10.000Z</time>
      </trkpt>
      <trkpt lat="44.13737" lon="5.33893">
        <ele>1272</ele>
        <time>2014-09-20T10:56:21.000Z</time>
      </trkpt>
      <trkpt lat="44.13714" lon="5.33894">
        <ele>1272.1999511719</ele>
        <time>2014-09-20T10:56:33.000Z</time>
      </trkpt>
      <trkpt lat="44.13709" lon="5.33893">
        <ele>1272</ele>
        <time>2014-09-20T10:56:36.000Z</time>
      </trkpt>
      <trkpt lat="44.13708" lon="5.33893">
        <ele>1272</ele>
        <time>2014-09-20T10:56:37.000Z</time>
      </trkpt>
      <trkpt lat="44.13706" lon="5.33892">
        <ele>1272</ele>
        <time>2014-09-20T10:56:38.000Z</time>
      </trkpt>
      <trkpt lat="44.13703" lon="5.33892">
        <ele>1271.8000488281</ele>
        <time>2014-09-20T10:56:39.000Z</time>
      </trkpt>
      <trkpt lat="44.13701" lon="5.33892">
        <ele>1271.8000488281</ele>
        <time>2014-09-20T10:56:40.000Z</time>
      </trkpt>
      <trkpt lat="44.13674" lon="5.33889">
        <ele>1271</ele>
        <time>2014-09-20T10:56:51.000Z</time>
      </trkpt>
      <trkpt lat="44.1365" lon="5.33882">
        <ele>1270</ele>
        <time>2014-09-20T10:57:01.000Z</time>
      </trkpt>
      <trkpt lat="44.13648" lon="5.33882">
        <ele>1270</ele>
        <time>2014-09-20T10:57:02.000Z</time>
      </trkpt>
      <trkpt lat="44.13645" lon="5.33882">
        <ele>1270</ele>
        <time>2014-09-20T10:57:03.000Z</time>
      </trkpt>
      <trkpt lat="44.13618" lon="5.33909">
        <ele>1269</ele>
        <time>2014-09-20T10:57:16.000Z</time>
      </trkpt>
      <trkpt lat="44.13605" lon="5.3396">
        <ele>1266.5999755859</ele>
        <time>2014-09-20T10:57:31.000Z</time>
      </trkpt>
      <trkpt lat="44.13602" lon="5.34031">
        <ele>1265.4000244141</ele>
        <time>2014-09-20T10:57:46.000Z</time>
      </trkpt>
      <trkpt lat="44.13623" lon="5.34102">
        <ele>1261.8000488281</ele>
        <time>2014-09-20T10:58:00.000Z</time>
      </trkpt>
      <trkpt lat="44.13654" lon="5.34149">
        <ele>1260.5999755859</ele>
        <time>2014-09-20T10:58:12.000Z</time>
      </trkpt>
      <trkpt lat="44.13682" lon="5.34175">
        <ele>1261</ele>
        <time>2014-09-20T10:58:23.000Z</time>
      </trkpt>
      <trkpt lat="44.13711" lon="5.34192">
        <ele>1262.4000244141</ele>
        <time>2014-09-20T10:58:34.000Z</time>
      </trkpt>
      <trkpt lat="44.13764" lon="5.34209">
        <ele>1266.1999511719</ele>
        <time>2014-09-20T10:58:48.000Z</time>
      </trkpt>
      <trkpt lat="44.1381" lon="5.34229">
        <ele>1273</ele>
        <time>2014-09-20T10:59:01.000Z</time>
      </trkpt>
      <trkpt lat="44.13812" lon="5.34232">
        <ele>1273.5999755859</ele>
        <time>2014-09-20T10:59:02.000Z</time>
      </trkpt>
      <trkpt lat="44.13813" lon="5.34236">
        <ele>1274.4000244141</ele>
        <time>2014-09-20T10:59:03.000Z</time>
      </trkpt>
      <trkpt lat="44.13812" lon="5.3424">
        <ele>1275.1999511719</ele>
        <time>2014-09-20T10:59:04.000Z</time>
      </trkpt>
      <trkpt lat="44.13811" lon="5.34245">
        <ele>1275.8000488281</ele>
        <time>2014-09-20T10:59:05.000Z</time>
      </trkpt>
      <trkpt lat="44.13808" lon="5.34248">
        <ele>1275.8000488281</ele>
        <time>2014-09-20T10:59:06.000Z</time>
      </trkpt>
      <trkpt lat="44.13805" lon="5.3425">
        <ele>1275.8000488281</ele>
        <time>2014-09-20T10:59:07.000Z</time>
      </trkpt>
      <trkpt lat="44.13776" lon="5.34266">
        <ele>1273.8000488281</ele>
        <time>2014-09-20T10:59:16.000Z</time>
      </trkpt>
      <trkpt lat="44.13772" lon="5.34267">
        <ele>1273.4000244141</ele>
        <time>2014-09-20T10:59:17.000Z</time>
      </trkpt>
      <trkpt lat="44.13768" lon="5.34269">
        <ele>1273.1999511719</ele>
        <time>2014-09-20T10:59:18.000Z</time>
      </trkpt>
      <trkpt lat="44.13719" lon="5.34284">
        <ele>1269</ele>
        <time>2014-09-20T10:59:30.000Z</time>
      </trkpt>
      <trkpt lat="44.13692" lon="5.34324">
        <ele>1270.8000488281</ele>
        <time>2014-09-20T10:59:41.000Z</time>
      </trkpt>
      <trkpt lat="44.13688" lon="5.34335">
        <ele>1272.1999511719</ele>
        <time>2014-09-20T10:59:43.000Z</time>
      </trkpt>
      <trkpt lat="44.13686" lon="5.3434">
        <ele>1272.8000488281</ele>
        <time>2014-09-20T10:59:44.000Z</time>
      </trkpt>
      <trkpt lat="44.13683" lon="5.34345">
        <ele>1273.4000244141</ele>
        <time>2014-09-20T10:59:45.000Z</time>
      </trkpt>
      <trkpt lat="44.1368" lon="5.34348">
        <ele>1273.8000488281</ele>
        <time>2014-09-20T10:59:46.000Z</time>
      </trkpt>
      <trkpt lat="44.13676" lon="5.34352">
        <ele>1274.1999511719</ele>
        <time>2014-09-20T10:59:47.000Z</time>
      </trkpt>
      <trkpt lat="44.13671" lon="5.34354">
        <ele>1274.1999511719</ele>
        <time>2014-09-20T10:59:48.000Z</time>
      </trkpt>
      <trkpt lat="44.13666" lon="5.34355">
        <ele>1274.1999511719</ele>
        <time>2014-09-20T10:59:49.000Z</time>
      </trkpt>
      <trkpt lat="44.13661" lon="5.34355">
        <ele>1274</ele>
        <time>2014-09-20T10:59:50.000Z</time>
      </trkpt>
      <trkpt lat="44.13657" lon="5.34355">
        <ele>1273.8000488281</ele>
        <time>2014-09-20T10:59:51.000Z</time>
      </trkpt>
      <trkpt lat="44.13652" lon="5.34353">
        <ele>1273.4000244141</ele>
        <time>2014-09-20T10:59:52.000Z</time>
      </trkpt>
      <trkpt lat="44.13648" lon="5.34352">
        <ele>1273</ele>
        <time>2014-09-20T10:59:53.000Z</time>
      </trkpt>
      <trkpt lat="44.13635" lon="5.34348">
        <ele>1271.8000488281</ele>
        <time>2014-09-20T10:59:56.000Z</time>
      </trkpt>
      <trkpt lat="44.1363" lon="5.34349">
        <ele>1271.8000488281</ele>
        <time>2014-09-20T10:59:57.000Z</time>
      </trkpt>
      <trkpt lat="44.13626" lon="5.3435">
        <ele>1271.5999755859</ele>
        <time>2014-09-20T10:59:58.000Z</time>
      </trkpt>
      <trkpt lat="44.13588" lon="5.34363">
        <ele>1272</ele>
        <time>2014-09-20T11:00:08.000Z</time>
      </trkpt>
      <trkpt lat="44.13551" lon="5.34386">
        <ele>1272.5999755859</ele>
        <time>2014-09-20T11:00:18.000Z</time>
      </trkpt>
      <trkpt lat="44.1353" lon="5.34409">
        <ele>1272.1999511719</ele>
        <time>2014-09-20T11:00:25.000Z</time>
      </trkpt>
      <trkpt lat="44.13523" lon="5.34411">
        <ele>1271.5999755859</ele>
        <time>2014-09-20T11:00:26.000Z</time>
      </trkpt>
      <trkpt lat="44.13491" lon="5.34422">
        <ele>1269</ele>
        <time>2014-09-20T11:00:30.000Z</time>
      </trkpt>
      <trkpt lat="44.13487" lon="5.34427">
        <ele>1268.8000488281</ele>
        <time>2014-09-20T11:00:31.000Z</time>
      </trkpt>
      <trkpt lat="44.13482" lon="5.34432">
        <ele>1268.4000244141</ele>
        <time>2014-09-20T11:00:32.000Z</time>
      </trkpt>
      <trkpt lat="44.13464" lon="5.34445">
        <ele>1266.5999755859</ele>
        <time>2014-09-20T11:00:35.000Z</time>
      </trkpt>
      <trkpt lat="44.13458" lon="5.3445">
        <ele>1266.1999511719</ele>
        <time>2014-09-20T11:00:36.000Z</time>
      </trkpt>
      <trkpt lat="44.13455" lon="5.34456">
        <ele>1266</ele>
        <time>2014-09-20T11:00:37.000Z</time>
      </trkpt>
      <trkpt lat="44.13452" lon="5.34462">
        <ele>1265.8000488281</ele>
        <time>2014-09-20T11:00:38.000Z</time>
      </trkpt>
      <trkpt lat="44.1345" lon="5.34468">
        <ele>1265.5999755859</ele>
        <time>2014-09-20T11:00:39.000Z</time>
      </trkpt>
      <trkpt lat="44.13448" lon="5.34475">
        <ele>1265.1999511719</ele>
        <time>2014-09-20T11:00:40.000Z</time>
      </trkpt>
      <trkpt lat="44.13446" lon="5.34481">
        <ele>1265</ele>
        <time>2014-09-20T11:00:41.000Z</time>
      </trkpt>
      <trkpt lat="44.13446" lon="5.34495">
        <ele>1264.8000488281</ele>
        <time>2014-09-20T11:00:43.000Z</time>
      </trkpt>
      <trkpt lat="44.13447" lon="5.34539">
        <ele>1264.4000244141</ele>
        <time>2014-09-20T11:00:52.000Z</time>
      </trkpt>
      <trkpt lat="44.13444" lon="5.34579">
        <ele>1263.1999511719</ele>
        <time>2014-09-20T11:01:03.000Z</time>
      </trkpt>
      <trkpt lat="44.13448" lon="5.34636">
        <ele>1262.5999755859</ele>
        <time>2014-09-20T11:01:14.000Z</time>
      </trkpt>
      <trkpt lat="44.13445" lon="5.34696">
        <ele>1263.5999755859</ele>
        <time>2014-09-20T11:01:25.000Z</time>
      </trkpt>
      <trkpt lat="44.13425" lon="5.34731">
        <ele>1262.5999755859</ele>
        <time>2014-09-20T11:01:36.000Z</time>
      </trkpt>
      <trkpt lat="44.13405" lon="5.34739">
        <ele>1260.8000488281</ele>
        <time>2014-09-20T11:01:40.000Z</time>
      </trkpt>
      <trkpt lat="44.13349" lon="5.34779">
        <ele>1259</ele>
        <time>2014-09-20T11:01:50.000Z</time>
      </trkpt>
      <trkpt lat="44.13336" lon="5.34787">
        <ele>1258.5999755859</ele>
        <time>2014-09-20T11:01:52.000Z</time>
      </trkpt>
      <trkpt lat="44.13274" lon="5.34798">
        <ele>1254.8000488281</ele>
        <time>2014-09-20T11:02:00.000Z</time>
      </trkpt>
      <trkpt lat="44.1325" lon="5.348">
        <ele>1252.8000488281</ele>
        <time>2014-09-20T11:02:03.000Z</time>
      </trkpt>
      <trkpt lat="44.13234" lon="5.34803">
        <ele>1251.5999755859</ele>
        <time>2014-09-20T11:02:05.000Z</time>
      </trkpt>
      <trkpt lat="44.13226" lon="5.34804">
        <ele>1251</ele>
        <time>2014-09-20T11:02:06.000Z</time>
      </trkpt>
      <trkpt lat="44.13207" lon="5.34804">
        <ele>1249.4000244141</ele>
        <time>2014-09-20T11:02:08.000Z</time>
      </trkpt>
      <trkpt lat="44.13181" lon="5.34809">
        <ele>1247.5999755859</ele>
        <time>2014-09-20T11:02:11.000Z</time>
      </trkpt>
      <trkpt lat="44.1314" lon="5.34846">
        <ele>1245.4000244141</ele>
        <time>2014-09-20T11:02:18.000Z</time>
      </trkpt>
      <trkpt lat="44.13116" lon="5.34861">
        <ele>1243.4000244141</ele>
        <time>2014-09-20T11:02:23.000Z</time>
      </trkpt>
      <trkpt lat="44.13108" lon="5.34849">
        <ele>1242.8000488281</ele>
        <time>2014-09-20T11:02:28.000Z</time>
      </trkpt>
      <trkpt lat="44.13096" lon="5.34827">
        <ele>1241.5999755859</ele>
        <time>2014-09-20T11:02:36.000Z</time>
      </trkpt>
      <trkpt lat="44.1307" lon="5.3479">
        <ele>1239.1999511719</ele>
        <time>2014-09-20T11:02:46.000Z</time>
      </trkpt>
      <trkpt lat="44.13062" lon="5.34782">
        <ele>1238.5999755859</ele>
        <time>2014-09-20T11:02:48.000Z</time>
      </trkpt>
      <trkpt lat="44.13042" lon="5.3476">
        <ele>1237.1999511719</ele>
        <time>2014-09-20T11:02:53.000Z</time>
      </trkpt>
      <trkpt lat="44.13006" lon="5.34716">
        <ele>1235.8000488281</ele>
        <time>2014-09-20T11:03:03.000Z</time>
      </trkpt>
      <trkpt lat="44.12996" lon="5.34702">
        <ele>1235.4000244141</ele>
        <time>2014-09-20T11:03:06.000Z</time>
      </trkpt>
      <trkpt lat="44.12985" lon="5.34685">
        <ele>1235.1999511719</ele>
        <time>2014-09-20T11:03:10.000Z</time>
      </trkpt>
      <trkpt lat="44.12969" lon="5.34673">
        <ele>1234.5999755859</ele>
        <time>2014-09-20T11:03:15.000Z</time>
      </trkpt>
      <trkpt lat="44.12957" lon="5.34641">
        <ele>1234.4000244141</ele>
        <time>2014-09-20T11:03:25.000Z</time>
      </trkpt>
      <trkpt lat="44.12944" lon="5.34619">
        <ele>1234</ele>
        <time>2014-09-20T11:03:37.000Z</time>
      </trkpt>
      <trkpt lat="44.1294" lon="5.34608">
        <ele>1234</ele>
        <time>2014-09-20T11:03:49.000Z</time>
      </trkpt>
      <trkpt lat="44.12938" lon="5.346">
        <ele>1234</ele>
        <time>2014-09-20T11:04:16.000Z</time>
      </trkpt>
      <trkpt lat="44.12933" lon="5.34595">
        <ele>1234.1999511719</ele>
        <time>2014-09-20T11:04:49.000Z</time>
      </trkpt>
      <trkpt lat="44.12931" lon="5.34601">
        <ele>1234.1999511719</ele>
        <time>2014-09-20T11:05:23.000Z</time>
      </trkpt>
      <trkpt lat="44.1293" lon="5.34603">
        <ele>1234.1999511719</ele>
        <time>2014-09-20T11:05:56.000Z</time>
      </trkpt>
      <trkpt lat="44.12931" lon="5.34597">
        <ele>1234.1999511719</ele>
        <time>2014-09-20T11:06:29.000Z</time>
      </trkpt>
      <trkpt lat="44.12932" lon="5.34598">
        <ele>1234.1999511719</ele>
        <time>2014-09-20T11:06:57.000Z</time>
      </trkpt>
      <trkpt lat="44.12932" lon="5.34602">
        <ele>1234.1999511719</ele>
        <time>2014-09-20T11:07:31.000Z</time>
      </trkpt>
      <trkpt lat="44.12933" lon="5.34598">
        <ele>1234.1999511719</ele>
        <time>2014-09-20T11:08:01.000Z</time>
      </trkpt>
      <trkpt lat="44.12931" lon="5.34599">
        <ele>1234.1999511719</ele>
        <time>2014-09-20T11:08:30.000Z</time>
      </trkpt>
      <trkpt lat="44.12929" lon="5.34597">
        <ele>1234.1999511719</ele>
        <time>2014-09-20T11:09:00.000Z</time>
      </trkpt>
      <trkpt lat="44.12926" lon="5.34594">
        <ele>1234.1999511719</ele>
        <time>2014-09-20T11:09:30.000Z</time>
      </trkpt>
      <trkpt lat="44.12925" lon="5.34608">
        <ele>1234.1999511719</ele>
        <time>2014-09-20T11:10:00.000Z</time>
      </trkpt>
      <trkpt lat="44.12928" lon="5.34609">
        <ele>1234.1999511719</ele>
        <time>2014-09-20T11:10:31.000Z</time>
      </trkpt>
      <trkpt lat="44.12924" lon="5.34604">
        <ele>1234.1999511719</ele>
        <time>2014-09-20T11:11:08.000Z</time>
      </trkpt>
      <trkpt lat="44.12925" lon="5.34602">
        <ele>1234.1999511719</ele>
        <time>2014-09-20T11:11:35.000Z</time>
      </trkpt>
      <trkpt lat="44.12927" lon="5.34601">
        <ele>1234.1999511719</ele>
        <time>2014-09-20T11:12:04.000Z</time>
      </trkpt>
      <trkpt lat="44.12929" lon="5.34601">
        <ele>1234.1999511719</ele>
        <time>2014-09-20T11:12:31.000Z</time>
      </trkpt>
      <trkpt lat="44.1293" lon="5.34599">
        <ele>1234.1999511719</ele>
        <time>2014-09-20T11:12:53.000Z</time>
      </trkpt>
      <trkpt lat="44.12927" lon="5.34599">
        <ele>1234.1999511719</ele>
        <time>2014-09-20T11:13:29.000Z</time>
      </trkpt>
      <trkpt lat="44.12924" lon="5.34597">
        <ele>1234.1999511719</ele>
        <time>2014-09-20T11:13:58.000Z</time>
      </trkpt>
      <trkpt lat="44.12924" lon="5.34594">
        <ele>1234.1999511719</ele>
        <time>2014-09-20T11:14:34.000Z</time>
      </trkpt>
      <trkpt lat="44.12926" lon="5.34598">
        <ele>1234.1999511719</ele>
        <time>2014-09-20T11:15:03.000Z</time>
      </trkpt>
      <trkpt lat="44.12928" lon="5.34601">
        <ele>1234.1999511719</ele>
        <time>2014-09-20T11:15:30.000Z</time>
      </trkpt>
      <trkpt lat="44.12926" lon="5.34603">
        <ele>1234.1999511719</ele>
        <time>2014-09-20T11:15:38.000Z</time>
      </trkpt>
      <trkpt lat="44.12926" lon="5.34597">
        <ele>1234.1999511719</ele>
        <time>2014-09-20T11:16:09.000Z</time>
      </trkpt>
      <trkpt lat="44.12925" lon="5.34605">
        <ele>1234.1999511719</ele>
        <time>2014-09-20T11:16:39.000Z</time>
      </trkpt>
      <trkpt lat="44.12923" lon="5.34612">
        <ele>1234.1999511719</ele>
        <time>2014-09-20T11:17:12.000Z</time>
      </trkpt>
      <trkpt lat="44.12924" lon="5.34611">
        <ele>1234.1999511719</ele>
        <time>2014-09-20T11:17:46.000Z</time>
      </trkpt>
      <trkpt lat="44.12925" lon="5.3461">
        <ele>1234.1999511719</ele>
        <time>2014-09-20T11:18:19.000Z</time>
      </trkpt>
      <trkpt lat="44.12927" lon="5.34608">
        <ele>1234.1999511719</ele>
        <time>2014-09-20T11:18:51.000Z</time>
      </trkpt>
      <trkpt lat="44.12926" lon="5.34599">
        <ele>1234.1999511719</ele>
        <time>2014-09-20T11:19:21.000Z</time>
      </trkpt>
      <trkpt lat="44.12931" lon="5.34603">
        <ele>1234.1999511719</ele>
        <time>2014-09-20T11:19:49.000Z</time>
      </trkpt>
      <trkpt lat="44.12932" lon="5.34605">
        <ele>1234.1999511719</ele>
        <time>2014-09-20T11:20:20.000Z</time>
      </trkpt>
      <trkpt lat="44.1293" lon="5.346">
        <ele>1234.1999511719</ele>
        <time>2014-09-20T11:20:49.000Z</time>
      </trkpt>
      <trkpt lat="44.12928" lon="5.34596">
        <ele>1234.1999511719</ele>
        <time>2014-09-20T11:21:18.000Z</time>
      </trkpt>
      <trkpt lat="44.12909" lon="5.34558">
        <ele>1234.4000244141</ele>
        <time>2014-09-20T11:21:29.000Z</time>
      </trkpt>
      <trkpt lat="44.12879" lon="5.34517">
        <ele>1234</ele>
        <time>2014-09-20T11:21:40.000Z</time>
      </trkpt>
      <trkpt lat="44.12872" lon="5.34511">
        <ele>1234</ele>
        <time>2014-09-20T11:21:42.000Z</time>
      </trkpt>
      <trkpt lat="44.12859" lon="5.34503">
        <ele>1233.8000488281</ele>
        <time>2014-09-20T11:21:45.000Z</time>
      </trkpt>
      <trkpt lat="44.12804" lon="5.34473">
        <ele>1230.5999755859</ele>
        <time>2014-09-20T11:21:56.000Z</time>
      </trkpt>
      <trkpt lat="44.12767" lon="5.34461">
        <ele>1228.4000244141</ele>
        <time>2014-09-20T11:22:03.000Z</time>
      </trkpt>
      <trkpt lat="44.12735" lon="5.34455">
        <ele>1226.8000488281</ele>
        <time>2014-09-20T11:22:08.000Z</time>
      </trkpt>
      <trkpt lat="44.12706" lon="5.3445">
        <ele>1225.4000244141</ele>
        <time>2014-09-20T11:22:12.000Z</time>
      </trkpt>
      <trkpt lat="44.12659" lon="5.34436">
        <ele>1223.1999511719</ele>
        <time>2014-09-20T11:22:18.000Z</time>
      </trkpt>
      <trkpt lat="44.12589" lon="5.34415">
        <ele>1219.5999755859</ele>
        <time>2014-09-20T11:22:29.000Z</time>
      </trkpt>
      <trkpt lat="44.12561" lon="5.34412">
        <ele>1219.1999511719</ele>
        <time>2014-09-20T11:22:38.000Z</time>
      </trkpt>
      <trkpt lat="44.12559" lon="5.34411">
        <ele>1219.1999511719</ele>
        <time>2014-09-20T11:22:39.000Z</time>
      </trkpt>
      <trkpt lat="44.12536" lon="5.34401">
        <ele>1218.4000244141</ele>
        <time>2014-09-20T11:22:53.000Z</time>
      </trkpt>
      <trkpt lat="44.12537" lon="5.34402">
        <ele>1218.4000244141</ele>
        <time>2014-09-20T11:22:55.000Z</time>
      </trkpt>
      <trkpt lat="44.12537" lon="5.344">
        <ele>1218.4000244141</ele>
        <time>2014-09-20T11:23:00.000Z</time>
      </trkpt>
      <trkpt lat="44.12552" lon="5.34403">
        <ele>1218.8000488281</ele>
        <time>2014-09-20T11:23:12.000Z</time>
      </trkpt>
      <trkpt lat="44.12561" lon="5.34402">
        <ele>1219</ele>
        <time>2014-09-20T11:23:24.000Z</time>
      </trkpt>
      <trkpt lat="44.12563" lon="5.34402">
        <ele>1219</ele>
        <time>2014-09-20T11:23:32.000Z</time>
      </trkpt>
      <trkpt lat="44.12557" lon="5.34401">
        <ele>1218.8000488281</ele>
        <time>2014-09-20T11:24:03.000Z</time>
      </trkpt>
      <trkpt lat="44.1256" lon="5.34404">
        <ele>1219</ele>
        <time>2014-09-20T11:24:37.000Z</time>
      </trkpt>
      <trkpt lat="44.12561" lon="5.34402">
        <ele>1219</ele>
        <time>2014-09-20T11:25:11.000Z</time>
      </trkpt>
      <trkpt lat="44.12563" lon="5.34403">
        <ele>1219</ele>
        <time>2014-09-20T11:25:43.000Z</time>
      </trkpt>
      <trkpt lat="44.12563" lon="5.34403">
        <ele>1219</ele>
        <time>2014-09-20T11:25:56.000Z</time>
      </trkpt>
      <trkpt lat="44.12553" lon="5.34395">
        <ele>1218.5999755859</ele>
        <time>2014-09-20T11:26:27.000Z</time>
      </trkpt>
      <trkpt lat="44.1256" lon="5.34395">
        <ele>1218.8000488281</ele>
        <time>2014-09-20T11:27:03.000Z</time>
      </trkpt>
      <trkpt lat="44.1256" lon="5.34399">
        <ele>1218.8000488281</ele>
        <time>2014-09-20T11:27:31.000Z</time>
      </trkpt>
      <trkpt lat="44.12559" lon="5.34397">
        <ele>1218.8000488281</ele>
        <time>2014-09-20T11:27:58.000Z</time>
      </trkpt>
      <trkpt lat="44.12556" lon="5.34395">
        <ele>1218.5999755859</ele>
        <time>2014-09-20T11:28:29.000Z</time>
      </trkpt>
      <trkpt lat="44.12561" lon="5.34404">
        <ele>1219</ele>
        <time>2014-09-20T11:28:49.000Z</time>
      </trkpt>
      <trkpt lat="44.12563" lon="5.34407">
        <ele>1219</ele>
        <time>2014-09-20T11:29:07.000Z</time>
      </trkpt>
      <trkpt lat="44.12564" lon="5.34406">
        <ele>1219</ele>
        <time>2014-09-20T11:29:33.000Z</time>
      </trkpt>
      <trkpt lat="44.12564" lon="5.34408">
        <ele>1219.1999511719</ele>
        <time>2014-09-20T11:30:03.000Z</time>
      </trkpt>
      <trkpt lat="44.12566" lon="5.34411">
        <ele>1219.1999511719</ele>
        <time>2014-09-20T11:30:31.000Z</time>
      </trkpt>
      <trkpt lat="44.12567" lon="5.34409">
        <ele>1219.1999511719</ele>
        <time>2014-09-20T11:31:03.000Z</time>
      </trkpt>
      <trkpt lat="44.12567" lon="5.34413">
        <ele>1219.1999511719</ele>
        <time>2014-09-20T11:31:28.000Z</time>
      </trkpt>
      <trkpt lat="44.12567" lon="5.34408">
        <ele>1219.1999511719</ele>
        <time>2014-09-20T11:31:51.000Z</time>
      </trkpt>
      <trkpt lat="44.12563" lon="5.34395">
        <ele>1218.8000488281</ele>
        <time>2014-09-20T11:32:20.000Z</time>
      </trkpt>
      <trkpt lat="44.12563" lon="5.34396">
        <ele>1218.8000488281</ele>
        <time>2014-09-20T11:32:47.000Z</time>
      </trkpt>
      <trkpt lat="44.12562" lon="5.344">
        <ele>1218.8000488281</ele>
        <time>2014-09-20T11:33:02.000Z</time>
      </trkpt>
      <trkpt lat="44.12552" lon="5.34397">
        <ele>1218.5999755859</ele>
        <time>2014-09-20T11:33:07.000Z</time>
      </trkpt>
      <trkpt lat="44.12544" lon="5.34395">
        <ele>1218.5999755859</ele>
        <time>2014-09-20T11:33:11.000Z</time>
      </trkpt>
      <trkpt lat="44.12514" lon="5.34388">
        <ele>1217.5999755859</ele>
        <time>2014-09-20T11:33:23.000Z</time>
      </trkpt>
      <trkpt lat="44.12475" lon="5.34372">
        <ele>1215.8000488281</ele>
        <time>2014-09-20T11:33:33.000Z</time>
      </trkpt>
      <trkpt lat="44.12471" lon="5.3437">
        <ele>1215.8000488281</ele>
        <time>2014-09-20T11:33:34.000Z</time>
      </trkpt>
      <trkpt lat="44.12459" lon="5.34339">
        <ele>1214.5999755859</ele>
        <time>2014-09-20T11:33:40.000Z</time>
      </trkpt>
      <trkpt lat="44.1248" lon="5.34281">
        <ele>1212.8000488281</ele>
        <time>2014-09-20T11:33:52.000Z</time>
      </trkpt>
      <trkpt lat="44.1249" lon="5.3425">
        <ele>1211.5999755859</ele>
        <time>2014-09-20T11:33:59.000Z</time>
      </trkpt>
      <trkpt lat="44.12479" lon="5.34229">
        <ele>1210.5999755859</ele>
        <time>2014-09-20T11:34:03.000Z</time>
      </trkpt>
      <trkpt lat="44.12469" lon="5.34208">
        <ele>1209.4000244141</ele>
        <time>2014-09-20T11:34:06.000Z</time>
      </trkpt>
      <trkpt lat="44.12451" lon="5.34189">
        <ele>1208.4000244141</ele>
        <time>2014-09-20T11:34:10.000Z</time>
      </trkpt>
      <trkpt lat="44.12428" lon="5.3417">
        <ele>1207.8000488281</ele>
        <time>2014-09-20T11:34:15.000Z</time>
      </trkpt>
      <trkpt lat="44.1238" lon="5.34135">
        <ele>1207.5999755859</ele>
        <time>2014-09-20T11:34:27.000Z</time>
      </trkpt>
      <trkpt lat="44.12347" lon="5.34114">
        <ele>1207.1999511719</ele>
        <time>2014-09-20T11:34:39.000Z</time>
      </trkpt>
      <trkpt lat="44.12319" lon="5.34083">
        <ele>1205.5999755859</ele>
        <time>2014-09-20T11:34:51.000Z</time>
      </trkpt>
      <trkpt lat="44.12279" lon="5.34047">
        <ele>1204</ele>
        <time>2014-09-20T11:35:05.000Z</time>
      </trkpt>
      <trkpt lat="44.12236" lon="5.34043">
        <ele>1203</ele>
        <time>2014-09-20T11:35:17.000Z</time>
      </trkpt>
      <trkpt lat="44.12198" lon="5.34026">
        <ele>1201.5999755859</ele>
        <time>2014-09-20T11:35:27.000Z</time>
      </trkpt>
      <trkpt lat="44.12141" lon="5.34005">
        <ele>1197.4000244141</ele>
        <time>2014-09-20T11:35:39.000Z</time>
      </trkpt>
      <trkpt lat="44.12118" lon="5.33998">
        <ele>1196</ele>
        <time>2014-09-20T11:35:44.000Z</time>
      </trkpt>
      <trkpt lat="44.12106" lon="5.3397">
        <ele>1193.8000488281</ele>
        <time>2014-09-20T11:35:51.000Z</time>
      </trkpt>
      <trkpt lat="44.12112" lon="5.33964">
        <ele>1194.1999511719</ele>
        <time>2014-09-20T11:35:53.000Z</time>
      </trkpt>
      <trkpt lat="44.12153" lon="5.33938">
        <ele>1196.4000244141</ele>
        <time>2014-09-20T11:36:07.000Z</time>
      </trkpt>
      <trkpt lat="44.12184" lon="5.33907">
        <ele>1196.8000488281</ele>
        <time>2014-09-20T11:36:19.000Z</time>
      </trkpt>
      <trkpt lat="44.12214" lon="5.33881">
        <ele>1196</ele>
        <time>2014-09-20T11:36:28.000Z</time>
      </trkpt>
      <trkpt lat="44.1224" lon="5.3386">
        <ele>1195</ele>
        <time>2014-09-20T11:36:34.000Z</time>
      </trkpt>
      <trkpt lat="44.12243" lon="5.33825">
        <ele>1192</ele>
        <time>2014-09-20T11:36:41.000Z</time>
      </trkpt>
      <trkpt lat="44.12235" lon="5.33816">
        <ele>1191.5999755859</ele>
        <time>2014-09-20T11:36:43.000Z</time>
      </trkpt>
      <trkpt lat="44.12221" lon="5.33786">
        <ele>1189.5999755859</ele>
        <time>2014-09-20T11:36:48.000Z</time>
      </trkpt>
      <trkpt lat="44.1221" lon="5.33757">
        <ele>1188.1999511719</ele>
        <time>2014-09-20T11:36:52.000Z</time>
      </trkpt>
      <trkpt lat="44.12198" lon="5.33718">
        <ele>1186</ele>
        <time>2014-09-20T11:36:57.000Z</time>
      </trkpt>
      <trkpt lat="44.1219" lon="5.33677">
        <ele>1185</ele>
        <time>2014-09-20T11:37:03.000Z</time>
      </trkpt>
      <trkpt lat="44.1219" lon="5.33663">
        <ele>1184.4000244141</ele>
        <time>2014-09-20T11:37:05.000Z</time>
      </trkpt>
      <trkpt lat="44.12185" lon="5.33607">
        <ele>1182.5999755859</ele>
        <time>2014-09-20T11:37:12.000Z</time>
      </trkpt>
      <trkpt lat="44.12182" lon="5.33562">
        <ele>1180.8000488281</ele>
        <time>2014-09-20T11:37:21.000Z</time>
      </trkpt>
      <trkpt lat="44.12182" lon="5.33547">
        <ele>1180.1999511719</ele>
        <time>2014-09-20T11:37:24.000Z</time>
      </trkpt>
      <trkpt lat="44.12178" lon="5.33521">
        <ele>1179.8000488281</ele>
        <time>2014-09-20T11:37:28.000Z</time>
      </trkpt>
      <trkpt lat="44.12177" lon="5.33508">
        <ele>1179.4000244141</ele>
        <time>2014-09-20T11:37:30.000Z</time>
      </trkpt>
      <trkpt lat="44.12177" lon="5.33482">
        <ele>1178.4000244141</ele>
        <time>2014-09-20T11:37:34.000Z</time>
      </trkpt>
      <trkpt lat="44.12178" lon="5.33463">
        <ele>1177.5999755859</ele>
        <time>2014-09-20T11:37:37.000Z</time>
      </trkpt>
      <trkpt lat="44.12167" lon="5.33397">
        <ele>1174.5999755859</ele>
        <time>2014-09-20T11:37:48.000Z</time>
      </trkpt>
      <trkpt lat="44.12162" lon="5.33357">
        <ele>1174</ele>
        <time>2014-09-20T11:37:57.000Z</time>
      </trkpt>
      <trkpt lat="44.12157" lon="5.33324">
        <ele>1173.5999755859</ele>
        <time>2014-09-20T11:38:03.000Z</time>
      </trkpt>
      <trkpt lat="44.1214" lon="5.33245">
        <ele>1170.4000244141</ele>
        <time>2014-09-20T11:38:16.000Z</time>
      </trkpt>
      <trkpt lat="44.1213" lon="5.33212">
        <ele>1169.8000488281</ele>
        <time>2014-09-20T11:38:21.000Z</time>
      </trkpt>
      <trkpt lat="44.1212" lon="5.33185">
        <ele>1167.5999755859</ele>
        <time>2014-09-20T11:38:25.000Z</time>
      </trkpt>
      <trkpt lat="44.12107" lon="5.33167">
        <ele>1166.5999755859</ele>
        <time>2014-09-20T11:38:32.000Z</time>
      </trkpt>
      <trkpt lat="44.12065" lon="5.33142">
        <ele>1165</ele>
        <time>2014-09-20T11:38:44.000Z</time>
      </trkpt>
      <trkpt lat="44.12052" lon="5.33139">
        <ele>1165.1999511719</ele>
        <time>2014-09-20T11:38:48.000Z</time>
      </trkpt>
      <trkpt lat="44.12043" lon="5.3311">
        <ele>1162.1999511719</ele>
        <time>2014-09-20T11:38:55.000Z</time>
      </trkpt>
      <trkpt lat="44.12037" lon="5.33105">
        <ele>1162</ele>
        <time>2014-09-20T11:39:08.000Z</time>
      </trkpt>
      <trkpt lat="44.12032" lon="5.33101">
        <ele>1161.5999755859</ele>
        <time>2014-09-20T11:39:35.000Z</time>
      </trkpt>
      <trkpt lat="44.12032" lon="5.33101">
        <ele>1161.5999755859</ele>
        <time>2014-09-20T11:39:51.000Z</time>
      </trkpt>
      <trkpt lat="44.1204" lon="5.33092">
        <ele>1160.4000244141</ele>
        <time>2014-09-20T11:39:56.000Z</time>
      </trkpt>
      <trkpt lat="44.12053" lon="5.33068">
        <ele>1157.4000244141</ele>
        <time>2014-09-20T11:40:04.000Z</time>
      </trkpt>
      <trkpt lat="44.12076" lon="5.33037">
        <ele>1152.8000488281</ele>
        <time>2014-09-20T11:40:14.000Z</time>
      </trkpt>
      <trkpt lat="44.12086" lon="5.33024">
        <ele>1150.8000488281</ele>
        <time>2014-09-20T11:40:20.000Z</time>
      </trkpt>
      <trkpt lat="44.12087" lon="5.33022">
        <ele>1150.4000244141</ele>
        <time>2014-09-20T11:40:21.000Z</time>
      </trkpt>
      <trkpt lat="44.12092" lon="5.33018">
        <ele>1149.4000244141</ele>
        <time>2014-09-20T11:40:24.000Z</time>
      </trkpt>
      <trkpt lat="44.12099" lon="5.32996">
        <ele>1145.1999511719</ele>
        <time>2014-09-20T11:40:31.000Z</time>
      </trkpt>
      <trkpt lat="44.12104" lon="5.32985">
        <ele>1143</ele>
        <time>2014-09-20T11:40:34.000Z</time>
      </trkpt>
      <trkpt lat="44.12114" lon="5.32984">
        <ele>1142</ele>
        <time>2014-09-20T11:40:42.000Z</time>
      </trkpt>
      <trkpt lat="44.12116" lon="5.32977">
        <ele>1140.4000244141</ele>
        <time>2014-09-20T11:41:08.000Z</time>
      </trkpt>
      <trkpt lat="44.1212" lon="5.32981">
        <ele>1140.8000488281</ele>
        <time>2014-09-20T11:41:40.000Z</time>
      </trkpt>
      <trkpt lat="44.1212" lon="5.32984">
        <ele>1141.1999511719</ele>
        <time>2014-09-20T11:42:08.000Z</time>
      </trkpt>
      <trkpt lat="44.12123" lon="5.32987">
        <ele>1141.4000244141</ele>
        <time>2014-09-20T11:42:13.000Z</time>
      </trkpt>
      <trkpt lat="44.12129" lon="5.32993">
        <ele>1141.5999755859</ele>
        <time>2014-09-20T11:42:16.000Z</time>
      </trkpt>
      <trkpt lat="44.12132" lon="5.32995">
        <ele>1141.5999755859</ele>
        <time>2014-09-20T11:42:17.000Z</time>
      </trkpt>
      <trkpt lat="44.12135" lon="5.32997">
        <ele>1141.8000488281</ele>
        <time>2014-09-20T11:42:18.000Z</time>
      </trkpt>
      <trkpt lat="44.12168" lon="5.3303">
        <ele>1143.1999511719</ele>
        <time>2014-09-20T11:42:28.000Z</time>
      </trkpt>
      <trkpt lat="44.12176" lon="5.33037">
        <ele>1143.4000244141</ele>
        <time>2014-09-20T11:42:30.000Z</time>
      </trkpt>
      <trkpt lat="44.12179" lon="5.33041">
        <ele>1143.5999755859</ele>
        <time>2014-09-20T11:42:31.000Z</time>
      </trkpt>
      <trkpt lat="44.12183" lon="5.33046">
        <ele>1144</ele>
        <time>2014-09-20T11:42:32.000Z</time>
      </trkpt>
      <trkpt lat="44.12225" lon="5.33107">
        <ele>1142.5999755859</ele>
        <time>2014-09-20T11:42:44.000Z</time>
      </trkpt>
      <trkpt lat="44.12233" lon="5.33124">
        <ele>1142.8000488281</ele>
        <time>2014-09-20T11:42:47.000Z</time>
      </trkpt>
      <trkpt lat="44.12245" lon="5.33155">
        <ele>1142.5999755859</ele>
        <time>2014-09-20T11:42:52.000Z</time>
      </trkpt>
      <trkpt lat="44.12247" lon="5.33161">
        <ele>1142.4000244141</ele>
        <time>2014-09-20T11:42:53.000Z</time>
      </trkpt>
      <trkpt lat="44.12249" lon="5.33167">
        <ele>1142.5999755859</ele>
        <time>2014-09-20T11:42:54.000Z</time>
      </trkpt>
      <trkpt lat="44.12253" lon="5.33178">
        <ele>1142.4000244141</ele>
        <time>2014-09-20T11:42:56.000Z</time>
      </trkpt>
      <trkpt lat="44.12255" lon="5.33184">
        <ele>1142.4000244141</ele>
        <time>2014-09-20T11:42:57.000Z</time>
      </trkpt>
      <trkpt lat="44.12257" lon="5.3319">
        <ele>1142.1999511719</ele>
        <time>2014-09-20T11:42:58.000Z</time>
      </trkpt>
      <trkpt lat="44.12265" lon="5.33205">
        <ele>1141.5999755859</ele>
        <time>2014-09-20T11:43:01.000Z</time>
      </trkpt>
      <trkpt lat="44.12267" lon="5.33211">
        <ele>1141.5999755859</ele>
        <time>2014-09-20T11:43:02.000Z</time>
      </trkpt>
      <trkpt lat="44.1227" lon="5.33216">
        <ele>1141.1999511719</ele>
        <time>2014-09-20T11:43:03.000Z</time>
      </trkpt>
      <trkpt lat="44.12275" lon="5.33225">
        <ele>1139.8000488281</ele>
        <time>2014-09-20T11:43:05.000Z</time>
      </trkpt>
      <trkpt lat="44.12277" lon="5.33231">
        <ele>1139.5999755859</ele>
        <time>2014-09-20T11:43:06.000Z</time>
      </trkpt>
      <trkpt lat="44.12283" lon="5.33254">
        <ele>1138.8000488281</ele>
        <time>2014-09-20T11:43:10.000Z</time>
      </trkpt>
      <trkpt lat="44.12285" lon="5.33259">
        <ele>1138.5999755859</ele>
        <time>2014-09-20T11:43:11.000Z</time>
      </trkpt>
      <trkpt lat="44.12286" lon="5.33264">
        <ele>1138.4000244141</ele>
        <time>2014-09-20T11:43:12.000Z</time>
      </trkpt>
      <trkpt lat="44.1229" lon="5.33281">
        <ele>1138.1999511719</ele>
        <time>2014-09-20T11:43:15.000Z</time>
      </trkpt>
      <trkpt lat="44.12291" lon="5.33287">
        <ele>1138.1999511719</ele>
        <time>2014-09-20T11:43:16.000Z</time>
      </trkpt>
      <trkpt lat="44.123" lon="5.33339">
        <ele>1138.5999755859</ele>
        <time>2014-09-20T11:43:26.000Z</time>
      </trkpt>
      <trkpt lat="44.123" lon="5.33392">
        <ele>1141.1999511719</ele>
        <time>2014-09-20T11:43:36.000Z</time>
      </trkpt>
      <trkpt lat="44.12306" lon="5.33435">
        <ele>1142.4000244141</ele>
        <time>2014-09-20T11:43:44.000Z</time>
      </trkpt>
      <trkpt lat="44.12307" lon="5.33441">
        <ele>1142.4000244141</ele>
        <time>2014-09-20T11:43:45.000Z</time>
      </trkpt>
      <trkpt lat="44.12308" lon="5.33447">
        <ele>1142.5999755859</ele>
        <time>2014-09-20T11:43:46.000Z</time>
      </trkpt>
      <trkpt lat="44.12315" lon="5.33504">
        <ele>1145.5999755859</ele>
        <time>2014-09-20T11:43:57.000Z</time>
      </trkpt>
      <trkpt lat="44.12317" lon="5.33538">
        <ele>1148.1999511719</ele>
        <time>2014-09-20T11:44:08.000Z</time>
      </trkpt>
      <trkpt lat="44.12338" lon="5.33579">
        <ele>1149.1999511719</ele>
        <time>2014-09-20T11:44:19.000Z</time>
      </trkpt>
      <trkpt lat="44.12358" lon="5.336">
        <ele>1147.5999755859</ele>
        <time>2014-09-20T11:44:29.000Z</time>
      </trkpt>
      <trkpt lat="44.12381" lon="5.33617">
        <ele>1147.8000488281</ele>
        <time>2014-09-20T11:44:37.000Z</time>
      </trkpt>
      <trkpt lat="44.12387" lon="5.33611">
        <ele>1145.8000488281</ele>
        <time>2014-09-20T11:44:39.000Z</time>
      </trkpt>
      <trkpt lat="44.12387" lon="5.33607">
        <ele>1145</ele>
        <time>2014-09-20T11:44:40.000Z</time>
      </trkpt>
      <trkpt lat="44.12386" lon="5.33603">
        <ele>1144.1999511719</ele>
        <time>2014-09-20T11:44:41.000Z</time>
      </trkpt>
      <trkpt lat="44.12384" lon="5.33599">
        <ele>1143.8000488281</ele>
        <time>2014-09-20T11:44:42.000Z</time>
      </trkpt>
      <trkpt lat="44.12382" lon="5.33596">
        <ele>1143.4000244141</ele>
        <time>2014-09-20T11:44:43.000Z</time>
      </trkpt>
      <trkpt lat="44.12381" lon="5.33592">
        <ele>1142.8000488281</ele>
        <time>2014-09-20T11:44:44.000Z</time>
      </trkpt>
      <trkpt lat="44.12379" lon="5.33589">
        <ele>1142.1999511719</ele>
        <time>2014-09-20T11:44:45.000Z</time>
      </trkpt>
      <trkpt lat="44.12376" lon="5.33585">
        <ele>1141.8000488281</ele>
        <time>2014-09-20T11:44:46.000Z</time>
      </trkpt>
      <trkpt lat="44.12373" lon="5.33581">
        <ele>1141.4000244141</ele>
        <time>2014-09-20T11:44:47.000Z</time>
      </trkpt>
      <trkpt lat="44.1237" lon="5.33577">
        <ele>1141</ele>
        <time>2014-09-20T11:44:48.000Z</time>
      </trkpt>
      <trkpt lat="44.12368" lon="5.33574">
        <ele>1140.5999755859</ele>
        <time>2014-09-20T11:44:49.000Z</time>
      </trkpt>
      <trkpt lat="44.12367" lon="5.33571">
        <ele>1140</ele>
        <time>2014-09-20T11:44:50.000Z</time>
      </trkpt>
      <trkpt lat="44.12366" lon="5.33567">
        <ele>1139.4000244141</ele>
        <time>2014-09-20T11:44:51.000Z</time>
      </trkpt>
      <trkpt lat="44.12366" lon="5.33563">
        <ele>1138.5999755859</ele>
        <time>2014-09-20T11:44:52.000Z</time>
      </trkpt>
      <trkpt lat="44.12367" lon="5.33559">
        <ele>1137.5999755859</ele>
        <time>2014-09-20T11:44:53.000Z</time>
      </trkpt>
      <trkpt lat="44.12368" lon="5.33556">
        <ele>1137</ele>
        <time>2014-09-20T11:44:54.000Z</time>
      </trkpt>
      <trkpt lat="44.12368" lon="5.33555">
        <ele>1136.5999755859</ele>
        <time>2014-09-20T11:44:55.000Z</time>
      </trkpt>
      <trkpt lat="44.12369" lon="5.33555">
        <ele>1136.8000488281</ele>
        <time>2014-09-20T11:45:11.000Z</time>
      </trkpt>
      <trkpt lat="44.12371" lon="5.33555">
        <ele>1136.8000488281</ele>
        <time>2014-09-20T11:45:37.000Z</time>
      </trkpt>
      <trkpt lat="44.12374" lon="5.33553">
        <ele>1136.8000488281</ele>
        <time>2014-09-20T11:46:01.000Z</time>
      </trkpt>
      <trkpt lat="44.12369" lon="5.33545">
        <ele>1136</ele>
        <time>2014-09-20T11:46:10.000Z</time>
      </trkpt>
      <trkpt lat="44.12365" lon="5.33544">
        <ele>1135.8000488281</ele>
        <time>2014-09-20T11:46:12.000Z</time>
      </trkpt>
      <trkpt lat="44.12361" lon="5.33542">
        <ele>1135.5999755859</ele>
        <time>2014-09-20T11:46:14.000Z</time>
      </trkpt>
      <trkpt lat="44.12356" lon="5.33539">
        <ele>1136.4000244141</ele>
        <time>2014-09-20T11:46:22.000Z</time>
      </trkpt>
      <trkpt lat="44.12354" lon="5.3354">
        <ele>1137</ele>
        <time>2014-09-20T11:46:47.000Z</time>
      </trkpt>
      <trkpt lat="44.12342" lon="5.33509">
        <ele>1137.8000488281</ele>
        <time>2014-09-20T11:46:54.000Z</time>
      </trkpt>
      <trkpt lat="44.12337" lon="5.33481">
        <ele>1136.5999755859</ele>
        <time>2014-09-20T11:46:58.000Z</time>
      </trkpt>
      <trkpt lat="44.1233" lon="5.33463">
        <ele>1137</ele>
        <time>2014-09-20T11:47:00.000Z</time>
      </trkpt>
      <trkpt lat="44.12321" lon="5.33432">
        <ele>1137.5999755859</ele>
        <time>2014-09-20T11:47:05.000Z</time>
      </trkpt>
      <trkpt lat="44.1232" lon="5.33421">
        <ele>1137</ele>
        <time>2014-09-20T11:47:07.000Z</time>
      </trkpt>
      <trkpt lat="44.1232" lon="5.33383">
        <ele>1135.8000488281</ele>
        <time>2014-09-20T11:47:12.000Z</time>
      </trkpt>
      <trkpt lat="44.12321" lon="5.3335">
        <ele>1133.5999755859</ele>
        <time>2014-09-20T11:47:16.000Z</time>
      </trkpt>
      <trkpt lat="44.12324" lon="5.33292">
        <ele>1129.8000488281</ele>
        <time>2014-09-20T11:47:22.000Z</time>
      </trkpt>
      <trkpt lat="44.12325" lon="5.33261">
        <ele>1128.8000488281</ele>
        <time>2014-09-20T11:47:25.000Z</time>
      </trkpt>
      <trkpt lat="44.12322" lon="5.33231">
        <ele>1128.4000244141</ele>
        <time>2014-09-20T11:47:28.000Z</time>
      </trkpt>
      <trkpt lat="44.1232" lon="5.3321">
        <ele>1127.8000488281</ele>
        <time>2014-09-20T11:47:31.000Z</time>
      </trkpt>
      <trkpt lat="44.12317" lon="5.33179">
        <ele>1126</ele>
        <time>2014-09-20T11:47:35.000Z</time>
      </trkpt>
      <trkpt lat="44.12313" lon="5.33159">
        <ele>1125.5999755859</ele>
        <time>2014-09-20T11:47:38.000Z</time>
      </trkpt>
      <trkpt lat="44.12309" lon="5.33127">
        <ele>1125.1999511719</ele>
        <time>2014-09-20T11:47:42.000Z</time>
      </trkpt>
      <trkpt lat="44.12305" lon="5.33106">
        <ele>1123.5999755859</ele>
        <time>2014-09-20T11:47:44.000Z</time>
      </trkpt>
      <trkpt lat="44.12299" lon="5.3308">
        <ele>1122</ele>
        <time>2014-09-20T11:47:47.000Z</time>
      </trkpt>
      <trkpt lat="44.12287" lon="5.33021">
        <ele>1116.8000488281</ele>
        <time>2014-09-20T11:47:55.000Z</time>
      </trkpt>
      <trkpt lat="44.12288" lon="5.33005">
        <ele>1114.1999511719</ele>
        <time>2014-09-20T11:48:03.000Z</time>
      </trkpt>
      <trkpt lat="44.1229" lon="5.32996">
        <ele>1112.4000244141</ele>
        <time>2014-09-20T11:48:11.000Z</time>
      </trkpt>
      <trkpt lat="44.12288" lon="5.32992">
        <ele>1112</ele>
        <time>2014-09-20T11:48:13.000Z</time>
      </trkpt>
      <trkpt lat="44.12275" lon="5.3295">
        <ele>1107.5999755859</ele>
        <time>2014-09-20T11:48:21.000Z</time>
      </trkpt>
      <trkpt lat="44.12259" lon="5.32917">
        <ele>1106</ele>
        <time>2014-09-20T11:48:27.000Z</time>
      </trkpt>
      <trkpt lat="44.12253" lon="5.329">
        <ele>1105</ele>
        <time>2014-09-20T11:48:30.000Z</time>
      </trkpt>
      <trkpt lat="44.12245" lon="5.32878">
        <ele>1103.1999511719</ele>
        <time>2014-09-20T11:48:35.000Z</time>
      </trkpt>
      <trkpt lat="44.1223" lon="5.32847">
        <ele>1098.8000488281</ele>
        <time>2014-09-20T11:48:43.000Z</time>
      </trkpt>
      <trkpt lat="44.12214" lon="5.32822">
        <ele>1096.1999511719</ele>
        <time>2014-09-20T11:48:54.000Z</time>
      </trkpt>
      <trkpt lat="44.12206" lon="5.32824">
        <ele>1098</ele>
        <time>2014-09-20T11:49:21.000Z</time>
      </trkpt>
      <trkpt lat="44.12207" lon="5.32822">
        <ele>1097.1999511719</ele>
        <time>2014-09-20T11:49:40.000Z</time>
      </trkpt>
      <trkpt lat="44.1221" lon="5.32819">
        <ele>1096.1999511719</ele>
        <time>2014-09-20T11:49:50.000Z</time>
      </trkpt>
      <trkpt lat="44.1221" lon="5.32814">
        <ele>1095</ele>
        <time>2014-09-20T11:49:52.000Z</time>
      </trkpt>
      <trkpt lat="44.12204" lon="5.328">
        <ele>1094</ele>
        <time>2014-09-20T11:49:56.000Z</time>
      </trkpt>
      <trkpt lat="44.12177" lon="5.32766">
        <ele>1091.5999755859</ele>
        <time>2014-09-20T11:50:07.000Z</time>
      </trkpt>
      <trkpt lat="44.12161" lon="5.32733">
        <ele>1088.8000488281</ele>
        <time>2014-09-20T11:50:16.000Z</time>
      </trkpt>
      <trkpt lat="44.12137" lon="5.32706">
        <ele>1087.5999755859</ele>
        <time>2014-09-20T11:50:22.000Z</time>
      </trkpt>
      <trkpt lat="44.12125" lon="5.32691">
        <ele>1086.4000244141</ele>
        <time>2014-09-20T11:50:25.000Z</time>
      </trkpt>
      <trkpt lat="44.12112" lon="5.32668">
        <ele>1084.1999511719</ele>
        <time>2014-09-20T11:50:29.000Z</time>
      </trkpt>
      <trkpt lat="44.121" lon="5.32653">
        <ele>1083.8000488281</ele>
        <time>2014-09-20T11:50:32.000Z</time>
      </trkpt>
      <trkpt lat="44.12061" lon="5.32595">
        <ele>1080.8000488281</ele>
        <time>2014-09-20T11:50:42.000Z</time>
      </trkpt>
      <trkpt lat="44.12052" lon="5.32585">
        <ele>1080.5999755859</ele>
        <time>2014-09-20T11:50:44.000Z</time>
      </trkpt>
      <trkpt lat="44.12041" lon="5.32576">
        <ele>1081</ele>
        <time>2014-09-20T11:50:46.000Z</time>
      </trkpt>
      <trkpt lat="44.12017" lon="5.32532">
        <ele>1078.1999511719</ele>
        <time>2014-09-20T11:50:52.000Z</time>
      </trkpt>
      <trkpt lat="44.11984" lon="5.32468">
        <ele>1077.1999511719</ele>
        <time>2014-09-20T11:51:00.000Z</time>
      </trkpt>
      <trkpt lat="44.11967" lon="5.32424">
        <ele>1075</ele>
        <time>2014-09-20T11:51:05.000Z</time>
      </trkpt>
      <trkpt lat="44.11949" lon="5.32342">
        <ele>1069.1999511719</ele>
        <time>2014-09-20T11:51:13.000Z</time>
      </trkpt>
      <trkpt lat="44.11944" lon="5.32307">
        <ele>1066</ele>
        <time>2014-09-20T11:51:17.000Z</time>
      </trkpt>
      <trkpt lat="44.11944" lon="5.32288">
        <ele>1064.1999511719</ele>
        <time>2014-09-20T11:51:19.000Z</time>
      </trkpt>
      <trkpt lat="44.11938" lon="5.32257">
        <ele>1062.1999511719</ele>
        <time>2014-09-20T11:51:23.000Z</time>
      </trkpt>
      <trkpt lat="44.11931" lon="5.32225">
        <ele>1060.5999755859</ele>
        <time>2014-09-20T11:51:27.000Z</time>
      </trkpt>
      <trkpt lat="44.11897" lon="5.32153">
        <ele>1052.8000488281</ele>
        <time>2014-09-20T11:51:36.000Z</time>
      </trkpt>
      <trkpt lat="44.11891" lon="5.32139">
        <ele>1051.4000244141</ele>
        <time>2014-09-20T11:51:42.000Z</time>
      </trkpt>
      <trkpt lat="44.11892" lon="5.32139">
        <ele>1051.4000244141</ele>
        <time>2014-09-20T11:51:55.000Z</time>
      </trkpt>
      <trkpt lat="44.11889" lon="5.32137">
        <ele>1051.1999511719</ele>
        <time>2014-09-20T11:52:21.000Z</time>
      </trkpt>
      <trkpt lat="44.11894" lon="5.3214">
        <ele>1051.4000244141</ele>
        <time>2014-09-20T11:52:47.000Z</time>
      </trkpt>
      <trkpt lat="44.11892" lon="5.32141">
        <ele>1051.5999755859</ele>
        <time>2014-09-20T11:53:18.000Z</time>
      </trkpt>
      <trkpt lat="44.11895" lon="5.32135">
        <ele>1051</ele>
        <time>2014-09-20T11:53:49.000Z</time>
      </trkpt>
      <trkpt lat="44.11893" lon="5.3214">
        <ele>1051.5999755859</ele>
        <time>2014-09-20T11:54:03.000Z</time>
      </trkpt>
      <trkpt lat="44.11886" lon="5.32133">
        <ele>1051</ele>
        <time>2014-09-20T11:54:07.000Z</time>
      </trkpt>
      <trkpt lat="44.11879" lon="5.32124">
        <ele>1050</ele>
        <time>2014-09-20T11:54:11.000Z</time>
      </trkpt>
      <trkpt lat="44.11858" lon="5.32106">
        <ele>1047.5999755859</ele>
        <time>2014-09-20T11:54:17.000Z</time>
      </trkpt>
      <trkpt lat="44.11817" lon="5.32062">
        <ele>1041</ele>
        <time>2014-09-20T11:54:25.000Z</time>
      </trkpt>
      <trkpt lat="44.11793" lon="5.32048">
        <ele>1038.4000244141</ele>
        <time>2014-09-20T11:54:29.000Z</time>
      </trkpt>
      <trkpt lat="44.1177" lon="5.31992">
        <ele>1036.1999511719</ele>
        <time>2014-09-20T11:54:37.000Z</time>
      </trkpt>
      <trkpt lat="44.11745" lon="5.31954">
        <ele>1039.1999511719</ele>
        <time>2014-09-20T11:54:45.000Z</time>
      </trkpt>
      <trkpt lat="44.11725" lon="5.3193">
        <ele>1040.8000488281</ele>
        <time>2014-09-20T11:54:49.000Z</time>
      </trkpt>
      <trkpt lat="44.11715" lon="5.31907">
        <ele>1040.4000244141</ele>
        <time>2014-09-20T11:54:52.000Z</time>
      </trkpt>
      <trkpt lat="44.11704" lon="5.31884">
        <ele>1040.5999755859</ele>
        <time>2014-09-20T11:54:56.000Z</time>
      </trkpt>
      <trkpt lat="44.11703" lon="5.31846">
        <ele>1037</ele>
        <time>2014-09-20T11:55:03.000Z</time>
      </trkpt>
      <trkpt lat="44.11714" lon="5.31815">
        <ele>1032.4000244141</ele>
        <time>2014-09-20T11:55:10.000Z</time>
      </trkpt>
      <trkpt lat="44.11721" lon="5.31798">
        <ele>1030.8000488281</ele>
        <time>2014-09-20T11:55:13.000Z</time>
      </trkpt>
      <trkpt lat="44.11736" lon="5.31768">
        <ele>1029.4000244141</ele>
        <time>2014-09-20T11:55:18.000Z</time>
      </trkpt>
      <trkpt lat="44.11745" lon="5.31743">
        <ele>1026.5999755859</ele>
        <time>2014-09-20T11:55:22.000Z</time>
      </trkpt>
      <trkpt lat="44.11759" lon="5.31706">
        <ele>1022.5999755859</ele>
        <time>2014-09-20T11:55:27.000Z</time>
      </trkpt>
      <trkpt lat="44.11776" lon="5.31664">
        <ele>1017.799987793</ele>
        <time>2014-09-20T11:55:36.000Z</time>
      </trkpt>
      <trkpt lat="44.1178" lon="5.31629">
        <ele>1017.5999755859</ele>
        <time>2014-09-20T11:55:45.000Z</time>
      </trkpt>
      <trkpt lat="44.1179" lon="5.31593">
        <ele>1021.4000244141</ele>
        <time>2014-09-20T11:55:52.000Z</time>
      </trkpt>
      <trkpt lat="44.11797" lon="5.31575">
        <ele>1023.5999755859</ele>
        <time>2014-09-20T11:55:55.000Z</time>
      </trkpt>
      <trkpt lat="44.11808" lon="5.31563">
        <ele>1023</ele>
        <time>2014-09-20T11:56:03.000Z</time>
      </trkpt>
      <trkpt lat="44.11809" lon="5.31559">
        <ele>1022</ele>
        <time>2014-09-20T11:56:25.000Z</time>
      </trkpt>
      <trkpt lat="44.11811" lon="5.31556">
        <ele>1021.4000244141</ele>
        <time>2014-09-20T11:56:50.000Z</time>
      </trkpt>
      <trkpt lat="44.11811" lon="5.31555">
        <ele>1021.200012207</ele>
        <time>2014-09-20T11:57:11.000Z</time>
      </trkpt>
      <trkpt lat="44.11813" lon="5.31552">
        <ele>1020.799987793</ele>
        <time>2014-09-20T11:57:30.000Z</time>
      </trkpt>
      <trkpt lat="44.11817" lon="5.31548">
        <ele>1019.799987793</ele>
        <time>2014-09-20T11:57:33.000Z</time>
      </trkpt>
      <trkpt lat="44.11821" lon="5.31543">
        <ele>1020</ele>
        <time>2014-09-20T11:57:36.000Z</time>
      </trkpt>
      <trkpt lat="44.11822" lon="5.31531">
        <ele>1021.5999755859</ele>
        <time>2014-09-20T11:57:47.000Z</time>
      </trkpt>
      <trkpt lat="44.11825" lon="5.31525">
        <ele>1022.200012207</ele>
        <time>2014-09-20T11:58:08.000Z</time>
      </trkpt>
      <trkpt lat="44.11822" lon="5.31515">
        <ele>1024</ele>
        <time>2014-09-20T11:58:28.000Z</time>
      </trkpt>
      <trkpt lat="44.11826" lon="5.3151">
        <ele>1023.5999755859</ele>
        <time>2014-09-20T11:58:48.000Z</time>
      </trkpt>
      <trkpt lat="44.11827" lon="5.31507">
        <ele>1023.4000244141</ele>
        <time>2014-09-20T11:58:50.000Z</time>
      </trkpt>
      <trkpt lat="44.11826" lon="5.31502">
        <ele>1023</ele>
        <time>2014-09-20T11:58:53.000Z</time>
      </trkpt>
      <trkpt lat="44.11831" lon="5.31494">
        <ele>1021</ele>
        <time>2014-09-20T11:59:00.000Z</time>
      </trkpt>
      <trkpt lat="44.11835" lon="5.31488">
        <ele>1019.4000244141</ele>
        <time>2014-09-20T11:59:04.000Z</time>
      </trkpt>
      <trkpt lat="44.11838" lon="5.3148">
        <ele>1017.799987793</ele>
        <time>2014-09-20T11:59:10.000Z</time>
      </trkpt>
      <trkpt lat="44.11852" lon="5.31465">
        <ele>1012.4000244141</ele>
        <time>2014-09-20T11:59:22.000Z</time>
      </trkpt>
      <trkpt lat="44.11857" lon="5.31455">
        <ele>1012.200012207</ele>
        <time>2014-09-20T11:59:28.000Z</time>
      </trkpt>
      <trkpt lat="44.1186" lon="5.31437">
        <ele>1013.5999755859</ele>
        <time>2014-09-20T11:59:36.000Z</time>
      </trkpt>
      <trkpt lat="44.11861" lon="5.31433">
        <ele>1014</ele>
        <time>2014-09-20T11:59:38.000Z</time>
      </trkpt>
      <trkpt lat="44.11862" lon="5.31402">
        <ele>1018</ele>
        <time>2014-09-20T11:59:52.000Z</time>
      </trkpt>
      <trkpt lat="44.11859" lon="5.31376">
        <ele>1021.4000244141</ele>
        <time>2014-09-20T12:00:04.000Z</time>
      </trkpt>
      <trkpt lat="44.11855" lon="5.31348">
        <ele>1023.4000244141</ele>
        <time>2014-09-20T12:00:22.000Z</time>
      </trkpt>
      <trkpt lat="44.11852" lon="5.31341">
        <ele>1024.1999511719</ele>
        <time>2014-09-20T12:00:26.000Z</time>
      </trkpt>
      <trkpt lat="44.11845" lon="5.31318">
        <ele>1027</ele>
        <time>2014-09-20T12:00:39.000Z</time>
      </trkpt>
      <trkpt lat="44.11844" lon="5.31316">
        <ele>1027.1999511719</ele>
        <time>2014-09-20T12:00:41.000Z</time>
      </trkpt>
      <trkpt lat="44.11831" lon="5.31294">
        <ele>1031.4000244141</ele>
        <time>2014-09-20T12:00:56.000Z</time>
      </trkpt>
      <trkpt lat="44.11828" lon="5.31291">
        <ele>1032</ele>
        <time>2014-09-20T12:00:59.000Z</time>
      </trkpt>
      <trkpt lat="44.11816" lon="5.31277">
        <ele>1034.4000244141</ele>
        <time>2014-09-20T12:01:11.000Z</time>
      </trkpt>
      <trkpt lat="44.11814" lon="5.31274">
        <ele>1035</ele>
        <time>2014-09-20T12:01:13.000Z</time>
      </trkpt>
      <trkpt lat="44.11808" lon="5.31265">
        <ele>1036</ele>
        <time>2014-09-20T12:01:18.000Z</time>
      </trkpt>
      <trkpt lat="44.11803" lon="5.31259">
        <ele>1037.1999511719</ele>
        <time>2014-09-20T12:01:22.000Z</time>
      </trkpt>
      <trkpt lat="44.11788" lon="5.31235">
        <ele>1040.1999511719</ele>
        <time>2014-09-20T12:01:33.000Z</time>
      </trkpt>
      <trkpt lat="44.11766" lon="5.31204">
        <ele>1042.1999511719</ele>
        <time>2014-09-20T12:01:46.000Z</time>
      </trkpt>
      <trkpt lat="44.11748" lon="5.3118">
        <ele>1041.4000244141</ele>
        <time>2014-09-20T12:01:57.000Z</time>
      </trkpt>
      <trkpt lat="44.11742" lon="5.31172">
        <ele>1041.1999511719</ele>
        <time>2014-09-20T12:02:03.000Z</time>
      </trkpt>
      <trkpt lat="44.11722" lon="5.31152">
        <ele>1041.1999511719</ele>
        <time>2014-09-20T12:02:12.000Z</time>
      </trkpt>
      <trkpt lat="44.11695" lon="5.31123">
        <ele>1041.4000244141</ele>
        <time>2014-09-20T12:02:24.000Z</time>
      </trkpt>
      <trkpt lat="44.11683" lon="5.3111">
        <ele>1040.8000488281</ele>
        <time>2014-09-20T12:02:30.000Z</time>
      </trkpt>
      <trkpt lat="44.11672" lon="5.31098">
        <ele>1040.1999511719</ele>
        <time>2014-09-20T12:02:36.000Z</time>
      </trkpt>
      <trkpt lat="44.1165" lon="5.31079">
        <ele>1039.4000244141</ele>
        <time>2014-09-20T12:02:47.000Z</time>
      </trkpt>
      <trkpt lat="44.11648" lon="5.31077">
        <ele>1039.1999511719</ele>
        <time>2014-09-20T12:02:48.000Z</time>
      </trkpt>
      <trkpt lat="44.11646" lon="5.31073">
        <ele>1039</ele>
        <time>2014-09-20T12:03:01.000Z</time>
      </trkpt>
      <trkpt lat="44.11645" lon="5.31072">
        <ele>1039</ele>
        <time>2014-09-20T12:03:29.000Z</time>
      </trkpt>
      <trkpt lat="44.11646" lon="5.31071">
        <ele>1039</ele>
        <time>2014-09-20T12:04:02.000Z</time>
      </trkpt>
      <trkpt lat="44.11647" lon="5.31073">
        <ele>1039</ele>
        <time>2014-09-20T12:04:30.000Z</time>
      </trkpt>
      <trkpt lat="44.11645" lon="5.3107">
        <ele>1038.8000488281</ele>
        <time>2014-09-20T12:04:52.000Z</time>
      </trkpt>
      <trkpt lat="44.11643" lon="5.31068">
        <ele>1038.8000488281</ele>
        <time>2014-09-20T12:05:20.000Z</time>
      </trkpt>
      <trkpt lat="44.11638" lon="5.31066">
        <ele>1038.5999755859</ele>
        <time>2014-09-20T12:05:43.000Z</time>
      </trkpt>
      <trkpt lat="44.11637" lon="5.31068">
        <ele>1038.8000488281</ele>
        <time>2014-09-20T12:06:12.000Z</time>
      </trkpt>
      <trkpt lat="44.11637" lon="5.31072">
        <ele>1039.1999511719</ele>
        <time>2014-09-20T12:06:33.000Z</time>
      </trkpt>
      <trkpt lat="44.11637" lon="5.31068">
        <ele>1038.8000488281</ele>
        <time>2014-09-20T12:06:49.000Z</time>
      </trkpt>
      <trkpt lat="44.11636" lon="5.31065">
        <ele>1038.5999755859</ele>
        <time>2014-09-20T12:06:51.000Z</time>
      </trkpt>
      <trkpt lat="44.11636" lon="5.31056">
        <ele>1038</ele>
        <time>2014-09-20T12:06:57.000Z</time>
      </trkpt>
      <trkpt lat="44.11634" lon="5.31047">
        <ele>1037.4000244141</ele>
        <time>2014-09-20T12:07:01.000Z</time>
      </trkpt>
      <trkpt lat="44.11632" lon="5.31043">
        <ele>1037.4000244141</ele>
        <time>2014-09-20T12:07:03.000Z</time>
      </trkpt>
      <trkpt lat="44.11631" lon="5.31033">
        <ele>1037.4000244141</ele>
        <time>2014-09-20T12:07:07.000Z</time>
      </trkpt>
      <trkpt lat="44.11635" lon="5.3102">
        <ele>1037.4000244141</ele>
        <time>2014-09-20T12:07:14.000Z</time>
      </trkpt>
      <trkpt lat="44.11626" lon="5.30998">
        <ele>1037.5999755859</ele>
        <time>2014-09-20T12:07:23.000Z</time>
      </trkpt>
      <trkpt lat="44.11622" lon="5.30971">
        <ele>1037.5999755859</ele>
        <time>2014-09-20T12:07:32.000Z</time>
      </trkpt>
      <trkpt lat="44.11624" lon="5.3095">
        <ele>1037.8000488281</ele>
        <time>2014-09-20T12:07:42.000Z</time>
      </trkpt>
      <trkpt lat="44.11625" lon="5.30947">
        <ele>1037.8000488281</ele>
        <time>2014-09-20T12:07:44.000Z</time>
      </trkpt>
      <trkpt lat="44.11625" lon="5.30934">
        <ele>1038.1999511719</ele>
        <time>2014-09-20T12:07:48.000Z</time>
      </trkpt>
      <trkpt lat="44.11623" lon="5.30912">
        <ele>1038.8000488281</ele>
        <time>2014-09-20T12:07:54.000Z</time>
      </trkpt>
      <trkpt lat="44.1162" lon="5.30887">
        <ele>1039.1999511719</ele>
        <time>2014-09-20T12:08:02.000Z</time>
      </trkpt>
      <trkpt lat="44.11617" lon="5.30853">
        <ele>1039</ele>
        <time>2014-09-20T12:08:13.000Z</time>
      </trkpt>
      <trkpt lat="44.11615" lon="5.30845">
        <ele>1039.1999511719</ele>
        <time>2014-09-20T12:08:15.000Z</time>
      </trkpt>
      <trkpt lat="44.11608" lon="5.30817">
        <ele>1039</ele>
        <time>2014-09-20T12:08:26.000Z</time>
      </trkpt>
      <trkpt lat="44.11603" lon="5.30812">
        <ele>1038.5999755859</ele>
        <time>2014-09-20T12:08:30.000Z</time>
      </trkpt>
      <trkpt lat="44.116" lon="5.30803">
        <ele>1038.1999511719</ele>
        <time>2014-09-20T12:08:35.000Z</time>
      </trkpt>
      <trkpt lat="44.116" lon="5.30798">
        <ele>1038.1999511719</ele>
        <time>2014-09-20T12:08:37.000Z</time>
      </trkpt>
      <trkpt lat="44.116" lon="5.30788">
        <ele>1038.4000244141</ele>
        <time>2014-09-20T12:08:42.000Z</time>
      </trkpt>
      <trkpt lat="44.11598" lon="5.30777">
        <ele>1038.1999511719</ele>
        <time>2014-09-20T12:08:51.000Z</time>
      </trkpt>
      <trkpt lat="44.11598" lon="5.30772">
        <ele>1038.1999511719</ele>
        <time>2014-09-20T12:08:53.000Z</time>
      </trkpt>
      <trkpt lat="44.11598" lon="5.30756">
        <ele>1038.1999511719</ele>
        <time>2014-09-20T12:08:59.000Z</time>
      </trkpt>
      <trkpt lat="44.11601" lon="5.30744">
        <ele>1038.4000244141</ele>
        <time>2014-09-20T12:09:09.000Z</time>
      </trkpt>
      <trkpt lat="44.11599" lon="5.30735">
        <ele>1038.4000244141</ele>
        <time>2014-09-20T12:09:13.000Z</time>
      </trkpt>
      <trkpt lat="44.11591" lon="5.30716">
        <ele>1037.8000488281</ele>
        <time>2014-09-20T12:09:21.000Z</time>
      </trkpt>
      <trkpt lat="44.1159" lon="5.30706">
        <ele>1038</ele>
        <time>2014-09-20T12:09:26.000Z</time>
      </trkpt>
      <trkpt lat="44.11583" lon="5.30695">
        <ele>1038</ele>
        <time>2014-09-20T12:09:36.000Z</time>
      </trkpt>
      <trkpt lat="44.11582" lon="5.30681">
        <ele>1038.4000244141</ele>
        <time>2014-09-20T12:09:53.000Z</time>
      </trkpt>
      <trkpt lat="44.11575" lon="5.30663">
        <ele>1038.4000244141</ele>
        <time>2014-09-20T12:10:01.000Z</time>
      </trkpt>
      <trkpt lat="44.11574" lon="5.30637">
        <ele>1038.5999755859</ele>
        <time>2014-09-20T12:10:10.000Z</time>
      </trkpt>
      <trkpt lat="44.1157" lon="5.30623">
        <ele>1039.1999511719</ele>
        <time>2014-09-20T12:10:15.000Z</time>
      </trkpt>
      <trkpt lat="44.11567" lon="5.30609">
        <ele>1040.4000244141</ele>
        <time>2014-09-20T12:10:21.000Z</time>
      </trkpt>
      <trkpt lat="44.1155" lon="5.30597">
        <ele>1041</ele>
        <time>2014-09-20T12:10:30.000Z</time>
      </trkpt>
      <trkpt lat="44.11539" lon="5.30575">
        <ele>1042.5999755859</ele>
        <time>2014-09-20T12:10:38.000Z</time>
      </trkpt>
      <trkpt lat="44.1154" lon="5.30566">
        <ele>1043.5999755859</ele>
        <time>2014-09-20T12:10:41.000Z</time>
      </trkpt>
      <trkpt lat="44.1154" lon="5.30553">
        <ele>1044.4000244141</ele>
        <time>2014-09-20T12:10:45.000Z</time>
      </trkpt>
      <trkpt lat="44.11545" lon="5.30543">
        <ele>1044.4000244141</ele>
        <time>2014-09-20T12:11:01.000Z</time>
      </trkpt>
      <trkpt lat="44.11546" lon="5.30545">
        <ele>1044.4000244141</ele>
        <time>2014-09-20T12:11:27.000Z</time>
      </trkpt>
      <trkpt lat="44.1154" lon="5.30546">
        <ele>1044.5999755859</ele>
        <time>2014-09-20T12:11:55.000Z</time>
      </trkpt>
      <trkpt lat="44.11538" lon="5.30547">
        <ele>1044.5999755859</ele>
        <time>2014-09-20T12:12:24.000Z</time>
      </trkpt>
      <trkpt lat="44.11541" lon="5.30546">
        <ele>1044.5999755859</ele>
        <time>2014-09-20T12:12:28.000Z</time>
      </trkpt>
      <trkpt lat="44.11543" lon="5.30541">
        <ele>1044.5999755859</ele>
        <time>2014-09-20T12:13:01.000Z</time>
      </trkpt>
      <trkpt lat="44.11541" lon="5.30547">
        <ele>1044.5999755859</ele>
        <time>2014-09-20T12:13:28.000Z</time>
      </trkpt>
      <trkpt lat="44.1154" lon="5.30539">
        <ele>1044.5999755859</ele>
        <time>2014-09-20T12:13:47.000Z</time>
      </trkpt>
      <trkpt lat="44.11542" lon="5.30534">
        <ele>1044.5999755859</ele>
        <time>2014-09-20T12:13:51.000Z</time>
      </trkpt>
      <trkpt lat="44.11548" lon="5.30525">
        <ele>1044.5999755859</ele>
        <time>2014-09-20T12:13:56.000Z</time>
      </trkpt>
      <trkpt lat="44.11563" lon="5.30515">
        <ele>1044</ele>
        <time>2014-09-20T12:14:03.000Z</time>
      </trkpt>
      <trkpt lat="44.1157" lon="5.30511">
        <ele>1043.8000488281</ele>
        <time>2014-09-20T12:14:06.000Z</time>
      </trkpt>
      <trkpt lat="44.11574" lon="5.30508">
        <ele>1043.8000488281</ele>
        <time>2014-09-20T12:14:11.000Z</time>
      </trkpt>
      <trkpt lat="44.11579" lon="5.30498">
        <ele>1043.1999511719</ele>
        <time>2014-09-20T12:14:26.000Z</time>
      </trkpt>
      <trkpt lat="44.1158" lon="5.30493">
        <ele>1043.1999511719</ele>
        <time>2014-09-20T12:14:28.000Z</time>
      </trkpt>
      <trkpt lat="44.11582" lon="5.30483">
        <ele>1043</ele>
        <time>2014-09-20T12:14:37.000Z</time>
      </trkpt>
      <trkpt lat="44.11582" lon="5.3048">
        <ele>1042.8000488281</ele>
        <time>2014-09-20T12:14:39.000Z</time>
      </trkpt>
      <trkpt lat="44.11584" lon="5.30452">
        <ele>1041.5999755859</ele>
        <time>2014-09-20T12:14:49.000Z</time>
      </trkpt>
      <trkpt lat="44.11585" lon="5.30448">
        <ele>1041.1999511719</ele>
        <time>2014-09-20T12:14:51.000Z</time>
      </trkpt>
      <trkpt lat="44.1159" lon="5.30428">
        <ele>1040</ele>
        <time>2014-09-20T12:15:04.000Z</time>
      </trkpt>
      <trkpt lat="44.11591" lon="5.30412">
        <ele>1039.4000244141</ele>
        <time>2014-09-20T12:15:09.000Z</time>
      </trkpt>
      <trkpt lat="44.11591" lon="5.30397">
        <ele>1038.8000488281</ele>
        <time>2014-09-20T12:15:14.000Z</time>
      </trkpt>
      <trkpt lat="44.11592" lon="5.30382">
        <ele>1038.1999511719</ele>
        <time>2014-09-20T12:15:24.000Z</time>
      </trkpt>
      <trkpt lat="44.11593" lon="5.30378">
        <ele>1038</ele>
        <time>2014-09-20T12:15:30.000Z</time>
      </trkpt>
      <trkpt lat="44.11597" lon="5.30367">
        <ele>1037</ele>
        <time>2014-09-20T12:15:34.000Z</time>
      </trkpt>
      <trkpt lat="44.11593" lon="5.30345">
        <ele>1035.4000244141</ele>
        <time>2014-09-20T12:15:40.000Z</time>
      </trkpt>
      <trkpt lat="44.11587" lon="5.30317">
        <ele>1033.4000244141</ele>
        <time>2014-09-20T12:15:49.000Z</time>
      </trkpt>
      <trkpt lat="44.11585" lon="5.30313">
        <ele>1033.1999511719</ele>
        <time>2014-09-20T12:16:15.000Z</time>
      </trkpt>
      <trkpt lat="44.11579" lon="5.30309">
        <ele>1032.8000488281</ele>
        <time>2014-09-20T12:16:43.000Z</time>
      </trkpt>
      <trkpt lat="44.11578" lon="5.30305">
        <ele>1032.5999755859</ele>
        <time>2014-09-20T12:16:50.000Z</time>
      </trkpt>
      <trkpt lat="44.11574" lon="5.30282">
        <ele>1031</ele>
        <time>2014-09-20T12:17:00.000Z</time>
      </trkpt>
      <trkpt lat="44.11575" lon="5.30268">
        <ele>1030</ele>
        <time>2014-09-20T12:17:04.000Z</time>
      </trkpt>
      <trkpt lat="44.11573" lon="5.30259">
        <ele>1029.1999511719</ele>
        <time>2014-09-20T12:17:07.000Z</time>
      </trkpt>
      <trkpt lat="44.11567" lon="5.30238">
        <ele>1027</ele>
        <time>2014-09-20T12:17:14.000Z</time>
      </trkpt>
      <trkpt lat="44.11564" lon="5.30227">
        <ele>1026</ele>
        <time>2014-09-20T12:17:18.000Z</time>
      </trkpt>
      <trkpt lat="44.11564" lon="5.30206">
        <ele>1024</ele>
        <time>2014-09-20T12:17:22.000Z</time>
      </trkpt>
      <trkpt lat="44.11566" lon="5.30195">
        <ele>1023.4000244141</ele>
        <time>2014-09-20T12:17:25.000Z</time>
      </trkpt>
      <trkpt lat="44.11572" lon="5.30176">
        <ele>1022.5999755859</ele>
        <time>2014-09-20T12:17:33.000Z</time>
      </trkpt>
      <trkpt lat="44.11567" lon="5.30152">
        <ele>1019.799987793</ele>
        <time>2014-09-20T12:17:40.000Z</time>
      </trkpt>
      <trkpt lat="44.11567" lon="5.3015">
        <ele>1019.200012207</ele>
        <time>2014-09-20T12:17:41.000Z</time>
      </trkpt>
      <trkpt lat="44.11568" lon="5.30136">
        <ele>1017</ele>
        <time>2014-09-20T12:17:46.000Z</time>
      </trkpt>
      <trkpt lat="44.11569" lon="5.30126">
        <ele>1015.799987793</ele>
        <time>2014-09-20T12:17:49.000Z</time>
      </trkpt>
      <trkpt lat="44.11564" lon="5.301">
        <ele>1015</ele>
        <time>2014-09-20T12:17:59.000Z</time>
      </trkpt>
      <trkpt lat="44.11565" lon="5.30097">
        <ele>1014.5999755859</ele>
        <time>2014-09-20T12:18:18.000Z</time>
      </trkpt>
      <trkpt lat="44.11565" lon="5.30094">
        <ele>1014.4000244141</ele>
        <time>2014-09-20T12:18:38.000Z</time>
      </trkpt>
      <trkpt lat="44.11566" lon="5.30092">
        <ele>1014.200012207</ele>
        <time>2014-09-20T12:18:55.000Z</time>
      </trkpt>
      <trkpt lat="44.11565" lon="5.30087">
        <ele>1014</ele>
        <time>2014-09-20T12:18:57.000Z</time>
      </trkpt>
      <trkpt lat="44.11567" lon="5.30074">
        <ele>1011.799987793</ele>
        <time>2014-09-20T12:19:01.000Z</time>
      </trkpt>
      <trkpt lat="44.11565" lon="5.30052">
        <ele>1008.5999755859</ele>
        <time>2014-09-20T12:19:08.000Z</time>
      </trkpt>
      <trkpt lat="44.11564" lon="5.3002">
        <ele>1004.799987793</ele>
        <time>2014-09-20T12:19:18.000Z</time>
      </trkpt>
      <trkpt lat="44.11564" lon="5.30017">
        <ele>1004.4000244141</ele>
        <time>2014-09-20T12:19:19.000Z</time>
      </trkpt>
      <trkpt lat="44.11566" lon="5.29998">
        <ele>1001</ele>
        <time>2014-09-20T12:19:26.000Z</time>
      </trkpt>
      <trkpt lat="44.11563" lon="5.29972">
        <ele>997</ele>
        <time>2014-09-20T12:19:33.000Z</time>
      </trkpt>
      <trkpt lat="44.11562" lon="5.29968">
        <ele>996.59997558594</ele>
        <time>2014-09-20T12:19:34.000Z</time>
      </trkpt>
      <trkpt lat="44.11556" lon="5.2994">
        <ele>992.79998779297</ele>
        <time>2014-09-20T12:19:41.000Z</time>
      </trkpt>
      <trkpt lat="44.11551" lon="5.29924">
        <ele>990.59997558594</ele>
        <time>2014-09-20T12:19:46.000Z</time>
      </trkpt>
      <trkpt lat="44.11544" lon="5.29904">
        <ele>988.59997558594</ele>
        <time>2014-09-20T12:19:52.000Z</time>
      </trkpt>
      <trkpt lat="44.1154" lon="5.29896">
        <ele>988.20001220703</ele>
        <time>2014-09-20T12:19:55.000Z</time>
      </trkpt>
      <trkpt lat="44.11539" lon="5.29886">
        <ele>986.59997558594</ele>
        <time>2014-09-20T12:19:58.000Z</time>
      </trkpt>
      <trkpt lat="44.11531" lon="5.29864">
        <ele>985</ele>
        <time>2014-09-20T12:20:04.000Z</time>
      </trkpt>
      <trkpt lat="44.11526" lon="5.29853">
        <ele>984.59997558594</ele>
        <time>2014-09-20T12:20:09.000Z</time>
      </trkpt>
      <trkpt lat="44.1152" lon="5.29832">
        <ele>981.40002441406</ele>
        <time>2014-09-20T12:20:16.000Z</time>
      </trkpt>
      <trkpt lat="44.11522" lon="5.29827">
        <ele>980.40002441406</ele>
        <time>2014-09-20T12:20:18.000Z</time>
      </trkpt>
      <trkpt lat="44.11523" lon="5.2982">
        <ele>979</ele>
        <time>2014-09-20T12:20:22.000Z</time>
      </trkpt>
      <trkpt lat="44.11519" lon="5.29792">
        <ele>975</ele>
        <time>2014-09-20T12:20:30.000Z</time>
      </trkpt>
      <trkpt lat="44.11517" lon="5.29768">
        <ele>971</ele>
        <time>2014-09-20T12:20:36.000Z</time>
      </trkpt>
      <trkpt lat="44.11515" lon="5.29753">
        <ele>968.59997558594</ele>
        <time>2014-09-20T12:20:40.000Z</time>
      </trkpt>
      <trkpt lat="44.1151" lon="5.29737">
        <ele>966.20001220703</ele>
        <time>2014-09-20T12:20:44.000Z</time>
      </trkpt>
      <trkpt lat="44.11507" lon="5.2973">
        <ele>965.40002441406</ele>
        <time>2014-09-20T12:20:46.000Z</time>
      </trkpt>
      <trkpt lat="44.11504" lon="5.29721">
        <ele>964.20001220703</ele>
        <time>2014-09-20T12:20:50.000Z</time>
      </trkpt>
      <trkpt lat="44.11504" lon="5.2972">
        <ele>964</ele>
        <time>2014-09-20T12:20:53.000Z</time>
      </trkpt>
      <trkpt lat="44.11503" lon="5.29707">
        <ele>962.20001220703</ele>
        <time>2014-09-20T12:21:16.000Z</time>
      </trkpt>
      <trkpt lat="44.11507" lon="5.29707">
        <ele>961.59997558594</ele>
        <time>2014-09-20T12:21:41.000Z</time>
      </trkpt>
      <trkpt lat="44.11507" lon="5.29706">
        <ele>961.59997558594</ele>
        <time>2014-09-20T12:22:13.000Z</time>
      </trkpt>
      <trkpt lat="44.11506" lon="5.29704">
        <ele>961.59997558594</ele>
        <time>2014-09-20T12:22:48.000Z</time>
      </trkpt>
      <trkpt lat="44.11504" lon="5.29703">
        <ele>961.59997558594</ele>
        <time>2014-09-20T12:23:10.000Z</time>
      </trkpt>
      <trkpt lat="44.11505" lon="5.29693">
        <ele>960.59997558594</ele>
        <time>2014-09-20T12:23:29.000Z</time>
      </trkpt>
      <trkpt lat="44.11499" lon="5.29682">
        <ele>960.40002441406</ele>
        <time>2014-09-20T12:23:49.000Z</time>
      </trkpt>
      <trkpt lat="44.11494" lon="5.29673">
        <ele>960.20001220703</ele>
        <time>2014-09-20T12:24:06.000Z</time>
      </trkpt>
      <trkpt lat="44.11489" lon="5.29668">
        <ele>960.59997558594</ele>
        <time>2014-09-20T12:24:25.000Z</time>
      </trkpt>
      <trkpt lat="44.1148" lon="5.29661">
        <ele>961.59997558594</ele>
        <time>2014-09-20T12:24:41.000Z</time>
      </trkpt>
      <trkpt lat="44.11466" lon="5.29653">
        <ele>963.40002441406</ele>
        <time>2014-09-20T12:25:01.000Z</time>
      </trkpt>
      <trkpt lat="44.11464" lon="5.29651">
        <ele>963.59997558594</ele>
        <time>2014-09-20T12:25:03.000Z</time>
      </trkpt>
      <trkpt lat="44.11447" lon="5.2964">
        <ele>965.40002441406</ele>
        <time>2014-09-20T12:25:22.000Z</time>
      </trkpt>
      <trkpt lat="44.11435" lon="5.29636">
        <ele>965.20001220703</ele>
        <time>2014-09-20T12:25:37.000Z</time>
      </trkpt>
      <trkpt lat="44.11423" lon="5.29625">
        <ele>963.79998779297</ele>
        <time>2014-09-20T12:25:43.000Z</time>
      </trkpt>
      <trkpt lat="44.11414" lon="5.29621">
        <ele>963.20001220703</ele>
        <time>2014-09-20T12:25:55.000Z</time>
      </trkpt>
      <trkpt lat="44.11408" lon="5.2962">
        <ele>963</ele>
        <time>2014-09-20T12:26:01.000Z</time>
      </trkpt>
      <trkpt lat="44.11392" lon="5.2962">
        <ele>962.40002441406</ele>
        <time>2014-09-20T12:26:19.000Z</time>
      </trkpt>
      <trkpt lat="44.1139" lon="5.2962">
        <ele>962.40002441406</ele>
        <time>2014-09-20T12:26:21.000Z</time>
      </trkpt>
      <trkpt lat="44.11369" lon="5.29627">
        <ele>962.20001220703</ele>
        <time>2014-09-20T12:26:31.000Z</time>
      </trkpt>
      <trkpt lat="44.11351" lon="5.29634">
        <ele>960.79998779297</ele>
        <time>2014-09-20T12:26:41.000Z</time>
      </trkpt>
      <trkpt lat="44.11333" lon="5.29634">
        <ele>958.40002441406</ele>
        <time>2014-09-20T12:26:47.000Z</time>
      </trkpt>
      <trkpt lat="44.11325" lon="5.29635">
        <ele>957.20001220703</ele>
        <time>2014-09-20T12:26:50.000Z</time>
      </trkpt>
      <trkpt lat="44.11297" lon="5.29629">
        <ele>952.79998779297</ele>
        <time>2014-09-20T12:27:01.000Z</time>
      </trkpt>
      <trkpt lat="44.1128" lon="5.29626">
        <ele>950.20001220703</ele>
        <time>2014-09-20T12:27:07.000Z</time>
      </trkpt>
      <trkpt lat="44.11269" lon="5.29624">
        <ele>948.59997558594</ele>
        <time>2014-09-20T12:27:12.000Z</time>
      </trkpt>
      <trkpt lat="44.11251" lon="5.29625">
        <ele>945.59997558594</ele>
        <time>2014-09-20T12:27:18.000Z</time>
      </trkpt>
      <trkpt lat="44.11228" lon="5.29624">
        <ele>941.59997558594</ele>
        <time>2014-09-20T12:27:26.000Z</time>
      </trkpt>
      <trkpt lat="44.11228" lon="5.29625">
        <ele>941.59997558594</ele>
        <time>2014-09-20T12:27:35.000Z</time>
      </trkpt>
      <trkpt lat="44.11228" lon="5.29628">
        <ele>941.79998779297</ele>
        <time>2014-09-20T12:27:59.000Z</time>
      </trkpt>
      <trkpt lat="44.11229" lon="5.29629">
        <ele>941.79998779297</ele>
        <time>2014-09-20T12:28:31.000Z</time>
      </trkpt>
      <trkpt lat="44.11229" lon="5.29629">
        <ele>941.79998779297</ele>
        <time>2014-09-20T12:28:36.000Z</time>
      </trkpt>
      <trkpt lat="44.11222" lon="5.29635">
        <ele>941</ele>
        <time>2014-09-20T12:28:41.000Z</time>
      </trkpt>
      <trkpt lat="44.1121" lon="5.29682">
        <ele>944.59997558594</ele>
        <time>2014-09-20T12:28:56.000Z</time>
      </trkpt>
      <trkpt lat="44.11193" lon="5.29707">
        <ele>946.20001220703</ele>
        <time>2014-09-20T12:29:03.000Z</time>
      </trkpt>
      <trkpt lat="44.11176" lon="5.29726">
        <ele>948.40002441406</ele>
        <time>2014-09-20T12:29:10.000Z</time>
      </trkpt>
      <trkpt lat="44.11173" lon="5.29724">
        <ele>948</ele>
        <time>2014-09-20T12:29:13.000Z</time>
      </trkpt>
      <trkpt lat="44.11178" lon="5.29705">
        <ele>945.79998779297</ele>
        <time>2014-09-20T12:29:21.000Z</time>
      </trkpt>
      <trkpt lat="44.11183" lon="5.29661">
        <ele>940</ele>
        <time>2014-09-20T12:29:29.000Z</time>
      </trkpt>
      <trkpt lat="44.11166" lon="5.29637">
        <ele>937</ele>
        <time>2014-09-20T12:29:37.000Z</time>
      </trkpt>
      <trkpt lat="44.11164" lon="5.29635">
        <ele>936.79998779297</ele>
        <time>2014-09-20T12:29:38.000Z</time>
      </trkpt>
      <trkpt lat="44.11153" lon="5.29623">
        <ele>935</ele>
        <time>2014-09-20T12:29:43.000Z</time>
      </trkpt>
      <trkpt lat="44.11149" lon="5.29612">
        <ele>933.59997558594</ele>
        <time>2014-09-20T12:29:45.000Z</time>
      </trkpt>
      <trkpt lat="44.11139" lon="5.29584">
        <ele>930</ele>
        <time>2014-09-20T12:29:50.000Z</time>
      </trkpt>
      <trkpt lat="44.11112" lon="5.29554">
        <ele>926</ele>
        <time>2014-09-20T12:29:58.000Z</time>
      </trkpt>
      <trkpt lat="44.11102" lon="5.29545">
        <ele>925</ele>
        <time>2014-09-20T12:30:02.000Z</time>
      </trkpt>
      <trkpt lat="44.11096" lon="5.29541">
        <ele>924.59997558594</ele>
        <time>2014-09-20T12:30:13.000Z</time>
      </trkpt>
      <trkpt lat="44.11093" lon="5.29545">
        <ele>925.20001220703</ele>
        <time>2014-09-20T12:30:40.000Z</time>
      </trkpt>
      <trkpt lat="44.11081" lon="5.29532">
        <ele>923.59997558594</ele>
        <time>2014-09-20T12:30:47.000Z</time>
      </trkpt>
      <trkpt lat="44.11067" lon="5.29521">
        <ele>922.40002441406</ele>
        <time>2014-09-20T12:30:53.000Z</time>
      </trkpt>
      <trkpt lat="44.11041" lon="5.29474">
        <ele>916.40002441406</ele>
        <time>2014-09-20T12:31:03.000Z</time>
      </trkpt>
      <trkpt lat="44.11028" lon="5.29439">
        <ele>912.79998779297</ele>
        <time>2014-09-20T12:31:10.000Z</time>
      </trkpt>
      <trkpt lat="44.11027" lon="5.29434">
        <ele>912.20001220703</ele>
        <time>2014-09-20T12:31:15.000Z</time>
      </trkpt>
      <trkpt lat="44.11021" lon="5.2942">
        <ele>910.59997558594</ele>
        <time>2014-09-20T12:31:20.000Z</time>
      </trkpt>
      <trkpt lat="44.11019" lon="5.29405">
        <ele>909.20001220703</ele>
        <time>2014-09-20T12:31:23.000Z</time>
      </trkpt>
      <trkpt lat="44.11013" lon="5.29354">
        <ele>904.20001220703</ele>
        <time>2014-09-20T12:31:30.000Z</time>
      </trkpt>
      <trkpt lat="44.11016" lon="5.29326">
        <ele>902</ele>
        <time>2014-09-20T12:31:34.000Z</time>
      </trkpt>
      <trkpt lat="44.11015" lon="5.29279">
        <ele>897.59997558594</ele>
        <time>2014-09-20T12:31:43.000Z</time>
      </trkpt>
      <trkpt lat="44.10999" lon="5.2923">
        <ele>892.40002441406</ele>
        <time>2014-09-20T12:31:55.000Z</time>
      </trkpt>
      <trkpt lat="44.10982" lon="5.29196">
        <ele>888.79998779297</ele>
        <time>2014-09-20T12:32:05.000Z</time>
      </trkpt>
      <trkpt lat="44.10955" lon="5.29162">
        <ele>884.79998779297</ele>
        <time>2014-09-20T12:32:15.000Z</time>
      </trkpt>
      <trkpt lat="44.10951" lon="5.29156">
        <ele>884</ele>
        <time>2014-09-20T12:32:18.000Z</time>
      </trkpt>
      <trkpt lat="44.1095" lon="5.29153">
        <ele>883.79998779297</ele>
        <time>2014-09-20T12:32:19.000Z</time>
      </trkpt>
      <trkpt lat="44.1095" lon="5.29151">
        <ele>883.79998779297</ele>
        <time>2014-09-20T12:32:20.000Z</time>
      </trkpt>
      <trkpt lat="44.10951" lon="5.2915">
        <ele>883.59997558594</ele>
        <time>2014-09-20T12:32:21.000Z</time>
      </trkpt>
      <trkpt lat="44.10951" lon="5.29147">
        <ele>883.59997558594</ele>
        <time>2014-09-20T12:32:22.000Z</time>
      </trkpt>
      <trkpt lat="44.10952" lon="5.29146">
        <ele>883.59997558594</ele>
        <time>2014-09-20T12:32:23.000Z</time>
      </trkpt>
      <trkpt lat="44.10953" lon="5.29144">
        <ele>883.59997558594</ele>
        <time>2014-09-20T12:32:24.000Z</time>
      </trkpt>
      <trkpt lat="44.10954" lon="5.29143">
        <ele>883.59997558594</ele>
        <time>2014-09-20T12:32:25.000Z</time>
      </trkpt>
      <trkpt lat="44.10955" lon="5.29142">
        <ele>883.59997558594</ele>
        <time>2014-09-20T12:32:39.000Z</time>
      </trkpt>
      <trkpt lat="44.10954" lon="5.29144">
        <ele>883.59997558594</ele>
        <time>2014-09-20T12:33:10.000Z</time>
      </trkpt>
      <trkpt lat="44.10953" lon="5.29137">
        <ele>883.20001220703</ele>
        <time>2014-09-20T12:33:18.000Z</time>
      </trkpt>
      <trkpt lat="44.10952" lon="5.29134">
        <ele>883.20001220703</ele>
        <time>2014-09-20T12:33:19.000Z</time>
      </trkpt>
      <trkpt lat="44.10952" lon="5.29131">
        <ele>883.20001220703</ele>
        <time>2014-09-20T12:33:20.000Z</time>
      </trkpt>
      <trkpt lat="44.10952" lon="5.29129">
        <ele>883.20001220703</ele>
        <time>2014-09-20T12:33:21.000Z</time>
      </trkpt>
      <trkpt lat="44.10953" lon="5.29126">
        <ele>883.59997558594</ele>
        <time>2014-09-20T12:33:22.000Z</time>
      </trkpt>
      <trkpt lat="44.10955" lon="5.29124">
        <ele>883.79998779297</ele>
        <time>2014-09-20T12:33:23.000Z</time>
      </trkpt>
      <trkpt lat="44.10957" lon="5.29122">
        <ele>884</ele>
        <time>2014-09-20T12:33:24.000Z</time>
      </trkpt>
      <trkpt lat="44.10958" lon="5.2912">
        <ele>884.40002441406</ele>
        <time>2014-09-20T12:33:25.000Z</time>
      </trkpt>
      <trkpt lat="44.10959" lon="5.29119">
        <ele>884.59997558594</ele>
        <time>2014-09-20T12:33:26.000Z</time>
      </trkpt>
      <trkpt lat="44.1096" lon="5.29117">
        <ele>884.59997558594</ele>
        <time>2014-09-20T12:33:27.000Z</time>
      </trkpt>
      <trkpt lat="44.1096" lon="5.29114">
        <ele>884.79998779297</ele>
        <time>2014-09-20T12:33:28.000Z</time>
      </trkpt>
      <trkpt lat="44.1096" lon="5.29112">
        <ele>884.79998779297</ele>
        <time>2014-09-20T12:33:29.000Z</time>
      </trkpt>
      <trkpt lat="44.1096" lon="5.29109">
        <ele>884.79998779297</ele>
        <time>2014-09-20T12:33:30.000Z</time>
      </trkpt>
      <trkpt lat="44.1096" lon="5.29107">
        <ele>885</ele>
        <time>2014-09-20T12:33:31.000Z</time>
      </trkpt>
      <trkpt lat="44.10961" lon="5.29105">
        <ele>885.20001220703</ele>
        <time>2014-09-20T12:33:32.000Z</time>
      </trkpt>
      <trkpt lat="44.10962" lon="5.29103">
        <ele>885.40002441406</ele>
        <time>2014-09-20T12:33:33.000Z</time>
      </trkpt>
      <trkpt lat="44.10964" lon="5.29101">
        <ele>885.59997558594</ele>
        <time>2014-09-20T12:33:34.000Z</time>
      </trkpt>
      <trkpt lat="44.10965" lon="5.291">
        <ele>885.79998779297</ele>
        <time>2014-09-20T12:33:35.000Z</time>
      </trkpt>
      <trkpt lat="44.10967" lon="5.29098">
        <ele>886.20001220703</ele>
        <time>2014-09-20T12:33:36.000Z</time>
      </trkpt>
      <trkpt lat="44.10968" lon="5.29097">
        <ele>886.40002441406</ele>
        <time>2014-09-20T12:33:37.000Z</time>
      </trkpt>
      <trkpt lat="44.10978" lon="5.29084">
        <ele>888</ele>
        <time>2014-09-20T12:33:45.000Z</time>
      </trkpt>
      <trkpt lat="44.10984" lon="5.29052">
        <ele>889.79998779297</ele>
        <time>2014-09-20T12:33:58.000Z</time>
      </trkpt>
      <trkpt lat="44.10982" lon="5.29031">
        <ele>889.40002441406</ele>
        <time>2014-09-20T12:34:03.000Z</time>
      </trkpt>
      <trkpt lat="44.10985" lon="5.29023">
        <ele>889.59997558594</ele>
        <time>2014-09-20T12:34:05.000Z</time>
      </trkpt>
      <trkpt lat="44.10987" lon="5.29019">
        <ele>890</ele>
        <time>2014-09-20T12:34:06.000Z</time>
      </trkpt>
      <trkpt lat="44.10989" lon="5.29016">
        <ele>890.20001220703</ele>
        <time>2014-09-20T12:34:07.000Z</time>
      </trkpt>
      <trkpt lat="44.11009" lon="5.28983">
        <ele>891</ele>
        <time>2014-09-20T12:34:19.000Z</time>
      </trkpt>
      <trkpt lat="44.11024" lon="5.28944">
        <ele>892</ele>
        <time>2014-09-20T12:34:33.000Z</time>
      </trkpt>
      <trkpt lat="44.11037" lon="5.28923">
        <ele>893.59997558594</ele>
        <time>2014-09-20T12:34:46.000Z</time>
      </trkpt>
      <trkpt lat="44.11042" lon="5.28915">
        <ele>894.40002441406</ele>
        <time>2014-09-20T12:34:50.000Z</time>
      </trkpt>
      <trkpt lat="44.1105" lon="5.2891">
        <ele>895.40002441406</ele>
        <time>2014-09-20T12:34:55.000Z</time>
      </trkpt>
      <trkpt lat="44.11054" lon="5.28898">
        <ele>895.79998779297</ele>
        <time>2014-09-20T12:35:01.000Z</time>
      </trkpt>
      <trkpt lat="44.11057" lon="5.28896">
        <ele>896</ele>
        <time>2014-09-20T12:35:03.000Z</time>
      </trkpt>
      <trkpt lat="44.11062" lon="5.28894">
        <ele>896.20001220703</ele>
        <time>2014-09-20T12:35:06.000Z</time>
      </trkpt>
      <trkpt lat="44.11067" lon="5.28889">
        <ele>896.59997558594</ele>
        <time>2014-09-20T12:35:11.000Z</time>
      </trkpt>
      <trkpt lat="44.11071" lon="5.28885">
        <ele>896.79998779297</ele>
        <time>2014-09-20T12:35:14.000Z</time>
      </trkpt>
      <trkpt lat="44.11079" lon="5.28871">
        <ele>897.79998779297</ele>
        <time>2014-09-20T12:35:25.000Z</time>
      </trkpt>
      <trkpt lat="44.11079" lon="5.28863">
        <ele>898.20001220703</ele>
        <time>2014-09-20T12:35:39.000Z</time>
      </trkpt>
      <trkpt lat="44.11079" lon="5.28862">
        <ele>898.20001220703</ele>
        <time>2014-09-20T12:36:04.000Z</time>
      </trkpt>
      <trkpt lat="44.11079" lon="5.28862">
        <ele>898.20001220703</ele>
        <time>2014-09-20T12:36:32.000Z</time>
      </trkpt>
      <trkpt lat="44.11079" lon="5.28861">
        <ele>898.20001220703</ele>
        <time>2014-09-20T12:36:52.000Z</time>
      </trkpt>
      <trkpt lat="44.11079" lon="5.2886">
        <ele>898.20001220703</ele>
        <time>2014-09-20T12:37:14.000Z</time>
      </trkpt>
      <trkpt lat="44.11076" lon="5.28857">
        <ele>898.20001220703</ele>
        <time>2014-09-20T12:37:37.000Z</time>
      </trkpt>
      <trkpt lat="44.11074" lon="5.28851">
        <ele>898.20001220703</ele>
        <time>2014-09-20T12:37:50.000Z</time>
      </trkpt>
      <trkpt lat="44.11056" lon="5.28833">
        <ele>897.59997558594</ele>
        <time>2014-09-20T12:38:02.000Z</time>
      </trkpt>
      <trkpt lat="44.11035" lon="5.2881">
        <ele>897</ele>
        <time>2014-09-20T12:38:15.000Z</time>
      </trkpt>
      <trkpt lat="44.11029" lon="5.28795">
        <ele>897.40002441406</ele>
        <time>2014-09-20T12:38:27.000Z</time>
      </trkpt>
      <trkpt lat="44.11025" lon="5.2879">
        <ele>898</ele>
        <time>2014-09-20T12:38:45.000Z</time>
      </trkpt>
      <trkpt lat="44.11021" lon="5.28784">
        <ele>898.59997558594</ele>
        <time>2014-09-20T12:38:56.000Z</time>
      </trkpt>
      <trkpt lat="44.11016" lon="5.28775">
        <ele>899.59997558594</ele>
        <time>2014-09-20T12:39:01.000Z</time>
      </trkpt>
      <trkpt lat="44.11004" lon="5.28764">
        <ele>900.79998779297</ele>
        <time>2014-09-20T12:39:14.000Z</time>
      </trkpt>
      <trkpt lat="44.10998" lon="5.28762">
        <ele>900.79998779297</ele>
        <time>2014-09-20T12:39:36.000Z</time>
      </trkpt>
      <trkpt lat="44.10983" lon="5.28755">
        <ele>900.79998779297</ele>
        <time>2014-09-20T12:39:50.000Z</time>
      </trkpt>
      <trkpt lat="44.1097" lon="5.28745">
        <ele>901.59997558594</ele>
        <time>2014-09-20T12:40:08.000Z</time>
      </trkpt>
      <trkpt lat="44.10961" lon="5.28727">
        <ele>903.79998779297</ele>
        <time>2014-09-20T12:40:26.000Z</time>
      </trkpt>
      <trkpt lat="44.10958" lon="5.2872">
        <ele>904.79998779297</ele>
        <time>2014-09-20T12:40:31.000Z</time>
      </trkpt>
      <trkpt lat="44.10951" lon="5.28705">
        <ele>906</ele>
        <time>2014-09-20T12:40:46.000Z</time>
      </trkpt>
      <trkpt lat="44.10949" lon="5.28702">
        <ele>906.20001220703</ele>
        <time>2014-09-20T12:40:53.000Z</time>
      </trkpt>
      <trkpt lat="44.10946" lon="5.28698">
        <ele>906.20001220703</ele>
        <time>2014-09-20T12:40:56.000Z</time>
      </trkpt>
      <trkpt lat="44.10941" lon="5.2869">
        <ele>906.20001220703</ele>
        <time>2014-09-20T12:41:01.000Z</time>
      </trkpt>
      <trkpt lat="44.10935" lon="5.28668">
        <ele>907</ele>
        <time>2014-09-20T12:41:15.000Z</time>
      </trkpt>
      <trkpt lat="44.10935" lon="5.28667">
        <ele>907.20001220703</ele>
        <time>2014-09-20T12:41:16.000Z</time>
      </trkpt>
      <trkpt lat="44.10933" lon="5.28659">
        <ele>907.40002441406</ele>
        <time>2014-09-20T12:41:20.000Z</time>
      </trkpt>
      <trkpt lat="44.10928" lon="5.28647">
        <ele>907.40002441406</ele>
        <time>2014-09-20T12:41:31.000Z</time>
      </trkpt>
      <trkpt lat="44.10925" lon="5.28635">
        <ele>908</ele>
        <time>2014-09-20T12:41:47.000Z</time>
      </trkpt>
      <trkpt lat="44.10924" lon="5.28633">
        <ele>908</ele>
        <time>2014-09-20T12:41:49.000Z</time>
      </trkpt>
      <trkpt lat="44.10923" lon="5.2863">
        <ele>908</ele>
        <time>2014-09-20T12:41:51.000Z</time>
      </trkpt>
      <trkpt lat="44.10922" lon="5.28623">
        <ele>907.79998779297</ele>
        <time>2014-09-20T12:42:05.000Z</time>
      </trkpt>
      <trkpt lat="44.10922" lon="5.28623">
        <ele>907.79998779297</ele>
        <time>2014-09-20T12:42:28.000Z</time>
      </trkpt>
      <trkpt lat="44.10922" lon="5.28622">
        <ele>907.79998779297</ele>
        <time>2014-09-20T12:42:48.000Z</time>
      </trkpt>
      <trkpt lat="44.10923" lon="5.2862">
        <ele>908</ele>
        <time>2014-09-20T12:43:14.000Z</time>
      </trkpt>
      <trkpt lat="44.10923" lon="5.28621">
        <ele>908</ele>
        <time>2014-09-20T12:43:37.000Z</time>
      </trkpt>
      <trkpt lat="44.10923" lon="5.2862">
        <ele>908</ele>
        <time>2014-09-20T12:43:48.000Z</time>
      </trkpt>
      <trkpt lat="44.10914" lon="5.28601">
        <ele>906.40002441406</ele>
        <time>2014-09-20T12:43:55.000Z</time>
      </trkpt>
      <trkpt lat="44.10902" lon="5.28564">
        <ele>903.40002441406</ele>
        <time>2014-09-20T12:44:06.000Z</time>
      </trkpt>
      <trkpt lat="44.10894" lon="5.28541">
        <ele>901.20001220703</ele>
        <time>2014-09-20T12:44:14.000Z</time>
      </trkpt>
      <trkpt lat="44.10896" lon="5.28528">
        <ele>900.20001220703</ele>
        <time>2014-09-20T12:44:17.000Z</time>
      </trkpt>
      <trkpt lat="44.10903" lon="5.28515">
        <ele>899.59997558594</ele>
        <time>2014-09-20T12:44:20.000Z</time>
      </trkpt>
      <trkpt lat="44.10915" lon="5.28481">
        <ele>897.59997558594</ele>
        <time>2014-09-20T12:44:29.000Z</time>
      </trkpt>
      <trkpt lat="44.10922" lon="5.2847">
        <ele>897.40002441406</ele>
        <time>2014-09-20T12:44:32.000Z</time>
      </trkpt>
      <trkpt lat="44.10928" lon="5.2846">
        <ele>897</ele>
        <time>2014-09-20T12:44:35.000Z</time>
      </trkpt>
      <trkpt lat="44.10936" lon="5.28429">
        <ele>893</ele>
        <time>2014-09-20T12:44:43.000Z</time>
      </trkpt>
      <trkpt lat="44.10934" lon="5.28416">
        <ele>890.79998779297</ele>
        <time>2014-09-20T12:44:46.000Z</time>
      </trkpt>
      <trkpt lat="44.10936" lon="5.28397">
        <ele>888</ele>
        <time>2014-09-20T12:44:51.000Z</time>
      </trkpt>
      <trkpt lat="44.1094" lon="5.2837">
        <ele>884</ele>
        <time>2014-09-20T12:44:58.000Z</time>
      </trkpt>
      <trkpt lat="44.10935" lon="5.28351">
        <ele>880.20001220703</ele>
        <time>2014-09-20T12:45:03.000Z</time>
      </trkpt>
      <trkpt lat="44.10932" lon="5.28346">
        <ele>879.20001220703</ele>
        <time>2014-09-20T12:45:05.000Z</time>
      </trkpt>
      <trkpt lat="44.10938" lon="5.28327">
        <ele>876.59997558594</ele>
        <time>2014-09-20T12:45:11.000Z</time>
      </trkpt>
      <trkpt lat="44.10945" lon="5.2831">
        <ele>874.40002441406</ele>
        <time>2014-09-20T12:45:16.000Z</time>
      </trkpt>
      <trkpt lat="44.10948" lon="5.28307">
        <ele>874.20001220703</ele>
        <time>2014-09-20T12:45:17.000Z</time>
      </trkpt>
      <trkpt lat="44.10954" lon="5.283">
        <ele>873.79998779297</ele>
        <time>2014-09-20T12:45:19.000Z</time>
      </trkpt>
      <trkpt lat="44.1096" lon="5.28288">
        <ele>872.40002441406</ele>
        <time>2014-09-20T12:45:23.000Z</time>
      </trkpt>
      <trkpt lat="44.10965" lon="5.28265">
        <ele>869</ele>
        <time>2014-09-20T12:45:29.000Z</time>
      </trkpt>
      <trkpt lat="44.1097" lon="5.28248">
        <ele>866.79998779297</ele>
        <time>2014-09-20T12:45:34.000Z</time>
      </trkpt>
      <trkpt lat="44.1097" lon="5.28246">
        <ele>866.40002441406</ele>
        <time>2014-09-20T12:45:36.000Z</time>
      </trkpt>
      <trkpt lat="44.10975" lon="5.28234">
        <ele>865</ele>
        <time>2014-09-20T12:46:05.000Z</time>
      </trkpt>
      <trkpt lat="44.10971" lon="5.2823">
        <ele>863.79998779297</ele>
        <time>2014-09-20T12:46:37.000Z</time>
      </trkpt>
      <trkpt lat="44.10962" lon="5.28196">
        <ele>858.40002441406</ele>
        <time>2014-09-20T12:46:47.000Z</time>
      </trkpt>
      <trkpt lat="44.10946" lon="5.28175">
        <ele>854.59997558594</ele>
        <time>2014-09-20T12:46:55.000Z</time>
      </trkpt>
      <trkpt lat="44.10929" lon="5.2815">
        <ele>849.79998779297</ele>
        <time>2014-09-20T12:47:02.000Z</time>
      </trkpt>
      <trkpt lat="44.10915" lon="5.28123">
        <ele>845.20001220703</ele>
        <time>2014-09-20T12:47:09.000Z</time>
      </trkpt>
      <trkpt lat="44.10906" lon="5.281">
        <ele>842.20001220703</ele>
        <time>2014-09-20T12:47:15.000Z</time>
      </trkpt>
      <trkpt lat="44.10904" lon="5.28094">
        <ele>841.40002441406</ele>
        <time>2014-09-20T12:47:16.000Z</time>
      </trkpt>
      <trkpt lat="44.10883" lon="5.28066">
        <ele>836</ele>
        <time>2014-09-20T12:47:23.000Z</time>
      </trkpt>
      <trkpt lat="44.10856" lon="5.28049">
        <ele>830.59997558594</ele>
        <time>2014-09-20T12:47:31.000Z</time>
      </trkpt>
      <trkpt lat="44.10852" lon="5.28047">
        <ele>830</ele>
        <time>2014-09-20T12:47:32.000Z</time>
      </trkpt>
      <trkpt lat="44.10826" lon="5.28039">
        <ele>826.59997558594</ele>
        <time>2014-09-20T12:47:39.000Z</time>
      </trkpt>
      <trkpt lat="44.10816" lon="5.28039">
        <ele>825.40002441406</ele>
        <time>2014-09-20T12:47:41.000Z</time>
      </trkpt>
      <trkpt lat="44.10788" lon="5.28029">
        <ele>821.59997558594</ele>
        <time>2014-09-20T12:47:49.000Z</time>
      </trkpt>
      <trkpt lat="44.10784" lon="5.2803">
        <ele>821.20001220703</ele>
        <time>2014-09-20T12:47:50.000Z</time>
      </trkpt>
      <trkpt lat="44.10779" lon="5.28029">
        <ele>820.59997558594</ele>
        <time>2014-09-20T12:47:51.000Z</time>
      </trkpt>
      <trkpt lat="44.10774" lon="5.28027">
        <ele>820</ele>
        <time>2014-09-20T12:47:52.000Z</time>
      </trkpt>
      <trkpt lat="44.10764" lon="5.28021">
        <ele>818.40002441406</ele>
        <time>2014-09-20T12:47:54.000Z</time>
      </trkpt>
      <trkpt lat="44.10758" lon="5.28018">
        <ele>817.59997558594</ele>
        <time>2014-09-20T12:47:55.000Z</time>
      </trkpt>
      <trkpt lat="44.10742" lon="5.28009">
        <ele>815.20001220703</ele>
        <time>2014-09-20T12:47:58.000Z</time>
      </trkpt>
      <trkpt lat="44.10719" lon="5.28005">
        <ele>812.40002441406</ele>
        <time>2014-09-20T12:48:03.000Z</time>
      </trkpt>
      <trkpt lat="44.10715" lon="5.28003">
        <ele>812</ele>
        <time>2014-09-20T12:48:04.000Z</time>
      </trkpt>
      <trkpt lat="44.10707" lon="5.27999">
        <ele>810.79998779297</ele>
        <time>2014-09-20T12:48:06.000Z</time>
      </trkpt>
      <trkpt lat="44.10691" lon="5.2799">
        <ele>808.79998779297</ele>
        <time>2014-09-20T12:48:09.000Z</time>
      </trkpt>
      <trkpt lat="44.10686" lon="5.27989">
        <ele>807.79998779297</ele>
        <time>2014-09-20T12:48:10.000Z</time>
      </trkpt>
      <trkpt lat="44.1068" lon="5.27987">
        <ele>807</ele>
        <time>2014-09-20T12:48:11.000Z</time>
      </trkpt>
      <trkpt lat="44.10676" lon="5.27983">
        <ele>806.20001220703</ele>
        <time>2014-09-20T12:48:12.000Z</time>
      </trkpt>
      <trkpt lat="44.10672" lon="5.27977">
        <ele>805.20001220703</ele>
        <time>2014-09-20T12:48:13.000Z</time>
      </trkpt>
      <trkpt lat="44.10669" lon="5.2797">
        <ele>804.20001220703</ele>
        <time>2014-09-20T12:48:14.000Z</time>
      </trkpt>
      <trkpt lat="44.10666" lon="5.27963">
        <ele>803.40002441406</ele>
        <time>2014-09-20T12:48:15.000Z</time>
      </trkpt>
      <trkpt lat="44.10663" lon="5.27957">
        <ele>802.59997558594</ele>
        <time>2014-09-20T12:48:16.000Z</time>
      </trkpt>
      <trkpt lat="44.1066" lon="5.27952">
        <ele>802</ele>
        <time>2014-09-20T12:48:17.000Z</time>
      </trkpt>
      <trkpt lat="44.10656" lon="5.27949">
        <ele>801.20001220703</ele>
        <time>2014-09-20T12:48:18.000Z</time>
      </trkpt>
      <trkpt lat="44.10651" lon="5.27946">
        <ele>800.40002441406</ele>
        <time>2014-09-20T12:48:19.000Z</time>
      </trkpt>
      <trkpt lat="44.10646" lon="5.2794">
        <ele>799.40002441406</ele>
        <time>2014-09-20T12:48:21.000Z</time>
      </trkpt>
      <trkpt lat="44.10646" lon="5.27937">
        <ele>799.20001220703</ele>
        <time>2014-09-20T12:48:22.000Z</time>
      </trkpt>
      <trkpt lat="44.10647" lon="5.27931">
        <ele>799</ele>
        <time>2014-09-20T12:48:28.000Z</time>
      </trkpt>
      <trkpt lat="44.10642" lon="5.27932">
        <ele>798.40002441406</ele>
        <time>2014-09-20T12:48:53.000Z</time>
      </trkpt>
      <trkpt lat="44.10641" lon="5.27931">
        <ele>798</ele>
        <time>2014-09-20T12:49:14.000Z</time>
      </trkpt>
      <trkpt lat="44.10641" lon="5.27933">
        <ele>798.20001220703</ele>
        <time>2014-09-20T12:49:38.000Z</time>
      </trkpt>
      <trkpt lat="44.1064" lon="5.27929">
        <ele>798</ele>
        <time>2014-09-20T12:49:40.000Z</time>
      </trkpt>
      <trkpt lat="44.10644" lon="5.27919">
        <ele>797.79998779297</ele>
        <time>2014-09-20T12:49:44.000Z</time>
      </trkpt>
      <trkpt lat="44.10654" lon="5.2789">
        <ele>797.79998779297</ele>
        <time>2014-09-20T12:49:51.000Z</time>
      </trkpt>
      <trkpt lat="44.10653" lon="5.27863">
        <ele>796.40002441406</ele>
        <time>2014-09-20T12:49:55.000Z</time>
      </trkpt>
      <trkpt lat="44.1067" lon="5.27827">
        <ele>796.40002441406</ele>
        <time>2014-09-20T12:50:03.000Z</time>
      </trkpt>
      <trkpt lat="44.10705" lon="5.278">
        <ele>798.40002441406</ele>
        <time>2014-09-20T12:50:11.000Z</time>
      </trkpt>
      <trkpt lat="44.10768" lon="5.27776">
        <ele>801.79998779297</ele>
        <time>2014-09-20T12:50:25.000Z</time>
      </trkpt>
      <trkpt lat="44.10816" lon="5.27762">
        <ele>803.20001220703</ele>
        <time>2014-09-20T12:50:37.000Z</time>
      </trkpt>
      <trkpt lat="44.10857" lon="5.27759">
        <ele>806.20001220703</ele>
        <time>2014-09-20T12:50:50.000Z</time>
      </trkpt>
      <trkpt lat="44.10888" lon="5.27754">
        <ele>807.20001220703</ele>
        <time>2014-09-20T12:51:03.000Z</time>
      </trkpt>
      <trkpt lat="44.10889" lon="5.27752">
        <ele>807.20001220703</ele>
        <time>2014-09-20T12:51:04.000Z</time>
      </trkpt>
      <trkpt lat="44.1089" lon="5.27749">
        <ele>806.79998779297</ele>
        <time>2014-09-20T12:51:05.000Z</time>
      </trkpt>
      <trkpt lat="44.1089" lon="5.27745">
        <ele>806.59997558594</ele>
        <time>2014-09-20T12:51:06.000Z</time>
      </trkpt>
      <trkpt lat="44.10889" lon="5.2774">
        <ele>806</ele>
        <time>2014-09-20T12:51:07.000Z</time>
      </trkpt>
      <trkpt lat="44.1089" lon="5.27726">
        <ele>804.59997558594</ele>
        <time>2014-09-20T12:51:09.000Z</time>
      </trkpt>
      <trkpt lat="44.10891" lon="5.27719">
        <ele>804</ele>
        <time>2014-09-20T12:51:10.000Z</time>
      </trkpt>
      <trkpt lat="44.10894" lon="5.27714">
        <ele>803.59997558594</ele>
        <time>2014-09-20T12:51:11.000Z</time>
      </trkpt>
      <trkpt lat="44.10902" lon="5.277">
        <ele>802.59997558594</ele>
        <time>2014-09-20T12:51:17.000Z</time>
      </trkpt>
      <trkpt lat="44.10905" lon="5.27692">
        <ele>802</ele>
        <time>2014-09-20T12:51:21.000Z</time>
      </trkpt>
      <trkpt lat="44.10911" lon="5.27672">
        <ele>800.40002441406</ele>
        <time>2014-09-20T12:51:29.000Z</time>
      </trkpt>
      <trkpt lat="44.10913" lon="5.27653">
        <ele>799</ele>
        <time>2014-09-20T12:51:35.000Z</time>
      </trkpt>
      <trkpt lat="44.10913" lon="5.27647">
        <ele>798.59997558594</ele>
        <time>2014-09-20T12:51:38.000Z</time>
      </trkpt>
      <trkpt lat="44.10909" lon="5.2763">
        <ele>797</ele>
        <time>2014-09-20T12:51:43.000Z</time>
      </trkpt>
      <trkpt lat="44.10893" lon="5.276">
        <ele>794.59997558594</ele>
        <time>2014-09-20T12:51:53.000Z</time>
      </trkpt>
      <trkpt lat="44.10878" lon="5.27572">
        <ele>792.40002441406</ele>
        <time>2014-09-20T12:52:04.000Z</time>
      </trkpt>
      <trkpt lat="44.10877" lon="5.2757">
        <ele>792.20001220703</ele>
        <time>2014-09-20T12:52:05.000Z</time>
      </trkpt>
      <trkpt lat="44.10871" lon="5.27568">
        <ele>791.59997558594</ele>
        <time>2014-09-20T12:52:09.000Z</time>
      </trkpt>
      <trkpt lat="44.10853" lon="5.27536">
        <ele>789.20001220703</ele>
        <time>2014-09-20T12:52:19.000Z</time>
      </trkpt>
      <trkpt lat="44.10852" lon="5.27531">
        <ele>789</ele>
        <time>2014-09-20T12:52:20.000Z</time>
      </trkpt>
      <trkpt lat="44.10855" lon="5.27517">
        <ele>789</ele>
        <time>2014-09-20T12:52:24.000Z</time>
      </trkpt>
      <trkpt lat="44.10876" lon="5.27474">
        <ele>790.79998779297</ele>
        <time>2014-09-20T12:52:37.000Z</time>
      </trkpt>
      <trkpt lat="44.10894" lon="5.27446">
        <ele>790.79998779297</ele>
        <time>2014-09-20T12:52:46.000Z</time>
      </trkpt>
      <trkpt lat="44.10918" lon="5.27412">
        <ele>790.59997558594</ele>
        <time>2014-09-20T12:52:56.000Z</time>
      </trkpt>
      <trkpt lat="44.10932" lon="5.27394">
        <ele>790.20001220703</ele>
        <time>2014-09-20T12:53:00.000Z</time>
      </trkpt>
      <trkpt lat="44.10941" lon="5.27372">
        <ele>788.79998779297</ele>
        <time>2014-09-20T12:53:04.000Z</time>
      </trkpt>
      <trkpt lat="44.10952" lon="5.27357">
        <ele>788</ele>
        <time>2014-09-20T12:53:08.000Z</time>
      </trkpt>
      <trkpt lat="44.10959" lon="5.27353">
        <ele>788.20001220703</ele>
        <time>2014-09-20T12:53:12.000Z</time>
      </trkpt>
      <trkpt lat="44.10962" lon="5.2735">
        <ele>788.20001220703</ele>
        <time>2014-09-20T12:53:19.000Z</time>
      </trkpt>
      <trkpt lat="44.10974" lon="5.27324">
        <ele>786.20001220703</ele>
        <time>2014-09-20T12:53:29.000Z</time>
      </trkpt>
      <trkpt lat="44.11001" lon="5.27289">
        <ele>783.79998779297</ele>
        <time>2014-09-20T12:53:38.000Z</time>
      </trkpt>
      <trkpt lat="44.11032" lon="5.27246">
        <ele>780.20001220703</ele>
        <time>2014-09-20T12:53:48.000Z</time>
      </trkpt>
      <trkpt lat="44.11055" lon="5.2722">
        <ele>778.40002441406</ele>
        <time>2014-09-20T12:53:56.000Z</time>
      </trkpt>
      <trkpt lat="44.11062" lon="5.27208">
        <ele>777.79998779297</ele>
        <time>2014-09-20T12:54:07.000Z</time>
      </trkpt>
      <trkpt lat="44.11063" lon="5.27202">
        <ele>777</ele>
        <time>2014-09-20T12:54:11.000Z</time>
      </trkpt>
      <trkpt lat="44.11066" lon="5.27179">
        <ele>774.20001220703</ele>
        <time>2014-09-20T12:54:17.000Z</time>
      </trkpt>
      <trkpt lat="44.11059" lon="5.27122">
        <ele>767.20001220703</ele>
        <time>2014-09-20T12:54:28.000Z</time>
      </trkpt>
      <trkpt lat="44.11056" lon="5.27081">
        <ele>763.40002441406</ele>
        <time>2014-09-20T12:54:34.000Z</time>
      </trkpt>
      <trkpt lat="44.11041" lon="5.27028">
        <ele>758.79998779297</ele>
        <time>2014-09-20T12:54:43.000Z</time>
      </trkpt>
      <trkpt lat="44.11027" lon="5.26998">
        <ele>755.79998779297</ele>
        <time>2014-09-20T12:54:49.000Z</time>
      </trkpt>
      <trkpt lat="44.11022" lon="5.26985">
        <ele>754.79998779297</ele>
        <time>2014-09-20T12:54:51.000Z</time>
      </trkpt>
      <trkpt lat="44.10998" lon="5.26945">
        <ele>751.40002441406</ele>
        <time>2014-09-20T12:55:01.000Z</time>
      </trkpt>
      <trkpt lat="44.10988" lon="5.26933">
        <ele>750.40002441406</ele>
        <time>2014-09-20T12:55:08.000Z</time>
      </trkpt>
      <trkpt lat="44.10986" lon="5.26938">
        <ele>750</ele>
        <time>2014-09-20T12:55:16.000Z</time>
      </trkpt>
      <trkpt lat="44.11002" lon="5.26949">
        <ele>752</ele>
        <time>2014-09-20T12:55:32.000Z</time>
      </trkpt>
      <trkpt lat="44.11001" lon="5.26947">
        <ele>751.79998779297</ele>
        <time>2014-09-20T12:56:03.000Z</time>
      </trkpt>
      <trkpt lat="44.11001" lon="5.26947">
        <ele>751.79998779297</ele>
        <time>2014-09-20T12:56:31.000Z</time>
      </trkpt>
      <trkpt lat="44.11002" lon="5.26947">
        <ele>752</ele>
        <time>2014-09-20T12:56:42.000Z</time>
      </trkpt>
      <trkpt lat="44.11029" lon="5.26969">
        <ele>755.40002441406</ele>
        <time>2014-09-20T12:56:57.000Z</time>
      </trkpt>
      <trkpt lat="44.11054" lon="5.26996">
        <ele>760</ele>
        <time>2014-09-20T12:57:13.000Z</time>
      </trkpt>
      <trkpt lat="44.11076" lon="5.27022">
        <ele>764.20001220703</ele>
        <time>2014-09-20T12:57:28.000Z</time>
      </trkpt>
      <trkpt lat="44.11095" lon="5.2705">
        <ele>767.79998779297</ele>
        <time>2014-09-20T12:57:44.000Z</time>
      </trkpt>
      <trkpt lat="44.11113" lon="5.27077">
        <ele>771.40002441406</ele>
        <time>2014-09-20T12:58:00.000Z</time>
      </trkpt>
      <trkpt lat="44.11129" lon="5.27107">
        <ele>772.40002441406</ele>
        <time>2014-09-20T12:58:14.000Z</time>
      </trkpt>
      <trkpt lat="44.11136" lon="5.2714">
        <ele>773.79998779297</ele>
        <time>2014-09-20T12:58:25.000Z</time>
      </trkpt>
      <trkpt lat="44.11149" lon="5.2719">
        <ele>777.40002441406</ele>
        <time>2014-09-20T12:58:36.000Z</time>
      </trkpt>
      <trkpt lat="44.11164" lon="5.27239">
        <ele>779.40002441406</ele>
        <time>2014-09-20T12:58:46.000Z</time>
      </trkpt>
      <trkpt lat="44.11165" lon="5.27244">
        <ele>779.40002441406</ele>
        <time>2014-09-20T12:58:47.000Z</time>
      </trkpt>
      <trkpt lat="44.11172" lon="5.2728">
        <ele>780.59997558594</ele>
        <time>2014-09-20T12:58:54.000Z</time>
      </trkpt>
      <trkpt lat="44.11178" lon="5.27354">
        <ele>785.59997558594</ele>
        <time>2014-09-20T12:59:05.000Z</time>
      </trkpt>
      <trkpt lat="44.11178" lon="5.2736">
        <ele>786</ele>
        <time>2014-09-20T12:59:06.000Z</time>
      </trkpt>
      <trkpt lat="44.11189" lon="5.27416">
        <ele>788.40002441406</ele>
        <time>2014-09-20T12:59:15.000Z</time>
      </trkpt>
      <trkpt lat="44.11196" lon="5.27443">
        <ele>788.79998779297</ele>
        <time>2014-09-20T12:59:20.000Z</time>
      </trkpt>
      <trkpt lat="44.112" lon="5.27466">
        <ele>789.20001220703</ele>
        <time>2014-09-20T12:59:24.000Z</time>
      </trkpt>
      <trkpt lat="44.11208" lon="5.27504">
        <ele>788.20001220703</ele>
        <time>2014-09-20T12:59:29.000Z</time>
      </trkpt>
      <trkpt lat="44.11217" lon="5.27541">
        <ele>787.20001220703</ele>
        <time>2014-09-20T12:59:34.000Z</time>
      </trkpt>
      <trkpt lat="44.11225" lon="5.2763">
        <ele>786.40002441406</ele>
        <time>2014-09-20T12:59:45.000Z</time>
      </trkpt>
      <trkpt lat="44.11225" lon="5.27637">
        <ele>787.79998779297</ele>
        <time>2014-09-20T12:59:47.000Z</time>
      </trkpt>
      <trkpt lat="44.11239" lon="5.27637">
        <ele>785.20001220703</ele>
        <time>2014-09-20T12:59:57.000Z</time>
      </trkpt>
      <trkpt lat="44.11241" lon="5.27647">
        <ele>786.79998779297</ele>
        <time>2014-09-20T13:00:25.000Z</time>
      </trkpt>
      <trkpt lat="44.11239" lon="5.27651">
        <ele>787.79998779297</ele>
        <time>2014-09-20T13:00:53.000Z</time>
      </trkpt>
      <trkpt lat="44.11239" lon="5.27654">
        <ele>788.59997558594</ele>
        <time>2014-09-20T13:01:16.000Z</time>
      </trkpt>
      <trkpt lat="44.11238" lon="5.27655">
        <ele>789</ele>
        <time>2014-09-20T13:01:27.000Z</time>
      </trkpt>
      <trkpt lat="44.11242" lon="5.27648">
        <ele>786.79998779297</ele>
        <time>2014-09-20T13:01:31.000Z</time>
      </trkpt>
      <trkpt lat="44.11254" lon="5.27606">
        <ele>781.59997558594</ele>
        <time>2014-09-20T13:01:43.000Z</time>
      </trkpt>
      <trkpt lat="44.11256" lon="5.27575">
        <ele>778.40002441406</ele>
        <time>2014-09-20T13:01:49.000Z</time>
      </trkpt>
      <trkpt lat="44.11267" lon="5.27507">
        <ele>771.20001220703</ele>
        <time>2014-09-20T13:02:02.000Z</time>
      </trkpt>
      <trkpt lat="44.11276" lon="5.27459">
        <ele>766.79998779297</ele>
        <time>2014-09-20T13:02:13.000Z</time>
      </trkpt>
      <trkpt lat="44.11286" lon="5.27445">
        <ele>766.59997558594</ele>
        <time>2014-09-20T13:02:18.000Z</time>
      </trkpt>
      <trkpt lat="44.11304" lon="5.2744">
        <ele>769</ele>
        <time>2014-09-20T13:02:24.000Z</time>
      </trkpt>
      <trkpt lat="44.11342" lon="5.27444">
        <ele>775.40002441406</ele>
        <time>2014-09-20T13:02:36.000Z</time>
      </trkpt>
      <trkpt lat="44.11348" lon="5.27445">
        <ele>776.20001220703</ele>
        <time>2014-09-20T13:02:38.000Z</time>
      </trkpt>
      <trkpt lat="44.11354" lon="5.27432">
        <ele>775</ele>
        <time>2014-09-20T13:02:43.000Z</time>
      </trkpt>
      <trkpt lat="44.11347" lon="5.27381">
        <ele>766.79998779297</ele>
        <time>2014-09-20T13:02:54.000Z</time>
      </trkpt>
      <trkpt lat="44.11338" lon="5.27313">
        <ele>759.79998779297</ele>
        <time>2014-09-20T13:03:07.000Z</time>
      </trkpt>
      <trkpt lat="44.11337" lon="5.27254">
        <ele>757.59997558594</ele>
        <time>2014-09-20T13:03:17.000Z</time>
      </trkpt>
      <trkpt lat="44.11359" lon="5.27202">
        <ele>758.20001220703</ele>
        <time>2014-09-20T13:03:30.000Z</time>
      </trkpt>
      <trkpt lat="44.11398" lon="5.27161">
        <ele>766.40002441406</ele>
        <time>2014-09-20T13:03:44.000Z</time>
      </trkpt>
      <trkpt lat="44.11431" lon="5.27118">
        <ele>769.59997558594</ele>
        <time>2014-09-20T13:03:58.000Z</time>
      </trkpt>
      <trkpt lat="44.11451" lon="5.27075">
        <ele>764</ele>
        <time>2014-09-20T13:04:09.000Z</time>
      </trkpt>
      <trkpt lat="44.11476" lon="5.27038">
        <ele>764.40002441406</ele>
        <time>2014-09-20T13:04:19.000Z</time>
      </trkpt>
      <trkpt lat="44.11523" lon="5.27011">
        <ele>776.59997558594</ele>
        <time>2014-09-20T13:04:32.000Z</time>
      </trkpt>
      <trkpt lat="44.11564" lon="5.27017">
        <ele>784.59997558594</ele>
        <time>2014-09-20T13:04:45.000Z</time>
      </trkpt>
      <trkpt lat="44.11567" lon="5.27016">
        <ele>785</ele>
        <time>2014-09-20T13:04:46.000Z</time>
      </trkpt>
      <trkpt lat="44.11574" lon="5.27005">
        <ele>784</ele>
        <time>2014-09-20T13:04:50.000Z</time>
      </trkpt>
      <trkpt lat="44.11587" lon="5.26965">
        <ele>779.59997558594</ele>
        <time>2014-09-20T13:05:01.000Z</time>
      </trkpt>
      <trkpt lat="44.11597" lon="5.26915">
        <ele>772.79998779297</ele>
        <time>2014-09-20T13:05:14.000Z</time>
      </trkpt>
      <trkpt lat="44.11603" lon="5.26859">
        <ele>767.59997558594</ele>
        <time>2014-09-20T13:05:27.000Z</time>
      </trkpt>
      <trkpt lat="44.11604" lon="5.26854">
        <ele>768</ele>
        <time>2014-09-20T13:05:37.000Z</time>
      </trkpt>
      <trkpt lat="44.11604" lon="5.26853">
        <ele>768</ele>
        <time>2014-09-20T13:06:02.000Z</time>
      </trkpt>
      <trkpt lat="44.11605" lon="5.26853">
        <ele>768.40002441406</ele>
        <time>2014-09-20T13:06:32.000Z</time>
      </trkpt>
      <trkpt lat="44.11605" lon="5.26851">
        <ele>768.20001220703</ele>
        <time>2014-09-20T13:07:00.000Z</time>
      </trkpt>
      <trkpt lat="44.11605" lon="5.26852">
        <ele>768.20001220703</ele>
        <time>2014-09-20T13:07:30.000Z</time>
      </trkpt>
      <trkpt lat="44.11603" lon="5.2685">
        <ele>767.40002441406</ele>
        <time>2014-09-20T13:07:54.000Z</time>
      </trkpt>
      <trkpt lat="44.11603" lon="5.2685">
        <ele>767.59997558594</ele>
        <time>2014-09-20T13:08:23.000Z</time>
      </trkpt>
      <trkpt lat="44.11603" lon="5.26851">
        <ele>767.59997558594</ele>
        <time>2014-09-20T13:08:45.000Z</time>
      </trkpt>
      <trkpt lat="44.11604" lon="5.2685">
        <ele>768</ele>
        <time>2014-09-20T13:09:10.000Z</time>
      </trkpt>
      <trkpt lat="44.11605" lon="5.26851">
        <ele>768.20001220703</ele>
        <time>2014-09-20T13:09:36.000Z</time>
      </trkpt>
      <trkpt lat="44.11604" lon="5.26849">
        <ele>768</ele>
        <time>2014-09-20T13:10:01.000Z</time>
      </trkpt>
      <trkpt lat="44.11606" lon="5.26848">
        <ele>768.59997558594</ele>
        <time>2014-09-20T13:10:32.000Z</time>
      </trkpt>
      <trkpt lat="44.11606" lon="5.26847">
        <ele>768.40002441406</ele>
        <time>2014-09-20T13:10:57.000Z</time>
      </trkpt>
      <trkpt lat="44.11605" lon="5.26848">
        <ele>768.20001220703</ele>
        <time>2014-09-20T13:11:25.000Z</time>
      </trkpt>
      <trkpt lat="44.11604" lon="5.26848">
        <ele>767.59997558594</ele>
        <time>2014-09-20T13:11:51.000Z</time>
      </trkpt>
      <trkpt lat="44.11603" lon="5.26847">
        <ele>767.40002441406</ele>
        <time>2014-09-20T13:11:58.000Z</time>
      </trkpt>
      <trkpt lat="44.11603" lon="5.26841">
        <ele>766.79998779297</ele>
        <time>2014-09-20T13:12:01.000Z</time>
      </trkpt>
      <trkpt lat="44.11601" lon="5.26782">
        <ele>763</ele>
        <time>2014-09-20T13:12:14.000Z</time>
      </trkpt>
      <trkpt lat="44.1161" lon="5.26753">
        <ele>766.20001220703</ele>
        <time>2014-09-20T13:12:19.000Z</time>
      </trkpt>
      <trkpt lat="44.11628" lon="5.26722">
        <ele>769.40002441406</ele>
        <time>2014-09-20T13:12:26.000Z</time>
      </trkpt>
      <trkpt lat="44.11665" lon="5.26675">
        <ele>773.40002441406</ele>
        <time>2014-09-20T13:12:38.000Z</time>
      </trkpt>
      <trkpt lat="44.11679" lon="5.26656">
        <ele>774</ele>
        <time>2014-09-20T13:12:42.000Z</time>
      </trkpt>
      <trkpt lat="44.11688" lon="5.2663">
        <ele>773</ele>
        <time>2014-09-20T13:12:46.000Z</time>
      </trkpt>
      <trkpt lat="44.11704" lon="5.26595">
        <ele>770.79998779297</ele>
        <time>2014-09-20T13:12:53.000Z</time>
      </trkpt>
      <trkpt lat="44.11708" lon="5.26583">
        <ele>770</ele>
        <time>2014-09-20T13:12:55.000Z</time>
      </trkpt>
      <trkpt lat="44.11715" lon="5.26559">
        <ele>767.59997558594</ele>
        <time>2014-09-20T13:13:00.000Z</time>
      </trkpt>
      <trkpt lat="44.11714" lon="5.26553">
        <ele>767</ele>
        <time>2014-09-20T13:13:01.000Z</time>
      </trkpt>
      <trkpt lat="44.11712" lon="5.26547">
        <ele>766.20001220703</ele>
        <time>2014-09-20T13:13:02.000Z</time>
      </trkpt>
      <trkpt lat="44.11712" lon="5.2654">
        <ele>765.79998779297</ele>
        <time>2014-09-20T13:13:03.000Z</time>
      </trkpt>
      <trkpt lat="44.11711" lon="5.26534">
        <ele>765.20001220703</ele>
        <time>2014-09-20T13:13:04.000Z</time>
      </trkpt>
      <trkpt lat="44.11711" lon="5.26529">
        <ele>764.79998779297</ele>
        <time>2014-09-20T13:13:05.000Z</time>
      </trkpt>
      <trkpt lat="44.11709" lon="5.26483">
        <ele>760.79998779297</ele>
        <time>2014-09-20T13:13:11.000Z</time>
      </trkpt>
      <trkpt lat="44.11706" lon="5.26438">
        <ele>757.79998779297</ele>
        <time>2014-09-20T13:13:16.000Z</time>
      </trkpt>
      <trkpt lat="44.11705" lon="5.2643">
        <ele>757.40002441406</ele>
        <time>2014-09-20T13:13:17.000Z</time>
      </trkpt>
      <trkpt lat="44.11698" lon="5.26389">
        <ele>755.40002441406</ele>
        <time>2014-09-20T13:13:22.000Z</time>
      </trkpt>
      <trkpt lat="44.11695" lon="5.26382">
        <ele>755.20001220703</ele>
        <time>2014-09-20T13:13:23.000Z</time>
      </trkpt>
      <trkpt lat="44.11692" lon="5.26376">
        <ele>754.79998779297</ele>
        <time>2014-09-20T13:13:24.000Z</time>
      </trkpt>
      <trkpt lat="44.11688" lon="5.2637">
        <ele>754.40002441406</ele>
        <time>2014-09-20T13:13:25.000Z</time>
      </trkpt>
      <trkpt lat="44.11685" lon="5.26364">
        <ele>754</ele>
        <time>2014-09-20T13:13:26.000Z</time>
      </trkpt>
      <trkpt lat="44.11682" lon="5.26359">
        <ele>753.59997558594</ele>
        <time>2014-09-20T13:13:27.000Z</time>
      </trkpt>
      <trkpt lat="44.11679" lon="5.26354">
        <ele>753.20001220703</ele>
        <time>2014-09-20T13:13:28.000Z</time>
      </trkpt>
      <trkpt lat="44.1167" lon="5.26336">
        <ele>752.20001220703</ele>
        <time>2014-09-20T13:13:31.000Z</time>
      </trkpt>
      <trkpt lat="44.11668" lon="5.2633">
        <ele>751.79998779297</ele>
        <time>2014-09-20T13:13:32.000Z</time>
      </trkpt>
      <trkpt lat="44.11666" lon="5.26323">
        <ele>751.40002441406</ele>
        <time>2014-09-20T13:13:33.000Z</time>
      </trkpt>
      <trkpt lat="44.11651" lon="5.26269">
        <ele>748.59997558594</ele>
        <time>2014-09-20T13:13:40.000Z</time>
      </trkpt>
      <trkpt lat="44.1165" lon="5.26261">
        <ele>748.20001220703</ele>
        <time>2014-09-20T13:13:41.000Z</time>
      </trkpt>
      <trkpt lat="44.11649" lon="5.26251">
        <ele>747.79998779297</ele>
        <time>2014-09-20T13:13:42.000Z</time>
      </trkpt>
      <trkpt lat="44.1165" lon="5.26242">
        <ele>747.20001220703</ele>
        <time>2014-09-20T13:13:43.000Z</time>
      </trkpt>
      <trkpt lat="44.1165" lon="5.26231">
        <ele>746.59997558594</ele>
        <time>2014-09-20T13:13:44.000Z</time>
      </trkpt>
      <trkpt lat="44.11651" lon="5.26222">
        <ele>746</ele>
        <time>2014-09-20T13:13:45.000Z</time>
      </trkpt>
      <trkpt lat="44.11653" lon="5.26212">
        <ele>745.40002441406</ele>
        <time>2014-09-20T13:13:46.000Z</time>
      </trkpt>
      <trkpt lat="44.11655" lon="5.26202">
        <ele>744.59997558594</ele>
        <time>2014-09-20T13:13:47.000Z</time>
      </trkpt>
      <trkpt lat="44.11667" lon="5.26149">
        <ele>740</ele>
        <time>2014-09-20T13:13:53.000Z</time>
      </trkpt>
      <trkpt lat="44.11668" lon="5.26139">
        <ele>739.20001220703</ele>
        <time>2014-09-20T13:13:54.000Z</time>
      </trkpt>
      <trkpt lat="44.1167" lon="5.26108">
        <ele>736.79998779297</ele>
        <time>2014-09-20T13:13:57.000Z</time>
      </trkpt>
      <trkpt lat="44.1167" lon="5.26098">
        <ele>736</ele>
        <time>2014-09-20T13:13:58.000Z</time>
      </trkpt>
      <trkpt lat="44.11669" lon="5.26071">
        <ele>733.59997558594</ele>
        <time>2014-09-20T13:14:01.000Z</time>
      </trkpt>
      <trkpt lat="44.11668" lon="5.26052">
        <ele>732.20001220703</ele>
        <time>2014-09-20T13:14:03.000Z</time>
      </trkpt>
      <trkpt lat="44.11667" lon="5.26042">
        <ele>731.20001220703</ele>
        <time>2014-09-20T13:14:04.000Z</time>
      </trkpt>
      <trkpt lat="44.11659" lon="5.25989">
        <ele>727</ele>
        <time>2014-09-20T13:14:09.000Z</time>
      </trkpt>
      <trkpt lat="44.11658" lon="5.2598">
        <ele>726.20001220703</ele>
        <time>2014-09-20T13:14:10.000Z</time>
      </trkpt>
      <trkpt lat="44.11657" lon="5.25971">
        <ele>725.59997558594</ele>
        <time>2014-09-20T13:14:11.000Z</time>
      </trkpt>
      <trkpt lat="44.11658" lon="5.25961">
        <ele>725</ele>
        <time>2014-09-20T13:14:12.000Z</time>
      </trkpt>
      <trkpt lat="44.11661" lon="5.25952">
        <ele>724.20001220703</ele>
        <time>2014-09-20T13:14:13.000Z</time>
      </trkpt>
      <trkpt lat="44.11663" lon="5.25942">
        <ele>723.59997558594</ele>
        <time>2014-09-20T13:14:14.000Z</time>
      </trkpt>
      <trkpt lat="44.11666" lon="5.25933">
        <ele>722.79998779297</ele>
        <time>2014-09-20T13:14:15.000Z</time>
      </trkpt>
      <trkpt lat="44.11668" lon="5.25923">
        <ele>722.20001220703</ele>
        <time>2014-09-20T13:14:16.000Z</time>
      </trkpt>
      <trkpt lat="44.11674" lon="5.25894">
        <ele>720</ele>
        <time>2014-09-20T13:14:19.000Z</time>
      </trkpt>
      <trkpt lat="44.11675" lon="5.25883">
        <ele>719.20001220703</ele>
        <time>2014-09-20T13:14:20.000Z</time>
      </trkpt>
      <trkpt lat="44.11678" lon="5.25831">
        <ele>715.20001220703</ele>
        <time>2014-09-20T13:14:26.000Z</time>
      </trkpt>
      <trkpt lat="44.1168" lon="5.25826">
        <ele>714.59997558594</ele>
        <time>2014-09-20T13:14:28.000Z</time>
      </trkpt>
      <trkpt lat="44.11681" lon="5.25825">
        <ele>714.59997558594</ele>
        <time>2014-09-20T13:14:30.000Z</time>
      </trkpt>
      <trkpt lat="44.11681" lon="5.25823">
        <ele>714.40002441406</ele>
        <time>2014-09-20T13:14:38.000Z</time>
      </trkpt>
      <trkpt lat="44.1168" lon="5.25819">
        <ele>714</ele>
        <time>2014-09-20T13:15:09.000Z</time>
      </trkpt>
      <trkpt lat="44.11681" lon="5.25813">
        <ele>713.59997558594</ele>
        <time>2014-09-20T13:15:38.000Z</time>
      </trkpt>
      <trkpt lat="44.11683" lon="5.2581">
        <ele>713.40002441406</ele>
        <time>2014-09-20T13:15:40.000Z</time>
      </trkpt>
      <trkpt lat="44.11685" lon="5.25809">
        <ele>713.20001220703</ele>
        <time>2014-09-20T13:15:41.000Z</time>
      </trkpt>
      <trkpt lat="44.11687" lon="5.25807">
        <ele>713</ele>
        <time>2014-09-20T13:15:42.000Z</time>
      </trkpt>
      <trkpt lat="44.11688" lon="5.25805">
        <ele>712.79998779297</ele>
        <time>2014-09-20T13:15:43.000Z</time>
      </trkpt>
      <trkpt lat="44.11691" lon="5.25802">
        <ele>712.59997558594</ele>
        <time>2014-09-20T13:15:44.000Z</time>
      </trkpt>
      <trkpt lat="44.11717" lon="5.2576">
        <ele>710.20001220703</ele>
        <time>2014-09-20T13:15:52.000Z</time>
      </trkpt>
      <trkpt lat="44.1172" lon="5.25752">
        <ele>709.79998779297</ele>
        <time>2014-09-20T13:15:53.000Z</time>
      </trkpt>
      <trkpt lat="44.11723" lon="5.25745">
        <ele>709.40002441406</ele>
        <time>2014-09-20T13:15:54.000Z</time>
      </trkpt>
      <trkpt lat="44.11726" lon="5.25737">
        <ele>708.59997558594</ele>
        <time>2014-09-20T13:15:55.000Z</time>
      </trkpt>
      <trkpt lat="44.11728" lon="5.2573">
        <ele>707.79998779297</ele>
        <time>2014-09-20T13:15:56.000Z</time>
      </trkpt>
      <trkpt lat="44.11729" lon="5.25722">
        <ele>707</ele>
        <time>2014-09-20T13:15:57.000Z</time>
      </trkpt>
      <trkpt lat="44.11729" lon="5.25713">
        <ele>706</ele>
        <time>2014-09-20T13:15:58.000Z</time>
      </trkpt>
      <trkpt lat="44.11727" lon="5.25682">
        <ele>703.40002441406</ele>
        <time>2014-09-20T13:16:01.000Z</time>
      </trkpt>
      <trkpt lat="44.11719" lon="5.25637">
        <ele>699.59997558594</ele>
        <time>2014-09-20T13:16:05.000Z</time>
      </trkpt>
      <trkpt lat="44.11715" lon="5.25627">
        <ele>698.59997558594</ele>
        <time>2014-09-20T13:16:06.000Z</time>
      </trkpt>
      <trkpt lat="44.11706" lon="5.25606">
        <ele>695.40002441406</ele>
        <time>2014-09-20T13:16:08.000Z</time>
      </trkpt>
      <trkpt lat="44.11699" lon="5.25595">
        <ele>693.59997558594</ele>
        <time>2014-09-20T13:16:09.000Z</time>
      </trkpt>
      <trkpt lat="44.11677" lon="5.25557">
        <ele>688.79998779297</ele>
        <time>2014-09-20T13:16:12.000Z</time>
      </trkpt>
      <trkpt lat="44.1166" lon="5.25527">
        <ele>685.20001220703</ele>
        <time>2014-09-20T13:16:15.000Z</time>
      </trkpt>
      <trkpt lat="44.11655" lon="5.25518">
        <ele>684</ele>
        <time>2014-09-20T13:16:16.000Z</time>
      </trkpt>
      <trkpt lat="44.11641" lon="5.25487">
        <ele>680.59997558594</ele>
        <time>2014-09-20T13:16:19.000Z</time>
      </trkpt>
      <trkpt lat="44.11628" lon="5.25456">
        <ele>678.20001220703</ele>
        <time>2014-09-20T13:16:22.000Z</time>
      </trkpt>
      <trkpt lat="44.11618" lon="5.25429">
        <ele>675.20001220703</ele>
        <time>2014-09-20T13:16:25.000Z</time>
      </trkpt>
      <trkpt lat="44.11611" lon="5.25403">
        <ele>672.40002441406</ele>
        <time>2014-09-20T13:16:28.000Z</time>
      </trkpt>
      <trkpt lat="44.11604" lon="5.25366">
        <ele>669</ele>
        <time>2014-09-20T13:16:32.000Z</time>
      </trkpt>
      <trkpt lat="44.11598" lon="5.25343">
        <ele>666.79998779297</ele>
        <time>2014-09-20T13:16:34.000Z</time>
      </trkpt>
      <trkpt lat="44.11587" lon="5.25299">
        <ele>663</ele>
        <time>2014-09-20T13:16:38.000Z</time>
      </trkpt>
      <trkpt lat="44.11579" lon="5.25263">
        <ele>657.40002441406</ele>
        <time>2014-09-20T13:16:41.000Z</time>
      </trkpt>
      <trkpt lat="44.11575" lon="5.2525">
        <ele>656.40002441406</ele>
        <time>2014-09-20T13:16:42.000Z</time>
      </trkpt>
      <trkpt lat="44.11555" lon="5.252">
        <ele>650.59997558594</ele>
        <time>2014-09-20T13:16:46.000Z</time>
      </trkpt>
      <trkpt lat="44.1154" lon="5.25165">
        <ele>645</ele>
        <time>2014-09-20T13:16:49.000Z</time>
      </trkpt>
      <trkpt lat="44.11519" lon="5.2513">
        <ele>639.20001220703</ele>
        <time>2014-09-20T13:16:53.000Z</time>
      </trkpt>
      <trkpt lat="44.11496" lon="5.25093">
        <ele>634</ele>
        <time>2014-09-20T13:16:57.000Z</time>
      </trkpt>
      <trkpt lat="44.11478" lon="5.25069">
        <ele>631</ele>
        <time>2014-09-20T13:17:00.000Z</time>
      </trkpt>
      <trkpt lat="44.11457" lon="5.25046">
        <ele>627.79998779297</ele>
        <time>2014-09-20T13:17:03.000Z</time>
      </trkpt>
      <trkpt lat="44.11438" lon="5.25023">
        <ele>623.79998779297</ele>
        <time>2014-09-20T13:17:06.000Z</time>
      </trkpt>
      <trkpt lat="44.11423" lon="5.24999">
        <ele>620.79998779297</ele>
        <time>2014-09-20T13:17:09.000Z</time>
      </trkpt>
      <trkpt lat="44.11418" lon="5.2499">
        <ele>619.79998779297</ele>
        <time>2014-09-20T13:17:10.000Z</time>
      </trkpt>
      <trkpt lat="44.11408" lon="5.24965">
        <ele>617.20001220703</ele>
        <time>2014-09-20T13:17:13.000Z</time>
      </trkpt>
      <trkpt lat="44.11399" lon="5.24944">
        <ele>614.59997558594</ele>
        <time>2014-09-20T13:17:17.000Z</time>
      </trkpt>
      <trkpt lat="44.11399" lon="5.24944">
        <ele>614.59997558594</ele>
        <time>2014-09-20T13:17:21.000Z</time>
      </trkpt>
      <trkpt lat="44.11399" lon="5.24945">
        <ele>614.79998779297</ele>
        <time>2014-09-20T13:17:25.000Z</time>
      </trkpt>
      <trkpt lat="44.114" lon="5.24946">
        <ele>615</ele>
        <time>2014-09-20T13:17:53.000Z</time>
      </trkpt>
      <trkpt lat="44.11399" lon="5.2495">
        <ele>615.20001220703</ele>
        <time>2014-09-20T13:18:25.000Z</time>
      </trkpt>
      <trkpt lat="44.11396" lon="5.24951">
        <ele>615</ele>
        <time>2014-09-20T13:19:06.000Z</time>
      </trkpt>
      <trkpt lat="44.11397" lon="5.2495">
        <ele>615</ele>
        <time>2014-09-20T13:19:31.000Z</time>
      </trkpt>
      <trkpt lat="44.11398" lon="5.24949">
        <ele>615</ele>
        <time>2014-09-20T13:20:18.000Z</time>
      </trkpt>
      <trkpt lat="44.11399" lon="5.24949">
        <ele>615</ele>
        <time>2014-09-20T13:20:48.000Z</time>
      </trkpt>
      <trkpt lat="44.11398" lon="5.2495">
        <ele>615.20001220703</ele>
        <time>2014-09-20T13:21:16.000Z</time>
      </trkpt>
      <trkpt lat="44.11397" lon="5.24947">
        <ele>614.79998779297</ele>
        <time>2014-09-20T13:21:21.000Z</time>
      </trkpt>
      <trkpt lat="44.11396" lon="5.24945">
        <ele>614.40002441406</ele>
        <time>2014-09-20T13:21:22.000Z</time>
      </trkpt>
      <trkpt lat="44.11394" lon="5.24942">
        <ele>614</ele>
        <time>2014-09-20T13:21:23.000Z</time>
      </trkpt>
      <trkpt lat="44.11392" lon="5.24937">
        <ele>613.59997558594</ele>
        <time>2014-09-20T13:21:24.000Z</time>
      </trkpt>
      <trkpt lat="44.1139" lon="5.24932">
        <ele>613</ele>
        <time>2014-09-20T13:21:25.000Z</time>
      </trkpt>
      <trkpt lat="44.11383" lon="5.24917">
        <ele>611</ele>
        <time>2014-09-20T13:21:28.000Z</time>
      </trkpt>
      <trkpt lat="44.11379" lon="5.24911">
        <ele>610.20001220703</ele>
        <time>2014-09-20T13:21:29.000Z</time>
      </trkpt>
      <trkpt lat="44.11371" lon="5.24898">
        <ele>608.59997558594</ele>
        <time>2014-09-20T13:21:31.000Z</time>
      </trkpt>
      <trkpt lat="44.11351" lon="5.24868">
        <ele>604.20001220703</ele>
        <time>2014-09-20T13:21:36.000Z</time>
      </trkpt>
      <trkpt lat="44.11346" lon="5.24863">
        <ele>603.59997558594</ele>
        <time>2014-09-20T13:21:37.000Z</time>
      </trkpt>
      <trkpt lat="44.11342" lon="5.24856">
        <ele>602.59997558594</ele>
        <time>2014-09-20T13:21:38.000Z</time>
      </trkpt>
      <trkpt lat="44.11321" lon="5.24823">
        <ele>598.40002441406</ele>
        <time>2014-09-20T13:21:43.000Z</time>
      </trkpt>
      <trkpt lat="44.11318" lon="5.24814">
        <ele>597.59997558594</ele>
        <time>2014-09-20T13:21:44.000Z</time>
      </trkpt>
      <trkpt lat="44.11315" lon="5.24795">
        <ele>596</ele>
        <time>2014-09-20T13:21:46.000Z</time>
      </trkpt>
      <trkpt lat="44.11314" lon="5.24786">
        <ele>595.40002441406</ele>
        <time>2014-09-20T13:21:47.000Z</time>
      </trkpt>
      <trkpt lat="44.11315" lon="5.24776">
        <ele>594.79998779297</ele>
        <time>2014-09-20T13:21:48.000Z</time>
      </trkpt>
      <trkpt lat="44.11319" lon="5.24724">
        <ele>593</ele>
        <time>2014-09-20T13:21:53.000Z</time>
      </trkpt>
      <trkpt lat="44.11319" lon="5.247">
        <ele>592.20001220703</ele>
        <time>2014-09-20T13:21:55.000Z</time>
      </trkpt>
      <trkpt lat="44.11318" lon="5.24688">
        <ele>591.59997558594</ele>
        <time>2014-09-20T13:21:56.000Z</time>
      </trkpt>
      <trkpt lat="44.11317" lon="5.24676">
        <ele>591</ele>
        <time>2014-09-20T13:21:57.000Z</time>
      </trkpt>
      <trkpt lat="44.11308" lon="5.2461">
        <ele>587</ele>
        <time>2014-09-20T13:22:03.000Z</time>
      </trkpt>
      <trkpt lat="44.11309" lon="5.24598">
        <ele>586.79998779297</ele>
        <time>2014-09-20T13:22:04.000Z</time>
      </trkpt>
      <trkpt lat="44.11316" lon="5.2454">
        <ele>584</ele>
        <time>2014-09-20T13:22:09.000Z</time>
      </trkpt>
      <trkpt lat="44.11316" lon="5.2453">
        <ele>583.20001220703</ele>
        <time>2014-09-20T13:22:10.000Z</time>
      </trkpt>
      <trkpt lat="44.11314" lon="5.24521">
        <ele>582.40002441406</ele>
        <time>2014-09-20T13:22:11.000Z</time>
      </trkpt>
      <trkpt lat="44.11312" lon="5.24511">
        <ele>581.40002441406</ele>
        <time>2014-09-20T13:22:12.000Z</time>
      </trkpt>
      <trkpt lat="44.11311" lon="5.24501">
        <ele>580.59997558594</ele>
        <time>2014-09-20T13:22:13.000Z</time>
      </trkpt>
      <trkpt lat="44.11307" lon="5.2447">
        <ele>577.79998779297</ele>
        <time>2014-09-20T13:22:16.000Z</time>
      </trkpt>
      <trkpt lat="44.11308" lon="5.24459">
        <ele>577</ele>
        <time>2014-09-20T13:22:17.000Z</time>
      </trkpt>
      <trkpt lat="44.11309" lon="5.24412">
        <ele>573.59997558594</ele>
        <time>2014-09-20T13:22:21.000Z</time>
      </trkpt>
      <trkpt lat="44.11307" lon="5.24386">
        <ele>572.59997558594</ele>
        <time>2014-09-20T13:22:23.000Z</time>
      </trkpt>
      <trkpt lat="44.11298" lon="5.24318">
        <ele>567</ele>
        <time>2014-09-20T13:22:28.000Z</time>
      </trkpt>
      <trkpt lat="44.11291" lon="5.24246">
        <ele>561</ele>
        <time>2014-09-20T13:22:33.000Z</time>
      </trkpt>
      <trkpt lat="44.11291" lon="5.24195">
        <ele>557.79998779297</ele>
        <time>2014-09-20T13:22:37.000Z</time>
      </trkpt>
      <trkpt lat="44.11294" lon="5.24185">
        <ele>557.59997558594</ele>
        <time>2014-09-20T13:22:38.000Z</time>
      </trkpt>
      <trkpt lat="44.11304" lon="5.24159">
        <ele>557.40002441406</ele>
        <time>2014-09-20T13:22:41.000Z</time>
      </trkpt>
      <trkpt lat="44.11311" lon="5.24144">
        <ele>557</ele>
        <time>2014-09-20T13:22:43.000Z</time>
      </trkpt>
      <trkpt lat="44.11314" lon="5.24136">
        <ele>556.59997558594</ele>
        <time>2014-09-20T13:22:44.000Z</time>
      </trkpt>
      <trkpt lat="44.11315" lon="5.24127">
        <ele>556</ele>
        <time>2014-09-20T13:22:45.000Z</time>
      </trkpt>
      <trkpt lat="44.11316" lon="5.24117">
        <ele>555.79998779297</ele>
        <time>2014-09-20T13:22:46.000Z</time>
      </trkpt>
      <trkpt lat="44.11317" lon="5.24108">
        <ele>555.59997558594</ele>
        <time>2014-09-20T13:22:47.000Z</time>
      </trkpt>
      <trkpt lat="44.11318" lon="5.24098">
        <ele>555.40002441406</ele>
        <time>2014-09-20T13:22:48.000Z</time>
      </trkpt>
      <trkpt lat="44.11322" lon="5.24045">
        <ele>551.59997558594</ele>
        <time>2014-09-20T13:22:54.000Z</time>
      </trkpt>
      <trkpt lat="44.11322" lon="5.24005">
        <ele>548.20001220703</ele>
        <time>2014-09-20T13:22:59.000Z</time>
      </trkpt>
      <trkpt lat="44.11322" lon="5.23998">
        <ele>547.59997558594</ele>
        <time>2014-09-20T13:23:00.000Z</time>
      </trkpt>
      <trkpt lat="44.11324" lon="5.23993">
        <ele>547</ele>
        <time>2014-09-20T13:23:01.000Z</time>
      </trkpt>
      <trkpt lat="44.11327" lon="5.23989">
        <ele>546.59997558594</ele>
        <time>2014-09-20T13:23:02.000Z</time>
      </trkpt>
      <trkpt lat="44.1133" lon="5.23987">
        <ele>546.59997558594</ele>
        <time>2014-09-20T13:23:03.000Z</time>
      </trkpt>
      <trkpt lat="44.11333" lon="5.23986">
        <ele>546.59997558594</ele>
        <time>2014-09-20T13:23:04.000Z</time>
      </trkpt>
      <trkpt lat="44.11336" lon="5.23985">
        <ele>546.59997558594</ele>
        <time>2014-09-20T13:23:05.000Z</time>
      </trkpt>
      <trkpt lat="44.11338" lon="5.23985">
        <ele>546.59997558594</ele>
        <time>2014-09-20T13:23:06.000Z</time>
      </trkpt>
      <trkpt lat="44.1134" lon="5.23985">
        <ele>546.79998779297</ele>
        <time>2014-09-20T13:23:07.000Z</time>
      </trkpt>
      <trkpt lat="44.11344" lon="5.23986">
        <ele>547</ele>
        <time>2014-09-20T13:23:19.000Z</time>
      </trkpt>
      <trkpt lat="44.11344" lon="5.23987">
        <ele>547.20001220703</ele>
        <time>2014-09-20T13:23:47.000Z</time>
      </trkpt>
      <trkpt lat="44.11344" lon="5.23987">
        <ele>547</ele>
        <time>2014-09-20T13:24:10.000Z</time>
      </trkpt>
      <trkpt lat="44.11346" lon="5.23986">
        <ele>547</ele>
        <time>2014-09-20T13:24:34.000Z</time>
      </trkpt>
      <trkpt lat="44.11345" lon="5.23986">
        <ele>547</ele>
        <time>2014-09-20T13:25:05.000Z</time>
      </trkpt>
      <trkpt lat="44.11345" lon="5.23986">
        <ele>547</ele>
        <time>2014-09-20T13:25:29.000Z</time>
      </trkpt>
      <trkpt lat="44.11344" lon="5.23984">
        <ele>546.79998779297</ele>
        <time>2014-09-20T13:25:40.000Z</time>
      </trkpt>
      <trkpt lat="44.11343" lon="5.23983">
        <ele>546.59997558594</ele>
        <time>2014-09-20T13:25:41.000Z</time>
      </trkpt>
      <trkpt lat="44.11342" lon="5.23982">
        <ele>546.40002441406</ele>
        <time>2014-09-20T13:25:42.000Z</time>
      </trkpt>
      <trkpt lat="44.11341" lon="5.23983">
        <ele>546.40002441406</ele>
        <time>2014-09-20T13:25:43.000Z</time>
      </trkpt>
      <trkpt lat="44.11339" lon="5.23983">
        <ele>546.59997558594</ele>
        <time>2014-09-20T13:25:44.000Z</time>
      </trkpt>
      <trkpt lat="44.11338" lon="5.23984">
        <ele>546.59997558594</ele>
        <time>2014-09-20T13:25:45.000Z</time>
      </trkpt>
      <trkpt lat="44.11336" lon="5.23984">
        <ele>546.40002441406</ele>
        <time>2014-09-20T13:25:46.000Z</time>
      </trkpt>
      <trkpt lat="44.1132" lon="5.23994">
        <ele>547</ele>
        <time>2014-09-20T13:25:55.000Z</time>
      </trkpt>
      <trkpt lat="44.1132" lon="5.23997">
        <ele>547.20001220703</ele>
        <time>2014-09-20T13:25:56.000Z</time>
      </trkpt>
      <trkpt lat="44.1132" lon="5.2403">
        <ele>550.20001220703</ele>
        <time>2014-09-20T13:26:10.000Z</time>
      </trkpt>
      <trkpt lat="44.11319" lon="5.24039">
        <ele>551</ele>
        <time>2014-09-20T13:26:14.000Z</time>
      </trkpt>
      <trkpt lat="44.11319" lon="5.24042">
        <ele>551.20001220703</ele>
        <time>2014-09-20T13:26:15.000Z</time>
      </trkpt>
      <trkpt lat="44.11319" lon="5.24044">
        <ele>551.40002441406</ele>
        <time>2014-09-20T13:26:16.000Z</time>
      </trkpt>
      <trkpt lat="44.11319" lon="5.24047">
        <ele>551.59997558594</ele>
        <time>2014-09-20T13:26:17.000Z</time>
      </trkpt>
      <trkpt lat="44.11319" lon="5.24049">
        <ele>551.79998779297</ele>
        <time>2014-09-20T13:26:18.000Z</time>
      </trkpt>
      <trkpt lat="44.11318" lon="5.24052">
        <ele>552</ele>
        <time>2014-09-20T13:26:19.000Z</time>
      </trkpt>
      <trkpt lat="44.11316" lon="5.24085">
        <ele>554.59997558594</ele>
        <time>2014-09-20T13:26:32.000Z</time>
      </trkpt>
      <trkpt lat="44.11313" lon="5.2412">
        <ele>555.59997558594</ele>
        <time>2014-09-20T13:26:46.000Z</time>
      </trkpt>
      <trkpt lat="44.11298" lon="5.24162">
        <ele>556.79998779297</ele>
        <time>2014-09-20T13:27:03.000Z</time>
      </trkpt>
      <trkpt lat="44.1129" lon="5.24199">
        <ele>557.79998779297</ele>
        <time>2014-09-20T13:27:15.000Z</time>
      </trkpt>
      <trkpt lat="44.11289" lon="5.24243">
        <ele>560.59997558594</ele>
        <time>2014-09-20T13:27:31.000Z</time>
      </trkpt>
      <trkpt lat="44.11292" lon="5.24286">
        <ele>564.20001220703</ele>
        <time>2014-09-20T13:27:47.000Z</time>
      </trkpt>
      <trkpt lat="44.11294" lon="5.24302">
        <ele>565.40002441406</ele>
        <time>2014-09-20T13:27:53.000Z</time>
      </trkpt>
      <trkpt lat="44.11294" lon="5.24304">
        <ele>565.59997558594</ele>
        <time>2014-09-20T13:27:54.000Z</time>
      </trkpt>
      <trkpt lat="44.11294" lon="5.24307">
        <ele>565.79998779297</ele>
        <time>2014-09-20T13:27:55.000Z</time>
      </trkpt>
      <trkpt lat="44.11295" lon="5.2431">
        <ele>566</ele>
        <time>2014-09-20T13:27:56.000Z</time>
      </trkpt>
      <trkpt lat="44.11295" lon="5.24313">
        <ele>566.20001220703</ele>
        <time>2014-09-20T13:27:57.000Z</time>
      </trkpt>
      <trkpt lat="44.113" lon="5.24349">
        <ele>569.40002441406</ele>
        <time>2014-09-20T13:28:10.000Z</time>
      </trkpt>
      <trkpt lat="44.11306" lon="5.2439">
        <ele>572.59997558594</ele>
        <time>2014-09-20T13:28:24.000Z</time>
      </trkpt>
      <trkpt lat="44.11306" lon="5.24395">
        <ele>572.79998779297</ele>
        <time>2014-09-20T13:28:26.000Z</time>
      </trkpt>
      <trkpt lat="44.11306" lon="5.24398">
        <ele>572.79998779297</ele>
        <time>2014-09-20T13:28:27.000Z</time>
      </trkpt>
      <trkpt lat="44.11306" lon="5.244">
        <ele>573</ele>
        <time>2014-09-20T13:28:28.000Z</time>
      </trkpt>
      <trkpt lat="44.11306" lon="5.24403">
        <ele>573</ele>
        <time>2014-09-20T13:28:29.000Z</time>
      </trkpt>
      <trkpt lat="44.11306" lon="5.24406">
        <ele>573</ele>
        <time>2014-09-20T13:28:30.000Z</time>
      </trkpt>
      <trkpt lat="44.11306" lon="5.24408">
        <ele>573.20001220703</ele>
        <time>2014-09-20T13:28:31.000Z</time>
      </trkpt>
      <trkpt lat="44.11305" lon="5.2442">
        <ele>574</ele>
        <time>2014-09-20T13:28:45.000Z</time>
      </trkpt>
      <trkpt lat="44.11307" lon="5.24416">
        <ele>573.79998779297</ele>
        <time>2014-09-20T13:29:05.000Z</time>
      </trkpt>
      <trkpt lat="44.11304" lon="5.2441">
        <ele>573.20001220703</ele>
        <time>2014-09-20T13:29:27.000Z</time>
      </trkpt>
      <trkpt lat="44.11308" lon="5.24404">
        <ele>573.40002441406</ele>
        <time>2014-09-20T13:29:51.000Z</time>
      </trkpt>
      <trkpt lat="44.11316" lon="5.24398">
        <ele>573.79998779297</ele>
        <time>2014-09-20T13:30:20.000Z</time>
      </trkpt>
      <trkpt lat="44.11312" lon="5.24396">
        <ele>573.40002441406</ele>
        <time>2014-09-20T13:30:38.000Z</time>
      </trkpt>
      <trkpt lat="44.11302" lon="5.24393">
        <ele>572.20001220703</ele>
        <time>2014-09-20T13:31:13.000Z</time>
      </trkpt>
      <trkpt lat="44.11306" lon="5.24402">
        <ele>573</ele>
        <time>2014-09-20T13:31:38.000Z</time>
      </trkpt>
      <trkpt lat="44.11306" lon="5.24406">
        <ele>573</ele>
        <time>2014-09-20T13:31:57.000Z</time>
      </trkpt>
      <trkpt lat="44.11302" lon="5.24408">
        <ele>572.79998779297</ele>
        <time>2014-09-20T13:32:23.000Z</time>
      </trkpt>
      <trkpt lat="44.11306" lon="5.24408">
        <ele>573.20001220703</ele>
        <time>2014-09-20T13:32:42.000Z</time>
      </trkpt>
      <trkpt lat="44.11303" lon="5.24404">
        <ele>572.79998779297</ele>
        <time>2014-09-20T13:33:04.000Z</time>
      </trkpt>
      <trkpt lat="44.11303" lon="5.24405">
        <ele>572.79998779297</ele>
        <time>2014-09-20T13:33:34.000Z</time>
      </trkpt>
      <trkpt lat="44.11306" lon="5.24405">
        <ele>573</ele>
        <time>2014-09-20T13:34:03.000Z</time>
      </trkpt>
      <trkpt lat="44.11303" lon="5.24404">
        <ele>572.79998779297</ele>
        <time>2014-09-20T13:34:25.000Z</time>
      </trkpt>
      <trkpt lat="44.11305" lon="5.24401">
        <ele>572.79998779297</ele>
        <time>2014-09-20T13:34:44.000Z</time>
      </trkpt>
      <trkpt lat="44.11308" lon="5.24402">
        <ele>573.20001220703</ele>
        <time>2014-09-20T13:35:00.000Z</time>
      </trkpt>
      <trkpt lat="44.11311" lon="5.24396">
        <ele>573.40002441406</ele>
        <time>2014-09-20T13:35:03.000Z</time>
      </trkpt>
      <trkpt lat="44.11311" lon="5.24393">
        <ele>573.20001220703</ele>
        <time>2014-09-20T13:35:04.000Z</time>
      </trkpt>
      <trkpt lat="44.11311" lon="5.2439">
        <ele>573</ele>
        <time>2014-09-20T13:35:05.000Z</time>
      </trkpt>
      <trkpt lat="44.1131" lon="5.24387">
        <ele>572.79998779297</ele>
        <time>2014-09-20T13:35:06.000Z</time>
      </trkpt>
      <trkpt lat="44.11309" lon="5.24384">
        <ele>572.59997558594</ele>
        <time>2014-09-20T13:35:07.000Z</time>
      </trkpt>
      <trkpt lat="44.11307" lon="5.2438">
        <ele>572.40002441406</ele>
        <time>2014-09-20T13:35:08.000Z</time>
      </trkpt>
      <trkpt lat="44.11304" lon="5.24369">
        <ele>571.20001220703</ele>
        <time>2014-09-20T13:35:10.000Z</time>
      </trkpt>
      <trkpt lat="44.11299" lon="5.24339">
        <ele>568.59997558594</ele>
        <time>2014-09-20T13:35:14.000Z</time>
      </trkpt>
      <trkpt lat="44.11298" lon="5.24321">
        <ele>567</ele>
        <time>2014-09-20T13:35:16.000Z</time>
      </trkpt>
      <trkpt lat="44.11297" lon="5.24311">
        <ele>566.20001220703</ele>
        <time>2014-09-20T13:35:17.000Z</time>
      </trkpt>
      <trkpt lat="44.11295" lon="5.24289">
        <ele>564.59997558594</ele>
        <time>2014-09-20T13:35:19.000Z</time>
      </trkpt>
      <trkpt lat="44.11294" lon="5.24279">
        <ele>563.79998779297</ele>
        <time>2014-09-20T13:35:20.000Z</time>
      </trkpt>
      <trkpt lat="44.11293" lon="5.2426">
        <ele>562.40002441406</ele>
        <time>2014-09-20T13:35:22.000Z</time>
      </trkpt>
      <trkpt lat="44.11292" lon="5.24251">
        <ele>561.59997558594</ele>
        <time>2014-09-20T13:35:23.000Z</time>
      </trkpt>
      <trkpt lat="44.11292" lon="5.2424">
        <ele>560.79998779297</ele>
        <time>2014-09-20T13:35:24.000Z</time>
      </trkpt>
      <trkpt lat="44.11291" lon="5.2423">
        <ele>560</ele>
        <time>2014-09-20T13:35:25.000Z</time>
      </trkpt>
      <trkpt lat="44.11291" lon="5.2422">
        <ele>559.40002441406</ele>
        <time>2014-09-20T13:35:26.000Z</time>
      </trkpt>
      <trkpt lat="44.11294" lon="5.24188">
        <ele>557.79998779297</ele>
        <time>2014-09-20T13:35:32.000Z</time>
      </trkpt>
      <trkpt lat="44.11294" lon="5.24181">
        <ele>557.40002441406</ele>
        <time>2014-09-20T13:35:46.000Z</time>
      </trkpt>
      <trkpt lat="44.11292" lon="5.24179">
        <ele>557</ele>
        <time>2014-09-20T13:36:00.000Z</time>
      </trkpt>
      <trkpt lat="44.11293" lon="5.24177">
        <ele>557</ele>
        <time>2014-09-20T13:36:32.000Z</time>
      </trkpt>
      <trkpt lat="44.11295" lon="5.2417">
        <ele>556.79998779297</ele>
        <time>2014-09-20T13:36:52.000Z</time>
      </trkpt>
      <trkpt lat="44.11296" lon="5.24168">
        <ele>556.79998779297</ele>
        <time>2014-09-20T13:36:53.000Z</time>
      </trkpt>
      <trkpt lat="44.11297" lon="5.24167">
        <ele>556.79998779297</ele>
        <time>2014-09-20T13:36:54.000Z</time>
      </trkpt>
      <trkpt lat="44.11298" lon="5.24166">
        <ele>557</ele>
        <time>2014-09-20T13:36:55.000Z</time>
      </trkpt>
      <trkpt lat="44.113" lon="5.24166">
        <ele>557.20001220703</ele>
        <time>2014-09-20T13:36:56.000Z</time>
      </trkpt>
      <trkpt lat="44.11319" lon="5.24131">
        <ele>556.79998779297</ele>
        <time>2014-09-20T13:37:06.000Z</time>
      </trkpt>
      <trkpt lat="44.11325" lon="5.24099">
        <ele>556.20001220703</ele>
        <time>2014-09-20T13:37:15.000Z</time>
      </trkpt>
      <trkpt lat="44.11326" lon="5.24085">
        <ele>555.20001220703</ele>
        <time>2014-09-20T13:37:18.000Z</time>
      </trkpt>
      <trkpt lat="44.11326" lon="5.24072">
        <ele>554.20001220703</ele>
        <time>2014-09-20T13:37:20.000Z</time>
      </trkpt>
      <trkpt lat="44.11324" lon="5.24046">
        <ele>551.79998779297</ele>
        <time>2014-09-20T13:37:23.000Z</time>
      </trkpt>
      <trkpt lat="44.11326" lon="5.23998">
        <ele>547.59997558594</ele>
        <time>2014-09-20T13:37:28.000Z</time>
      </trkpt>
      <trkpt lat="44.11328" lon="5.23992">
        <ele>547</ele>
        <time>2014-09-20T13:37:29.000Z</time>
      </trkpt>
      <trkpt lat="44.11331" lon="5.23989">
        <ele>546.79998779297</ele>
        <time>2014-09-20T13:37:30.000Z</time>
      </trkpt>
      <trkpt lat="44.11335" lon="5.23986">
        <ele>546.59997558594</ele>
        <time>2014-09-20T13:37:31.000Z</time>
      </trkpt>
      <trkpt lat="44.11338" lon="5.23985">
        <ele>546.59997558594</ele>
        <time>2014-09-20T13:37:32.000Z</time>
      </trkpt>
      <trkpt lat="44.1134" lon="5.23985">
        <ele>546.59997558594</ele>
        <time>2014-09-20T13:37:33.000Z</time>
      </trkpt>
      <trkpt lat="44.11341" lon="5.23984">
        <ele>546.59997558594</ele>
        <time>2014-09-20T13:37:34.000Z</time>
      </trkpt>
      <trkpt lat="44.11343" lon="5.23982">
        <ele>546.59997558594</ele>
        <time>2014-09-20T13:37:35.000Z</time>
      </trkpt>
      <trkpt lat="44.11364" lon="5.23975">
        <ele>546.59997558594</ele>
        <time>2014-09-20T13:37:43.000Z</time>
      </trkpt>
      <trkpt lat="44.11369" lon="5.23975">
        <ele>546.59997558594</ele>
        <time>2014-09-20T13:37:44.000Z</time>
      </trkpt>
      <trkpt lat="44.11376" lon="5.23975">
        <ele>546.59997558594</ele>
        <time>2014-09-20T13:37:45.000Z</time>
      </trkpt>
      <trkpt lat="44.11405" lon="5.23977">
        <ele>546</ele>
        <time>2014-09-20T13:37:49.000Z</time>
      </trkpt>
      <trkpt lat="44.11419" lon="5.23981">
        <ele>546.20001220703</ele>
        <time>2014-09-20T13:37:51.000Z</time>
      </trkpt>
      <trkpt lat="44.11433" lon="5.23988">
        <ele>547</ele>
        <time>2014-09-20T13:37:53.000Z</time>
      </trkpt>
      <trkpt lat="44.1144" lon="5.23993">
        <ele>547.79998779297</ele>
        <time>2014-09-20T13:37:54.000Z</time>
      </trkpt>
      <trkpt lat="44.11465" lon="5.24016">
        <ele>549.40002441406</ele>
        <time>2014-09-20T13:37:58.000Z</time>
      </trkpt>
      <trkpt lat="44.11479" lon="5.24026">
        <ele>549.79998779297</ele>
        <time>2014-09-20T13:38:00.000Z</time>
      </trkpt>
      <trkpt lat="44.11486" lon="5.24029">
        <ele>549.40002441406</ele>
        <time>2014-09-20T13:38:01.000Z</time>
      </trkpt>
      <trkpt lat="44.11495" lon="5.24029">
        <ele>548.59997558594</ele>
        <time>2014-09-20T13:38:02.000Z</time>
      </trkpt>
      <trkpt lat="44.11503" lon="5.24029">
        <ele>547.59997558594</ele>
        <time>2014-09-20T13:38:03.000Z</time>
      </trkpt>
      <trkpt lat="44.11513" lon="5.24029">
        <ele>546.59997558594</ele>
        <time>2014-09-20T13:38:04.000Z</time>
      </trkpt>
      <trkpt lat="44.11562" lon="5.24025">
        <ele>541.59997558594</ele>
        <time>2014-09-20T13:38:09.000Z</time>
      </trkpt>
      <trkpt lat="44.11571" lon="5.24022">
        <ele>540.40002441406</ele>
        <time>2014-09-20T13:38:10.000Z</time>
      </trkpt>
      <trkpt lat="44.11579" lon="5.24018">
        <ele>538.79998779297</ele>
        <time>2014-09-20T13:38:11.000Z</time>
      </trkpt>
      <trkpt lat="44.11587" lon="5.24012">
        <ele>538</ele>
        <time>2014-09-20T13:38:12.000Z</time>
      </trkpt>
      <trkpt lat="44.11595" lon="5.24006">
        <ele>537.20001220703</ele>
        <time>2014-09-20T13:38:13.000Z</time>
      </trkpt>
      <trkpt lat="44.11601" lon="5.23998">
        <ele>536.40002441406</ele>
        <time>2014-09-20T13:38:14.000Z</time>
      </trkpt>
      <trkpt lat="44.11608" lon="5.2399">
        <ele>535.40002441406</ele>
        <time>2014-09-20T13:38:15.000Z</time>
      </trkpt>
      <trkpt lat="44.11695" lon="5.23886">
        <ele>533.20001220703</ele>
        <time>2014-09-20T13:38:29.000Z</time>
      </trkpt>
      <trkpt lat="44.11723" lon="5.23848">
        <ele>534.20001220703</ele>
        <time>2014-09-20T13:38:35.000Z</time>
      </trkpt>
      <trkpt lat="44.11727" lon="5.23841">
        <ele>534.20001220703</ele>
        <time>2014-09-20T13:38:36.000Z</time>
      </trkpt>
      <trkpt lat="44.11749" lon="5.23737">
        <ele>525</ele>
        <time>2014-09-20T13:38:46.000Z</time>
      </trkpt>
      <trkpt lat="44.11758" lon="5.2366">
        <ele>520.79998779297</ele>
        <time>2014-09-20T13:38:53.000Z</time>
      </trkpt>
      <trkpt lat="44.11757" lon="5.23649">
        <ele>520.20001220703</ele>
        <time>2014-09-20T13:38:54.000Z</time>
      </trkpt>
      <trkpt lat="44.11747" lon="5.23544">
        <ele>514</ele>
        <time>2014-09-20T13:39:03.000Z</time>
      </trkpt>
      <trkpt lat="44.11749" lon="5.23533">
        <ele>513.79998779297</ele>
        <time>2014-09-20T13:39:04.000Z</time>
      </trkpt>
      <trkpt lat="44.11754" lon="5.23523">
        <ele>514.20001220703</ele>
        <time>2014-09-20T13:39:05.000Z</time>
      </trkpt>
      <trkpt lat="44.11759" lon="5.23513">
        <ele>514.59997558594</ele>
        <time>2014-09-20T13:39:06.000Z</time>
      </trkpt>
      <trkpt lat="44.11765" lon="5.23504">
        <ele>515.20001220703</ele>
        <time>2014-09-20T13:39:07.000Z</time>
      </trkpt>
      <trkpt lat="44.11782" lon="5.23478">
        <ele>516.40002441406</ele>
        <time>2014-09-20T13:39:10.000Z</time>
      </trkpt>
      <trkpt lat="44.11787" lon="5.23469">
        <ele>516.20001220703</ele>
        <time>2014-09-20T13:39:11.000Z</time>
      </trkpt>
      <trkpt lat="44.1179" lon="5.23458">
        <ele>515.79998779297</ele>
        <time>2014-09-20T13:39:12.000Z</time>
      </trkpt>
      <trkpt lat="44.11793" lon="5.23448">
        <ele>515.40002441406</ele>
        <time>2014-09-20T13:39:13.000Z</time>
      </trkpt>
      <trkpt lat="44.11795" lon="5.23436">
        <ele>515</ele>
        <time>2014-09-20T13:39:14.000Z</time>
      </trkpt>
      <trkpt lat="44.11804" lon="5.23404">
        <ele>514</ele>
        <time>2014-09-20T13:39:17.000Z</time>
      </trkpt>
      <trkpt lat="44.11808" lon="5.23394">
        <ele>514</ele>
        <time>2014-09-20T13:39:18.000Z</time>
      </trkpt>
      <trkpt lat="44.11814" lon="5.23383">
        <ele>514</ele>
        <time>2014-09-20T13:39:19.000Z</time>
      </trkpt>
      <trkpt lat="44.1182" lon="5.23374">
        <ele>514.40002441406</ele>
        <time>2014-09-20T13:39:20.000Z</time>
      </trkpt>
      <trkpt lat="44.11826" lon="5.23364">
        <ele>515</ele>
        <time>2014-09-20T13:39:21.000Z</time>
      </trkpt>
      <trkpt lat="44.11881" lon="5.2329">
        <ele>513.20001220703</ele>
        <time>2014-09-20T13:39:29.000Z</time>
      </trkpt>
      <trkpt lat="44.11922" lon="5.23231">
        <ele>508.60000610352</ele>
        <time>2014-09-20T13:39:35.000Z</time>
      </trkpt>
      <trkpt lat="44.11962" lon="5.23183">
        <ele>505.60000610352</ele>
        <time>2014-09-20T13:39:40.000Z</time>
      </trkpt>
      <trkpt lat="44.12025" lon="5.23097">
        <ele>502</ele>
        <time>2014-09-20T13:39:48.000Z</time>
      </trkpt>
      <trkpt lat="44.12048" lon="5.23062">
        <ele>500</ele>
        <time>2014-09-20T13:39:51.000Z</time>
      </trkpt>
      <trkpt lat="44.12054" lon="5.23048">
        <ele>498.79998779297</ele>
        <time>2014-09-20T13:39:52.000Z</time>
      </trkpt>
      <trkpt lat="44.12057" lon="5.23032">
        <ele>496.79998779297</ele>
        <time>2014-09-20T13:39:53.000Z</time>
      </trkpt>
      <trkpt lat="44.12059" lon="5.23016">
        <ele>494.79998779297</ele>
        <time>2014-09-20T13:39:54.000Z</time>
      </trkpt>
      <trkpt lat="44.12059" lon="5.23">
        <ele>492.60000610352</ele>
        <time>2014-09-20T13:39:55.000Z</time>
      </trkpt>
      <trkpt lat="44.12057" lon="5.22983">
        <ele>491.20001220703</ele>
        <time>2014-09-20T13:39:56.000Z</time>
      </trkpt>
      <trkpt lat="44.12055" lon="5.22966">
        <ele>490.39999389648</ele>
        <time>2014-09-20T13:39:57.000Z</time>
      </trkpt>
      <trkpt lat="44.12052" lon="5.22949">
        <ele>488.79998779297</ele>
        <time>2014-09-20T13:39:58.000Z</time>
      </trkpt>
      <trkpt lat="44.12042" lon="5.22879">
        <ele>481</ele>
        <time>2014-09-20T13:40:02.000Z</time>
      </trkpt>
      <trkpt lat="44.12033" lon="5.22825">
        <ele>478.60000610352</ele>
        <time>2014-09-20T13:40:05.000Z</time>
      </trkpt>
      <trkpt lat="44.12025" lon="5.22752">
        <ele>476.79998779297</ele>
        <time>2014-09-20T13:40:09.000Z</time>
      </trkpt>
      <trkpt lat="44.12026" lon="5.22734">
        <ele>476.79998779297</ele>
        <time>2014-09-20T13:40:10.000Z</time>
      </trkpt>
      <trkpt lat="44.12032" lon="5.22661">
        <ele>474</ele>
        <time>2014-09-20T13:40:14.000Z</time>
      </trkpt>
      <trkpt lat="44.12041" lon="5.22587">
        <ele>469.39999389648</ele>
        <time>2014-09-20T13:40:18.000Z</time>
      </trkpt>
      <trkpt lat="44.12053" lon="5.22498">
        <ele>464.60000610352</ele>
        <time>2014-09-20T13:40:23.000Z</time>
      </trkpt>
      <trkpt lat="44.12058" lon="5.2243">
        <ele>462.39999389648</ele>
        <time>2014-09-20T13:40:27.000Z</time>
      </trkpt>
      <trkpt lat="44.12057" lon="5.22414">
        <ele>461.79998779297</ele>
        <time>2014-09-20T13:40:28.000Z</time>
      </trkpt>
      <trkpt lat="44.12054" lon="5.22397">
        <ele>460.79998779297</ele>
        <time>2014-09-20T13:40:29.000Z</time>
      </trkpt>
      <trkpt lat="44.12042" lon="5.22334">
        <ele>458</ele>
        <time>2014-09-20T13:40:33.000Z</time>
      </trkpt>
      <trkpt lat="44.1203" lon="5.22274">
        <ele>456</ele>
        <time>2014-09-20T13:40:37.000Z</time>
      </trkpt>
      <trkpt lat="44.1203" lon="5.22259">
        <ele>455.79998779297</ele>
        <time>2014-09-20T13:40:38.000Z</time>
      </trkpt>
      <trkpt lat="44.1203" lon="5.22244">
        <ele>455.60000610352</ele>
        <time>2014-09-20T13:40:39.000Z</time>
      </trkpt>
      <trkpt lat="44.12032" lon="5.2223">
        <ele>455.60000610352</ele>
        <time>2014-09-20T13:40:40.000Z</time>
      </trkpt>
      <trkpt lat="44.12035" lon="5.22215">
        <ele>455.39999389648</ele>
        <time>2014-09-20T13:40:41.000Z</time>
      </trkpt>
      <trkpt lat="44.12039" lon="5.222">
        <ele>454.39999389648</ele>
        <time>2014-09-20T13:40:42.000Z</time>
      </trkpt>
      <trkpt lat="44.12067" lon="5.22116">
        <ele>449.79998779297</ele>
        <time>2014-09-20T13:40:48.000Z</time>
      </trkpt>
      <trkpt lat="44.12102" lon="5.22023">
        <ele>446.79998779297</ele>
        <time>2014-09-20T13:40:55.000Z</time>
      </trkpt>
      <trkpt lat="44.12132" lon="5.21942">
        <ele>444.39999389648</ele>
        <time>2014-09-20T13:41:01.000Z</time>
      </trkpt>
      <trkpt lat="44.12158" lon="5.21857">
        <ele>439.60000610352</ele>
        <time>2014-09-20T13:41:07.000Z</time>
      </trkpt>
      <trkpt lat="44.12182" lon="5.21776">
        <ele>434.20001220703</ele>
        <time>2014-09-20T13:41:12.000Z</time>
      </trkpt>
      <trkpt lat="44.12203" lon="5.21707">
        <ele>429.79998779297</ele>
        <time>2014-09-20T13:41:16.000Z</time>
      </trkpt>
      <trkpt lat="44.12218" lon="5.21654">
        <ele>426.20001220703</ele>
        <time>2014-09-20T13:41:19.000Z</time>
      </trkpt>
      <trkpt lat="44.12226" lon="5.21618">
        <ele>423.20001220703</ele>
        <time>2014-09-20T13:41:21.000Z</time>
      </trkpt>
      <trkpt lat="44.12228" lon="5.216">
        <ele>422.20001220703</ele>
        <time>2014-09-20T13:41:22.000Z</time>
      </trkpt>
      <trkpt lat="44.12228" lon="5.21581">
        <ele>421.39999389648</ele>
        <time>2014-09-20T13:41:23.000Z</time>
      </trkpt>
      <trkpt lat="44.12225" lon="5.21563">
        <ele>420.20001220703</ele>
        <time>2014-09-20T13:41:24.000Z</time>
      </trkpt>
      <trkpt lat="44.12221" lon="5.21544">
        <ele>419</ele>
        <time>2014-09-20T13:41:25.000Z</time>
      </trkpt>
      <trkpt lat="44.12215" lon="5.21526">
        <ele>418.39999389648</ele>
        <time>2014-09-20T13:41:26.000Z</time>
      </trkpt>
      <trkpt lat="44.12209" lon="5.21508">
        <ele>417.60000610352</ele>
        <time>2014-09-20T13:41:27.000Z</time>
      </trkpt>
      <trkpt lat="44.12175" lon="5.21419">
        <ele>413.20001220703</ele>
        <time>2014-09-20T13:41:32.000Z</time>
      </trkpt>
      <trkpt lat="44.12136" lon="5.21341">
        <ele>408.60000610352</ele>
        <time>2014-09-20T13:41:37.000Z</time>
      </trkpt>
      <trkpt lat="44.12104" lon="5.21282">
        <ele>405.60000610352</ele>
        <time>2014-09-20T13:41:41.000Z</time>
      </trkpt>
      <trkpt lat="44.12081" lon="5.21238">
        <ele>403.79998779297</ele>
        <time>2014-09-20T13:41:44.000Z</time>
      </trkpt>
      <trkpt lat="44.12051" lon="5.21182">
        <ele>401.79998779297</ele>
        <time>2014-09-20T13:41:48.000Z</time>
      </trkpt>
      <trkpt lat="44.12045" lon="5.21169">
        <ele>401.39999389648</ele>
        <time>2014-09-20T13:41:49.000Z</time>
      </trkpt>
      <trkpt lat="44.12039" lon="5.21154">
        <ele>400.79998779297</ele>
        <time>2014-09-20T13:41:50.000Z</time>
      </trkpt>
      <trkpt lat="44.12035" lon="5.21137">
        <ele>400.39999389648</ele>
        <time>2014-09-20T13:41:51.000Z</time>
      </trkpt>
      <trkpt lat="44.12018" lon="5.21048">
        <ele>393.79998779297</ele>
        <time>2014-09-20T13:41:56.000Z</time>
      </trkpt>
      <trkpt lat="44.12003" lon="5.20958">
        <ele>388.20001220703</ele>
        <time>2014-09-20T13:42:01.000Z</time>
      </trkpt>
      <trkpt lat="44.11995" lon="5.20907">
        <ele>386.60000610352</ele>
        <time>2014-09-20T13:42:04.000Z</time>
      </trkpt>
      <trkpt lat="44.11994" lon="5.2089">
        <ele>386</ele>
        <time>2014-09-20T13:42:05.000Z</time>
      </trkpt>
      <trkpt lat="44.11994" lon="5.20873">
        <ele>385.60000610352</ele>
        <time>2014-09-20T13:42:06.000Z</time>
      </trkpt>
      <trkpt lat="44.11995" lon="5.20856">
        <ele>385.39999389648</ele>
        <time>2014-09-20T13:42:07.000Z</time>
      </trkpt>
      <trkpt lat="44.11996" lon="5.2084">
        <ele>384.79998779297</ele>
        <time>2014-09-20T13:42:08.000Z</time>
      </trkpt>
      <trkpt lat="44.12004" lon="5.20762">
        <ele>382.60000610352</ele>
        <time>2014-09-20T13:42:13.000Z</time>
      </trkpt>
      <trkpt lat="44.12015" lon="5.20643">
        <ele>379.20001220703</ele>
        <time>2014-09-20T13:42:21.000Z</time>
      </trkpt>
      <trkpt lat="44.1202" lon="5.20539">
        <ele>377.79998779297</ele>
        <time>2014-09-20T13:42:28.000Z</time>
      </trkpt>
      <trkpt lat="44.12012" lon="5.20391">
        <ele>374.20001220703</ele>
        <time>2014-09-20T13:42:37.000Z</time>
      </trkpt>
      <trkpt lat="44.12" lon="5.20264">
        <ele>368</ele>
        <time>2014-09-20T13:42:45.000Z</time>
      </trkpt>
      <trkpt lat="44.11989" lon="5.20166">
        <ele>365</ele>
        <time>2014-09-20T13:42:51.000Z</time>
      </trkpt>
      <trkpt lat="44.11984" lon="5.20151">
        <ele>364.39999389648</ele>
        <time>2014-09-20T13:42:52.000Z</time>
      </trkpt>
      <trkpt lat="44.11977" lon="5.20137">
        <ele>363.79998779297</ele>
        <time>2014-09-20T13:42:53.000Z</time>
      </trkpt>
      <trkpt lat="44.11969" lon="5.20124">
        <ele>363</ele>
        <time>2014-09-20T13:42:54.000Z</time>
      </trkpt>
      <trkpt lat="44.11961" lon="5.20112">
        <ele>362.20001220703</ele>
        <time>2014-09-20T13:42:55.000Z</time>
      </trkpt>
      <trkpt lat="44.11933" lon="5.20081">
        <ele>360.20001220703</ele>
        <time>2014-09-20T13:42:58.000Z</time>
      </trkpt>
      <trkpt lat="44.11922" lon="5.20074">
        <ele>359.79998779297</ele>
        <time>2014-09-20T13:42:59.000Z</time>
      </trkpt>
      <trkpt lat="44.1187" lon="5.20043">
        <ele>358</ele>
        <time>2014-09-20T13:43:04.000Z</time>
      </trkpt>
      <trkpt lat="44.11861" lon="5.20036">
        <ele>357.79998779297</ele>
        <time>2014-09-20T13:43:05.000Z</time>
      </trkpt>
      <trkpt lat="44.11854" lon="5.20027">
        <ele>357.39999389648</ele>
        <time>2014-09-20T13:43:06.000Z</time>
      </trkpt>
      <trkpt lat="44.1185" lon="5.20015">
        <ele>357.20001220703</ele>
        <time>2014-09-20T13:43:07.000Z</time>
      </trkpt>
      <trkpt lat="44.11849" lon="5.20002">
        <ele>356.79998779297</ele>
        <time>2014-09-20T13:43:08.000Z</time>
      </trkpt>
      <trkpt lat="44.11851" lon="5.19989">
        <ele>356.60000610352</ele>
        <time>2014-09-20T13:43:09.000Z</time>
      </trkpt>
      <trkpt lat="44.11855" lon="5.19976">
        <ele>356.20001220703</ele>
        <time>2014-09-20T13:43:10.000Z</time>
      </trkpt>
      <trkpt lat="44.11859" lon="5.19963">
        <ele>356</ele>
        <time>2014-09-20T13:43:11.000Z</time>
      </trkpt>
      <trkpt lat="44.11884" lon="5.19898">
        <ele>353.39999389648</ele>
        <time>2014-09-20T13:43:16.000Z</time>
      </trkpt>
      <trkpt lat="44.11919" lon="5.19829">
        <ele>351.20001220703</ele>
        <time>2014-09-20T13:43:22.000Z</time>
      </trkpt>
      <trkpt lat="44.11966" lon="5.19739">
        <ele>350</ele>
        <time>2014-09-20T13:43:31.000Z</time>
      </trkpt>
      <trkpt lat="44.12036" lon="5.19582">
        <ele>344.79998779297</ele>
        <time>2014-09-20T13:43:45.000Z</time>
      </trkpt>
      <trkpt lat="44.12074" lon="5.19468">
        <ele>340.39999389648</ele>
        <time>2014-09-20T13:43:54.000Z</time>
      </trkpt>
      <trkpt lat="44.1211" lon="5.19339">
        <ele>336.60000610352</ele>
        <time>2014-09-20T13:44:04.000Z</time>
      </trkpt>
      <trkpt lat="44.12148" lon="5.19207">
        <ele>333.79998779297</ele>
        <time>2014-09-20T13:44:15.000Z</time>
      </trkpt>
      <trkpt lat="44.12193" lon="5.19093">
        <ele>332.60000610352</ele>
        <time>2014-09-20T13:44:26.000Z</time>
      </trkpt>
      <trkpt lat="44.12226" lon="5.19019">
        <ele>332.79998779297</ele>
        <time>2014-09-20T13:44:33.000Z</time>
      </trkpt>
      <trkpt lat="44.12232" lon="5.1901">
        <ele>332.79998779297</ele>
        <time>2014-09-20T13:44:34.000Z</time>
      </trkpt>
      <trkpt lat="44.12239" lon="5.19001">
        <ele>333</ele>
        <time>2014-09-20T13:44:35.000Z</time>
      </trkpt>
      <trkpt lat="44.12247" lon="5.18994">
        <ele>333</ele>
        <time>2014-09-20T13:44:36.000Z</time>
      </trkpt>
      <trkpt lat="44.12254" lon="5.18987">
        <ele>333</ele>
        <time>2014-09-20T13:44:37.000Z</time>
      </trkpt>
      <trkpt lat="44.12328" lon="5.18921">
        <ele>332.39999389648</ele>
        <time>2014-09-20T13:44:46.000Z</time>
      </trkpt>
      <trkpt lat="44.12336" lon="5.18911">
        <ele>332</ele>
        <time>2014-09-20T13:44:47.000Z</time>
      </trkpt>
      <trkpt lat="44.12343" lon="5.189">
        <ele>331.79998779297</ele>
        <time>2014-09-20T13:44:48.000Z</time>
      </trkpt>
      <trkpt lat="44.1235" lon="5.18888">
        <ele>331.20001220703</ele>
        <time>2014-09-20T13:44:49.000Z</time>
      </trkpt>
      <trkpt lat="44.12355" lon="5.18875">
        <ele>330.60000610352</ele>
        <time>2014-09-20T13:44:50.000Z</time>
      </trkpt>
      <trkpt lat="44.1236" lon="5.18861">
        <ele>329.39999389648</ele>
        <time>2014-09-20T13:44:51.000Z</time>
      </trkpt>
      <trkpt lat="44.12364" lon="5.18847">
        <ele>328</ele>
        <time>2014-09-20T13:44:52.000Z</time>
      </trkpt>
      <trkpt lat="44.12368" lon="5.18832">
        <ele>326.60000610352</ele>
        <time>2014-09-20T13:44:53.000Z</time>
      </trkpt>
      <trkpt lat="44.12391" lon="5.1872">
        <ele>318.20001220703</ele>
        <time>2014-09-20T13:45:00.000Z</time>
      </trkpt>
      <trkpt lat="44.12413" lon="5.18623">
        <ele>314.60000610352</ele>
        <time>2014-09-20T13:45:06.000Z</time>
      </trkpt>
      <trkpt lat="44.12441" lon="5.18495">
        <ele>314</ele>
        <time>2014-09-20T13:45:15.000Z</time>
      </trkpt>
      <trkpt lat="44.12466" lon="5.1838">
        <ele>313.60000610352</ele>
        <time>2014-09-20T13:45:25.000Z</time>
      </trkpt>
      <trkpt lat="44.12507" lon="5.18199">
        <ele>310.39999389648</ele>
        <time>2014-09-20T13:45:42.000Z</time>
      </trkpt>
      <trkpt lat="44.12535" lon="5.18077">
        <ele>311.20001220703</ele>
        <time>2014-09-20T13:45:55.000Z</time>
      </trkpt>
      <trkpt lat="44.12539" lon="5.18061">
        <ele>311.20001220703</ele>
        <time>2014-09-20T13:45:57.000Z</time>
      </trkpt>
      <trkpt lat="44.12539" lon="5.18052">
        <ele>311.20001220703</ele>
        <time>2014-09-20T13:45:58.000Z</time>
      </trkpt>
      <trkpt lat="44.12538" lon="5.18044">
        <ele>311.20001220703</ele>
        <time>2014-09-20T13:45:59.000Z</time>
      </trkpt>
      <trkpt lat="44.12535" lon="5.1803">
        <ele>311.60000610352</ele>
        <time>2014-09-20T13:46:01.000Z</time>
      </trkpt>
      <trkpt lat="44.12533" lon="5.18025">
        <ele>311.79998779297</ele>
        <time>2014-09-20T13:46:02.000Z</time>
      </trkpt>
      <trkpt lat="44.1253" lon="5.18023">
        <ele>311.79998779297</ele>
        <time>2014-09-20T13:46:03.000Z</time>
      </trkpt>
      <trkpt lat="44.12526" lon="5.18023">
        <ele>311.79998779297</ele>
        <time>2014-09-20T13:46:04.000Z</time>
      </trkpt>
      <trkpt lat="44.12523" lon="5.18023">
        <ele>311.79998779297</ele>
        <time>2014-09-20T13:46:05.000Z</time>
      </trkpt>
      <trkpt lat="44.12521" lon="5.18021">
        <ele>312</ele>
        <time>2014-09-20T13:46:06.000Z</time>
      </trkpt>
      <trkpt lat="44.12519" lon="5.18018">
        <ele>312.20001220703</ele>
        <time>2014-09-20T13:46:07.000Z</time>
      </trkpt>
      <trkpt lat="44.12518" lon="5.18014">
        <ele>312.39999389648</ele>
        <time>2014-09-20T13:46:08.000Z</time>
      </trkpt>
      <trkpt lat="44.12518" lon="5.18009">
        <ele>312.39999389648</ele>
        <time>2014-09-20T13:46:09.000Z</time>
      </trkpt>
      <trkpt lat="44.12519" lon="5.18005">
        <ele>312.60000610352</ele>
        <time>2014-09-20T13:46:10.000Z</time>
      </trkpt>
      <trkpt lat="44.12521" lon="5.18">
        <ele>312.79998779297</ele>
        <time>2014-09-20T13:46:11.000Z</time>
      </trkpt>
      <trkpt lat="44.12542" lon="5.17958">
        <ele>314</ele>
        <time>2014-09-20T13:46:23.000Z</time>
      </trkpt>
      <trkpt lat="44.12571" lon="5.1794">
        <ele>314.60000610352</ele>
        <time>2014-09-20T13:46:33.000Z</time>
      </trkpt>
      <trkpt lat="44.12574" lon="5.17939">
        <ele>314.39999389648</ele>
        <time>2014-09-20T13:46:34.000Z</time>
      </trkpt>
      <trkpt lat="44.12576" lon="5.17941">
        <ele>314.39999389648</ele>
        <time>2014-09-20T13:46:35.000Z</time>
      </trkpt>
      <trkpt lat="44.12578" lon="5.17943">
        <ele>314.20001220703</ele>
        <time>2014-09-20T13:46:36.000Z</time>
      </trkpt>
      <trkpt lat="44.1258" lon="5.17945">
        <ele>314.20001220703</ele>
        <time>2014-09-20T13:46:37.000Z</time>
      </trkpt>
      <trkpt lat="44.12581" lon="5.1795">
        <ele>313.79998779297</ele>
        <time>2014-09-20T13:46:38.000Z</time>
      </trkpt>
      <trkpt lat="44.12582" lon="5.17954">
        <ele>313.79998779297</ele>
        <time>2014-09-20T13:46:39.000Z</time>
      </trkpt>
      <trkpt lat="44.12584" lon="5.17957">
        <ele>313.60000610352</ele>
        <time>2014-09-20T13:46:40.000Z</time>
      </trkpt>
      <trkpt lat="44.12585" lon="5.17962">
        <ele>313.20001220703</ele>
        <time>2014-09-20T13:46:42.000Z</time>
      </trkpt>
      <trkpt lat="44.12584" lon="5.17964">
        <ele>313.20001220703</ele>
        <time>2014-09-20T13:46:43.000Z</time>
      </trkpt>
      <trkpt lat="44.12582" lon="5.17967">
        <ele>313.20001220703</ele>
        <time>2014-09-20T13:46:44.000Z</time>
      </trkpt>
      <trkpt lat="44.1258" lon="5.1797">
        <ele>313.20001220703</ele>
        <time>2014-09-20T13:46:45.000Z</time>
      </trkpt>
      <trkpt lat="44.12577" lon="5.17973">
        <ele>313.20001220703</ele>
        <time>2014-09-20T13:46:46.000Z</time>
      </trkpt>
      <trkpt lat="44.12575" lon="5.17975">
        <ele>313.20001220703</ele>
        <time>2014-09-20T13:46:47.000Z</time>
      </trkpt>
      <trkpt lat="44.12571" lon="5.17978">
        <ele>313.20001220703</ele>
        <time>2014-09-20T13:46:48.000Z</time>
      </trkpt>
      <trkpt lat="44.12546" lon="5.18004">
        <ele>312.60000610352</ele>
        <time>2014-09-20T13:46:58.000Z</time>
      </trkpt>
      <trkpt lat="44.12542" lon="5.18004">
        <ele>312.60000610352</ele>
        <time>2014-09-20T13:47:20.000Z</time>
      </trkpt>
      <trkpt lat="44.12534" lon="5.18002">
        <ele>312.60000610352</ele>
        <time>2014-09-20T13:47:52.000Z</time>
      </trkpt>
      <trkpt lat="44.12535" lon="5.18006">
        <ele>312.39999389648</ele>
        <time>2014-09-20T13:48:11.000Z</time>
      </trkpt>
      <trkpt lat="44.1254" lon="5.18011">
        <ele>312.39999389648</ele>
        <time>2014-09-20T13:48:32.000Z</time>
      </trkpt>
      <trkpt lat="44.12543" lon="5.18013">
        <ele>312.39999389648</ele>
        <time>2014-09-20T13:49:01.000Z</time>
      </trkpt>
      <trkpt lat="44.1254" lon="5.18014">
        <ele>312.20001220703</ele>
        <time>2014-09-20T13:49:29.000Z</time>
      </trkpt>
      <trkpt lat="44.12543" lon="5.18017">
        <ele>312.20001220703</ele>
        <time>2014-09-20T13:49:56.000Z</time>
      </trkpt>
      <trkpt lat="44.12542" lon="5.18016">
        <ele>312.20001220703</ele>
        <time>2014-09-20T13:49:59.000Z</time>
      </trkpt>
      <trkpt lat="44.12543" lon="5.18013">
        <ele>312.39999389648</ele>
        <time>2014-09-20T13:50:29.000Z</time>
      </trkpt>
      <trkpt lat="44.1254" lon="5.18013">
        <ele>312.20001220703</ele>
        <time>2014-09-20T13:50:56.000Z</time>
      </trkpt>
      <trkpt lat="44.12544" lon="5.18008">
        <ele>312.60000610352</ele>
        <time>2014-09-20T13:51:17.000Z</time>
      </trkpt>
      <trkpt lat="44.12548" lon="5.18009">
        <ele>312.60000610352</ele>
        <time>2014-09-20T13:51:47.000Z</time>
      </trkpt>
      <trkpt lat="44.12548" lon="5.18009">
        <ele>312.60000610352</ele>
        <time>2014-09-20T13:52:16.000Z</time>
      </trkpt>
      <trkpt lat="44.12548" lon="5.18006">
        <ele>312.60000610352</ele>
        <time>2014-09-20T13:52:45.000Z</time>
      </trkpt>
      <trkpt lat="44.12549" lon="5.18005">
        <ele>312.60000610352</ele>
        <time>2014-09-20T13:53:16.000Z</time>
      </trkpt>
      <trkpt lat="44.12548" lon="5.18006">
        <ele>312.60000610352</ele>
        <time>2014-09-20T13:53:38.000Z</time>
      </trkpt>
      <trkpt lat="44.12545" lon="5.18006">
        <ele>312.60000610352</ele>
        <time>2014-09-20T13:54:09.000Z</time>
      </trkpt>
      <trkpt lat="44.12544" lon="5.18009">
        <ele>312.39999389648</ele>
        <time>2014-09-20T13:54:34.000Z</time>
      </trkpt>
      <trkpt lat="44.12544" lon="5.1801">
        <ele>312.39999389648</ele>
        <time>2014-09-20T13:54:41.000Z</time>
      </trkpt>
      <trkpt lat="44.18496" lon="5.26307">
        <ele>1370.4000244141</ele>
        <time>2014-09-20T15:54:05.000Z</time>
      </trkpt>
      <trkpt lat="44.18495" lon="5.26307">
        <ele>1370.5999755859</ele>
        <time>2014-09-20T15:54:06.000Z</time>
      </trkpt>
    </trkseg>
  </trk>
</gpx>